GFSSW_sfc_wetblb_000.txt.gz
Wetbulb
57.07 57.22 57.29 57.41 57.50 57.45 56.95 57.06 57.55 57.84 58.37 58.96 59.12 59.00 59.05 59.37 58.88 56.19 52.53 56.34 58.58 65.76 64.56 63.00 58.65 57.64 54.96 52.25 54.58 50.48 44.01 40.78 42.63 39.91 41.86 42.14 41.48 44.97 48.36 47.56 48.48 48.73 48.05 49.02 49.43
55.86 56.19 56.25 56.48 56.38 56.75 56.35 56.36 56.56 57.53 58.03 58.66 58.66 58.54 58.69 59.04 55.21 52.66 59.81 64.98 65.69 67.71 56.91 55.84 53.47 54.18 50.08 49.66 50.74 48.01 42.49 44.39 47.10 43.73 43.14 43.30 43.40 45.98 46.79 46.97 45.96 46.72 49.00 49.82 49.72
55.31 55.22 55.42 55.63 55.73 56.11 55.93 55.83 55.93 56.58 57.58 57.82 57.94 57.84 58.39 57.89 51.85 52.34 65.76 65.05 66.69 67.29 57.70 56.42 54.34 53.03 47.56 48.18 48.58 47.12 45.83 47.56 48.27 46.50 45.48 44.26 42.93 46.21 45.85 43.75 46.05 45.02 47.10 48.13 48.14
55.22 55.07 54.95 55.00 55.06 55.16 55.07 55.26 55.52 56.03 56.21 56.43 57.12 57.33 58.15 54.94 41.73 53.22 69.90 69.18 67.68 63.15 56.60 53.86 51.19 47.57 45.49 45.81 48.42 45.13 49.33 48.64 48.81 48.56 44.89 44.49 46.16 46.88 46.33 46.56 49.66 48.27 48.63 47.84 47.42
54.65 54.78 54.74 54.70 54.64 54.68 55.12 54.94 55.08 55.37 55.13 55.52 56.37 57.37 55.10 47.73 49.06 58.13 69.20 68.50 63.30 58.61 55.51 53.24 50.19 47.77 44.88 46.88 48.14 46.70 47.61 47.81 47.39 45.13 45.81 46.60 45.64 45.95 46.56 49.38 49.94 48.65 48.58 47.65 47.16
53.78 53.99 54.07 54.28 53.99 53.91 54.40 54.64 54.82 54.93 54.82 55.20 56.23 57.23 49.51 42.39 53.20 55.59 59.38 62.10 60.64 56.53 54.99 54.07 52.33 51.93 48.42 47.79 47.43 49.22 47.21 46.79 45.07 43.65 44.76 45.20 44.80 46.09 47.48 49.51 48.43 47.62 46.87 47.31 47.95
53.27 53.29 53.58 53.41 53.15 53.07 53.81 53.86 53.59 53.76 54.49 55.64 56.24 55.63 49.61 44.77 52.00 57.48 60.20 57.12 58.41 57.54 54.41 54.69 54.17 52.25 49.98 47.63 49.12 47.02 44.49 46.17 45.71 44.29 44.15 45.60 43.26 44.46 47.96 48.29 46.51 46.30 46.59 47.42 47.95
53.64 53.49 53.16 52.98 52.84 52.74 53.03 53.45 53.33 53.80 55.32 56.21 57.33 54.13 44.54 51.92 53.34 50.86 51.34 53.98 56.98 58.11 55.82 55.49 54.42 51.97 50.88 50.68 48.49 44.47 42.39 39.00 43.85 45.50 45.90 44.77 39.90 45.50 47.74 46.86 45.33 45.74 46.34 47.02 47.60
53.41 53.31 53.00 52.96 52.82 52.71 52.85 52.87 53.15 54.10 58.51 58.44 53.49 49.05 43.62 54.64 53.17 53.81 53.20 52.18 55.60 56.04 55.90 57.40 52.36 49.13 47.80 44.67 42.50 42.71 39.68 40.36 42.88 45.50 44.59 42.93 41.53 45.43 47.02 46.84 45.08 44.69 45.81 46.57 46.99
53.50 53.16 53.24 52.73 52.44 52.64 52.45 51.97 51.95 53.57 57.80 57.55 55.96 44.43 45.01 44.58 51.70 53.92 54.50 55.48 53.74 53.22 52.12 50.94 47.06 44.12 41.54 40.57 36.46 38.59 39.04 40.89 40.91 43.97 43.31 41.21 41.66 43.88 46.72 46.52 45.55 44.47 45.43 46.10 46.99
53.65 53.22 52.81 52.91 52.17 52.13 49.32 43.96 44.61 46.50 50.38 44.79 43.69 44.27 48.03 52.22 53.19 52.69 55.95 54.89 53.35 49.87 44.92 46.28 42.79 39.70 41.93 43.49 44.41 43.42 41.26 40.95 43.66 45.56 42.63 42.03 42.10 45.32 45.43 44.76 43.95 43.50 44.06 44.88 46.42
53.68 53.64 53.02 52.77 52.39 51.97 45.52 40.31 43.24 42.91 39.60 47.86 48.01 49.13 51.52 51.45 47.80 49.84 55.40 50.19 48.54 44.35 45.88 43.36 40.95 44.45 45.83 45.09 43.60 41.94 39.92 39.28 42.50 44.51 42.03 42.24 41.58 43.10 44.51 45.02 45.20 43.90 43.60 44.67 45.63
53.22 53.14 52.79 52.73 52.18 44.40 42.30 44.20 45.90 43.91 39.13 45.29 48.10 47.98 48.77 50.49 47.07 47.80 52.69 50.39 47.03 43.94 43.52 41.53 43.96 47.40 45.70 43.90 42.43 41.28 39.27 39.51 40.33 42.35 41.66 39.57 38.11 40.35 43.60 44.41 45.58 44.26 45.02 45.40 45.71
53.31 53.02 52.78 52.20 43.39 42.48 39.88 45.29 45.19 43.45 36.46 40.59 44.93 47.89 48.87 49.76 45.78 51.52 53.92 51.30 46.93 44.82 44.23 43.32 46.62 46.12 43.43 43.30 43.55 38.47 44.22 43.53 41.94 38.74 33.90 39.93 30.21 38.11 40.98 42.33 44.58 43.13 42.99 44.83 45.46
53.41 53.14 52.49 50.96 42.07 40.69 42.61 45.44 45.24 42.99 23.25 41.49 45.03 51.27 48.65 46.83 46.83 47.99 52.47 49.76 45.59 45.83 45.04 44.05 43.50 43.28 42.49 44.23 44.72 42.49 45.27 42.79 41.75 37.52 34.15 36.13 30.92 36.52 40.56 41.51 42.67 43.25 43.27 44.21 45.34
53.06 53.12 52.33 45.07 41.94 43.66 45.56 44.99 43.08 35.59 26.55 39.05 45.44 44.54 43.41 45.63 46.03 47.31 48.57 51.01 49.88 45.61 44.60 45.78 47.38 46.41 45.94 46.91 46.36 46.78 42.25 39.76 37.58 34.63 28.34 35.39 34.02 33.46 37.46 42.03 43.39 44.03 44.14 44.64 45.02
52.77 53.08 50.90 46.10 38.81 43.87 43.87 41.65 34.17 28.35 40.24 38.16 40.39 43.46 43.54 42.09 43.64 45.19 44.49 43.64 42.11 38.41 39.07 42.48 42.94 45.65 47.63 43.40 43.15 41.41 36.23 29.87 27.53 27.09 28.28 36.38 33.86 36.47 42.40 44.54 45.60 45.87 44.28 44.71 46.04
51.45 51.83 51.11 47.41 45.59 45.16 40.81 36.66 28.17 36.82 36.82 42.85 41.07 42.26 40.40 42.50 42.67 43.09 41.63 41.34 43.74 42.38 39.15 37.77 36.80 43.79 45.96 44.38 41.50 38.67 37.31 31.10 25.33 25.09 29.85 37.03 33.04 38.79 44.52 47.44 48.18 48.03 46.21 45.55 45.50
50.00 48.14 47.95 47.71 46.80 44.18 36.23 30.24 33.04 36.33 41.28 39.96 40.37 38.21 38.66 42.21 41.98 42.05 41.39 41.73 43.25 43.95 40.86 36.99 38.01 44.82 45.96 45.90 45.43 39.00 35.70 38.83 33.26 32.63 30.36 33.36 38.35 44.36 47.00 47.18 46.82 44.55 44.88 44.44 45.44
45.72 44.88 45.79 47.80 47.92 40.26 31.72 32.59 36.06 42.17 42.56 42.54 36.43 38.73 36.31 38.65 39.80 40.72 39.99 43.70 42.75 45.23 45.05 41.10 36.16 43.17 45.67 45.40 43.65 43.02 43.13 34.76 31.97 26.84 25.69 31.11 34.64 36.97 42.39 44.84 46.42 44.96 43.04 44.30 45.40
44.52 39.71 46.29 48.63 46.49 37.33 26.30 30.28 36.59 44.12 43.28 40.83 39.18 37.30 38.19 38.05 39.94 38.58 39.79 43.54 45.80 44.33 46.50 41.74 39.69 38.89 43.29 41.48 40.09 39.35 37.68 37.59 35.37 32.86 27.76 24.87 31.94 41.67 44.35 47.78 48.14 46.08 44.36 44.86 45.91
42.58 33.95 46.02 46.76 34.93 34.91 30.18 33.15 39.66 40.29 43.90 42.05 41.03 40.08 38.38 39.29 38.56 39.32 39.82 42.95 46.84 46.46 41.66 42.87 39.28 35.75 40.70 43.48 46.34 43.35 40.44 40.14 33.59 31.77 33.61 32.05 34.42 45.41 47.39 49.22 50.12 48.69 45.57 44.95 46.74
38.59 38.68 45.03 43.59 30.85 30.63 33.04 34.53 36.33 37.55 40.17 39.55 39.14 41.24 41.27 39.29 36.37 39.56 41.25 45.11 45.83 46.24 42.20 42.65 36.27 31.93 33.69 41.75 43.99 42.10 43.08 40.70 39.50 37.26 34.97 33.51 35.12 46.29 48.59 48.54 50.18 48.27 45.03 45.60 46.29
34.50 31.79 36.88 39.59 38.42 32.62 30.76 31.33 31.66 38.30 38.51 39.86 38.90 40.43 38.89 38.58 38.59 38.03 40.32 44.62 45.10 45.91 51.43 48.40 37.63 37.51 35.40 36.04 42.56 40.07 43.38 43.04 40.52 34.59 36.07 37.27 40.20 44.22 47.47 48.48 48.82 46.15 45.55 45.31 46.47
35.26 32.72 36.91 30.82 33.73 32.36 30.93 31.32 31.69 31.14 37.78 39.01 36.80 38.17 36.38 34.50 36.10 35.91 39.10 41.01 44.37 48.37 45.66 42.50 36.45 38.30 39.44 41.67 43.65 43.05 42.97 43.28 40.63 40.80 38.23 40.47 41.30 45.43 46.02 48.65 49.22 46.75 45.02 44.99 45.55
33.27 34.29 37.12 33.18 35.45 34.13 33.54 29.83 30.90 34.03 32.95 34.69 34.55 38.18 37.10 34.67 35.65 34.90 37.48 37.85 38.59 39.77 40.34 41.41 36.63 38.32 37.58 41.30 41.62 41.04 42.92 44.54 44.51 41.99 41.95 42.58 41.32 47.89 49.35 51.54 51.12 47.14 45.92 45.99 46.58
38.89 41.28 38.72 34.26 34.78 33.13 32.75 32.53 33.55 34.77 36.26 37.60 37.04 35.63 34.73 37.52 39.80 39.39 39.34 39.21 38.71 37.59 36.36 38.75 38.93 35.96 32.51 40.91 40.44 37.13 41.70 43.68 43.96 44.06 43.69 40.62 44.43 47.54 48.57 50.43 50.50 49.79 46.83 46.99 47.76

GFSSW_sfc_wetblb_003.txt.gz
Wetbulb
56.48 56.28 56.53 56.67 57.03 57.09 56.77 56.85 57.00 57.33 57.71 58.32 58.75 58.72 58.90 59.25 58.87 57.73 52.86 57.72 60.27 66.41 67.09 64.74 62.81 60.52 59.93 58.85 59.68 57.10 52.21 48.63 49.64 49.87 51.54 49.96 49.38 50.49 52.44 51.49 52.13 53.31 52.75 53.32 54.54
55.75 55.82 55.86 56.01 56.14 56.47 56.23 56.21 56.31 57.29 57.63 57.98 57.96 58.14 58.55 58.96 56.17 52.87 59.94 64.36 66.11 67.38 63.04 60.55 58.46 59.07 56.89 56.22 56.54 54.80 50.89 50.52 54.17 53.42 51.96 50.83 50.36 50.98 51.04 50.40 50.72 51.24 52.06 52.85 53.74
55.35 55.48 55.57 55.59 55.73 56.03 55.82 55.78 55.93 56.22 56.83 57.11 56.90 57.32 58.30 58.22 53.69 52.23 66.50 65.73 66.62 66.22 60.11 59.85 58.97 57.86 54.77 55.06 54.79 53.79 49.99 52.49 52.85 54.31 52.92 51.00 48.90 51.47 50.71 49.27 52.21 51.92 52.13 52.62 53.56
54.41 54.91 55.01 55.02 55.14 55.15 54.92 55.09 55.21 55.66 55.72 55.58 56.24 57.35 58.21 56.57 43.20 54.16 69.79 67.40 67.88 63.81 59.56 57.55 56.64 54.14 52.45 51.33 53.91 50.51 53.14 53.83 53.79 52.86 49.84 49.03 50.39 49.61 51.22 52.46 53.49 53.96 54.00 53.11 53.34
53.72 53.93 54.03 54.34 54.25 54.31 54.20 54.13 54.36 54.55 54.62 54.84 55.86 56.96 56.14 49.66 48.13 56.94 69.13 68.50 65.20 60.73 56.69 56.50 54.99 54.25 51.33 52.20 52.17 51.34 52.63 51.93 52.07 50.07 49.94 49.86 49.43 50.07 50.72 53.13 53.42 53.13 52.80 53.00 53.74
53.46 53.38 53.42 53.59 53.61 53.65 54.34 54.15 54.09 53.97 53.78 54.40 55.73 57.00 52.55 43.62 53.06 57.00 56.50 61.11 60.83 59.48 57.18 57.12 56.10 56.42 53.53 52.46 51.85 53.46 52.13 50.32 49.31 49.05 49.30 48.96 48.58 49.69 51.70 53.21 52.34 52.19 52.48 52.97 53.23
53.56 53.25 53.35 53.23 53.40 53.28 53.77 53.88 53.57 53.62 53.88 55.01 56.07 55.50 51.01 47.45 52.83 60.93 62.34 60.53 61.68 59.71 56.33 57.93 58.01 56.07 55.63 52.70 54.18 51.68 49.19 49.29 49.03 49.25 49.41 50.18 47.64 48.41 52.65 53.10 52.06 51.77 52.09 52.32 53.70
53.80 53.82 53.18 53.21 53.13 53.03 53.10 53.51 53.31 53.59 54.51 56.17 56.83 55.27 46.39 53.69 55.28 53.31 54.11 55.32 56.65 59.94 58.71 58.80 58.60 56.10 54.63 54.57 52.23 48.99 48.65 45.95 48.56 48.24 48.61 49.28 45.36 51.83 52.53 51.75 51.60 50.88 50.82 51.69 53.17
53.82 53.59 53.20 53.07 52.88 52.71 53.16 53.04 53.02 53.66 55.78 57.15 54.74 52.48 46.80 56.11 53.13 54.25 53.88 50.95 53.81 58.15 59.34 57.96 58.01 54.95 52.23 49.90 47.85 47.63 45.22 46.27 47.02 48.91 47.85 47.91 46.22 51.29 51.09 51.40 51.56 50.61 50.56 51.47 52.50
53.54 53.31 53.22 52.98 52.81 53.00 52.89 52.35 51.99 53.94 57.62 57.06 56.39 48.72 50.33 47.75 51.52 55.31 54.96 54.10 54.98 55.97 55.11 55.16 53.34 51.17 50.18 48.48 42.28 44.63 44.62 45.14 45.42 48.41 47.41 46.80 46.27 50.31 51.37 50.63 50.85 50.64 50.57 51.38 52.16
53.76 53.18 53.18 53.22 52.87 52.71 50.61 47.19 49.19 50.09 53.48 47.86 47.57 46.40 47.49 52.44 54.28 53.46 56.37 53.51 55.85 54.77 50.40 52.40 49.25 46.93 49.42 49.92 49.59 48.45 46.68 45.81 47.42 49.90 47.78 47.90 48.28 49.73 51.81 50.30 50.17 50.40 50.59 51.52 52.38
54.03 53.55 53.56 53.28 53.00 52.63 48.35 44.40 43.62 44.17 41.82 48.10 48.89 50.79 52.25 52.47 47.77 50.93 57.31 52.13 52.71 49.25 50.63 48.56 47.09 50.90 50.97 49.89 47.87 47.18 45.74 45.56 47.80 48.90 47.94 48.26 47.46 50.31 50.84 50.89 51.47 51.37 50.72 51.41 52.72
53.68 53.63 53.28 52.87 52.73 47.32 43.50 45.42 48.22 46.80 42.22 45.74 48.56 48.71 50.31 51.18 48.02 48.75 54.16 52.55 50.58 48.42 49.25 48.37 49.52 50.11 49.13 47.61 46.43 46.69 45.92 45.70 46.12 47.15 47.78 46.45 45.60 48.05 51.21 50.02 50.73 52.01 52.66 52.47 52.68
52.75 53.47 53.20 52.71 46.63 46.02 42.93 47.33 48.42 46.22 39.60 42.23 45.57 48.66 50.15 51.05 46.93 52.18 53.23 53.14 50.49 48.69 49.00 49.57 50.27 48.53 47.67 47.39 48.36 45.13 48.73 47.84 46.35 44.91 41.90 46.50 39.66 46.29 49.56 49.76 50.11 51.13 50.86 51.52 52.64
51.98 53.20 52.92 50.99 46.66 44.09 45.41 48.63 48.33 45.43 29.30 43.52 46.43 53.19 51.01 47.93 49.39 49.13 53.60 51.95 49.13 48.59 49.54 47.79 47.47 47.61 46.74 47.87 49.21 47.33 49.38 47.86 46.67 45.47 43.18 43.47 40.70 44.87 46.85 47.92 50.98 53.26 51.39 51.80 52.90
51.62 51.90 52.34 48.06 47.87 47.59 48.88 48.01 46.54 38.66 30.04 41.34 47.57 46.14 45.61 47.44 47.99 49.34 49.66 53.20 53.51 49.89 49.12 50.30 51.09 50.80 50.01 50.59 50.01 50.92 47.38 45.34 44.59 43.80 39.03 43.74 42.18 43.04 46.09 48.82 51.28 53.09 52.55 51.45 52.49
51.10 51.20 50.62 47.04 43.08 48.10 47.93 44.69 38.10 32.42 42.37 40.93 42.90 45.52 45.44 44.14 45.60 47.32 45.88 45.39 45.81 43.53 44.48 47.37 48.37 49.91 51.36 48.49 48.59 48.90 46.29 40.13 38.43 38.89 37.81 42.22 40.86 44.69 50.15 51.40 51.66 52.52 52.87 51.84 52.63
50.42 50.50 49.77 47.79 46.84 48.47 45.82 39.51 31.34 38.23 39.53 44.09 43.55 45.18 42.34 45.01 45.00 45.20 44.88 42.99 47.69 48.13 45.58 42.54 40.86 47.48 50.01 49.75 47.37 46.99 47.17 40.70 33.56 35.57 39.16 41.76 39.83 44.53 52.09 52.88 54.03 54.20 53.96 52.15 52.09
49.49 49.10 46.75 48.79 48.22 47.87 39.59 32.53 35.30 38.87 42.96 42.04 42.90 41.83 41.90 44.17 44.57 44.23 44.18 44.07 46.58 49.21 43.81 42.89 42.77 48.41 49.69 50.57 50.53 44.87 43.28 48.05 43.22 40.87 39.24 42.30 45.10 49.78 52.41 52.82 53.31 52.03 51.02 50.69 52.04
46.70 45.05 44.13 49.40 48.89 43.95 35.20 33.40 38.00 43.51 44.44 44.01 39.84 42.72 40.38 41.98 42.35 43.02 43.01 46.11 45.25 48.60 51.63 46.65 42.01 47.70 49.11 50.43 49.48 48.34 48.78 42.05 42.52 35.55 34.45 39.70 41.26 43.67 48.91 50.88 52.86 51.49 50.96 50.99 52.52
45.00 39.61 46.03 49.58 47.14 38.23 30.31 33.49 38.15 43.99 45.03 42.98 41.57 41.73 42.61 41.80 43.27 42.48 43.13 45.58 47.82 46.97 50.19 49.19 46.97 43.77 47.33 46.58 46.04 45.47 44.79 44.90 44.64 42.65 38.07 36.81 41.20 51.10 51.63 53.66 54.86 54.38 52.84 51.80 52.41
42.55 34.27 47.42 48.93 34.23 35.21 32.23 35.62 38.83 40.02 43.40 43.40 44.28 43.94 42.84 43.34 42.94 42.75 42.58 45.13 48.32 49.42 45.57 49.22 47.88 42.98 44.15 48.42 51.14 49.60 47.12 47.36 41.72 40.33 42.40 41.77 41.99 52.36 54.03 55.48 56.11 54.80 52.92 53.04 53.73
37.74 37.35 46.88 45.67 29.96 32.53 35.87 35.68 37.04 36.92 39.70 41.87 41.90 43.67 45.32 43.72 41.84 44.47 44.34 48.10 48.21 48.45 48.39 49.06 47.08 41.33 41.63 47.24 49.22 46.25 47.40 48.47 47.91 47.01 42.73 39.99 42.88 52.43 54.48 55.40 55.31 54.72 52.92 52.13 53.23
36.85 32.04 35.25 40.62 39.50 35.31 33.88 32.96 33.01 39.06 38.09 39.26 40.05 43.73 42.84 42.40 43.93 42.56 44.14 46.19 47.81 49.03 52.84 51.30 47.98 44.53 39.90 42.89 47.67 45.73 46.43 47.25 47.07 43.10 43.33 43.55 45.81 50.45 53.44 54.18 54.38 54.83 53.48 53.11 52.90
37.06 33.69 36.02 29.75 32.99 33.80 34.43 34.60 32.31 32.56 38.98 41.36 40.40 41.08 40.79 40.59 41.71 42.48 43.49 45.02 46.65 50.64 50.81 50.38 44.59 46.28 46.78 46.89 47.87 46.99 46.85 47.75 45.67 46.76 43.76 46.16 46.74 50.58 53.99 55.13 56.71 56.05 53.46 52.39 52.83
32.82 35.13 35.27 34.38 34.11 34.26 34.65 33.02 33.00 34.94 36.16 36.61 37.34 40.15 40.70 39.58 40.63 41.41 42.58 43.58 43.68 45.93 48.41 47.71 45.76 46.40 44.09 46.19 46.48 44.85 46.59 47.67 48.05 47.97 48.02 48.21 48.40 54.65 55.69 57.24 55.77 53.72 52.07 52.12 52.89
39.81 41.50 37.85 34.93 33.88 33.73 33.94 34.14 34.62 36.85 38.00 39.32 39.21 38.89 38.77 41.65 44.32 45.32 45.08 45.18 44.27 43.64 44.02 47.12 46.34 43.39 40.83 44.84 44.72 41.18 45.45 46.31 48.05 49.54 48.96 45.93 50.66 54.15 54.38 55.88 56.98 54.74 53.44 53.61 54.02

GFSSW_sfc_wetblb_006.txt.gz
Wetbulb
56.29 56.37 56.23 56.47 57.00 57.05 56.80 56.79 56.76 56.92 57.54 57.72 58.53 58.49 58.78 59.08 58.89 59.45 54.36 59.61 61.42 68.10 67.62 65.98 64.01 63.11 63.17 61.48 62.42 61.29 53.55 51.37 52.84 53.30 54.89 57.85 55.45 55.86 55.72 54.56 54.94 56.43 56.20 57.63 59.61
55.81 55.81 55.91 55.95 56.08 56.05 56.10 56.13 56.24 56.42 57.30 57.73 57.48 58.06 58.58 58.60 57.56 54.14 60.98 64.45 66.49 68.46 63.51 62.29 60.74 61.50 59.89 59.96 60.13 56.81 52.09 52.20 55.63 57.00 56.32 57.37 56.59 56.76 53.58 53.87 53.99 55.02 56.70 57.02 58.25
54.43 54.95 55.11 55.41 55.49 55.56 55.22 55.29 55.22 55.76 56.06 56.32 56.37 57.36 58.31 59.00 54.23 53.19 68.29 65.91 67.45 68.01 62.24 63.07 62.03 60.72 57.61 59.00 57.78 55.94 51.96 54.83 55.66 57.48 57.55 56.17 55.93 56.56 54.15 53.25 55.29 54.77 56.68 57.11 57.61
54.29 54.31 54.27 54.24 54.67 54.74 54.63 54.75 54.75 54.95 55.12 55.07 55.60 57.04 58.10 57.98 45.81 59.86 69.35 67.68 67.70 65.07 60.18 60.62 59.35 57.76 55.94 55.27 57.33 53.35 54.82 55.77 56.58 57.30 55.57 54.68 56.21 54.12 54.14 55.45 56.85 56.97 57.35 57.91 57.46
53.99 54.21 53.98 53.98 54.00 53.93 54.09 54.18 54.25 54.37 54.31 54.50 55.18 56.59 57.38 52.23 49.89 60.32 69.20 68.73 65.64 61.18 57.74 57.51 57.11 56.60 53.84 55.66 56.05 54.15 54.55 55.85 57.02 56.27 55.31 55.06 54.01 53.51 54.35 56.31 56.98 57.03 57.28 57.48 57.93
53.76 53.72 53.76 53.63 53.70 53.78 54.32 54.28 54.13 54.16 53.97 54.46 55.28 56.32 54.29 46.28 55.41 56.30 57.40 57.84 58.22 60.89 58.14 57.78 57.80 58.54 56.03 55.92 54.71 55.84 55.32 55.34 56.06 55.14 54.21 52.95 53.13 52.62 55.11 56.23 56.42 56.21 56.82 57.27 57.63
54.25 53.77 53.61 53.57 53.61 53.70 54.10 53.79 53.49 53.69 53.89 54.83 55.74 56.59 51.68 49.53 55.24 59.00 61.75 61.54 60.10 59.64 57.48 58.26 59.80 57.55 57.18 55.18 57.50 56.20 52.73 54.60 54.30 54.20 53.19 53.38 51.30 51.47 56.21 56.10 54.97 55.72 56.68 56.91 57.67
54.21 53.87 53.67 53.45 53.49 53.54 53.64 53.83 53.41 53.51 54.00 55.15 57.07 56.50 49.15 55.15 57.37 55.67 56.46 57.43 61.36 61.91 60.03 60.58 60.08 58.48 56.81 57.98 55.21 52.88 53.16 49.66 54.40 53.14 52.69 52.13 47.77 52.82 56.12 54.91 54.88 55.74 56.06 56.22 57.24
54.31 53.85 53.49 53.67 53.81 53.48 53.79 53.37 53.24 53.52 54.24 57.00 56.94 55.37 48.82 56.99 53.61 55.73 56.40 53.11 54.54 57.04 58.19 60.21 59.46 56.89 56.44 53.32 51.72 52.39 47.76 49.86 51.68 54.57 52.79 52.01 50.58 53.99 55.91 55.27 55.11 55.84 56.10 55.95 56.82
54.60 53.91 53.54 53.62 53.19 53.58 53.18 52.98 53.62 54.31 58.43 58.88 58.13 51.57 52.98 50.77 53.58 55.37 57.14 54.86 54.48 53.88 57.29 57.12 56.40 53.60 53.77 52.14 46.55 48.41 48.50 49.57 49.60 52.82 52.38 51.69 51.32 53.55 55.02 54.98 55.03 55.97 56.41 56.06 56.30
53.76 54.21 53.96 53.60 53.68 53.22 51.49 51.69 51.48 53.31 55.05 50.36 51.59 49.55 50.58 53.10 55.25 54.07 57.27 53.86 54.31 56.25 52.10 55.34 51.80 49.52 51.92 53.53 53.22 51.55 49.86 49.21 51.66 53.37 51.52 51.91 52.00 52.91 54.87 54.98 55.32 55.97 56.44 56.47 56.69
53.28 53.50 54.15 53.64 53.70 53.29 51.63 47.82 48.08 47.67 45.09 51.93 52.86 52.99 53.66 54.45 50.58 52.41 57.82 51.68 51.58 50.33 53.74 52.67 49.55 53.63 54.43 54.09 52.33 51.21 49.77 49.84 52.00 52.91 51.47 51.23 50.42 53.03 54.38 54.48 55.77 56.30 56.70 56.63 57.10
52.44 52.81 53.18 53.66 53.20 51.76 49.65 48.82 52.00 51.44 45.55 47.38 50.24 50.68 52.06 53.67 50.50 51.86 54.93 52.66 50.42 50.20 51.41 50.38 51.78 54.54 53.38 52.33 50.69 50.83 49.57 49.92 49.40 51.92 52.19 50.65 49.04 51.48 53.44 54.81 55.82 56.65 57.70 57.83 57.49
52.06 52.25 52.56 52.97 49.02 51.99 48.27 51.34 52.48 51.70 42.31 45.06 46.74 49.64 51.43 52.02 48.65 53.81 56.06 53.27 51.75 49.52 51.74 51.87 54.04 52.71 51.94 51.10 51.59 48.27 52.10 50.89 49.96 48.69 44.71 50.47 42.90 49.48 51.90 52.56 54.38 56.05 56.83 57.49 57.58
51.48 51.73 52.09 51.76 50.13 48.40 49.74 53.41 52.35 51.08 34.49 48.00 48.92 54.98 52.08 49.24 49.61 49.80 55.11 54.43 49.60 50.07 52.40 50.50 51.97 51.34 50.34 50.85 52.34 49.56 52.23 51.18 50.46 48.66 48.07 47.76 45.42 48.23 50.90 50.16 51.54 53.59 57.21 57.83 57.98
50.53 51.44 51.58 50.13 50.06 52.23 53.16 52.27 50.89 41.31 33.97 44.42 49.29 47.88 48.12 48.87 49.21 51.08 50.90 54.28 54.40 51.06 52.66 52.03 55.06 53.78 52.54 52.41 52.23 52.88 50.74 50.49 50.22 48.51 42.70 46.87 45.85 45.82 49.08 49.61 51.81 54.09 56.94 57.87 57.53
49.42 50.89 50.55 50.24 44.32 53.39 53.10 48.36 39.05 35.89 46.44 43.88 45.66 48.14 47.53 46.17 47.22 49.03 47.48 46.91 46.58 45.43 46.73 50.11 50.92 53.54 53.88 50.45 52.58 51.75 49.02 43.14 41.80 42.15 40.90 47.44 44.53 46.96 50.98 52.32 53.64 54.49 55.94 57.74 57.80
49.65 50.44 50.09 49.15 49.23 51.10 49.13 40.53 33.66 41.36 43.46 47.44 47.07 47.92 45.79 47.72 46.99 47.77 46.96 45.03 48.73 49.42 47.56 45.40 43.83 50.86 53.19 50.72 49.28 49.72 49.45 44.01 37.52 39.34 42.59 46.88 42.73 47.77 52.22 54.59 56.56 57.48 58.54 58.56 57.49
48.93 48.50 49.27 50.58 49.93 47.89 41.90 32.78 36.68 42.25 46.30 45.67 45.64 44.98 45.48 47.35 47.26 47.09 46.84 45.79 47.66 50.53 46.77 46.24 46.14 52.35 52.86 52.78 52.30 49.60 46.92 51.33 46.16 46.86 43.08 45.28 47.57 51.82 53.22 54.04 55.62 56.49 56.90 57.20 57.55
46.53 45.17 46.45 51.81 52.00 44.36 36.24 34.10 39.40 44.96 46.10 46.98 42.63 45.67 43.89 45.58 45.18 46.42 46.20 48.50 47.32 50.04 53.17 50.31 45.77 50.21 51.73 52.90 52.78 51.41 52.28 45.23 46.52 39.21 38.07 43.17 44.34 46.41 49.31 51.58 56.44 56.60 56.89 57.13 57.57
44.17 39.88 47.61 52.05 50.36 39.05 31.30 34.77 39.85 44.99 46.68 44.83 44.21 44.46 45.64 45.99 46.57 45.95 46.56 48.10 49.25 48.66 52.13 51.77 49.54 48.49 50.40 49.22 48.19 49.09 48.24 49.14 48.97 46.89 41.21 40.20 44.46 52.17 51.07 54.36 55.82 58.38 58.17 57.47 57.74
43.13 34.53 49.16 50.43 35.34 35.41 33.07 38.43 40.92 41.92 44.40 43.72 46.05 46.37 46.12 46.83 46.63 46.69 46.08 48.21 50.22 50.49 47.65 51.84 49.64 45.65 46.77 51.60 52.51 51.65 49.29 49.82 44.73 43.77 45.98 45.01 45.26 53.77 54.63 56.88 58.63 59.45 58.58 58.39 58.78
38.56 39.53 49.71 46.05 31.04 32.04 38.30 38.49 41.25 40.35 40.45 41.83 42.71 46.86 48.48 46.81 45.00 47.62 48.16 50.31 50.27 49.77 49.09 51.46 47.91 43.02 44.62 49.02 51.66 48.73 50.06 50.53 50.70 49.95 45.73 43.21 45.17 54.64 55.89 57.20 59.30 59.96 58.89 58.01 58.60
41.51 33.03 39.63 39.45 39.63 37.55 35.56 35.11 34.91 42.27 40.56 41.27 41.13 43.73 44.97 45.71 48.72 47.07 47.49 49.67 50.21 50.42 53.23 53.59 49.40 46.52 42.93 46.01 48.84 47.04 48.07 50.03 49.77 45.94 45.95 46.52 48.05 51.47 53.77 55.62 58.28 59.84 59.33 58.52 58.52
41.77 35.97 38.16 33.75 32.58 36.67 36.30 36.75 34.88 34.64 40.92 42.35 41.06 42.64 44.93 43.37 45.16 45.63 48.56 49.12 49.87 52.08 52.78 53.32 47.12 48.07 47.99 48.60 49.31 48.46 47.73 48.54 48.00 48.94 46.16 48.02 48.50 51.57 53.95 55.62 57.61 60.31 59.58 58.01 57.65
36.50 36.42 36.78 37.28 36.56 36.30 36.10 34.01 34.76 36.33 37.36 38.26 38.79 40.13 44.25 43.62 46.04 44.84 47.74 48.81 48.06 51.02 50.41 53.73 47.06 48.51 46.64 48.01 48.12 46.84 48.53 49.29 49.17 49.40 49.36 49.67 49.32 54.93 55.92 56.48 58.33 59.75 58.92 57.99 57.53
41.28 41.57 37.38 35.94 35.08 34.04 33.02 35.14 36.06 38.36 40.22 41.96 41.23 40.68 41.10 44.72 47.21 49.19 50.18 49.50 50.11 50.46 50.42 50.24 48.27 46.89 43.28 46.92 46.58 44.09 47.50 48.89 49.75 50.99 50.62 47.59 51.57 54.76 54.59 56.41 58.45 59.69 59.24 58.94 58.79

GFSSW_sfc_wetblb_009.txt.gz
Wetbulb
55.66 55.97 56.00 56.18 56.29 56.38 56.35 56.35 56.41 56.78 56.98 57.41 57.71 58.02 58.43 58.95 58.33 60.54 56.10 60.86 62.81 68.06 68.48 67.14 65.56 64.71 64.52 61.65 62.27 62.18 54.89 52.63 53.76 53.26 55.35 58.23 57.27 59.38 59.23 57.38 57.38 57.35 57.43 59.13 61.49
55.11 55.11 55.17 55.35 55.53 55.66 55.69 55.69 55.80 55.86 56.38 56.75 56.79 57.25 58.11 58.40 58.46 55.43 62.47 64.57 67.89 68.95 65.45 63.70 61.98 62.76 60.58 59.83 60.05 57.90 54.17 53.65 56.21 56.45 55.90 57.05 57.44 58.07 57.26 56.95 56.33 56.70 58.60 59.14 60.17
54.85 54.89 54.81 54.79 55.02 54.91 54.93 55.13 55.31 55.50 55.66 56.25 56.39 56.76 57.40 58.23 55.87 54.45 68.51 65.94 67.61 68.30 62.98 64.69 63.52 61.85 58.81 59.85 59.18 57.97 54.47 56.47 55.84 56.50 57.26 56.87 56.38 58.39 56.33 54.96 57.04 55.63 57.00 59.16 59.44
54.52 54.65 54.66 54.73 54.67 54.57 54.64 54.79 54.90 54.96 55.17 55.10 55.28 56.49 57.51 58.17 46.66 61.06 68.23 67.78 68.29 64.48 60.72 59.78 60.65 58.31 57.90 56.69 59.09 55.65 57.34 56.82 55.81 56.53 57.18 56.10 57.56 56.08 56.43 56.67 58.03 57.73 57.33 58.63 58.94
54.57 54.47 54.31 54.44 54.29 54.22 54.36 54.26 54.44 54.39 54.21 54.25 55.07 56.06 57.14 53.54 52.07 60.20 69.29 67.36 62.70 59.97 58.68 57.86 57.77 58.12 56.22 57.55 57.65 55.93 56.08 56.77 56.65 56.89 57.63 57.66 55.86 56.04 56.01 57.53 57.79 57.69 57.66 57.85 58.78
54.55 54.35 54.20 54.15 54.10 54.24 54.70 54.53 54.48 54.49 53.77 54.17 55.14 56.11 54.59 46.74 56.09 57.94 62.02 63.94 63.64 60.60 58.63 58.63 58.31 59.80 57.33 56.83 55.69 57.10 56.99 56.36 56.95 56.70 57.49 55.21 55.85 55.01 56.74 57.28 56.11 57.58 57.75 57.40 57.55
54.91 54.98 54.44 54.20 54.15 54.51 54.72 54.59 54.32 54.27 54.01 54.73 55.34 56.30 52.95 50.32 56.82 57.85 56.76 56.34 57.73 58.70 58.64 59.15 58.99 57.54 57.72 55.09 57.81 57.33 54.26 55.43 56.07 56.01 55.79 56.84 53.16 54.14 56.91 57.78 56.60 56.28 57.05 57.96 59.03
55.29 54.54 54.62 54.62 54.46 54.45 54.74 54.41 54.12 54.34 54.56 55.19 55.58 56.24 50.79 56.37 58.67 56.28 57.71 59.35 61.01 61.32 57.92 60.38 59.76 57.01 57.61 58.41 56.39 54.46 54.79 51.16 55.40 56.01 56.08 54.66 50.07 56.11 57.91 57.40 56.68 56.94 57.72 58.13 59.11
54.65 54.77 54.92 54.60 54.62 54.53 54.17 53.89 53.97 54.36 55.08 55.74 56.50 55.40 49.78 59.33 54.73 55.97 56.93 54.03 55.26 57.89 60.44 59.94 59.60 55.73 56.25 53.65 51.93 53.43 49.26 50.95 52.18 56.39 55.24 53.97 51.39 55.94 57.64 57.22 56.53 57.05 57.66 58.06 58.47
53.50 53.73 54.52 54.75 54.58 54.06 53.72 53.37 54.47 53.62 57.25 58.64 56.74 52.81 54.93 51.19 54.37 56.11 57.19 55.53 54.26 54.58 55.96 55.33 56.10 53.26 53.27 52.07 46.42 49.65 50.65 51.65 51.07 54.59 55.20 53.27 52.75 55.83 57.33 57.00 56.64 57.03 57.90 58.40 58.38
52.69 52.95 53.68 53.93 54.66 53.68 52.58 54.47 52.30 52.98 55.63 51.24 51.75 51.16 51.50 54.78 55.50 54.11 56.31 55.27 54.51 52.88 48.59 53.27 51.77 49.25 51.71 53.54 53.33 52.89 51.97 50.83 53.16 54.96 53.82 53.25 53.20 55.04 57.20 56.86 56.41 56.73 57.29 58.53 59.07
52.15 52.78 53.11 53.29 53.62 54.03 53.82 50.42 51.67 51.42 47.82 55.80 55.56 54.43 55.40 54.86 51.63 52.91 57.53 52.06 51.00 48.50 50.56 52.33 49.80 53.48 54.41 53.97 52.88 53.00 51.44 50.91 53.16 55.00 54.35 53.42 52.60 54.97 55.32 55.39 56.58 56.56 57.22 58.41 59.50
51.31 51.69 52.37 52.92 53.29 52.64 52.31 52.58 55.37 54.29 46.75 48.76 51.43 52.31 53.27 54.45 51.16 52.04 54.14 53.18 49.76 48.36 50.14 50.05 52.47 54.56 53.40 52.77 51.99 52.25 50.97 50.96 50.84 53.63 54.70 52.88 50.76 52.35 55.07 56.14 56.50 56.85 57.96 59.38 59.67
50.44 51.50 52.36 52.62 49.38 53.38 51.87 55.10 55.09 54.20 42.95 46.21 48.92 50.85 52.34 53.39 50.03 54.63 55.57 53.64 51.02 47.89 50.45 51.57 54.52 53.30 52.13 51.72 52.89 49.77 53.43 52.27 51.23 50.40 46.70 52.75 44.53 50.90 53.33 53.40 54.88 56.09 57.38 58.53 59.71
50.83 49.99 51.62 51.37 48.81 51.16 52.73 54.91 54.76 52.61 35.03 49.83 50.69 55.40 53.38 50.30 50.79 51.10 55.15 53.78 49.71 49.30 50.56 49.44 51.64 51.91 51.15 51.85 54.12 51.29 53.90 52.23 51.90 50.06 49.53 49.18 46.82 49.79 53.16 51.32 52.62 54.76 56.70 58.87 60.20
50.91 49.93 51.06 50.72 51.47 52.71 55.00 54.50 52.04 41.72 34.88 46.51 51.08 49.39 49.04 49.61 50.51 52.68 51.47 54.41 54.23 50.39 51.38 50.88 54.93 54.06 53.35 54.49 54.39 54.62 52.29 51.64 51.60 50.09 43.90 47.94 47.45 47.78 49.93 50.89 52.23 54.50 56.45 59.41 59.90
51.52 50.57 49.92 51.35 48.65 53.65 52.86 50.56 38.49 35.88 47.23 46.14 47.45 49.85 48.72 47.68 48.35 49.95 48.18 47.81 47.82 45.13 46.48 49.66 50.62 54.23 55.36 52.59 54.34 52.44 49.97 43.87 42.45 43.39 42.26 49.76 47.20 49.02 52.45 52.60 53.40 54.33 56.74 59.69 60.03
51.41 50.45 49.48 50.54 53.81 52.08 49.31 42.39 32.98 41.39 44.35 49.50 49.09 49.15 46.75 49.04 48.05 48.64 47.69 46.01 50.13 49.90 47.91 45.79 44.54 51.73 54.84 53.14 50.72 50.42 49.76 44.68 38.70 41.31 44.59 49.70 44.70 49.49 53.53 54.10 55.22 56.22 58.87 60.57 59.78
50.32 48.63 48.60 49.92 52.49 50.46 42.69 32.41 36.13 42.48 46.92 46.65 48.25 46.35 46.67 48.77 48.63 48.29 48.10 46.76 48.98 51.37 47.23 46.61 47.10 52.88 53.93 54.43 53.40 50.27 47.45 51.92 47.42 48.16 44.96 47.32 50.18 52.93 52.87 53.66 55.81 56.89 58.76 59.96 59.83
47.57 44.25 44.57 49.88 51.98 47.72 36.29 33.02 39.36 44.72 45.82 47.96 43.98 47.19 45.30 47.16 46.96 47.31 47.60 50.04 48.72 51.02 53.47 51.74 46.99 51.82 52.79 54.33 53.81 52.18 53.20 46.90 47.93 40.86 39.76 45.24 46.72 48.39 50.91 52.23 56.74 57.71 58.73 59.39 59.66
45.31 39.45 46.63 50.67 50.70 41.24 30.15 34.99 39.73 44.75 46.36 43.77 43.82 45.01 47.10 47.39 48.18 47.54 47.71 50.26 51.06 50.19 52.17 52.01 51.18 49.96 52.50 50.78 49.35 49.34 48.69 50.15 50.44 48.01 42.93 41.88 45.83 53.62 52.76 54.09 55.34 58.42 59.74 59.06 59.11
41.58 37.11 50.00 51.33 37.21 37.47 32.96 38.26 40.97 41.95 45.23 44.32 44.54 43.74 44.72 48.09 48.12 47.72 47.80 49.98 52.54 52.18 48.37 52.78 51.79 48.13 49.17 53.35 54.16 52.44 50.01 51.16 45.93 45.00 47.68 47.16 47.41 54.94 55.04 55.03 57.37 58.68 59.97 59.47 59.66
40.53 43.08 51.33 49.59 32.91 35.42 39.39 38.81 39.18 40.50 41.58 41.88 42.28 44.47 46.73 45.56 44.90 49.18 49.49 52.38 52.54 51.76 50.94 53.38 50.14 46.20 47.75 50.60 52.83 50.38 50.98 51.31 52.12 51.45 47.30 44.61 46.56 55.09 55.91 55.82 57.51 58.37 60.06 59.23 59.56
39.31 36.23 41.20 42.78 40.14 36.89 37.10 37.22 36.74 42.41 41.38 42.37 42.43 44.41 42.98 43.01 48.06 47.67 49.31 51.64 52.68 51.89 54.54 55.47 52.30 48.59 45.49 48.29 50.31 47.96 49.31 50.88 50.72 47.13 47.23 47.79 49.48 52.81 54.38 55.01 57.48 58.52 60.43 59.71 59.47
42.83 38.75 40.84 33.75 35.77 36.94 37.27 37.74 36.30 36.61 40.94 43.61 40.92 41.84 42.32 42.54 46.21 46.97 49.83 50.87 51.88 53.37 54.23 54.95 49.86 50.04 50.57 50.94 50.42 49.87 49.02 49.25 48.94 49.53 47.41 49.35 49.77 52.98 54.70 55.65 56.99 59.63 60.50 59.81 58.99
38.69 39.53 43.69 39.17 38.60 36.71 37.35 36.17 35.21 37.05 38.55 38.86 39.14 41.56 42.00 42.18 45.97 44.80 47.51 49.94 49.99 51.58 51.29 55.98 49.56 50.30 47.81 49.90 50.20 48.70 50.12 50.16 49.51 50.17 50.22 50.84 51.11 55.57 56.60 57.02 57.44 59.40 59.71 59.58 59.18
47.22 46.12 40.11 35.09 37.32 35.27 34.28 36.33 36.69 39.02 40.29 41.58 41.37 41.25 40.22 42.87 45.12 47.68 50.11 51.37 52.54 50.92 52.45 51.58 50.77 48.62 45.00 48.61 48.19 46.24 49.42 49.92 50.39 50.83 51.09 48.59 52.70 55.58 55.17 55.89 57.04 58.63 59.61 59.94 60.08

GFSSW_sfc_wetblb_012.txt.gz
Wetbulb
55.38 55.59 55.45 55.53 55.50 55.76 55.81 55.97 56.06 56.22 56.42 56.72 56.76 57.19 57.50 58.19 57.74 58.55 55.81 58.56 61.30 67.14 67.91 65.36 64.76 64.82 64.83 62.28 62.20 61.62 53.80 51.53 52.96 53.07 53.85 57.48 56.51 59.53 60.55 57.66 58.06 58.22 57.08 59.43 61.87
55.13 55.22 55.26 55.32 55.17 55.18 55.27 55.48 55.53 55.63 55.89 56.17 56.08 56.35 57.21 57.57 56.11 54.46 61.33 65.91 67.93 68.08 62.56 62.79 62.33 63.45 60.78 59.79 59.61 56.81 53.39 53.25 56.81 56.46 54.46 56.13 56.10 57.18 56.41 57.02 57.17 57.28 58.61 59.78 60.36
55.16 55.14 55.20 55.15 55.21 55.02 54.82 54.99 55.04 55.37 55.33 55.26 55.37 56.09 57.10 57.08 53.42 52.21 67.98 67.63 67.29 67.79 60.38 62.29 63.22 62.23 58.86 59.50 58.36 57.28 53.52 56.10 57.05 58.04 56.95 55.41 55.55 57.46 55.86 54.45 56.62 55.78 57.31 58.62 58.52
55.14 55.15 54.98 54.82 54.89 54.94 54.71 54.82 54.78 54.87 54.81 54.78 55.04 56.23 57.05 56.22 44.40 59.22 68.06 68.29 68.71 63.68 59.17 57.77 58.55 58.17 57.16 56.05 58.53 54.86 57.10 57.40 57.52 57.98 56.13 54.38 56.47 55.95 56.07 56.30 58.52 58.04 58.09 58.95 59.16
55.28 54.91 54.94 54.75 54.64 54.82 55.04 54.78 54.74 54.89 54.58 54.51 54.91 55.77 55.59 50.51 50.40 58.52 68.17 67.29 64.15 59.62 56.49 55.54 55.36 57.77 55.33 56.42 57.22 56.18 57.00 57.43 57.94 57.38 56.47 56.30 55.27 55.89 55.68 58.12 58.48 57.84 57.79 57.91 59.49
55.92 55.78 55.42 55.25 55.19 55.05 54.98 54.94 54.93 54.99 54.64 54.55 55.04 55.17 53.24 45.66 54.85 56.30 56.91 63.02 60.14 57.78 55.56 56.40 55.54 56.93 55.52 55.65 55.31 57.31 57.09 56.44 56.98 56.64 56.62 54.65 55.05 56.02 56.76 58.50 56.95 56.93 56.85 57.67 58.34
54.77 55.64 55.61 55.22 55.24 55.03 54.99 54.31 54.15 54.79 54.64 54.76 55.35 54.63 50.13 48.20 56.20 57.32 57.15 57.97 61.24 59.68 56.15 56.84 57.83 56.24 56.79 54.58 58.01 56.64 53.59 54.67 55.61 56.29 54.91 56.41 53.22 53.87 57.11 58.00 57.04 57.24 57.72 58.32 59.12
53.91 54.03 54.95 55.40 55.42 55.08 55.17 54.68 54.10 54.48 54.71 55.25 55.62 53.38 46.67 55.04 57.32 55.04 55.79 55.49 56.42 56.94 58.67 60.29 59.85 56.48 54.69 56.36 54.95 52.87 53.11 49.29 54.02 55.59 55.93 55.42 49.59 55.10 57.60 57.44 57.07 57.19 57.43 58.08 59.62
53.74 53.45 54.07 53.92 54.70 55.30 54.82 54.29 54.71 54.93 55.33 56.24 52.90 50.32 45.54 57.83 53.49 55.73 56.68 53.52 56.77 58.84 59.20 58.63 56.30 55.20 54.26 50.28 49.16 51.41 47.52 48.81 51.37 55.85 54.97 54.31 51.24 55.21 57.42 57.52 57.33 57.95 58.26 58.19 59.45
52.23 53.40 53.34 53.65 53.73 54.19 54.18 54.26 54.65 55.16 55.55 56.89 54.00 48.79 52.97 52.01 54.18 56.02 56.92 55.18 53.05 53.26 52.70 53.25 53.76 51.05 51.75 49.30 43.18 47.01 47.83 49.36 49.85 53.77 54.46 53.00 52.61 55.14 56.98 56.68 58.01 58.42 58.53 58.93 59.42
50.83 52.06 53.07 53.61 53.75 53.19 52.20 52.95 51.43 51.34 51.03 50.06 50.61 48.81 52.24 56.50 58.11 54.04 55.81 54.46 52.86 51.27 46.97 50.41 49.23 47.29 49.82 51.82 50.78 50.67 49.88 49.58 52.96 54.87 53.20 52.90 53.97 54.76 56.73 56.79 57.00 58.01 58.72 60.00 60.25
51.86 50.77 51.32 52.74 53.29 52.96 51.73 48.07 51.17 52.69 46.21 52.56 53.01 52.55 53.31 55.07 50.84 52.07 55.81 51.02 49.77 45.92 48.72 47.68 47.07 50.58 52.43 52.71 50.65 50.06 49.30 49.57 52.40 54.15 53.08 52.59 52.35 54.97 55.93 56.76 57.00 56.89 58.22 59.56 60.62
52.69 51.25 50.49 51.88 52.76 50.77 48.70 49.56 55.38 55.62 45.63 47.67 51.90 53.35 54.01 54.14 51.29 51.21 52.56 51.68 48.98 46.46 46.64 45.35 47.33 51.37 51.31 51.27 49.43 50.01 49.48 50.11 50.03 52.73 53.53 52.32 51.06 52.98 55.32 56.77 57.15 58.08 59.08 60.31 60.57
53.13 52.16 50.81 51.43 48.57 52.21 51.31 55.00 57.03 54.74 39.96 42.77 46.91 49.68 52.64 54.97 50.38 55.14 54.94 52.06 50.04 46.58 47.31 46.91 49.57 49.27 50.65 49.82 50.99 47.90 52.39 51.83 51.22 49.51 45.50 52.19 44.30 51.67 53.34 54.28 55.30 55.76 57.85 58.47 60.54
52.87 52.36 51.38 50.13 48.97 47.49 52.09 55.09 55.08 52.23 30.83 48.20 47.93 54.98 52.39 50.66 51.69 51.77 55.67 52.40 48.43 47.82 47.94 45.82 47.73 47.74 49.79 50.58 52.45 50.31 53.36 52.17 51.77 49.79 49.00 48.37 45.52 48.71 53.38 52.37 53.77 54.59 56.48 59.09 60.58
52.35 52.35 51.66 48.20 49.26 50.91 53.07 54.97 52.27 38.22 30.65 44.95 51.04 48.81 48.39 49.14 50.44 52.31 52.18 53.43 52.24 48.98 49.54 47.97 51.28 51.33 51.30 53.59 53.52 53.80 52.08 52.04 51.31 49.03 43.70 47.53 46.67 46.88 49.77 51.39 52.54 53.88 56.52 58.97 59.98
51.91 51.99 51.51 50.64 45.87 52.92 53.25 49.43 36.55 31.49 44.57 44.28 47.32 48.93 47.75 47.07 47.44 49.00 48.33 47.57 46.26 43.38 44.79 47.47 47.59 50.94 53.00 50.84 53.56 52.29 50.87 43.58 41.92 41.60 41.03 48.50 46.50 48.81 53.83 53.65 52.89 53.57 56.58 59.82 60.48
51.57 51.44 50.84 51.51 50.87 51.33 48.54 40.34 29.80 37.74 39.49 48.70 48.62 48.99 46.22 48.45 47.34 47.64 47.50 45.44 48.84 47.70 45.28 43.77 41.99 48.16 52.13 51.41 50.20 51.11 50.70 44.42 37.79 39.26 42.10 49.63 44.50 48.73 53.99 55.09 55.17 55.31 58.25 60.48 60.15
50.19 49.91 49.28 49.84 51.04 49.14 41.71 31.18 32.47 37.92 43.38 42.99 45.46 43.55 46.31 48.01 48.05 47.13 47.14 47.04 48.23 49.87 45.18 44.94 44.17 50.82 51.26 53.30 53.00 50.74 47.67 51.40 46.18 46.93 43.69 46.38 50.24 53.74 54.37 53.23 53.96 55.56 58.92 60.41 60.51
47.89 46.76 46.51 51.38 51.09 46.50 37.79 31.89 37.03 42.12 42.85 42.68 38.80 43.72 40.97 46.31 46.18 46.54 46.92 49.28 48.01 50.40 52.94 49.71 45.52 50.41 50.72 53.26 53.75 52.87 53.08 46.05 46.76 39.55 38.48 43.95 46.31 46.99 50.69 51.86 54.89 57.27 58.77 60.43 60.63
47.16 39.91 46.36 52.22 50.67 41.31 32.05 33.92 38.40 42.66 42.50 39.35 38.97 39.92 41.34 40.83 45.26 46.32 46.55 49.20 50.32 49.60 51.53 51.85 50.59 49.03 51.25 50.08 49.23 50.04 49.12 49.58 49.52 46.69 41.70 40.59 44.72 54.50 53.64 55.17 57.36 58.11 59.81 59.95 59.46
43.10 34.84 48.68 50.30 37.74 37.09 34.17 37.60 40.43 40.11 42.37 40.60 41.14 40.54 39.89 42.79 42.66 43.84 46.91 49.69 52.02 51.74 48.59 51.76 50.85 46.68 48.65 52.30 53.82 52.72 50.45 51.02 45.41 44.92 46.95 46.48 45.62 56.35 56.69 55.97 57.07 58.58 59.56 59.36 59.78
38.83 39.63 49.07 49.39 32.35 32.92 38.63 37.55 39.51 39.24 39.22 38.80 38.77 41.24 42.94 41.37 39.60 45.71 48.18 52.33 52.57 51.75 50.76 51.90 48.46 45.39 46.94 50.90 52.75 50.36 51.54 52.00 52.79 52.27 47.44 43.13 45.72 56.41 56.13 55.20 57.16 58.81 59.30 59.21 59.57
39.18 35.31 43.42 43.72 41.81 38.02 36.25 36.04 36.03 42.05 40.91 40.49 39.55 41.04 39.96 39.76 43.70 42.58 46.27 51.33 52.50 52.57 54.29 54.57 49.85 47.28 44.99 48.29 51.21 49.33 50.13 50.60 50.04 47.20 46.35 46.90 48.80 52.94 54.25 54.32 55.91 58.54 59.77 59.17 59.46
41.69 38.88 41.41 35.74 36.63 36.73 36.69 37.01 34.88 34.36 41.24 41.99 39.47 39.06 38.04 36.60 39.86 42.56 45.44 44.40 50.14 53.23 54.59 54.31 46.58 50.01 50.22 50.60 50.70 50.02 49.16 49.43 49.08 49.94 46.64 48.95 49.12 52.56 55.17 55.53 56.90 59.61 60.31 59.15 58.66
40.06 39.19 41.56 38.99 39.21 36.25 34.81 35.87 35.27 36.83 38.53 37.97 37.57 40.06 40.27 37.83 40.05 39.33 42.08 44.07 44.48 48.59 52.36 55.42 47.52 49.53 47.48 49.50 50.16 48.80 49.99 49.95 49.67 49.43 49.56 50.24 50.45 55.76 57.33 57.67 57.28 59.12 59.50 58.67 58.87
46.00 46.55 41.37 37.73 37.55 35.76 36.29 36.45 36.56 38.93 40.69 41.40 40.84 39.56 37.98 40.33 43.85 45.62 46.34 46.05 46.03 45.71 47.18 52.41 50.28 47.85 44.31 49.00 48.59 46.55 49.71 50.11 50.60 51.54 51.33 48.19 52.45 55.92 55.37 55.98 57.28 59.48 60.19 59.72 60.03

GFSSW_sfc_wetblb_015.txt.gz
Wetbulb
55.74 55.67 55.70 55.56 55.77 55.62 55.64 55.74 55.95 56.16 56.23 56.30 56.75 57.09 57.36 57.87 57.37 55.56 52.97 56.05 58.21 64.94 66.73 63.52 63.40 62.07 61.30 59.15 60.56 60.06 49.36 47.47 49.01 50.09 51.80 54.64 52.20 55.68 57.68 55.61 56.48 56.39 55.14 58.30 59.51
55.75 55.76 55.63 55.48 55.41 55.33 55.33 55.29 55.35 55.53 55.73 55.87 56.04 56.12 56.98 57.73 53.19 51.02 58.66 64.48 65.41 67.31 60.68 59.30 59.15 59.94 57.21 57.55 58.30 55.08 48.22 50.24 54.07 54.39 52.86 53.79 52.35 53.42 54.59 54.53 55.54 56.31 57.55 59.53 59.18
55.69 55.90 56.05 55.46 55.40 55.60 55.09 55.12 55.41 55.41 55.48 55.42 55.50 55.80 56.65 56.63 50.67 49.64 68.07 66.98 65.85 67.50 58.24 57.38 59.88 59.76 55.83 57.97 57.01 55.08 50.24 53.82 54.81 55.82 55.65 54.78 52.39 54.12 53.43 51.74 55.08 53.56 55.18 56.78 56.85
55.48 55.91 55.61 55.89 55.27 55.61 55.29 54.78 54.97 55.05 55.21 55.32 55.25 55.93 56.46 53.71 39.49 55.27 68.52 68.28 68.50 64.78 57.60 54.75 54.25 53.12 53.83 53.98 57.26 53.11 55.11 55.72 55.87 56.86 55.67 53.08 54.47 53.70 54.03 53.77 57.07 56.43 56.99 55.86 54.94
54.34 54.69 55.42 56.29 55.79 55.56 55.50 55.55 54.92 54.46 54.57 54.79 55.13 55.63 52.70 47.39 47.48 58.70 68.81 67.74 64.99 62.38 55.82 53.61 50.62 50.57 48.92 53.45 55.74 54.10 55.14 56.65 57.17 56.66 53.93 54.79 53.71 54.06 53.37 56.70 57.74 56.26 56.25 55.18 54.53
54.54 54.13 54.41 55.71 56.11 55.58 55.36 55.23 54.98 54.94 55.04 54.77 55.19 55.86 50.31 41.00 52.20 54.41 54.13 57.25 59.14 57.09 54.80 53.36 52.31 52.85 49.64 51.95 53.20 55.43 54.69 54.71 56.01 55.47 53.79 53.17 54.03 54.36 54.42 57.20 54.92 54.69 53.64 53.79 53.46
53.48 54.07 54.06 54.46 55.09 55.69 55.57 55.04 54.50 55.00 54.97 54.98 55.57 53.47 46.37 44.31 53.92 54.62 53.14 51.47 56.09 57.15 54.12 54.79 54.42 51.98 51.92 49.69 52.98 52.62 49.82 52.65 53.94 54.14 52.44 54.63 51.60 51.76 55.01 55.69 54.78 53.67 53.74 54.03 54.88
52.20 52.77 53.74 53.65 53.80 54.32 54.96 55.20 54.75 55.07 55.37 55.70 55.95 51.50 42.38 51.16 53.45 51.43 52.38 51.31 53.81 57.33 57.70 57.15 55.67 52.23 50.93 51.89 51.26 48.63 48.73 46.02 51.13 52.91 53.64 51.92 47.25 52.59 54.99 54.17 53.95 54.83 54.89 54.99 54.69
52.79 51.94 52.27 52.90 53.30 53.66 53.91 53.72 53.82 54.19 55.15 55.65 51.61 47.61 40.49 54.12 49.61 52.72 53.30 50.85 52.47 53.81 57.39 59.79 56.73 50.76 50.46 47.58 44.75 46.31 41.85 44.13 48.12 53.12 52.52 51.46 48.87 53.54 55.10 54.00 53.38 54.20 54.48 54.80 54.65
53.41 52.69 51.98 51.81 52.49 53.62 53.41 53.14 52.89 53.85 53.55 54.21 52.80 43.50 46.76 47.25 50.82 53.04 53.31 53.43 51.78 51.69 51.72 49.92 48.85 45.90 45.74 44.55 39.13 41.23 42.20 46.13 46.31 50.88 51.34 50.41 50.81 52.57 54.14 53.64 53.05 53.20 54.42 55.40 54.82
53.50 53.33 52.61 51.67 51.98 52.40 50.90 46.79 45.28 46.06 48.45 45.70 46.27 44.71 50.07 52.95 55.95 53.82 54.47 52.38 51.32 48.86 43.27 48.35 42.84 40.98 45.61 46.63 48.37 46.75 45.69 45.42 49.17 52.01 50.78 50.60 51.25 52.52 53.67 53.46 52.47 52.84 53.21 54.60 55.19
53.10 53.33 52.91 52.38 51.60 51.92 49.29 41.94 45.52 46.77 41.09 49.20 48.77 49.25 50.45 51.90 48.33 52.86 54.30 49.10 46.97 42.44 45.51 43.11 40.22 45.03 49.47 49.23 47.50 48.13 45.37 44.81 48.47 51.56 51.60 50.51 49.90 51.74 53.45 52.48 52.55 52.97 52.77 52.40 54.57
52.76 53.07 53.06 52.25 51.55 47.93 44.93 44.75 49.47 48.42 40.88 45.37 48.72 48.28 49.81 51.73 47.71 48.80 52.39 49.07 46.48 43.08 42.72 40.75 43.53 47.35 48.37 48.03 46.68 47.02 45.90 45.58 45.59 49.76 50.96 48.53 45.57 48.42 52.79 53.02 53.91 54.16 53.47 54.59 54.69
52.35 52.45 52.91 52.35 46.08 45.90 45.42 50.92 52.40 50.43 35.40 38.33 43.70 46.60 49.38 51.49 47.77 53.39 53.51 49.47 46.73 43.65 43.82 42.22 45.84 46.13 45.53 46.10 47.64 43.49 49.95 48.98 47.84 46.59 40.91 48.59 37.52 45.05 48.85 49.91 51.88 53.02 52.25 53.98 54.86
52.17 52.43 52.58 51.40 43.41 40.85 46.87 49.61 52.10 49.27 22.57 42.82 44.02 51.64 48.83 47.82 50.55 50.89 54.17 50.94 44.35 45.02 44.83 42.11 43.14 43.69 43.53 45.59 48.32 45.86 51.00 49.03 48.58 46.23 43.87 43.98 38.81 42.57 48.13 47.97 50.05 50.28 51.90 54.18 55.21
52.10 51.89 52.20 49.33 46.86 44.31 47.65 50.78 47.63 32.95 23.24 39.88 47.13 45.07 44.16 47.34 49.14 52.01 50.30 52.01 49.87 45.97 46.34 45.21 48.61 46.41 45.22 47.52 49.30 50.98 49.06 48.42 48.08 46.25 36.84 42.66 41.32 42.16 44.91 48.43 48.52 50.61 53.59 55.13 54.96
51.53 51.49 50.70 50.15 43.55 48.54 48.26 45.71 32.06 26.65 39.92 39.01 43.37 44.87 44.08 43.27 45.69 47.96 46.18 44.60 42.13 38.93 39.85 44.53 44.50 47.36 48.27 45.26 47.77 49.55 44.69 37.85 33.66 34.83 33.34 44.39 41.47 42.73 48.43 51.25 50.07 51.78 53.94 54.31 55.65
51.25 51.24 49.84 49.43 49.46 49.02 45.53 38.18 25.51 33.39 34.17 40.70 40.22 41.62 39.69 44.60 43.70 45.17 44.98 41.81 45.34 43.73 39.59 38.23 37.31 44.93 47.93 45.58 44.79 45.16 45.10 38.37 31.01 32.48 36.54 44.96 39.61 44.45 51.34 52.92 52.25 54.87 54.84 55.13 54.76
50.02 46.57 47.02 48.25 49.51 48.69 39.59 28.31 28.37 32.85 37.84 38.15 37.91 36.37 39.25 40.86 43.37 43.60 43.29 42.91 44.55 45.10 39.19 38.34 39.24 47.73 48.34 48.48 47.62 45.28 43.24 46.68 40.22 40.84 36.64 40.76 45.80 49.29 50.37 49.99 50.92 54.26 54.56 53.19 54.30
46.66 45.07 43.41 48.82 49.71 45.06 35.07 30.18 32.17 38.37 39.21 38.81 31.81 35.88 31.68 35.35 38.13 39.68 42.07 45.45 45.19 46.98 47.06 42.84 38.19 46.30 47.52 48.36 48.30 46.88 49.15 41.91 38.61 32.65 29.95 38.74 41.30 42.70 47.40 47.79 51.81 53.44 53.03 53.44 54.04
45.26 39.80 44.15 48.41 48.02 39.57 30.04 31.08 35.52 39.88 39.88 36.35 33.81 32.98 34.26 34.46 37.00 36.97 40.47 46.29 48.00 47.06 47.13 45.13 41.90 43.63 46.60 44.31 43.21 44.42 44.73 43.51 41.89 39.14 33.17 32.42 37.58 47.70 47.22 50.40 51.95 53.17 54.45 53.89 54.05
43.35 34.84 46.01 47.46 36.25 36.53 32.44 34.17 39.17 38.21 40.48 38.32 38.13 36.45 34.40 36.33 35.26 36.18 38.92 44.77 49.31 48.82 43.62 45.51 41.95 39.36 43.64 48.01 48.87 47.70 45.26 43.78 40.38 37.12 39.63 38.36 39.93 50.74 50.92 53.25 53.69 54.43 55.33 53.94 53.78
38.90 38.80 46.81 46.65 30.32 31.56 34.78 35.75 37.48 36.73 37.28 37.31 36.38 38.80 38.74 35.83 32.91 37.59 41.30 46.79 47.89 46.26 45.47 45.77 41.74 35.63 39.62 43.88 47.29 45.90 47.59 46.63 44.11 42.60 39.48 37.33 38.99 50.85 52.20 52.23 55.53 54.24 54.94 55.14 54.19
38.94 32.51 40.14 41.38 39.13 35.27 33.12 33.16 33.30 39.93 38.37 39.01 37.94 39.46 36.64 34.72 37.83 35.55 37.81 44.28 46.63 47.99 51.84 50.35 41.99 40.02 37.27 41.52 45.55 44.24 47.00 47.30 44.34 39.13 40.80 42.91 43.40 48.55 50.25 50.82 52.89 54.62 54.62 54.51 54.70
39.85 35.95 39.35 32.66 34.46 35.24 35.66 34.04 31.54 31.79 37.61 38.15 36.11 36.70 35.94 32.55 34.43 34.47 38.82 41.05 44.36 48.00 44.01 45.46 40.57 43.47 44.52 46.49 47.03 47.20 47.28 47.28 44.94 45.25 42.69 44.08 44.82 47.64 49.83 50.48 53.12 54.80 54.46 54.49 53.85
35.67 37.21 38.39 34.73 36.60 34.54 34.12 32.23 31.87 34.11 35.61 34.53 34.47 37.62 37.73 34.92 35.46 33.72 37.44 37.13 38.17 41.74 39.65 42.10 41.28 43.38 42.42 46.65 46.35 46.07 47.94 47.89 47.67 46.57 46.03 46.51 45.74 50.89 53.56 52.65 53.41 55.08 55.10 54.59 54.70
43.83 44.37 39.98 35.28 34.06 33.31 33.40 34.60 35.01 36.66 38.10 39.51 38.62 36.85 36.67 38.78 40.64 41.57 40.64 40.36 40.18 38.23 37.27 38.29 41.89 40.90 38.08 44.22 44.56 40.92 47.21 47.35 47.86 47.74 46.96 43.62 45.86 49.71 50.90 51.67 51.62 55.09 55.52 55.16 55.53

GFSSW_sfc_wetblb_021.txt.gz
Wetbulb
55.43 55.61 55.83 56.12 56.25 56.09 55.78 55.70 55.60 55.69 55.77 56.22 56.29 56.22 56.36 56.62 56.46 49.88 46.27 52.98 55.69 64.11 66.29 65.17 63.11 61.06 59.54 55.98 57.13 54.38 45.40 43.44 45.88 46.80 49.14 51.78 50.46 54.13 54.68 53.10 53.09 53.86 54.22 55.47 56.32
54.45 54.52 54.58 55.00 55.87 56.44 55.78 55.67 55.45 55.33 55.42 55.56 55.58 55.63 56.05 56.58 52.11 48.40 56.17 61.82 63.63 66.69 58.93 59.33 57.59 58.28 53.14 54.44 54.66 51.33 45.10 46.99 51.85 51.40 50.41 52.41 50.94 52.51 52.05 52.90 51.65 53.28 55.92 56.73 55.98
53.91 54.22 54.32 54.27 54.48 55.08 55.63 55.67 55.53 55.32 55.42 55.45 55.28 55.49 56.15 55.50 46.58 45.75 62.89 63.03 63.33 65.62 56.69 57.73 58.92 55.99 51.49 52.54 52.05 50.76 48.78 52.43 52.89 54.73 54.23 52.36 53.50 56.11 51.53 50.43 52.43 52.14 53.88 54.45 54.29
52.55 52.50 53.19 53.89 54.06 54.02 54.21 54.77 55.66 55.88 55.70 55.37 55.09 55.25 56.20 51.81 36.86 47.53 66.61 68.07 68.26 61.78 56.11 52.98 52.91 51.42 49.98 49.14 53.12 48.07 52.52 54.42 54.91 56.36 55.00 53.49 55.60 54.00 54.93 54.25 56.54 54.66 55.52 54.52 53.43
53.32 53.25 52.35 51.94 52.72 53.56 53.64 53.79 54.19 54.96 55.33 55.17 55.18 55.31 51.47 45.33 42.46 49.75 62.71 61.63 63.11 58.72 54.25 51.21 48.32 48.10 44.86 47.81 50.98 49.34 51.88 53.59 54.92 55.46 55.40 55.78 53.69 53.89 54.62 56.77 57.43 54.53 55.32 54.34 54.12
53.95 53.65 53.36 53.20 52.31 52.05 53.53 54.09 54.03 53.93 54.27 54.72 54.94 55.30 48.30 36.39 47.80 51.21 50.75 50.39 50.70 56.02 54.79 51.34 49.67 50.56 45.43 46.41 45.14 49.39 49.66 50.97 52.73 53.77 54.55 52.45 52.28 51.94 53.71 55.89 54.26 53.33 53.79 54.21 54.01
54.17 54.07 53.73 53.66 53.41 52.99 52.14 52.78 53.41 53.81 53.48 53.75 54.25 52.30 46.19 43.59 51.03 50.14 48.33 46.74 48.67 49.68 51.85 54.65 53.37 50.14 47.05 44.37 47.70 47.08 44.18 46.83 48.11 50.05 50.13 51.73 47.96 49.53 53.34 53.56 52.61 51.70 52.76 53.96 54.35
53.83 53.62 53.25 53.34 53.57 53.56 53.16 53.27 52.53 51.92 52.87 53.73 54.12 50.02 43.06 51.88 52.79 50.79 51.06 48.68 47.96 48.60 50.74 53.55 54.83 49.31 46.09 46.16 46.50 43.52 42.26 39.35 47.09 49.27 50.54 48.65 43.72 50.76 53.52 51.28 51.42 52.26 51.73 52.85 53.17
53.41 53.16 52.81 52.63 52.88 53.52 53.82 53.15 52.85 52.32 52.16 53.12 48.53 47.19 40.19 52.32 48.77 51.18 49.93 46.40 47.67 47.41 48.82 52.98 51.21 46.79 45.46 42.64 38.10 39.32 37.46 39.02 43.02 48.23 47.83 47.03 44.49 49.82 52.17 51.17 50.68 51.92 51.87 50.96 52.51
52.82 52.90 52.81 52.46 52.52 53.06 53.35 52.68 51.88 50.64 50.15 50.30 49.13 42.64 44.90 44.21 48.00 49.40 49.51 48.51 46.61 47.24 46.24 45.84 46.60 42.63 40.15 38.06 34.19 36.72 37.04 39.68 41.02 45.89 45.94 44.84 44.68 49.31 51.27 50.85 51.53 51.76 51.18 51.44 51.56
52.34 52.36 52.30 52.65 52.59 52.59 51.09 43.92 39.08 41.44 44.73 41.38 41.46 41.07 45.44 49.37 51.49 49.24 49.48 46.49 46.63 45.19 39.12 43.23 39.87 39.72 42.42 44.72 45.04 42.99 40.96 40.28 43.84 47.21 45.28 44.11 45.03 47.83 50.19 49.48 50.31 50.34 49.65 50.86 50.64
52.07 51.92 51.81 52.36 52.07 52.60 48.23 38.99 42.36 43.56 37.29 44.00 43.62 45.35 47.99 49.00 43.58 48.24 49.79 43.65 42.55 37.71 42.01 40.56 37.84 43.94 47.96 46.90 44.70 42.51 39.86 40.27 44.73 47.27 44.83 44.01 44.12 47.39 48.84 49.53 49.92 50.98 50.74 49.82 51.39
52.02 51.91 51.61 51.93 52.21 46.78 40.77 42.75 47.49 46.97 36.35 39.99 43.78 42.99 44.35 46.81 43.07 44.84 48.82 46.67 41.90 38.87 39.84 38.46 41.73 45.76 46.37 44.61 42.57 41.98 39.72 40.46 41.05 44.98 46.36 44.16 43.09 45.50 49.19 49.61 50.98 51.08 50.69 50.86 51.79
51.99 51.92 51.87 51.90 45.51 42.06 41.40 44.42 46.04 46.67 31.51 34.66 40.65 43.04 45.15 45.65 41.74 48.13 50.15 48.11 43.28 38.95 40.01 38.93 43.07 43.55 42.69 42.43 42.14 37.82 44.31 43.91 43.14 40.57 35.05 43.80 33.92 41.59 45.35 47.32 48.56 49.48 48.44 49.71 51.16
51.57 51.15 51.48 51.29 45.56 42.47 44.03 45.94 48.50 43.99 18.74 37.89 40.42 49.09 46.69 42.20 45.18 45.09 49.64 47.33 42.31 41.01 41.44 37.83 40.26 40.55 40.74 41.94 44.12 41.25 46.00 44.37 43.99 40.41 38.01 41.19 36.16 40.15 43.52 44.69 46.58 48.40 48.57 48.96 50.87
51.52 51.41 51.12 47.27 46.20 45.48 46.91 45.95 43.67 30.16 21.09 34.63 40.05 38.32 39.33 42.51 43.25 46.74 46.18 47.52 47.17 42.43 41.47 40.68 44.96 43.44 42.89 45.57 45.74 45.28 43.10 41.78 41.14 38.58 33.57 39.66 37.69 37.35 41.53 44.99 46.94 48.09 49.49 49.72 50.63
51.04 50.89 49.61 48.83 41.20 44.37 45.54 40.05 28.90 23.32 36.46 33.11 33.73 37.04 36.88 36.32 40.12 41.69 41.56 39.96 38.24 34.87 35.85 39.22 40.44 42.90 44.40 40.77 42.77 41.17 35.78 28.68 26.97 29.09 30.84 40.37 37.24 41.13 44.46 47.45 48.54 48.55 49.17 49.83 51.51
50.94 50.45 48.64 47.51 45.08 45.73 41.42 33.89 22.46 30.62 31.86 37.82 35.86 36.16 32.89 35.67 35.27 37.42 38.63 37.71 41.80 40.16 36.98 34.27 32.73 41.22 44.28 41.21 38.86 39.38 38.88 31.36 25.81 27.83 32.66 40.58 35.77 40.94 47.59 49.76 49.74 50.01 49.89 50.92 51.24
49.36 45.88 43.24 43.86 46.33 45.09 39.37 26.41 24.75 30.59 34.61 33.26 34.69 31.79 32.24 34.72 34.81 34.73 34.30 37.56 41.27 42.28 34.85 34.87 35.18 44.09 44.92 44.66 42.92 38.19 36.10 41.24 34.68 35.15 32.45 35.85 40.52 45.76 47.50 47.93 48.83 49.39 50.12 49.63 51.42
44.73 42.35 39.32 45.34 45.73 44.69 34.80 27.51 29.90 35.91 36.04 35.82 28.55 32.84 28.10 31.40 31.27 31.85 32.91 39.06 39.89 42.81 41.92 38.02 32.79 42.01 43.82 45.26 44.06 39.62 41.58 34.18 33.27 27.86 27.83 34.12 36.46 38.86 43.45 45.94 48.09 48.39 48.24 49.62 50.74
40.36 36.23 39.60 47.58 47.83 39.32 29.16 28.37 32.69 37.21 37.02 33.38 31.32 30.07 31.21 31.32 32.41 31.36 33.06 38.88 40.60 39.65 42.15 39.01 35.63 37.64 41.57 39.92 39.33 37.13 37.24 36.40 36.87 35.13 29.57 28.69 34.43 42.84 44.77 46.53 47.78 48.26 48.95 49.88 51.15
36.46 31.13 42.77 47.52 35.51 35.30 28.38 32.50 37.11 35.00 38.06 35.75 36.01 33.85 32.83 34.05 32.36 31.70 32.15 36.55 42.11 40.60 35.60 38.29 35.22 33.05 37.06 40.97 45.12 42.34 38.78 38.35 35.71 31.72 35.78 34.33 36.59 45.87 45.88 46.94 49.80 48.97 50.00 49.73 51.51
36.48 36.35 43.67 44.94 30.38 30.85 34.07 33.23 34.93 34.03 34.63 34.53 33.78 35.89 36.70 33.43 29.90 33.77 35.36 41.02 41.62 38.73 37.06 38.69 34.34 30.98 32.38 37.46 40.64 40.03 40.80 41.04 37.88 36.50 34.16 35.05 37.90 45.71 47.28 46.65 49.81 48.60 49.92 50.76 51.14
37.01 30.26 35.70 38.34 36.72 33.19 32.09 31.51 31.81 37.38 35.13 35.67 34.94 35.46 33.73 32.23 35.23 32.55 34.16 38.15 40.78 39.81 44.66 40.03 34.76 34.88 32.18 35.05 39.38 36.87 40.39 40.47 39.67 35.99 36.73 38.23 38.40 43.29 46.27 48.01 49.03 49.30 49.74 50.50 51.83
33.70 31.34 37.06 29.81 31.92 33.10 31.61 32.59 30.68 31.04 35.14 34.81 32.13 32.86 32.28 29.89 31.93 32.00 35.80 37.51 39.74 41.48 39.91 34.94 29.47 35.85 39.24 40.85 40.69 40.66 40.32 41.06 39.90 40.51 38.01 40.74 40.90 44.12 46.68 48.02 50.59 51.05 49.74 50.52 51.10
34.14 35.78 36.20 34.01 34.51 31.65 31.16 31.37 31.35 33.56 34.14 32.65 31.08 33.99 34.10 31.62 33.12 31.27 35.47 35.98 34.98 37.92 37.16 35.39 28.74 34.74 36.32 41.06 40.87 39.02 41.10 41.73 42.14 42.60 42.34 41.84 41.45 46.45 48.59 50.79 50.32 51.05 51.18 51.28 51.83
41.45 42.38 37.79 32.06 31.43 26.99 26.60 31.23 32.84 34.93 36.52 37.34 36.09 33.74 32.62 35.13 39.30 39.78 39.87 40.17 39.42 36.61 35.33 34.28 31.52 29.92 30.18 39.62 38.63 34.77 39.66 40.50 42.29 44.86 44.45 40.55 43.33 45.79 46.08 51.11 51.15 50.71 52.15 52.32 53.01

GFSSW_sfc_wetblb_024.txt.gz
Wetbulb
54.61 54.71 54.56 54.56 54.64 55.07 55.74 55.98 55.97 56.06 55.94 55.99 55.99 55.82 55.94 56.40 55.98 49.42 45.39 52.31 55.42 63.96 66.24 64.23 60.94 60.16 57.54 55.04 55.85 53.26 44.66 42.28 45.50 46.08 47.72 49.93 48.57 52.18 53.84 52.51 51.97 53.87 53.06 54.55 55.05
53.00 52.92 53.43 54.10 54.41 54.22 54.27 54.64 55.17 55.87 55.93 55.98 55.88 55.70 55.67 56.50 50.81 47.41 54.59 61.52 63.98 66.19 57.80 59.20 57.51 58.03 52.74 52.91 53.60 50.41 43.78 45.71 50.27 49.74 49.00 49.59 49.95 52.46 52.17 52.99 53.23 52.73 54.38 55.72 54.63
53.82 53.75 53.23 52.71 52.80 53.17 54.11 54.05 54.12 54.71 55.93 56.00 55.95 55.62 55.61 55.02 44.11 43.70 61.31 61.10 62.82 64.86 54.87 59.33 58.89 55.67 50.29 50.80 51.62 50.29 48.15 51.47 50.95 52.43 51.32 51.69 52.49 54.06 51.91 50.64 54.25 52.61 55.98 53.88 53.21
54.39 54.29 54.05 53.88 53.57 52.38 52.38 53.43 54.15 54.32 54.45 55.07 55.30 55.26 55.86 50.53 34.74 49.24 66.20 67.15 67.95 61.15 53.19 54.02 55.41 50.48 48.07 47.75 52.10 46.29 51.66 53.50 52.66 53.51 51.54 52.43 53.78 53.41 54.85 54.23 56.87 57.01 56.54 53.75 52.27
53.53 54.00 54.10 54.01 53.97 53.54 53.22 52.55 52.58 53.58 53.73 53.81 54.37 54.92 51.04 43.17 41.44 48.26 60.60 56.84 59.42 57.73 51.51 51.13 50.64 51.27 46.86 48.28 50.66 47.84 50.84 51.85 52.81 52.33 53.05 54.65 52.90 53.30 53.69 57.31 57.69 56.31 54.15 53.39 52.60
53.21 53.30 53.01 53.14 53.39 53.78 54.00 53.64 53.08 52.30 52.31 53.41 53.52 54.24 47.81 39.05 49.42 48.44 51.93 48.79 48.74 53.19 52.93 50.11 48.81 50.57 45.84 45.10 44.35 48.20 49.64 49.26 49.88 50.83 52.10 51.57 51.30 50.71 53.46 56.14 54.04 53.89 52.77 53.01 52.69
52.92 52.94 52.98 52.72 52.68 52.89 53.77 52.92 52.58 53.13 53.07 52.18 53.18 50.86 45.03 42.68 51.99 52.99 51.71 47.69 46.74 47.74 47.59 54.00 52.42 48.90 46.19 42.84 45.60 44.96 41.31 44.32 46.03 47.22 47.26 50.24 45.09 47.16 52.34 53.01 51.72 52.01 52.61 52.41 53.19
52.92 53.25 52.61 52.61 52.59 52.23 52.55 53.33 53.43 53.14 53.35 53.25 52.54 48.67 39.54 50.41 51.91 50.40 51.32 49.85 51.28 49.80 47.36 50.15 54.36 49.36 44.27 45.12 44.78 41.47 40.81 37.60 44.58 47.58 47.46 47.04 40.63 48.23 51.46 50.47 50.68 51.27 51.66 51.36 52.36
52.44 52.79 52.44 52.21 52.26 52.53 52.73 52.61 52.92 53.37 53.21 52.72 47.55 44.58 37.64 51.14 47.68 50.66 50.89 47.44 49.31 48.88 46.08 49.76 51.53 46.67 44.26 41.45 37.79 38.52 36.50 37.55 40.20 46.19 45.87 45.53 42.33 48.37 50.31 49.88 49.79 50.93 51.33 51.72 51.39
52.11 52.48 52.55 51.96 52.13 52.40 52.60 52.27 51.80 50.02 49.66 49.64 48.17 40.76 42.89 40.81 48.35 49.35 50.76 49.55 46.28 44.43 43.52 43.55 45.31 41.48 39.31 37.68 33.12 34.70 35.38 37.77 38.56 44.17 43.09 41.77 42.06 47.26 49.30 48.70 48.63 49.46 50.31 50.70 50.83
52.04 52.19 52.38 52.09 51.73 52.05 50.01 42.53 40.50 39.59 42.69 38.48 39.28 39.71 42.27 48.32 50.76 48.26 48.66 46.85 45.85 42.24 36.64 40.67 37.97 37.71 40.29 42.20 41.49 40.89 38.91 38.19 42.09 45.97 43.28 41.94 42.45 45.93 48.78 47.43 47.24 48.64 49.78 50.51 49.82
51.81 51.65 51.71 51.76 51.61 51.81 47.82 37.52 41.82 41.54 35.30 42.71 42.64 43.36 45.66 47.26 41.48 45.46 47.93 41.93 41.37 37.27 40.15 38.37 35.95 41.59 44.09 43.72 42.59 41.40 39.43 39.15 43.86 45.82 43.35 42.57 42.22 45.53 47.57 47.65 47.71 49.21 49.99 49.32 49.65
51.64 51.28 51.40 51.36 51.57 44.49 39.81 41.36 45.27 44.51 34.99 38.78 42.43 41.60 42.15 44.58 40.58 41.61 46.92 43.38 40.09 37.50 37.87 36.16 39.42 43.79 44.13 42.31 41.11 41.17 39.80 40.72 40.84 42.59 42.86 41.19 40.05 42.77 46.80 47.99 48.65 49.69 50.44 49.77 49.76
51.50 51.69 51.56 51.42 44.01 41.73 41.42 43.62 45.95 47.39 30.31 33.56 38.18 41.20 42.98 42.73 38.98 46.00 48.66 44.44 41.40 37.04 38.38 37.25 41.67 41.44 41.84 41.59 42.82 37.82 44.56 44.51 42.88 38.59 32.75 40.95 31.50 40.64 44.46 45.81 47.26 48.87 47.43 48.02 49.84
51.57 51.52 51.61 50.82 44.50 41.74 42.89 45.50 45.72 41.27 18.10 35.95 39.62 47.25 44.71 39.57 41.62 42.22 47.43 45.22 40.31 39.15 38.50 35.45 38.51 38.41 39.12 41.72 45.04 40.76 45.81 43.95 42.30 37.37 34.96 37.56 34.21 38.76 42.40 43.30 45.77 47.85 48.56 47.71 49.73
51.69 51.53 51.10 47.64 45.57 44.43 45.59 44.91 41.19 29.77 19.74 33.33 38.84 37.42 36.90 41.00 41.47 44.34 41.88 44.55 45.64 40.05 39.91 38.87 43.55 41.73 41.61 44.23 45.81 45.65 42.72 40.16 38.35 35.61 29.42 35.95 36.12 36.34 39.49 44.49 45.75 47.80 48.34 49.33 50.04
50.68 50.57 49.33 48.00 41.02 43.38 43.85 39.47 26.80 20.93 34.84 31.43 32.61 36.57 36.48 34.77 38.39 40.05 39.23 35.95 36.10 33.23 32.94 37.13 38.10 40.77 43.20 40.26 42.41 40.77 35.58 26.92 25.38 26.10 27.12 38.40 35.20 38.53 43.23 45.63 47.35 47.87 47.72 48.80 50.26
50.14 49.49 47.04 47.05 43.86 44.91 40.19 31.74 21.39 28.61 29.78 36.50 34.82 35.67 32.52 35.03 34.24 35.50 36.10 34.16 38.50 37.02 34.96 31.89 30.23 39.41 42.58 39.98 38.57 38.99 36.19 29.21 23.99 25.72 31.34 38.94 33.54 38.69 46.39 49.19 48.98 48.96 48.42 49.63 49.71
48.46 41.73 40.09 42.99 44.67 46.37 39.24 24.43 22.83 29.21 33.82 32.36 33.59 30.54 30.95 34.03 33.88 33.64 32.47 35.09 38.06 39.28 32.36 33.31 33.51 41.92 43.13 43.23 42.99 36.81 35.21 37.98 32.01 33.33 30.45 33.76 38.32 43.71 46.10 46.71 47.70 47.27 48.58 48.45 49.49
42.97 41.95 38.93 47.04 46.23 44.42 32.00 26.31 28.37 34.91 34.76 33.77 27.70 31.86 26.95 30.02 30.67 30.91 31.65 37.73 36.76 39.17 38.61 36.45 31.31 40.50 42.31 42.97 43.28 39.81 40.95 32.68 31.44 25.97 25.28 32.33 35.05 37.82 42.92 45.56 47.71 47.43 47.26 47.95 49.48
37.23 34.86 39.03 48.40 46.78 38.95 25.42 27.86 31.76 36.56 36.29 32.16 30.31 28.94 30.01 29.40 31.92 30.05 31.08 36.00 39.01 37.04 39.65 36.97 33.91 35.56 39.92 38.43 36.44 34.67 35.87 33.42 34.69 31.74 27.30 27.29 32.89 41.87 44.40 45.75 46.81 47.09 47.63 48.40 49.89
38.67 27.19 40.78 47.15 35.06 33.88 28.00 31.90 36.56 33.99 36.63 34.84 34.22 32.10 30.41 32.64 31.50 30.69 29.87 33.57 39.95 39.52 32.90 36.83 32.64 31.54 36.11 39.94 43.43 41.09 36.48 36.01 33.19 30.24 32.03 32.31 33.36 44.41 45.26 45.65 46.99 47.69 48.35 48.70 50.30
34.81 33.43 41.59 43.27 28.89 30.87 34.10 33.44 34.45 33.62 33.94 33.87 32.56 34.34 35.61 32.65 28.20 33.35 33.99 38.69 39.35 37.82 34.94 37.40 31.83 28.16 30.75 36.10 38.81 38.71 38.87 38.13 35.19 33.74 32.74 30.07 32.83 45.21 45.92 47.08 46.42 47.26 48.30 49.53 50.78
32.33 28.43 32.78 36.03 36.18 33.71 30.41 30.36 30.73 36.76 34.59 34.79 33.64 34.62 32.01 31.69 34.36 31.45 33.21 37.64 39.71 38.91 42.83 40.22 32.08 31.27 29.06 32.60 36.39 36.03 38.43 39.31 34.99 29.93 33.12 37.37 37.28 43.50 45.66 45.85 46.98 47.63 48.24 49.03 50.57
32.53 30.52 36.87 27.57 28.95 33.08 31.14 30.58 29.64 30.12 35.22 35.17 30.99 31.79 30.78 28.96 31.37 31.75 35.25 36.80 38.97 41.07 40.01 36.44 27.74 32.66 34.20 37.33 38.71 37.77 38.85 38.74 37.49 38.22 34.57 37.16 38.93 42.51 44.78 46.12 47.75 48.28 48.42 49.55 50.22
32.06 31.97 35.47 32.50 34.08 30.37 29.39 28.95 29.71 32.28 33.10 32.25 31.22 33.56 33.20 29.67 32.56 30.42 34.39 35.65 34.87 37.62 36.88 37.59 27.78 31.85 29.97 37.77 38.86 37.62 38.58 39.95 39.88 39.22 38.70 39.31 38.88 44.54 46.65 48.99 48.63 49.25 49.76 49.95 50.87
36.85 38.44 38.29 32.70 31.69 26.16 24.67 30.48 31.13 33.04 34.27 36.23 35.06 32.95 31.56 33.42 37.18 37.59 37.78 38.38 38.28 36.33 34.84 34.03 29.91 27.64 25.30 33.23 34.61 32.62 38.52 38.44 39.69 41.73 40.87 37.64 42.58 44.21 45.96 48.65 48.70 48.81 50.70 51.14 51.79

GFSSW_sfc_wetblb_027.txt.gz
Wetbulb
53.85 53.58 53.24 53.22 53.29 53.92 54.40 54.46 54.61 54.88 55.82 56.37 56.42 56.48 56.28 56.43 56.22 51.52 45.76 53.12 56.08 62.72 64.87 62.29 60.75 60.79 61.52 58.73 59.41 58.06 52.00 48.01 49.10 49.62 52.26 56.19 55.27 57.04 58.07 57.94 58.04 58.76 59.26 60.47 60.55
54.66 54.08 53.75 53.74 53.47 52.82 52.66 53.27 54.19 54.49 54.66 55.84 56.36 56.08 55.98 56.44 51.97 48.59 55.30 60.61 63.52 65.33 59.59 57.98 55.24 58.68 56.62 57.36 58.18 55.76 51.43 50.59 53.91 54.06 53.34 54.84 55.24 56.29 56.24 56.75 57.25 58.60 60.78 59.97 59.87
54.05 54.47 54.70 54.53 54.39 54.07 53.74 53.22 53.00 53.69 53.94 54.29 54.83 55.33 55.57 55.48 45.92 45.45 63.27 62.05 62.01 63.87 56.80 57.33 57.31 57.63 54.80 56.72 56.33 55.75 51.46 54.65 54.97 55.72 55.56 55.29 55.45 57.44 55.74 54.39 57.11 57.16 59.29 61.58 62.01
53.54 53.85 53.81 53.66 53.97 54.06 54.15 53.93 53.89 53.42 53.07 53.69 54.02 54.42 55.55 51.67 40.69 50.93 61.22 59.84 66.10 62.38 54.50 51.94 55.80 54.40 52.39 52.16 56.48 52.21 55.19 55.82 56.16 56.92 55.99 54.91 57.05 55.49 56.70 57.15 59.58 60.01 60.88 61.26 60.75
52.99 53.43 53.41 53.26 53.05 53.00 53.26 53.55 53.97 53.24 53.39 52.71 53.23 53.79 51.25 45.15 44.84 50.53 57.59 56.01 57.03 59.06 53.42 50.54 52.96 52.36 49.29 52.40 53.88 52.60 54.10 55.95 57.25 57.14 56.61 56.92 54.94 54.58 55.15 58.02 59.55 60.21 60.26 59.66 59.67
52.48 52.49 52.89 53.01 52.61 52.60 52.61 53.10 53.35 52.55 52.89 52.93 52.71 53.16 47.02 37.57 51.91 53.18 53.76 52.68 49.50 56.45 53.78 51.71 51.02 54.02 51.71 51.53 51.39 53.09 53.82 53.94 55.40 55.23 55.61 53.25 53.00 53.49 54.12 57.32 56.68 57.01 56.95 57.79 58.87
51.88 52.17 52.44 52.60 52.42 51.94 52.16 52.77 53.01 52.87 53.21 53.36 53.25 49.87 44.31 41.54 52.09 53.52 52.39 51.08 50.85 49.25 47.78 52.85 54.09 51.46 51.62 48.74 52.36 50.80 48.71 50.62 50.89 51.99 50.68 51.01 47.63 48.58 53.05 54.65 53.94 54.68 56.38 57.52 59.10
52.50 52.47 52.41 52.39 52.37 52.10 51.94 52.74 52.68 52.87 53.66 53.78 53.89 48.96 40.55 50.39 52.80 50.85 52.27 51.10 52.62 52.55 50.33 50.11 53.89 52.04 50.04 50.56 48.37 47.27 47.08 43.99 49.11 49.57 49.88 49.30 44.71 50.84 53.81 53.63 53.71 55.20 55.99 56.80 58.46
52.49 52.72 52.10 52.28 52.47 52.12 52.39 52.47 52.37 52.73 52.93 52.77 49.31 45.11 39.23 50.94 46.74 51.35 52.23 48.38 51.07 51.67 51.03 50.05 49.77 49.44 49.40 46.11 44.34 45.19 42.21 42.64 44.75 48.60 48.20 48.91 46.26 50.62 53.28 53.24 53.00 54.39 55.45 56.16 57.28
52.37 52.41 52.37 51.86 52.30 52.01 52.33 51.55 51.12 50.76 50.39 50.53 48.69 40.92 43.20 42.34 48.38 50.34 52.77 51.05 48.19 48.55 46.36 46.05 46.98 44.84 44.10 43.81 38.16 40.69 40.19 42.89 42.54 46.45 46.88 46.36 46.54 50.09 52.39 53.03 52.92 54.27 55.38 56.22 57.05
51.91 52.08 52.06 51.89 51.72 51.77 50.29 46.65 44.93 42.97 44.08 41.24 41.12 41.37 43.03 47.18 50.21 47.83 50.28 48.99 48.12 45.35 41.42 44.14 40.88 40.26 42.96 43.82 44.99 45.28 44.03 43.85 45.41 47.77 46.18 47.07 47.75 50.02 52.55 52.65 52.71 53.77 54.71 56.15 57.63
51.70 51.70 51.68 51.68 51.45 50.88 47.56 41.82 41.86 42.91 36.83 43.26 42.90 43.38 45.89 47.44 41.38 45.09 49.64 44.08 42.69 39.25 43.22 40.88 38.87 44.14 46.36 45.45 43.12 42.65 41.88 42.40 45.48 47.28 47.07 47.38 46.82 49.90 51.44 51.63 52.79 53.46 54.59 55.92 57.86
52.21 51.69 51.89 52.02 51.80 46.78 44.37 43.64 48.10 47.64 37.07 39.84 43.04 42.43 43.37 45.26 40.91 42.44 46.77 44.83 41.30 39.46 40.41 39.93 42.26 44.49 43.62 43.95 42.22 42.19 41.49 42.26 43.13 46.32 47.67 46.66 45.01 47.48 50.76 52.45 52.94 54.13 56.24 57.15 57.36
52.18 52.01 52.01 51.66 45.94 45.53 43.05 47.26 48.62 47.83 32.35 34.79 38.53 42.28 44.43 44.59 39.63 46.82 46.94 45.33 42.10 39.00 40.49 40.90 44.76 42.72 41.72 41.72 43.94 39.92 45.48 44.65 43.51 42.11 40.36 46.22 38.81 45.99 48.48 49.10 51.64 53.83 55.82 56.88 56.69
51.51 51.10 51.11 50.66 46.18 42.13 45.12 48.58 48.94 44.28 19.49 36.67 40.48 48.61 45.68 41.57 42.67 44.10 47.90 44.80 40.37 40.65 41.27 38.81 40.45 40.74 40.46 41.83 44.76 42.51 46.48 44.69 43.67 41.98 42.44 42.90 39.91 43.78 48.41 47.04 49.77 51.85 54.97 56.84 55.75
51.23 50.93 50.69 47.47 46.90 46.60 48.57 48.15 45.16 30.76 18.88 33.80 39.67 38.65 39.07 41.10 41.20 43.86 43.25 45.45 45.82 42.32 42.22 42.19 44.81 43.42 43.31 44.75 45.92 47.10 45.60 45.31 45.04 43.46 36.79 42.34 41.19 41.01 44.68 46.80 49.34 52.26 55.20 55.55 55.96
50.78 50.19 49.10 47.65 42.10 47.11 47.99 43.89 29.06 21.92 34.72 32.09 33.94 37.29 36.92 35.71 37.41 39.12 38.96 37.36 36.93 34.99 36.07 40.12 40.71 43.61 44.38 42.02 45.75 45.97 42.93 35.91 34.55 35.27 35.79 43.13 40.39 41.95 47.91 49.69 51.20 52.81 55.66 56.09 56.52
50.37 48.74 47.39 47.38 47.97 47.90 44.33 35.25 21.10 28.51 30.19 36.82 35.60 35.99 32.64 34.91 34.00 35.00 35.65 37.15 38.97 40.50 39.02 35.37 33.76 41.12 43.97 42.58 42.03 43.48 43.39 38.18 31.33 32.72 36.78 41.84 36.95 40.87 50.04 52.03 52.70 54.76 55.52 56.18 56.36
47.90 46.21 45.58 45.96 46.95 47.20 39.40 25.54 25.98 30.12 33.98 32.34 34.30 31.02 31.51 34.05 33.96 33.29 33.34 36.36 38.91 39.61 34.73 36.92 37.18 44.33 43.94 44.80 44.75 42.55 40.08 45.62 40.61 40.09 38.61 40.59 42.53 48.36 51.64 51.85 52.80 53.49 54.27 55.38 56.24
43.55 43.13 43.14 48.77 48.58 45.01 35.32 27.32 29.91 35.48 35.51 34.60 28.02 32.13 27.92 30.30 30.96 31.35 30.46 36.10 36.61 39.89 41.80 39.41 35.85 42.99 43.45 44.94 46.21 44.77 46.05 37.90 40.20 33.11 31.35 37.33 40.23 42.36 48.65 50.49 52.83 53.49 54.19 54.96 56.20
43.17 38.57 43.58 48.13 47.54 38.93 29.93 30.07 32.79 37.53 37.12 33.10 30.68 29.96 30.30 29.21 32.36 31.28 30.82 34.70 37.93 37.84 40.84 40.57 39.34 40.27 43.09 40.81 40.47 41.51 41.38 42.24 42.70 40.20 34.77 34.01 39.37 50.89 51.33 52.63 53.94 55.73 55.61 55.12 55.70
41.05 34.66 44.00 47.52 35.81 34.64 32.10 33.06 36.72 35.59 37.99 35.73 35.61 33.66 31.74 31.94 31.48 31.53 31.08 33.65 39.24 38.95 35.30 39.88 39.41 37.01 39.73 44.37 45.55 43.90 42.83 42.92 37.88 35.87 39.82 39.88 39.97 50.59 52.88 52.76 54.28 55.16 54.52 55.84 56.98
37.20 36.97 45.04 44.95 29.80 31.51 34.38 34.03 35.59 34.61 35.40 34.80 33.40 35.23 36.29 32.86 29.68 33.44 34.31 39.66 39.80 37.47 35.01 39.46 37.89 35.02 37.12 41.11 44.47 41.74 42.92 44.18 43.84 43.21 38.52 36.84 40.51 50.19 51.46 52.27 53.19 55.24 54.79 55.46 56.52
38.49 32.21 39.28 40.34 37.97 33.05 30.40 31.76 32.10 37.64 36.13 36.67 35.43 36.60 34.79 32.70 35.71 32.34 33.81 38.22 40.54 39.63 40.68 40.81 36.16 36.11 35.24 38.01 41.99 39.73 41.28 42.95 42.69 38.95 39.09 39.43 41.86 47.63 49.86 51.92 53.81 54.31 55.36 56.02 56.64
37.89 34.70 37.23 30.17 32.86 32.45 32.56 32.16 31.47 30.66 36.37 36.79 34.01 33.95 33.23 30.01 32.14 32.16 34.44 37.05 39.63 41.49 39.91 38.20 32.14 35.18 36.70 37.80 39.23 40.28 41.17 41.60 40.48 41.71 38.74 40.92 42.10 46.66 49.42 52.41 54.27 54.98 55.29 55.71 56.19
37.38 36.44 38.44 34.52 34.16 32.50 31.72 31.18 31.14 32.50 33.13 31.95 32.61 34.98 34.55 31.55 32.95 31.07 34.66 35.74 35.71 38.57 38.23 38.96 33.04 35.41 35.91 39.33 39.93 38.98 41.71 42.41 42.18 42.42 42.74 43.80 44.49 49.11 52.01 53.65 54.26 54.51 55.03 55.36 56.36
41.07 42.62 39.14 34.88 32.87 31.27 31.61 32.09 32.11 34.17 35.90 36.95 35.62 34.07 33.42 35.93 38.40 39.28 39.37 38.78 38.29 37.09 36.70 36.06 35.14 33.81 34.21 37.13 38.64 36.48 41.46 42.57 42.84 44.10 44.03 41.15 45.62 49.35 50.33 52.59 55.08 55.78 55.88 56.67 57.16

GFSSW_sfc_wetblb_030.txt.gz
Wetbulb
55.35 55.33 55.12 54.93 54.35 54.32 54.18 53.54 53.75 54.46 54.95 55.05 55.91 56.53 56.47 56.71 56.54 56.34 50.53 55.35 58.83 64.25 65.37 63.40 61.81 61.32 62.81 61.12 62.88 62.22 54.71 52.14 53.09 53.38 54.97 58.55 57.43 59.72 60.91 59.38 60.11 61.40 61.30 63.18 64.68
54.18 54.35 54.47 54.64 54.86 54.91 54.84 54.56 54.30 53.74 53.82 54.26 54.88 55.07 55.50 56.25 54.71 52.97 59.39 60.98 63.40 64.50 54.48 59.13 57.28 58.35 58.57 59.75 60.46 58.42 54.30 53.74 57.04 57.47 56.61 57.81 57.67 58.07 57.88 58.74 58.89 59.75 62.35 63.60 64.38
53.76 53.95 54.09 54.05 53.60 53.64 53.96 54.41 54.64 54.59 54.14 53.54 53.85 54.42 54.88 55.63 51.24 50.96 61.40 63.08 62.06 62.90 54.19 56.84 57.01 56.19 54.68 57.55 58.62 58.58 54.58 57.32 57.72 58.54 58.97 57.80 57.94 59.47 57.83 56.63 59.26 58.92 60.38 62.16 62.74
53.15 53.38 53.33 53.58 53.54 53.06 53.08 53.31 53.57 54.24 53.98 53.98 53.74 53.70 54.74 54.15 43.36 58.18 58.60 59.98 63.08 65.11 55.52 54.15 56.37 53.53 53.34 52.28 57.59 55.44 58.04 58.29 58.52 59.23 58.67 57.44 59.36 57.89 58.80 58.80 60.97 60.86 60.74 61.11 61.80
51.90 52.57 52.77 53.01 53.35 53.08 52.74 52.75 52.82 53.25 53.36 53.32 53.46 53.01 53.00 48.49 48.35 55.53 58.69 59.91 55.69 60.45 55.43 53.61 52.67 54.56 53.46 54.84 55.08 55.00 56.61 57.88 58.63 59.01 59.02 59.20 57.92 57.90 58.11 59.81 60.83 60.03 59.63 59.82 60.40
52.03 52.50 52.63 52.94 53.07 52.62 52.19 52.37 52.96 53.18 53.12 53.33 53.44 53.31 49.93 41.96 53.28 55.52 55.53 55.20 54.29 54.36 57.37 55.19 52.97 55.54 56.36 55.63 54.61 55.97 55.57 55.86 57.48 58.09 58.59 56.97 57.11 57.55 57.93 58.94 58.44 57.98 58.28 58.85 58.67
52.27 52.37 52.53 52.83 52.89 53.04 53.25 53.22 53.13 53.04 53.41 53.90 53.97 52.40 47.84 45.82 53.42 54.61 54.31 53.56 54.70 52.43 53.29 56.57 55.62 54.49 56.34 53.88 56.87 55.64 52.78 54.54 55.07 55.85 55.60 57.21 53.46 53.45 56.76 57.03 56.31 57.00 58.13 58.71 59.27
52.80 52.88 52.65 52.51 52.53 52.95 52.79 52.94 52.83 52.93 53.51 53.95 54.13 51.28 44.23 52.31 54.34 52.76 54.01 53.40 54.54 54.87 53.11 53.60 55.96 54.37 54.22 55.44 53.06 51.70 52.67 48.70 53.72 54.41 54.58 54.39 48.73 54.96 57.11 56.28 56.17 57.02 57.83 58.20 58.80
52.03 52.83 52.29 52.28 52.13 52.30 52.56 52.65 52.59 53.02 53.25 53.67 51.89 49.49 43.75 52.80 48.63 52.02 53.16 50.34 52.57 53.98 54.34 52.81 51.62 51.19 52.41 48.76 48.48 50.31 46.50 48.63 50.65 54.84 52.96 51.93 49.93 54.93 56.76 56.07 56.02 57.20 58.12 57.99 58.15
52.44 52.65 52.67 52.21 52.34 52.42 52.34 52.42 52.46 52.03 52.72 53.80 52.07 44.52 47.11 43.77 48.92 51.44 53.61 53.40 50.72 51.22 50.54 49.16 48.44 47.11 48.35 48.04 43.43 46.18 47.12 48.91 49.73 53.48 51.12 50.34 50.26 54.10 55.31 55.14 56.31 57.21 57.75 57.53 57.96
52.46 52.56 52.56 52.85 52.38 52.21 51.34 51.27 48.23 46.85 47.99 44.76 44.42 44.96 45.58 48.65 50.33 48.77 51.85 51.36 50.92 48.80 44.89 47.70 43.47 42.76 46.07 48.46 49.83 49.76 49.34 48.88 50.77 53.53 51.47 50.69 51.35 53.37 55.80 56.14 56.36 57.21 57.72 57.89 58.92
51.81 51.79 52.17 52.50 52.11 52.13 51.07 45.94 45.06 46.54 39.76 46.11 46.07 45.53 46.82 48.07 43.01 46.44 50.29 46.48 46.67 42.86 46.31 45.52 41.72 47.11 48.56 48.77 47.57 47.80 47.35 48.23 51.07 52.68 51.93 50.32 50.41 54.07 55.85 56.24 56.68 56.93 57.27 57.95 59.43
52.07 51.67 51.42 51.84 51.70 50.79 48.61 46.97 50.98 49.99 39.99 42.37 45.41 44.71 45.92 47.38 43.10 44.00 47.27 45.79 44.86 43.55 44.15 43.32 44.87 47.31 46.65 46.74 46.11 46.20 45.60 47.01 47.41 50.67 51.67 49.95 48.01 50.93 54.80 56.47 57.20 57.37 57.70 57.86 58.12
52.16 51.95 51.68 51.41 48.51 50.34 46.68 50.38 51.73 51.10 34.31 37.63 41.78 45.27 47.38 47.29 42.86 49.68 50.30 45.70 44.54 42.37 44.30 43.99 47.73 46.19 45.46 44.69 46.95 44.05 48.15 47.27 46.70 45.61 42.11 49.26 42.67 50.11 53.35 54.37 55.63 56.47 57.37 57.25 59.65
51.92 51.95 51.37 50.19 48.42 46.54 48.06 51.74 51.69 48.64 23.61 39.46 43.06 50.42 47.62 44.40 45.20 46.13 50.92 47.06 40.83 43.11 44.51 42.45 44.15 44.95 44.73 45.01 47.45 45.71 48.90 47.72 47.17 45.61 45.52 46.04 43.86 48.46 52.87 51.69 53.66 56.10 56.92 57.58 60.93
51.83 51.25 50.36 49.86 48.15 48.95 51.63 51.21 48.68 31.86 23.51 35.60 42.06 40.57 40.85 42.64 43.16 45.84 46.22 48.97 46.58 42.22 45.27 44.48 48.34 46.86 46.75 47.83 47.78 48.35 47.38 47.76 47.97 46.16 40.30 44.94 44.46 45.90 49.79 52.42 54.34 56.69 55.60 56.97 61.30
51.10 49.77 50.24 49.27 44.60 49.22 50.46 46.34 32.09 26.08 37.17 34.03 36.37 39.45 39.34 37.96 40.19 40.78 40.58 41.70 39.32 34.94 36.53 43.05 43.58 46.52 47.61 45.57 47.68 47.15 45.32 40.00 38.46 39.19 38.59 47.13 45.27 46.79 52.55 53.99 55.16 54.63 55.41 60.26 61.64
50.15 47.98 48.60 51.14 51.76 49.06 47.12 37.34 24.75 31.25 32.47 38.99 37.78 38.14 35.31 37.81 37.51 38.17 37.77 37.34 43.53 40.94 38.67 37.07 36.73 43.64 46.78 45.76 44.65 45.30 46.19 41.52 35.36 37.94 41.68 47.48 42.73 47.76 52.59 55.24 56.07 55.63 56.31 60.68 61.47
48.26 51.75 50.80 51.11 52.28 50.00 42.79 29.55 30.07 32.71 35.97 34.78 36.48 33.40 34.19 36.33 36.15 35.96 34.80 32.47 39.42 42.74 37.31 37.54 39.53 46.63 46.73 47.25 48.07 45.46 43.38 48.70 45.37 46.54 42.47 45.76 48.24 50.59 51.95 52.50 53.68 54.42 55.36 59.43 61.34
48.09 48.71 47.63 51.44 51.36 48.68 37.55 30.59 33.45 38.00 38.26 37.46 30.99 34.38 31.40 34.18 33.76 34.73 33.53 35.93 36.15 42.19 44.27 41.52 37.66 45.93 45.65 47.46 48.14 47.88 49.38 43.07 45.05 38.35 37.16 42.59 43.84 44.12 49.51 51.59 53.72 56.04 56.83 59.21 61.43
48.20 44.20 47.93 51.73 49.58 40.72 33.73 33.52 36.25 40.21 40.03 35.62 33.85 32.75 33.74 33.38 34.65 33.86 32.71 35.96 37.48 39.71 43.07 43.23 41.20 43.38 45.62 43.66 43.76 45.48 45.14 46.83 47.24 45.12 40.17 39.15 42.36 50.11 50.67 53.49 55.56 57.35 58.86 60.54 60.94
46.05 40.24 48.88 51.46 40.63 37.20 33.92 36.14 38.12 38.41 41.00 38.26 38.42 36.19 34.61 35.59 34.79 33.74 32.17 34.92 39.93 39.61 37.11 42.95 41.76 38.67 42.62 47.08 48.65 47.59 46.49 47.15 42.15 41.16 44.18 44.00 42.78 52.91 54.76 56.50 56.67 57.78 60.24 60.84 61.54
42.56 41.77 50.83 48.46 35.18 36.10 37.10 36.10 37.71 37.80 37.91 37.31 36.31 37.70 38.96 36.03 32.11 35.27 35.49 39.93 40.45 39.10 37.65 39.60 40.46 37.54 40.44 44.53 46.64 45.35 46.73 47.94 48.19 48.49 43.25 40.51 41.61 53.01 55.08 56.02 56.92 58.62 59.40 60.34 61.08
43.29 37.67 43.67 45.52 40.55 33.83 33.33 35.23 34.82 39.64 38.21 39.18 37.85 39.47 37.52 35.99 38.28 34.84 36.05 38.97 40.49 40.31 41.11 41.97 40.13 40.42 38.32 41.60 44.72 42.86 44.96 47.10 46.72 43.12 43.73 43.39 44.36 50.60 53.43 54.91 56.85 58.94 59.76 60.39 61.06
44.18 39.53 39.88 36.11 35.43 33.97 35.95 35.89 34.75 33.64 38.43 39.88 36.82 36.64 34.66 32.03 35.09 34.65 37.08 37.77 39.90 41.29 41.15 41.81 37.46 41.30 42.33 42.37 42.62 44.84 43.86 44.77 44.67 45.66 42.98 44.88 44.32 48.60 53.84 53.90 57.02 59.18 59.89 60.02 60.42
41.26 37.92 40.92 38.27 37.13 34.98 35.90 35.90 33.95 34.85 34.54 34.48 35.65 36.76 36.58 33.41 34.78 34.39 36.58 37.10 35.05 38.17 39.40 41.60 36.88 41.07 39.18 42.66 42.66 41.90 44.41 45.26 45.14 45.89 45.73 46.00 45.42 51.14 52.94 53.23 55.18 58.08 59.36 59.61 60.50
44.30 46.10 39.49 37.61 35.79 33.23 34.92 35.20 34.45 35.99 38.68 38.77 37.28 35.63 36.19 37.43 41.04 42.20 42.57 42.23 41.04 39.07 39.01 38.14 37.86 38.72 36.16 42.24 41.39 39.29 43.96 45.18 45.81 46.94 46.58 43.72 48.21 51.41 51.73 52.48 55.19 57.60 59.34 60.31 61.15

GFSSW_sfc_wetblb_033.txt.gz
Wetbulb
54.72 54.78 54.82 54.86 54.51 54.42 54.72 55.17 55.24 55.12 54.97 54.58 54.51 55.03 55.39 56.03 56.08 57.24 54.86 58.82 60.69 63.52 64.06 63.22 62.94 63.10 64.02 61.36 60.94 61.61 54.61 52.52 53.81 54.04 55.15 58.86 57.76 60.87 61.45 59.99 60.45 61.36 61.43 63.15 65.18
53.79 53.84 53.98 54.29 54.37 54.10 54.13 54.16 54.43 54.93 55.00 55.07 54.63 54.25 54.77 55.41 54.56 53.71 60.41 62.61 64.89 65.91 56.25 59.87 58.92 59.29 58.67 60.61 59.43 57.89 55.65 55.12 58.08 57.83 56.73 59.11 58.52 59.28 58.91 58.79 59.32 60.63 62.87 63.18 64.32
52.96 52.98 53.54 53.52 54.01 53.93 53.68 53.55 53.79 54.01 54.32 54.25 54.61 54.70 54.16 54.97 52.42 52.01 61.51 63.19 63.78 62.83 55.03 56.08 59.96 59.67 55.77 57.09 59.71 59.00 55.32 58.49 58.46 59.14 59.82 58.65 58.94 60.43 58.54 57.58 59.56 59.67 61.59 62.50 62.81
52.58 52.91 53.19 53.26 53.57 53.56 53.34 53.18 53.36 53.56 53.86 54.05 53.84 54.29 54.72 54.57 44.72 59.02 59.07 60.52 61.38 58.87 54.66 52.92 52.69 54.44 54.69 54.38 57.26 55.42 58.15 59.18 59.59 60.21 59.39 58.23 59.39 59.16 59.60 59.87 62.02 62.13 62.73 62.30 61.33
52.67 53.07 53.06 53.36 53.44 53.48 53.66 53.18 53.03 53.22 53.56 53.78 53.75 53.83 53.55 49.71 50.14 59.64 60.13 61.40 58.48 58.74 58.49 55.90 52.36 53.10 53.93 55.10 56.28 54.92 55.85 57.48 59.14 59.68 59.49 59.86 58.45 58.54 59.24 61.58 62.57 62.20 61.89 61.26 60.82
52.57 52.87 53.24 53.31 53.22 53.66 54.10 54.13 53.84 53.30 53.22 53.70 53.82 53.89 51.44 43.92 55.09 56.16 56.42 56.32 57.01 56.59 57.92 58.11 55.16 55.96 56.00 56.05 55.50 57.24 57.18 56.98 57.70 57.77 58.26 57.73 58.12 59.05 59.91 62.05 61.61 61.16 60.73 60.53 60.35
52.72 52.61 52.84 53.15 52.95 52.99 53.61 53.60 53.47 53.57 53.28 54.01 53.96 53.83 49.17 47.36 54.27 55.10 55.43 54.49 55.17 55.55 53.50 57.47 59.06 56.04 56.42 54.59 58.08 57.40 54.82 56.56 57.10 57.41 56.73 57.76 55.00 56.03 59.98 60.96 60.21 59.78 59.54 60.00 60.61
52.65 52.95 52.73 52.92 52.98 53.05 53.22 53.45 53.36 53.07 53.64 54.27 54.43 53.31 45.78 53.76 54.93 52.94 53.76 53.03 54.64 55.24 55.64 56.08 57.66 56.78 55.00 56.81 55.52 53.31 54.70 50.95 55.72 56.53 56.77 56.41 51.41 56.72 59.53 59.46 58.74 58.67 58.94 59.33 60.83
53.51 53.49 52.87 52.70 52.81 53.06 53.42 53.34 53.45 53.81 53.85 54.25 53.34 51.22 45.54 55.36 50.74 52.93 53.34 50.31 52.40 54.33 55.28 55.25 54.28 52.94 53.78 50.43 49.67 52.20 48.34 50.03 52.10 56.70 55.86 55.16 52.57 56.46 58.13 58.26 57.74 58.65 58.54 59.09 60.49
52.79 52.58 52.95 52.57 52.76 53.11 52.87 52.58 53.96 53.24 53.98 55.32 54.12 47.21 49.97 45.84 49.29 51.65 53.94 53.24 51.25 51.66 51.30 51.45 50.25 47.87 48.50 48.30 43.24 46.34 47.76 49.62 49.81 53.88 54.50 53.75 53.46 56.34 57.28 56.90 57.04 58.50 58.47 58.65 60.11
52.18 52.32 52.53 52.62 52.55 52.33 51.85 53.17 50.12 48.89 51.69 47.43 46.59 46.75 47.64 50.00 50.87 48.71 50.93 51.37 51.84 49.84 45.62 49.77 45.24 42.98 45.91 48.37 50.04 50.07 49.58 49.39 52.01 54.92 52.83 52.86 53.76 55.89 56.54 56.27 56.51 57.47 58.30 59.60 60.37
52.20 52.18 52.30 52.43 52.25 52.14 52.07 48.24 48.17 48.37 41.56 47.66 47.01 46.83 48.15 48.83 44.08 46.45 50.00 45.91 46.99 44.22 46.73 46.87 43.06 47.43 48.52 48.88 48.23 48.12 47.74 48.50 52.05 54.50 53.56 53.36 52.42 55.00 56.23 56.19 56.81 57.59 58.86 59.87 60.57
52.31 52.35 52.35 52.62 51.83 51.63 50.90 49.54 52.86 52.18 41.93 43.83 46.61 46.23 47.00 48.21 44.59 44.81 47.54 45.95 43.60 44.47 45.12 43.22 46.58 48.97 47.37 46.95 46.56 47.49 47.07 48.09 48.91 52.46 53.69 52.51 50.74 52.73 55.55 56.89 56.98 57.41 58.56 59.87 60.50
52.17 52.32 52.21 51.30 49.52 51.72 48.98 51.97 53.12 52.46 36.06 39.54 43.34 46.07 48.01 48.38 44.72 49.81 49.71 45.69 43.44 41.15 45.08 45.01 47.53 47.58 46.86 45.70 47.13 44.37 49.53 49.49 49.03 48.35 44.98 52.09 44.25 50.30 52.82 53.61 55.43 57.21 59.00 60.02 60.16
52.01 52.06 51.30 49.98 49.93 48.54 50.50 53.07 53.06 49.36 25.00 41.13 43.25 51.37 48.92 45.12 46.01 47.21 51.98 47.48 41.18 41.67 42.95 42.33 45.05 44.84 45.17 46.37 48.37 46.67 50.13 49.87 49.54 47.48 47.20 47.29 44.92 48.34 51.59 51.09 54.23 56.96 58.77 60.02 60.73
51.96 51.43 50.79 52.28 51.25 50.85 52.74 53.34 49.53 34.41 25.40 37.39 42.99 41.88 43.07 44.50 44.53 46.75 46.44 49.98 48.44 42.79 43.11 43.98 48.52 47.97 46.70 48.95 49.40 49.85 48.27 49.11 49.84 47.72 41.94 46.03 45.54 46.28 49.02 51.89 54.39 57.24 59.16 59.65 59.78
51.63 50.52 50.61 52.27 46.77 52.94 52.66 46.40 32.83 27.75 38.67 35.74 37.11 40.04 40.18 39.85 41.46 42.22 42.00 41.96 40.74 36.93 36.86 40.75 43.14 47.46 48.92 45.97 48.93 48.68 46.42 40.65 40.02 40.90 41.01 47.34 45.68 48.15 51.84 54.42 55.74 56.57 58.38 58.76 59.16
50.55 49.50 50.94 52.68 52.56 52.58 47.66 38.80 27.33 34.32 34.26 39.25 39.03 38.94 36.17 38.92 39.60 40.01 39.55 38.40 42.85 40.95 38.86 35.78 34.65 44.03 48.25 46.50 45.74 46.77 46.42 41.44 35.59 38.83 41.47 47.56 43.71 47.86 55.51 56.96 57.98 58.54 58.34 58.22 62.12
48.97 53.27 50.36 53.02 53.70 52.19 41.54 32.28 32.43 35.44 38.03 36.36 37.77 34.36 35.55 37.66 39.01 38.73 38.30 37.60 40.77 41.89 36.83 38.08 36.62 45.80 47.46 48.62 48.15 46.19 44.52 49.03 44.83 46.65 43.29 46.59 50.47 54.18 55.69 55.51 55.94 56.78 58.19 58.05 62.46
50.79 50.44 50.39 53.47 53.92 50.66 38.30 32.99 36.14 40.16 40.24 39.07 32.39 36.17 32.35 35.09 34.20 36.39 36.53 40.31 38.33 39.95 40.74 42.31 36.72 42.94 46.48 48.28 48.56 47.31 50.05 43.26 45.68 38.43 38.83 45.04 46.95 48.32 50.85 52.39 54.55 54.65 55.51 58.14 62.43
49.89 46.55 51.42 55.68 53.61 45.70 35.94 35.94 38.05 41.94 41.82 37.63 35.61 34.81 35.98 34.90 36.70 35.20 35.76 39.11 39.37 40.34 43.32 43.03 40.51 42.49 44.45 44.94 44.03 45.14 45.53 46.46 47.41 45.93 41.53 40.58 45.55 54.15 52.70 54.35 55.10 55.46 56.85 58.31 62.34
49.41 42.00 51.09 54.35 42.42 43.63 38.31 38.81 40.40 40.45 42.68 40.53 40.10 37.66 36.54 37.02 36.24 36.11 35.02 38.45 41.21 41.88 39.03 44.15 40.03 37.95 41.86 48.17 48.77 47.70 46.93 47.71 43.88 43.08 46.15 46.13 46.22 53.48 54.33 55.44 57.28 58.19 58.81 60.39 63.04
45.87 46.52 52.31 50.67 36.22 37.70 40.49 39.42 41.21 39.83 39.83 39.36 37.50 40.08 41.03 37.83 33.42 36.73 37.70 41.44 41.96 39.92 38.77 42.57 40.12 35.50 39.18 44.87 47.60 45.59 47.33 49.21 49.31 50.07 45.73 43.73 46.51 53.40 55.39 56.81 57.87 59.06 60.14 62.00 62.56
46.86 39.98 45.58 48.49 44.02 36.23 37.05 37.83 37.63 42.25 40.07 40.93 39.51 40.77 38.83 37.16 40.19 36.16 38.03 39.99 40.83 41.33 42.61 41.55 39.70 37.63 35.38 41.66 45.22 43.56 45.94 48.54 48.67 45.36 46.69 46.70 46.99 51.09 54.63 56.48 58.32 59.79 61.09 61.48 62.52
46.26 42.44 42.66 37.32 38.33 37.56 38.43 37.10 36.89 36.51 41.37 41.98 39.31 38.45 37.51 35.08 36.46 36.02 38.02 39.70 40.89 41.36 41.42 39.81 37.21 38.83 39.84 41.92 44.46 45.29 45.54 46.68 47.02 48.33 46.47 48.44 47.72 51.21 55.32 57.04 58.44 60.24 60.92 61.22 61.43
43.54 41.15 42.90 39.59 39.80 37.26 37.59 37.94 35.82 37.35 37.35 37.41 37.02 39.32 39.53 36.71 37.28 34.25 38.53 38.24 37.92 39.16 39.77 40.63 37.53 40.46 37.39 39.61 43.53 44.04 46.09 46.85 47.44 48.61 49.45 49.38 48.03 53.26 54.82 55.62 57.45 59.39 60.30 60.37 61.22
47.19 45.52 41.91 38.31 38.45 36.85 37.44 36.72 37.14 37.92 39.97 40.97 39.05 38.29 37.46 38.79 42.47 43.84 43.52 43.28 42.55 39.54 38.51 39.04 38.93 39.28 32.75 39.32 41.54 39.67 45.66 46.79 47.90 49.91 49.52 46.20 48.50 52.82 52.53 53.36 55.16 59.20 60.47 60.72 61.71

GFSSW_sfc_wetblb_036.txt.gz
Wetbulb
53.69 53.92 54.02 54.13 54.37 54.54 54.50 54.27 54.21 54.69 55.12 55.48 55.52 55.51 55.35 55.03 55.44 54.40 52.11 57.67 61.01 64.29 63.65 62.52 65.48 63.79 64.59 63.10 61.84 59.00 51.14 49.46 51.61 53.00 54.65 58.69 57.04 60.02 61.40 59.20 60.18 60.94 60.55 62.20 64.05
53.13 53.37 53.61 53.67 53.74 54.22 54.27 53.95 53.89 54.06 54.31 54.77 54.89 54.82 55.50 55.88 51.65 51.29 58.29 64.69 65.70 65.91 56.61 55.32 56.57 59.68 58.80 59.04 59.51 55.76 51.59 51.78 55.71 56.71 56.20 58.13 58.06 58.80 58.84 58.56 58.95 59.92 62.50 63.39 63.84
52.94 53.25 53.51 53.62 53.72 54.17 54.12 53.97 53.84 53.93 54.08 54.20 54.58 54.70 55.35 54.63 50.85 51.24 61.89 65.42 65.91 64.55 55.86 56.90 58.23 59.27 55.57 56.88 57.07 57.39 52.93 55.67 57.05 58.63 58.87 57.74 58.28 60.22 58.37 57.04 59.21 59.35 61.00 62.54 62.93
53.14 53.32 53.71 53.67 53.94 53.83 53.86 54.05 54.08 54.29 54.21 54.12 54.15 54.30 55.30 52.97 43.69 55.45 61.85 60.89 61.36 57.83 54.63 53.25 52.71 51.67 54.62 53.67 55.64 52.09 57.09 57.39 58.06 59.25 58.86 57.68 59.44 58.21 58.85 59.15 61.75 62.53 62.90 62.70 62.60
52.79 53.20 53.35 53.57 53.63 53.57 53.66 53.57 53.81 54.17 54.15 53.92 53.89 54.14 52.34 47.18 48.52 56.61 63.40 62.24 57.35 55.35 52.79 52.21 50.95 51.25 49.30 52.95 55.36 53.62 54.04 56.07 58.26 58.62 58.39 59.26 57.54 57.71 58.39 61.00 62.01 62.25 62.70 62.66 62.61
53.32 53.15 53.11 53.25 53.37 53.72 54.08 54.03 53.78 53.75 53.50 53.60 53.88 53.83 49.73 41.26 53.66 55.21 56.88 56.60 55.61 56.05 55.24 55.35 53.27 54.30 52.71 52.54 52.56 55.58 55.15 55.32 56.62 56.53 57.18 55.78 56.19 57.29 58.57 60.77 60.97 61.66 61.73 62.23 62.56
54.13 54.03 53.67 53.46 53.51 54.18 54.26 54.07 53.82 54.20 53.81 54.12 54.13 53.03 47.65 45.36 53.53 54.49 53.98 53.97 55.67 55.32 54.22 56.62 58.65 56.58 55.86 52.38 55.31 54.82 53.01 55.11 55.93 56.34 56.20 57.78 54.87 55.54 59.01 59.78 59.28 60.39 61.13 61.76 62.52
53.76 53.45 52.77 52.76 53.46 53.71 54.16 54.09 53.72 54.08 54.00 54.89 54.72 52.19 44.13 53.31 54.77 53.35 53.66 52.39 53.05 53.95 53.64 54.92 56.37 53.66 54.18 56.05 53.82 51.77 52.07 49.24 54.30 55.99 56.54 56.27 50.92 56.83 59.25 58.59 58.38 59.15 60.10 61.03 62.05
53.08 53.02 52.46 52.55 52.55 52.74 53.31 53.20 53.64 53.90 54.55 54.88 52.43 49.94 44.79 56.19 50.98 53.45 53.06 49.60 50.74 51.64 53.11 54.05 53.22 51.22 51.73 49.64 48.36 50.38 46.64 47.81 50.31 54.93 54.60 54.74 52.18 56.89 59.26 58.57 58.37 58.92 58.98 59.91 60.45
52.81 52.83 53.02 52.79 52.73 53.08 52.58 52.44 53.62 53.72 54.59 54.83 53.76 47.14 50.42 48.03 50.52 52.13 53.51 52.67 49.06 49.22 48.94 49.98 49.11 45.95 47.21 46.19 42.26 45.26 45.95 48.14 48.82 52.96 54.26 52.94 53.02 56.27 58.29 58.08 58.37 58.87 58.80 59.00 59.25
52.10 52.73 52.67 52.91 53.04 52.61 51.63 51.97 48.36 47.80 50.75 48.11 48.48 47.84 49.12 51.23 51.28 48.70 50.52 49.17 50.33 48.68 43.34 46.96 43.87 41.93 44.00 46.80 47.90 48.77 48.40 47.45 50.78 53.77 52.51 52.30 52.75 54.48 57.34 57.83 57.34 58.40 58.53 58.98 59.91
52.25 52.19 52.52 52.60 52.77 52.32 51.31 48.63 48.46 49.00 41.84 47.63 47.17 46.50 47.81 48.50 43.84 46.67 50.13 44.67 44.74 42.71 46.12 43.78 41.63 46.69 47.47 46.75 46.00 46.18 46.05 46.77 50.45 52.30 52.08 51.82 51.85 55.16 56.83 57.10 57.74 58.42 58.11 59.13 59.91
52.34 52.55 52.50 52.36 51.88 51.60 51.20 49.89 52.94 51.72 42.04 43.44 46.15 45.55 46.05 47.43 43.68 44.47 47.34 44.87 41.85 40.98 43.07 41.08 43.90 47.53 46.88 45.44 44.55 45.33 44.78 46.06 46.39 49.82 51.75 50.52 49.56 52.83 55.70 57.45 58.33 58.55 59.38 60.03 60.11
52.06 52.06 52.03 51.55 49.40 51.67 49.10 52.49 52.82 52.20 35.83 39.52 42.32 45.48 47.14 46.99 43.26 48.83 49.51 45.88 42.24 38.99 41.32 42.77 46.31 44.47 45.16 44.55 45.78 43.34 47.57 46.83 46.72 45.78 43.26 49.82 42.38 50.74 53.62 54.84 56.80 57.74 58.48 58.94 59.80
51.77 52.01 51.85 50.74 50.05 48.43 50.38 52.86 53.18 49.21 24.16 42.19 43.43 50.89 49.36 45.64 46.85 47.58 51.96 46.59 40.55 40.33 40.81 38.65 42.82 43.48 42.21 44.81 47.38 45.06 48.05 47.27 47.17 45.86 46.36 46.10 44.26 47.60 52.69 51.80 53.53 56.09 57.39 58.77 60.09
51.69 51.66 51.54 52.15 52.03 52.07 53.41 52.50 49.59 33.02 23.93 34.68 42.77 43.11 42.88 44.17 45.46 47.47 47.44 49.66 47.65 42.18 41.96 40.59 44.55 44.01 45.48 46.50 46.99 48.97 46.75 46.65 47.03 46.24 41.01 45.91 44.92 44.91 48.57 51.77 53.31 55.99 57.26 58.32 60.78
51.37 50.93 50.04 52.63 48.05 52.91 52.72 46.62 32.56 26.46 38.36 34.73 36.80 40.01 39.81 39.43 42.20 42.94 42.15 41.33 39.74 36.35 36.83 40.72 40.45 43.11 44.94 43.49 46.70 46.08 45.65 39.10 38.18 38.75 38.47 46.98 44.69 46.58 51.85 53.59 54.43 55.41 57.17 59.05 61.07
49.99 49.47 51.66 53.47 54.21 53.12 48.85 38.61 26.91 34.48 35.28 39.80 38.77 39.06 35.98 38.98 39.16 40.02 39.68 37.59 41.45 41.00 37.24 34.68 34.15 40.49 43.90 43.26 43.36 44.24 45.11 40.34 33.38 36.01 39.42 45.70 41.95 46.74 54.27 55.29 56.53 58.24 58.77 60.13 60.42
48.58 54.22 52.67 54.12 54.25 52.48 43.33 32.47 32.42 35.72 38.71 37.27 38.37 35.46 35.97 38.65 38.60 38.54 38.41 37.60 39.67 41.91 33.86 33.73 35.47 45.08 43.59 45.19 45.79 43.87 41.16 47.15 43.30 44.20 40.76 44.17 47.88 51.52 53.75 54.70 56.55 56.44 58.63 59.37 62.59
48.90 50.98 51.17 54.38 54.34 49.04 38.67 33.99 37.13 40.66 40.33 39.63 31.93 33.64 32.65 34.93 33.96 37.05 36.55 39.38 40.18 41.62 43.21 37.17 31.90 41.99 45.21 44.35 45.41 45.37 47.83 41.21 43.69 36.19 35.82 41.95 44.69 46.49 52.43 54.08 55.71 56.65 57.70 59.61 63.15
49.97 47.01 51.88 55.01 53.36 45.37 36.23 36.67 39.16 41.87 41.88 38.10 36.23 35.06 35.81 35.22 36.48 34.75 35.53 39.63 41.66 40.81 42.46 40.51 36.57 37.81 44.02 41.14 40.68 43.58 42.62 44.40 46.02 43.75 39.07 38.22 42.86 53.45 55.23 55.65 55.07 56.82 57.56 59.37 62.61
49.16 42.45 51.94 52.77 42.02 43.52 37.95 39.62 40.86 41.19 42.96 40.41 40.27 38.41 35.81 36.46 35.45 36.25 36.14 38.81 42.39 42.39 37.10 41.36 38.28 34.87 38.41 45.96 46.38 46.62 44.55 45.35 41.28 40.99 44.11 43.51 43.97 55.75 55.00 55.21 56.71 57.09 57.23 61.20 63.15
46.02 46.26 53.31 51.07 36.39 37.88 40.07 39.81 41.35 40.56 40.45 40.20 38.30 39.75 39.92 36.99 33.63 34.90 37.40 42.93 43.36 40.98 38.30 39.89 37.65 32.42 35.52 41.63 45.98 43.50 45.30 47.07 47.54 48.86 43.45 40.82 44.16 55.35 55.04 54.82 57.17 58.33 57.68 61.35 62.74
46.62 41.59 46.12 46.62 44.05 38.40 37.10 36.83 37.42 43.33 40.94 41.61 39.99 40.97 37.05 36.65 39.58 36.19 36.91 40.26 43.37 41.87 42.53 41.32 36.83 34.50 31.77 35.68 40.11 39.47 44.29 46.16 46.46 42.97 43.73 45.47 47.01 51.13 53.04 55.22 57.73 59.61 60.75 61.80 62.25
46.99 42.61 44.78 38.34 39.25 38.46 38.49 37.87 36.17 36.55 41.33 41.85 38.89 39.25 37.17 34.31 36.07 35.91 38.46 39.77 42.65 42.14 41.78 38.91 33.97 36.79 37.38 38.05 38.74 39.55 41.59 44.96 44.98 47.24 44.28 47.33 48.12 51.11 54.65 56.80 58.88 61.49 61.86 61.30 61.23
45.03 41.76 43.41 40.24 41.15 39.14 38.71 37.53 36.90 38.35 38.45 37.50 37.07 38.74 38.70 35.52 36.51 35.06 37.61 38.47 37.33 41.01 38.78 39.50 34.47 37.82 35.66 38.54 37.06 36.28 41.51 44.34 46.36 47.49 48.50 49.11 49.28 55.36 57.11 58.25 58.91 59.75 60.60 60.53 61.15
47.84 47.57 42.30 39.37 39.02 38.31 37.88 37.62 37.64 38.92 40.60 40.96 39.58 38.05 37.59 39.52 42.38 42.62 43.01 42.70 41.73 39.33 38.63 38.22 37.13 35.64 32.03 37.26 35.82 33.41 41.88 44.62 46.79 48.70 49.87 47.11 51.65 54.79 53.68 54.38 58.29 59.89 60.82 60.68 61.30

GFSSW_sfc_wetblb_039.txt.gz
Wetbulb
53.52 53.67 53.66 53.76 53.94 53.90 54.18 54.38 54.34 54.36 54.72 54.99 55.26 55.31 55.46 55.72 55.79 51.25 47.96 54.24 58.36 62.59 63.86 58.71 62.75 62.08 60.89 58.72 60.57 61.04 47.77 43.47 46.09 48.24 50.75 55.71 54.91 57.98 59.79 58.92 58.79 60.17 59.00 60.19 61.51
53.47 53.50 53.30 53.72 53.76 54.09 54.03 54.34 54.32 54.50 54.40 54.61 54.81 55.03 55.46 55.50 50.77 48.11 55.52 62.75 64.40 66.61 56.23 53.56 53.40 58.77 56.24 56.54 58.70 56.35 48.60 47.87 52.07 52.70 52.07 55.24 56.29 57.00 57.44 57.97 57.67 59.05 62.16 62.09 62.15
53.08 53.27 53.51 53.77 53.87 54.12 53.86 53.90 54.14 54.34 54.58 54.58 54.51 54.48 54.92 54.46 47.46 48.50 62.95 62.63 62.41 65.44 55.21 54.79 53.82 53.32 52.27 54.17 55.58 54.82 49.89 53.35 53.43 54.58 55.65 55.81 56.40 58.82 56.85 55.32 57.55 57.74 59.23 60.54 61.16
53.58 53.56 53.62 53.60 53.97 53.96 53.94 53.92 54.13 54.11 54.18 54.13 54.04 54.25 54.85 50.40 38.16 51.21 63.10 64.37 65.58 60.10 54.28 52.10 50.14 47.54 47.63 50.09 53.94 50.24 53.90 55.60 55.95 56.93 55.74 54.74 57.31 56.43 57.02 56.03 58.88 59.68 60.90 61.90 59.73
53.76 53.88 53.79 53.88 54.00 53.97 54.12 54.00 54.18 54.29 54.10 54.02 53.87 54.01 50.36 43.36 43.69 51.78 63.82 62.18 56.22 55.00 51.78 50.27 47.90 46.26 43.26 47.40 53.22 50.90 51.88 53.57 56.54 56.74 56.15 57.15 55.98 55.74 55.77 58.65 59.35 59.81 59.39 58.53 58.81
53.48 53.11 52.87 52.81 52.92 53.49 54.15 54.21 54.23 54.03 53.90 54.18 54.20 53.87 46.98 37.17 50.11 51.85 52.43 53.63 55.48 52.17 51.12 49.66 47.73 49.62 46.89 46.96 46.89 51.25 52.58 53.60 54.28 53.36 54.05 53.65 54.31 55.39 56.10 57.43 57.75 58.19 57.62 58.04 58.55
53.80 53.53 53.35 53.25 53.34 54.01 54.01 53.68 53.24 53.52 53.32 53.90 54.52 52.12 44.71 41.95 50.14 50.86 50.20 48.73 50.40 51.55 51.41 53.73 53.04 50.11 49.58 46.68 50.65 50.47 47.69 50.23 51.36 52.92 52.61 54.35 51.22 52.36 56.39 57.80 56.77 56.89 57.49 57.49 57.98
53.41 53.28 52.79 53.02 53.50 53.95 54.11 53.92 53.63 54.01 53.72 54.17 55.08 49.97 41.01 50.48 51.09 49.29 49.58 49.69 51.38 51.20 50.16 51.26 51.14 48.38 47.39 49.95 50.20 48.89 48.55 43.53 49.22 51.47 53.00 53.31 47.07 53.21 56.32 56.35 55.64 56.60 57.39 57.29 56.84
53.23 52.97 52.89 52.75 52.88 53.33 53.51 53.22 54.07 54.29 54.80 54.71 50.33 47.01 40.72 54.23 48.91 51.51 50.94 48.06 49.35 50.12 49.86 51.11 49.10 45.21 46.51 42.52 41.33 45.12 41.45 43.39 46.22 51.67 51.48 51.28 48.43 53.62 56.11 55.74 55.15 55.97 56.54 57.16 56.81
52.87 52.71 52.81 52.75 52.66 53.04 52.69 52.77 53.52 54.02 53.12 53.47 51.68 44.27 46.95 46.72 51.18 51.76 52.47 51.02 48.62 47.42 46.12 45.29 43.68 41.19 40.38 39.24 34.55 39.38 41.85 44.47 44.20 48.70 50.29 48.94 48.82 52.20 54.16 54.19 54.60 55.35 56.23 56.69 56.62
52.37 52.62 52.50 52.71 52.77 52.46 50.44 46.52 44.40 43.63 46.66 43.16 45.06 46.10 48.32 52.18 53.76 48.86 49.99 48.86 47.65 44.92 37.66 41.51 37.52 36.33 39.15 41.44 43.22 44.35 44.60 43.82 47.02 50.04 48.40 47.67 48.52 50.83 53.20 52.79 52.82 53.62 53.74 55.06 55.56
51.98 51.94 52.65 52.55 52.69 52.48 48.97 44.68 46.72 44.93 38.05 45.29 45.11 45.00 47.58 48.59 43.17 45.36 48.04 42.16 41.79 37.43 42.30 39.08 35.10 41.01 44.36 43.74 42.53 42.43 40.61 41.02 46.09 49.94 48.42 47.65 47.33 50.91 52.74 52.56 53.45 53.90 54.46 54.68 54.48
52.12 52.07 52.41 52.41 51.92 49.89 46.96 47.85 50.75 48.96 36.96 41.21 44.53 43.93 44.36 46.00 42.20 42.56 45.26 42.80 39.27 36.76 37.82 36.96 39.55 44.05 43.11 42.25 41.35 40.74 39.69 40.43 40.85 44.98 46.58 45.20 43.35 46.26 50.00 51.78 53.59 54.34 55.10 54.85 54.82
51.58 51.67 51.94 51.83 47.85 48.05 45.57 49.60 49.22 49.02 30.11 36.50 42.18 45.08 45.29 44.68 40.24 46.96 47.09 43.46 39.93 35.98 37.27 36.46 41.49 42.78 41.09 40.33 42.65 37.95 43.98 43.50 42.78 41.51 36.95 44.15 35.60 43.42 46.88 48.57 51.01 52.94 53.88 53.56 54.66
51.20 51.64 51.54 50.96 46.07 45.29 47.39 50.00 48.62 44.53 21.03 39.81 41.19 50.05 47.45 43.22 45.18 46.49 47.97 44.32 38.60 38.66 37.59 34.61 37.18 38.41 39.33 40.38 43.62 40.44 45.97 43.69 43.40 40.70 39.57 40.60 35.99 42.27 46.48 46.60 49.03 51.38 52.99 53.47 53.80
51.12 51.17 51.06 49.77 47.72 47.51 50.17 49.32 46.34 31.39 21.91 34.97 40.85 39.44 39.56 42.53 43.13 46.33 46.41 48.17 45.83 39.51 39.18 37.90 41.88 39.79 38.69 41.53 44.38 44.77 43.36 42.64 42.09 39.62 33.14 39.08 38.87 39.70 42.51 45.60 47.91 51.04 52.55 53.11 52.70
51.02 50.87 48.98 49.55 44.41 49.68 49.13 43.63 30.30 23.76 37.74 34.03 35.60 38.81 38.23 37.34 39.66 41.81 40.93 39.89 37.02 33.04 32.64 37.75 38.18 40.69 41.67 37.59 40.49 40.82 37.30 30.28 29.82 31.14 31.10 40.57 38.58 41.68 45.06 48.50 50.19 50.81 51.59 53.00 53.92
50.04 49.32 49.76 50.45 51.13 49.21 45.13 35.43 21.96 33.20 33.20 38.28 37.90 38.11 35.30 37.81 37.82 39.13 37.87 34.59 40.27 38.85 33.82 32.27 30.23 40.19 43.86 38.55 35.62 36.52 37.47 31.61 25.17 28.52 32.55 40.97 36.27 40.01 48.69 51.28 51.86 52.59 52.47 53.83 53.50
48.67 48.99 48.63 50.11 51.29 48.49 39.52 29.18 28.17 33.22 37.25 35.46 36.93 32.28 33.04 36.88 35.96 36.18 35.60 33.99 38.21 38.90 31.71 31.20 31.62 41.54 40.89 41.38 40.26 36.32 33.60 40.26 34.82 37.46 33.16 37.29 41.56 45.63 47.73 48.39 50.61 51.28 53.24 53.24 57.63
45.05 45.60 47.44 51.72 50.69 45.42 35.83 32.12 35.08 39.81 39.47 38.08 31.46 33.70 29.77 32.43 32.73 33.11 33.37 39.22 38.39 40.56 40.43 35.79 28.29 37.78 39.12 42.02 43.71 40.46 40.68 33.50 36.05 28.06 27.27 35.76 38.04 38.60 44.45 47.07 49.98 50.94 51.14 55.68 59.23
44.77 43.23 48.55 51.84 49.59 42.06 32.41 34.04 37.41 41.51 41.45 35.87 34.25 33.41 33.91 32.37 33.70 33.01 33.11 37.42 40.67 40.09 39.68 35.44 32.98 33.23 38.14 36.10 36.63 37.98 35.43 36.17 36.04 36.09 30.82 30.47 35.40 44.96 46.00 50.44 48.83 50.85 51.98 57.76 58.68
43.74 38.88 48.15 49.55 38.02 39.73 34.57 36.78 40.45 39.40 41.17 39.27 39.23 37.04 35.24 34.96 33.82 33.89 33.02 37.26 41.46 40.95 35.60 38.15 34.90 30.65 33.32 40.44 42.99 41.59 37.72 36.94 32.41 31.79 36.68 36.16 36.87 47.15 49.13 49.87 50.97 51.66 53.11 58.58 59.25
40.39 42.74 49.95 48.06 34.12 31.95 36.79 37.37 38.89 38.63 39.35 37.22 36.31 38.49 37.47 33.45 30.90 35.64 36.15 40.80 42.06 39.78 36.03 36.64 31.95 27.94 30.05 35.87 40.34 38.68 41.59 40.50 38.87 38.92 35.33 33.56 37.18 47.83 49.24 50.19 51.88 50.52 56.71 58.71 59.12
42.54 37.65 42.20 44.26 41.89 37.52 34.83 34.97 34.76 41.40 39.52 40.00 37.98 38.84 36.73 34.25 36.34 34.33 35.36 39.61 40.80 41.25 43.64 40.75 33.78 31.20 26.56 31.11 36.22 35.33 37.51 39.46 37.12 35.48 36.75 38.68 40.56 45.08 48.59 50.23 51.56 53.42 57.83 58.63 59.02
43.53 38.81 40.85 33.41 35.05 36.81 37.26 36.66 35.08 34.71 39.45 39.36 36.70 37.07 35.00 30.63 32.56 33.12 36.43 37.56 40.55 41.97 40.73 38.00 31.12 33.86 34.89 37.23 37.84 35.20 35.48 37.07 35.08 37.43 36.80 40.44 41.97 44.87 48.69 52.67 53.30 56.44 57.98 58.02 58.42
42.30 38.70 41.14 37.39 38.23 37.77 37.35 35.35 35.00 36.15 36.17 35.40 34.53 36.86 36.40 33.03 34.19 32.17 35.27 35.15 34.31 38.47 38.18 40.24 31.40 34.70 33.85 37.75 38.03 34.21 36.77 37.52 37.12 38.37 40.10 42.76 42.87 48.90 54.55 57.56 56.83 57.00 57.86 57.85 58.61
44.70 46.09 41.82 38.16 37.42 35.85 35.10 36.80 36.72 37.42 38.78 39.29 38.07 36.77 35.30 37.59 40.21 40.11 39.71 39.01 38.06 35.97 35.14 36.37 34.34 34.56 30.11 36.81 35.45 30.37 35.45 36.53 38.08 40.47 41.42 40.00 45.85 51.61 51.64 53.73 54.52 56.07 57.87 58.16 59.14

GFSSW_sfc_wetblb_042.txt.gz
Wetbulb
53.47 53.63 53.37 53.41 53.71 53.91 54.05 54.25 54.44 54.59 54.89 55.04 55.25 55.18 55.32 55.35 55.49 50.80 45.52 51.95 55.05 60.61 62.71 60.49 61.05 58.57 56.01 54.52 58.16 57.39 45.99 41.75 44.30 46.97 49.36 53.49 53.53 56.92 59.03 57.42 58.19 58.99 57.92 59.39 62.82
53.35 53.46 53.55 53.85 54.01 54.09 54.16 54.18 54.29 54.39 54.44 54.76 55.01 54.92 54.77 55.08 50.20 47.34 54.19 60.22 62.07 64.28 56.54 53.56 51.34 59.01 55.14 54.91 55.59 52.87 48.38 47.75 50.25 51.26 49.75 52.67 52.78 54.61 55.61 55.66 56.51 57.32 60.31 61.50 61.46
53.33 53.45 53.77 54.22 54.29 54.05 54.27 54.27 54.38 54.33 54.58 54.44 54.42 54.52 54.45 53.85 45.83 46.95 61.82 60.78 61.59 64.45 56.63 54.03 53.41 51.91 50.88 53.79 53.37 53.32 50.29 54.35 54.78 54.80 54.27 53.53 53.98 56.29 55.00 53.48 56.20 56.20 58.34 59.68 59.43
53.79 53.77 53.56 53.37 53.43 53.45 53.73 53.85 54.09 54.29 54.51 54.45 54.40 54.37 54.54 49.84 32.84 49.63 61.81 63.21 64.60 59.70 57.51 51.26 48.96 46.47 44.89 47.44 53.12 48.91 54.56 55.62 55.53 56.61 55.69 54.33 55.96 54.62 54.93 55.34 58.20 58.16 59.21 59.12 58.45
53.66 53.64 53.47 53.58 53.66 53.57 53.61 53.65 53.92 53.87 53.70 53.83 54.17 54.27 49.57 42.17 42.71 48.40 59.13 56.73 52.03 60.27 52.01 49.63 46.88 45.72 42.30 44.59 50.27 49.69 51.42 53.56 54.04 54.45 55.46 56.30 54.47 54.20 54.86 58.07 59.26 58.28 57.82 57.25 57.38
53.21 53.07 53.07 53.17 53.30 53.77 54.15 54.21 54.07 53.68 53.48 53.48 53.56 53.60 46.01 36.19 47.32 49.73 50.23 49.70 49.14 48.95 51.68 48.80 47.01 47.97 45.35 44.57 44.47 47.55 49.45 51.58 52.16 51.48 52.07 51.58 52.79 54.03 54.88 57.08 56.77 57.11 56.46 56.35 55.91
53.50 53.16 52.81 52.94 53.21 53.87 53.94 53.86 53.55 53.64 53.58 54.02 53.91 51.45 44.65 41.06 49.48 48.22 46.92 45.62 47.78 48.29 46.67 50.22 49.83 48.21 46.90 44.16 47.88 47.88 44.42 47.45 48.47 48.40 49.06 52.44 49.17 50.37 54.84 55.92 55.43 56.01 55.64 55.93 56.38
53.11 53.20 52.83 52.71 53.19 53.68 54.03 53.55 53.43 53.49 54.45 54.77 54.41 50.11 40.95 49.85 49.85 48.18 48.50 47.51 49.69 49.38 48.76 49.06 48.52 47.04 45.39 46.57 46.30 43.76 43.86 40.81 47.33 49.24 50.34 49.93 44.12 52.08 54.84 54.56 54.15 54.71 55.80 56.82 56.41
53.04 52.83 52.93 52.64 52.69 52.79 53.28 53.09 53.84 54.83 54.89 54.55 49.65 46.22 40.14 52.78 48.54 50.61 49.25 46.39 48.66 49.12 48.41 50.60 46.16 43.49 43.96 40.44 37.63 39.99 38.76 41.10 44.68 49.85 49.26 48.88 45.78 51.18 54.17 53.75 53.25 53.44 54.59 55.35 56.32
52.64 52.37 52.50 52.67 52.79 52.92 52.99 53.02 53.04 53.65 52.93 53.31 51.17 44.59 45.66 45.83 50.42 52.46 50.61 49.79 47.04 46.45 45.23 43.64 40.44 38.67 36.83 36.74 33.16 36.13 38.25 41.67 42.09 47.74 49.11 47.64 46.87 50.21 52.37 52.79 52.57 53.37 54.19 54.91 55.46
51.75 52.00 52.28 52.57 53.01 52.96 50.76 45.16 42.34 40.35 43.17 39.94 41.54 44.09 45.88 50.18 52.64 50.11 50.67 47.46 47.63 43.26 35.84 39.39 33.97 33.67 37.28 40.04 41.83 41.86 41.47 40.83 44.72 48.54 47.02 46.20 46.75 48.73 51.12 50.45 50.54 51.81 52.76 53.29 54.39
51.21 51.31 51.82 52.37 52.60 52.41 47.64 43.14 43.66 43.50 36.11 44.59 43.79 44.14 46.22 46.86 41.34 44.48 48.40 40.83 40.10 35.18 38.43 35.67 32.78 38.35 41.22 41.47 40.04 39.22 37.55 37.84 42.03 44.80 45.27 45.78 45.55 48.99 50.68 50.65 51.60 52.28 52.60 52.57 51.81
51.39 51.47 51.66 52.05 51.68 47.56 44.84 44.86 47.60 44.87 35.32 40.05 45.10 44.93 43.72 45.09 40.88 41.60 45.06 42.08 37.47 34.35 34.72 34.49 37.06 41.92 39.85 38.96 38.60 38.47 36.84 37.92 38.58 42.64 43.87 41.92 39.88 42.89 47.01 48.46 49.64 50.68 52.17 52.62 52.45
51.08 51.35 51.45 51.27 45.76 45.05 43.21 47.38 46.83 45.08 29.17 35.44 40.70 43.78 45.97 44.72 39.83 46.24 46.42 42.52 37.69 34.17 35.14 33.88 38.23 38.48 38.57 36.62 39.24 34.88 41.74 41.06 39.83 37.93 33.44 41.63 32.48 40.63 44.44 45.83 48.02 48.69 50.18 49.33 51.76
51.08 51.35 51.25 50.75 43.91 42.78 46.18 46.15 45.99 41.29 19.18 38.84 41.02 48.68 46.14 41.59 43.67 45.10 49.65 42.91 36.52 36.30 35.60 32.98 34.68 35.13 35.71 37.63 41.27 36.93 42.81 41.53 40.97 37.46 36.59 37.49 32.59 39.08 42.46 42.97 44.95 47.61 49.23 51.36 52.97
51.10 51.10 50.78 46.63 44.23 46.03 46.87 46.17 42.83 27.77 19.45 34.98 40.64 39.64 39.85 41.95 42.83 45.78 45.55 45.61 44.72 37.91 37.95 36.44 40.04 37.77 36.44 39.35 39.57 40.85 39.90 39.41 39.46 34.97 30.07 35.74 34.79 36.69 39.73 42.44 44.72 47.76 50.00 50.95 50.90
51.07 50.42 49.10 48.42 41.76 46.26 45.60 40.48 25.98 21.04 36.66 32.88 34.66 38.38 38.11 36.86 39.05 40.75 39.16 37.81 36.34 32.62 29.93 35.25 36.03 39.16 40.53 35.85 38.08 35.83 30.58 25.53 24.22 26.82 28.36 37.69 34.92 38.32 41.95 44.59 45.84 46.46 48.95 50.22 50.83
49.98 49.56 47.33 48.07 46.28 46.33 41.93 32.66 21.23 31.92 32.49 38.26 36.44 37.33 34.00 36.47 36.65 37.03 36.74 34.66 39.38 37.35 32.34 30.97 28.50 38.57 42.71 37.17 32.78 32.33 31.39 26.32 21.27 23.47 29.65 37.84 32.52 37.94 44.80 47.25 47.99 48.96 49.93 50.95 49.11
48.83 43.09 44.75 47.09 48.34 44.78 36.49 23.42 26.32 32.79 36.70 34.58 35.49 31.81 32.19 35.65 35.55 35.48 34.32 34.03 37.50 36.69 29.99 29.86 30.84 39.90 40.01 39.83 37.82 33.81 29.98 34.50 29.48 33.65 27.87 33.57 37.87 43.57 45.87 46.18 47.32 47.54 49.03 49.11 50.93
42.82 41.64 43.58 48.14 47.44 42.42 32.68 30.71 33.06 37.94 38.80 37.64 30.29 33.58 28.78 31.54 32.00 32.03 32.94 37.86 36.98 40.51 37.84 33.96 27.29 36.93 38.77 40.30 38.93 36.90 38.77 28.67 28.30 23.52 23.33 30.79 33.68 36.17 40.79 43.52 45.53 46.42 47.47 50.74 56.41
41.01 39.88 46.14 47.84 45.81 36.93 25.45 31.07 35.11 40.37 40.09 35.45 33.43 32.58 32.80 31.38 32.40 31.57 32.85 37.18 39.58 39.22 38.83 34.01 31.05 31.72 36.81 34.77 32.17 34.04 32.94 32.64 31.22 29.82 27.19 25.92 31.58 41.06 42.28 43.65 45.02 48.42 48.81 55.80 57.04
39.12 35.35 46.11 46.95 35.13 32.82 30.46 35.67 39.49 37.75 41.25 38.94 37.83 35.86 33.87 33.51 31.80 32.97 32.82 35.96 41.15 40.69 34.98 36.92 32.26 28.09 30.43 37.39 40.86 38.09 35.33 33.98 27.23 27.18 31.00 32.76 33.07 44.71 43.36 44.69 46.52 47.89 55.19 56.90 58.14
37.29 37.95 46.74 44.28 33.35 30.40 34.33 36.86 38.44 37.30 38.15 37.33 35.40 37.51 36.72 33.31 29.51 34.19 35.50 40.59 41.26 39.09 36.27 35.83 29.11 23.42 25.84 32.70 37.68 35.62 38.72 37.66 34.81 32.09 30.16 28.51 32.45 44.51 45.53 45.84 47.96 49.20 55.39 56.95 57.75
39.85 34.79 37.49 38.36 37.64 32.57 32.40 34.33 34.56 40.58 38.87 38.65 36.47 37.46 34.64 32.71 34.09 31.70 33.33 39.17 41.38 39.96 43.50 39.76 32.80 29.23 22.07 29.14 34.33 32.33 36.46 37.17 34.61 29.88 31.46 33.40 35.60 41.17 44.25 44.92 46.40 50.91 54.92 56.89 57.61
37.95 35.20 36.23 29.08 32.86 33.68 34.78 34.91 34.10 34.13 38.14 37.56 35.08 35.26 33.52 30.45 31.56 31.66 35.34 36.18 39.30 41.31 40.32 39.12 31.42 32.96 32.99 34.69 35.40 34.99 35.53 36.03 33.74 35.12 31.17 36.38 35.74 40.84 44.28 45.08 46.51 53.07 56.23 56.73 57.24
35.27 35.54 38.55 36.78 36.25 35.89 34.85 33.69 36.22 35.98 36.34 34.14 34.00 35.40 35.19 31.41 34.43 32.18 34.12 33.61 32.94 36.27 35.48 36.84 31.82 33.89 31.69 34.86 35.40 33.91 37.18 36.20 36.05 36.72 36.25 36.62 36.45 45.40 47.23 52.51 52.35 55.74 56.64 56.51 57.40
39.66 40.50 39.95 37.41 33.94 33.81 34.80 35.65 36.83 37.85 38.66 39.52 36.83 35.63 34.14 36.35 39.41 40.16 39.26 38.60 36.28 33.58 32.29 34.06 33.99 30.95 26.84 34.35 35.00 30.48 34.96 36.08 37.08 38.93 38.85 34.82 39.91 45.81 49.37 51.95 52.56 55.54 57.14 57.04 57.93

GFSSW_sfc_wetblb_045.txt.gz
Wetbulb
53.46 53.39 53.42 53.93 54.00 54.22 54.29 54.50 54.52 54.52 54.88 54.99 54.98 54.96 54.83 54.91 54.83 49.85 43.53 49.64 53.15 59.36 61.39 54.30 60.74 58.47 54.77 54.07 57.08 54.15 44.07 40.71 43.70 45.79 47.92 50.08 49.10 53.75 56.71 55.59 56.29 57.14 57.01 58.78 60.56
53.13 53.28 53.39 53.49 53.65 53.62 53.80 54.05 54.23 54.34 54.36 54.70 54.76 54.67 54.69 54.64 49.08 45.51 51.72 57.69 60.84 62.93 55.36 49.93 50.52 55.56 48.89 50.65 54.14 51.18 44.39 45.33 49.71 50.86 48.76 52.36 51.80 52.60 53.39 53.31 53.98 55.80 58.27 59.93 60.10
53.22 53.66 53.61 53.75 53.98 53.66 53.65 53.61 53.70 54.02 53.99 54.16 54.11 54.35 54.52 53.05 42.07 42.66 61.48 62.53 60.71 60.98 57.59 54.24 52.89 52.46 51.74 52.99 51.98 51.74 48.18 51.78 52.34 54.06 54.10 52.82 52.61 54.87 52.78 50.54 53.85 54.78 56.58 58.00 58.31
52.98 53.65 53.50 53.51 53.82 53.77 53.88 53.92 53.98 54.29 54.21 53.85 53.71 53.88 54.14 48.25 30.67 45.95 61.96 59.75 59.66 55.87 55.73 52.03 49.03 45.67 43.64 47.32 52.07 47.47 53.38 54.31 54.62 55.76 56.09 54.86 56.16 54.27 54.81 53.69 57.30 57.74 58.59 58.01 57.21
53.07 53.23 53.32 53.48 53.48 53.56 53.56 53.68 53.66 53.79 53.61 53.47 53.48 53.10 49.63 40.57 40.68 46.63 55.63 52.97 50.35 58.42 52.08 50.96 46.64 45.93 42.52 43.99 48.12 47.14 50.33 53.45 56.36 56.71 55.08 55.26 53.57 53.64 54.23 57.23 58.05 58.60 58.56 56.76 56.67
52.27 52.81 52.96 53.02 53.08 53.12 53.63 53.73 53.34 53.34 53.32 53.02 53.02 52.51 45.64 36.68 47.03 48.06 48.29 47.51 47.23 45.78 49.72 50.89 46.27 46.76 43.57 43.40 44.51 45.56 48.12 50.21 51.36 50.89 51.67 51.38 51.60 52.30 53.72 56.90 56.45 55.60 55.20 55.67 54.97
52.93 52.78 52.45 52.45 52.95 53.36 53.79 53.65 53.48 53.44 53.84 53.92 53.27 50.79 44.55 41.86 49.61 48.73 48.44 45.89 45.93 46.19 44.41 50.03 51.13 48.31 45.15 41.58 45.99 45.18 42.13 45.31 45.97 46.16 47.04 50.77 47.46 48.89 53.58 54.66 53.99 54.74 55.21 54.77 55.25
52.86 52.78 52.12 52.01 51.97 52.39 53.53 54.00 54.00 54.59 55.40 54.46 54.05 49.57 41.50 49.90 50.12 47.37 48.20 46.64 47.74 47.55 47.13 47.90 47.78 46.72 44.28 44.26 45.17 42.69 41.40 39.02 45.98 47.32 47.93 48.55 42.59 50.23 53.46 53.26 53.20 53.56 53.68 54.18 54.71
52.28 52.22 51.68 51.59 51.68 52.49 53.11 53.55 54.23 55.57 54.65 54.73 48.03 45.31 39.69 52.18 48.58 50.67 49.02 45.60 47.24 47.91 47.41 50.12 45.13 42.42 43.42 38.64 35.75 38.30 37.59 39.27 42.67 48.09 48.25 47.84 44.90 50.22 53.37 52.69 51.69 52.17 53.04 53.86 54.84
51.66 51.85 51.54 51.60 52.26 52.85 52.86 53.14 53.55 52.85 53.03 52.69 50.72 41.65 43.27 41.92 46.77 48.57 49.68 48.69 45.60 45.13 43.48 42.59 39.82 37.12 35.46 36.86 31.78 34.21 35.57 40.02 40.47 45.54 47.64 46.18 45.32 48.60 50.86 51.33 50.81 51.42 52.37 53.08 53.84
51.36 51.26 51.69 52.14 52.12 52.26 50.29 44.77 40.25 39.18 40.67 38.34 40.19 41.13 42.95 47.06 49.04 46.64 48.24 45.79 45.27 42.10 35.94 38.19 33.84 32.36 36.58 39.50 40.08 38.93 38.96 37.52 42.36 46.27 46.22 45.13 45.38 47.76 49.70 49.05 49.49 50.33 51.26 51.76 51.33
51.03 51.17 51.24 52.08 52.17 51.82 45.74 41.50 42.35 42.02 34.83 42.93 42.58 43.20 46.50 46.93 41.38 44.38 47.59 40.28 38.19 33.90 36.61 33.94 32.51 38.53 39.97 39.40 38.20 37.07 34.61 34.53 40.09 43.57 41.85 41.79 42.71 45.13 47.15 48.63 49.78 50.32 50.72 51.47 52.27
50.70 50.77 51.14 51.40 51.29 46.05 42.78 44.37 46.23 42.25 33.77 39.03 43.05 43.95 44.65 45.02 40.79 41.37 44.20 41.09 36.33 32.98 32.59 31.18 35.17 40.55 38.56 36.84 36.30 35.71 34.94 35.79 36.38 40.78 42.01 39.87 38.70 40.93 44.48 45.41 47.64 48.85 49.06 49.95 49.97
50.82 50.93 51.30 50.82 44.93 43.62 42.85 46.97 45.02 43.04 27.01 34.16 40.24 43.09 45.22 44.60 39.60 46.87 45.85 41.29 36.67 32.34 33.35 32.09 36.51 36.60 35.42 35.10 36.23 32.07 39.25 39.32 38.08 35.56 31.44 38.91 30.79 38.40 41.98 42.90 45.13 46.67 47.84 47.11 48.73
50.75 50.62 51.10 50.21 43.32 42.12 45.42 44.74 44.90 39.88 17.52 37.79 39.91 47.79 45.01 41.25 43.24 43.63 48.84 41.88 34.83 34.83 33.90 31.09 32.68 33.43 33.60 34.98 38.29 33.82 38.79 37.80 38.12 34.83 32.15 34.34 30.35 36.73 40.42 40.72 43.15 45.13 46.56 46.68 49.29
50.95 50.86 50.68 45.54 42.91 45.64 46.69 44.57 40.97 26.33 17.85 33.79 39.51 38.18 37.86 40.87 41.93 43.22 43.17 44.62 41.77 35.32 35.35 33.61 38.14 36.09 34.80 37.51 37.74 39.26 36.05 36.12 35.77 32.45 25.62 32.85 32.03 34.13 37.01 40.13 42.64 44.82 45.58 48.21 47.94
50.79 50.40 48.81 47.74 41.10 44.31 43.64 38.44 25.00 20.44 35.57 32.24 33.32 36.86 35.80 36.19 37.97 39.20 37.79 36.68 33.38 28.77 27.09 33.06 34.35 37.73 38.65 33.55 35.99 33.96 27.83 22.76 21.96 22.43 25.64 35.09 32.21 35.96 39.26 41.95 43.00 42.92 44.52 46.51 47.75
49.70 49.32 46.93 47.56 45.15 44.59 39.83 30.79 20.51 30.70 31.55 37.42 36.07 35.78 32.47 35.70 35.93 36.72 36.14 34.02 38.70 36.68 33.09 29.60 26.45 34.85 40.45 35.09 31.10 30.02 29.28 23.26 20.30 22.10 26.84 36.04 30.35 36.07 42.95 45.62 46.68 47.04 46.18 46.16 46.60
48.17 42.50 42.41 46.19 47.25 43.23 34.76 21.93 25.84 31.38 35.57 34.24 34.97 30.67 30.69 34.92 34.44 34.32 34.30 33.50 36.93 37.99 31.59 30.59 30.93 39.83 39.34 39.03 36.84 31.66 27.14 32.30 26.44 28.69 25.48 30.13 35.31 41.53 44.01 43.76 45.12 44.34 45.17 44.77 45.74
41.40 40.54 42.83 46.42 45.65 40.54 31.31 29.44 31.91 36.69 37.43 36.37 29.67 32.60 27.61 30.40 30.95 31.16 32.61 37.56 36.37 39.24 36.69 32.96 26.21 36.21 38.74 39.60 38.33 34.70 36.77 26.45 24.43 21.01 20.88 27.56 30.68 33.63 38.44 41.74 43.99 43.93 43.69 45.02 46.21
39.90 38.53 44.42 46.39 43.91 37.61 29.97 29.18 34.44 39.31 38.90 35.57 32.76 31.37 31.52 29.83 30.56 30.21 32.41 36.42 38.81 38.20 38.30 33.03 29.52 30.27 35.28 33.12 29.99 32.31 31.42 31.92 29.05 27.04 22.76 22.71 27.53 37.80 39.98 41.82 41.65 43.19 45.17 47.67 49.62
36.63 34.15 44.47 44.40 34.31 30.52 26.99 34.91 39.15 37.66 39.98 38.53 37.27 34.72 32.76 32.87 30.63 31.79 32.20 35.34 39.92 38.98 33.70 35.10 30.80 26.85 29.48 35.16 38.01 34.93 33.81 32.23 27.10 25.22 29.63 26.87 29.25 42.19 39.57 40.92 42.38 43.69 45.93 52.99 52.70
36.81 36.93 44.66 41.95 24.97 24.38 32.65 35.24 37.50 36.74 37.07 37.25 34.87 36.26 35.95 32.05 28.43 33.18 34.93 39.36 40.16 38.59 34.50 36.08 28.16 23.11 24.77 31.17 36.07 32.65 35.60 35.03 33.94 30.77 28.33 26.14 28.83 41.26 41.43 42.39 43.80 43.02 47.60 54.90 55.39
39.85 32.50 34.95 35.64 34.41 29.49 30.74 33.39 33.77 39.31 38.08 38.01 35.32 36.31 33.01 31.09 32.89 30.94 32.59 37.90 40.01 39.15 42.67 39.25 33.16 26.82 21.43 27.04 31.94 30.25 33.88 36.83 33.13 27.21 30.45 31.56 33.14 37.69 40.08 41.71 44.15 45.06 51.65 54.20 55.67
36.34 31.86 34.23 27.48 30.48 32.47 30.98 33.66 33.18 35.29 38.66 37.59 33.72 34.61 32.64 30.34 30.76 30.69 34.02 35.25 38.15 40.29 38.40 37.14 31.47 31.65 31.67 33.66 33.63 32.79 32.64 34.17 33.32 33.50 29.85 34.06 34.43 37.08 40.22 42.17 45.50 46.92 47.83 54.63 56.02
31.53 32.42 35.46 33.30 34.12 33.27 32.63 31.56 34.20 35.26 36.00 34.61 33.78 35.10 34.29 30.18 32.72 30.93 33.65 33.81 32.74 35.73 36.09 35.66 27.76 31.65 30.01 34.12 34.26 32.13 34.06 34.47 35.05 36.06 34.84 35.28 34.40 41.20 43.57 45.11 48.20 52.32 52.60 54.56 56.52
39.10 37.08 35.01 32.29 34.63 33.48 32.88 35.20 34.83 37.29 37.41 38.74 37.41 35.07 32.48 34.51 38.20 38.83 39.04 37.84 37.68 35.12 33.07 34.29 31.82 27.51 25.00 32.93 32.05 28.63 34.00 34.44 35.92 37.51 35.97 31.21 36.50 43.46 42.65 44.71 47.40 52.14 52.60 55.55 57.12

GFSSW_sfc_wetblb_048.txt.gz
Wetbulb
53.19 53.54 53.72 53.90 53.86 53.98 54.14 54.20 54.20 54.31 54.37 54.57 54.62 54.68 54.84 54.94 54.69 48.52 42.61 47.17 52.60 59.43 61.72 51.87 59.26 58.33 55.28 53.82 56.09 52.12 41.54 38.49 43.06 44.73 46.76 49.38 49.26 52.48 54.78 54.26 55.51 56.24 56.11 57.80 59.11
53.47 53.22 53.47 53.86 53.86 53.93 53.99 53.99 54.22 54.43 54.41 54.62 54.31 54.04 54.13 54.48 47.36 44.45 49.90 55.44 58.08 59.56 53.80 48.97 48.71 54.46 48.42 49.95 53.56 49.79 41.73 42.57 48.28 50.26 48.08 50.93 49.44 50.73 51.77 51.52 52.59 54.83 57.80 58.79 59.18
52.58 52.96 53.19 53.57 53.62 53.48 53.20 53.42 53.77 53.96 54.29 54.37 54.25 54.00 53.81 52.04 38.09 37.36 60.93 59.64 59.71 61.10 55.65 54.98 51.96 53.36 46.14 49.95 50.34 50.87 47.00 50.64 50.47 51.71 52.48 52.08 52.41 53.72 51.32 50.10 51.97 52.88 54.76 56.30 57.47
52.82 53.14 53.41 53.36 53.46 53.42 53.05 53.05 53.73 53.97 53.98 53.71 53.77 53.38 53.09 46.51 30.12 42.55 56.89 56.01 56.17 54.71 54.45 52.30 47.60 44.87 44.80 48.15 50.54 47.60 52.31 53.44 52.50 53.97 54.89 53.41 54.69 52.75 53.04 53.71 55.39 56.75 56.75 56.57 56.50
52.70 52.97 52.99 52.95 52.91 52.89 52.88 53.29 53.79 53.96 53.53 53.27 53.17 53.00 47.48 38.72 37.75 46.52 54.76 51.49 47.95 49.27 52.89 49.99 45.32 44.54 40.70 43.94 49.86 48.51 49.25 52.91 55.37 55.75 55.30 55.58 53.50 53.42 53.70 56.11 57.47 57.62 57.29 56.31 56.01
52.42 52.50 52.59 52.44 52.55 52.26 53.14 53.51 53.74 53.57 53.47 53.64 53.33 52.62 43.28 33.41 45.86 48.17 47.66 48.76 45.83 42.79 44.06 49.61 47.38 46.66 43.41 42.92 47.27 45.13 49.01 50.88 51.39 50.72 52.09 50.49 51.41 51.39 52.61 55.93 55.06 55.22 55.07 54.73 53.89
52.06 52.06 52.13 52.11 52.11 52.25 53.02 53.61 53.64 53.96 54.54 54.86 53.47 50.33 43.80 39.13 48.43 48.81 48.11 45.83 45.35 46.26 42.37 44.13 50.23 47.14 43.92 39.87 44.80 44.52 41.04 42.41 45.00 46.65 47.18 50.70 47.44 48.78 53.15 54.34 53.31 53.97 54.39 54.23 53.80
52.42 52.02 51.73 51.81 52.08 52.44 52.78 53.61 53.72 54.47 55.77 54.34 54.44 47.60 40.81 48.75 48.79 47.65 47.26 46.24 47.78 46.94 45.10 44.98 45.89 42.15 41.94 42.53 42.85 41.80 40.15 38.20 45.61 45.31 47.07 48.93 42.65 50.28 53.09 52.86 52.29 53.46 53.90 54.01 53.32
51.77 52.02 51.60 51.96 52.39 52.71 52.96 52.88 54.21 55.13 55.19 54.54 47.25 43.74 38.69 50.85 47.44 50.11 48.43 45.47 46.66 46.69 45.28 48.49 43.81 40.65 41.72 37.80 34.22 36.58 36.49 36.74 41.01 46.60 47.01 46.41 43.64 49.16 52.27 51.79 50.61 50.74 51.29 51.97 52.09
51.54 51.81 51.61 51.79 52.15 52.57 52.71 53.45 53.70 52.90 52.93 52.15 50.22 40.35 40.97 40.98 46.17 48.03 48.72 47.50 44.85 44.15 42.14 41.31 38.70 35.70 34.72 34.65 30.49 32.32 34.39 37.91 37.96 43.85 45.29 43.57 43.95 47.90 49.77 50.29 48.79 49.11 50.37 51.06 51.87
51.35 51.25 51.71 51.67 51.80 52.10 49.30 43.14 40.01 38.12 39.74 37.37 38.66 39.94 41.84 46.14 48.86 46.00 48.08 45.47 43.67 40.69 33.05 36.75 32.44 31.46 36.15 38.96 39.25 38.09 37.40 35.80 40.36 43.98 44.47 43.34 44.03 46.17 47.58 48.11 48.79 50.06 51.19 51.99 52.60
50.72 51.10 51.11 51.71 51.59 51.49 43.86 40.34 41.39 41.10 34.45 42.05 41.71 41.58 44.34 45.53 41.07 43.85 46.37 39.18 37.65 31.85 35.47 32.98 30.37 36.29 38.55 38.70 37.52 36.19 34.23 33.13 38.19 42.25 40.30 39.82 38.74 41.34 43.88 45.49 47.05 48.97 49.67 50.16 50.79
50.65 50.41 50.48 50.84 51.04 45.29 41.85 43.44 44.75 41.69 32.89 37.74 41.28 41.17 43.26 43.92 40.32 41.02 43.18 39.66 35.62 32.86 32.01 28.95 34.16 39.52 37.73 35.95 35.09 34.11 33.38 34.10 35.29 39.50 40.39 37.92 37.48 40.10 43.30 44.14 45.41 46.61 47.48 49.03 49.87
50.47 50.22 50.30 50.03 44.19 42.36 41.75 45.62 44.80 42.05 26.25 32.45 38.65 42.11 43.44 42.35 39.55 46.55 46.56 40.26 35.74 32.50 32.51 30.27 35.11 35.74 33.52 33.80 34.97 30.11 37.78 37.99 36.98 34.95 29.50 37.27 29.69 37.38 40.93 41.83 43.57 44.95 45.72 46.66 46.63
50.22 50.07 49.95 49.61 42.55 41.15 43.54 44.91 42.82 38.56 17.15 36.36 38.09 45.68 43.74 39.04 41.43 43.22 47.92 43.46 33.97 33.16 33.41 30.17 31.20 31.81 32.00 33.47 36.57 32.75 38.11 36.54 36.54 32.94 30.83 32.16 28.48 33.75 37.79 37.73 41.01 43.66 45.30 46.28 45.61
50.39 50.06 49.83 45.26 45.31 44.07 45.53 43.03 39.87 26.07 16.97 32.67 38.16 36.81 36.35 38.80 40.32 42.67 42.22 43.97 42.36 35.08 34.65 32.17 36.29 34.26 33.87 36.66 37.53 38.30 34.77 33.29 32.97 30.68 23.62 30.45 30.40 32.69 35.83 38.44 40.73 42.91 44.16 45.05 45.26
49.99 50.21 47.76 46.40 39.97 43.28 42.51 37.42 24.58 19.34 34.19 31.24 32.46 36.01 34.72 34.39 36.58 38.25 37.95 36.77 34.15 26.11 25.01 31.31 32.64 35.28 37.16 31.97 34.23 32.26 27.13 20.91 20.71 21.00 23.11 33.13 30.30 34.28 38.29 40.41 41.48 42.11 43.26 43.78 44.59
49.58 47.28 47.30 46.67 44.16 43.93 37.90 29.75 19.97 29.94 30.18 36.24 35.12 34.84 30.94 34.11 34.50 35.54 35.77 33.15 38.11 35.94 31.83 26.81 25.08 32.94 37.08 33.56 30.00 28.55 27.52 22.20 19.31 20.19 23.18 33.35 27.93 33.80 41.36 44.25 44.86 45.35 43.97 44.31 44.08
47.47 42.10 42.20 44.75 46.58 41.45 34.05 21.52 25.36 30.86 34.60 33.01 33.71 29.54 29.27 33.25 32.83 32.48 32.47 34.01 36.56 36.98 31.17 29.35 29.36 38.36 38.47 37.15 35.72 30.50 25.40 30.25 24.81 25.80 22.29 27.31 32.45 38.66 41.73 42.29 43.16 43.04 43.61 43.34 43.87
39.53 40.07 42.04 45.53 44.16 39.03 30.58 29.02 30.37 36.19 36.61 35.16 29.17 31.68 26.52 28.94 28.94 29.22 30.53 37.08 35.94 38.87 37.32 32.65 27.06 35.97 38.56 38.43 36.57 32.62 34.72 25.86 22.58 19.75 19.59 25.13 28.04 30.92 36.40 38.96 42.11 42.06 42.10 43.56 45.18
38.51 37.86 43.08 44.42 43.10 35.44 24.61 28.46 33.52 38.58 38.39 35.08 32.65 30.87 30.43 28.85 29.13 28.78 31.18 35.37 38.41 37.34 38.74 34.36 29.86 30.08 34.10 31.37 29.81 30.29 27.75 29.48 26.63 24.62 21.59 21.28 25.98 35.47 38.26 39.83 40.60 40.61 41.99 42.65 48.74
35.90 33.40 43.42 43.11 32.74 25.93 25.17 32.77 38.53 37.03 38.96 37.05 36.60 34.35 31.58 31.80 29.76 29.94 30.99 34.78 38.53 38.26 32.96 35.24 30.67 26.83 29.13 34.26 36.03 32.19 29.83 30.27 25.03 24.46 26.89 23.93 25.46 38.72 38.69 38.84 39.65 40.51 44.18 46.54 54.05
38.00 37.77 43.14 39.46 23.63 23.08 31.18 34.15 36.37 36.01 35.96 36.18 34.00 35.29 34.71 31.96 28.99 31.49 33.37 38.25 38.97 37.00 33.34 34.72 27.84 23.07 25.14 30.44 34.18 30.76 33.13 31.41 31.16 30.34 26.43 24.31 26.26 39.15 39.78 41.10 41.26 41.59 45.62 47.45 54.80
38.05 31.20 33.80 34.18 32.38 28.70 32.45 31.50 33.00 38.49 37.19 37.49 35.23 35.81 34.71 31.07 32.34 30.21 31.99 36.62 38.51 38.14 42.71 39.06 30.97 25.80 20.55 25.49 30.48 28.25 31.51 33.02 31.61 26.63 28.02 29.65 32.00 37.17 39.74 40.56 41.43 43.19 45.57 46.35 54.45
33.87 29.50 36.86 25.96 27.75 29.23 33.74 33.62 32.94 32.95 37.97 36.98 34.18 34.56 34.21 30.53 31.01 29.77 32.90 34.27 37.10 39.36 36.68 35.65 30.25 31.76 31.74 32.77 32.82 31.81 31.57 32.16 30.64 31.89 29.39 31.95 32.81 36.29 38.79 40.46 41.87 43.65 45.85 50.86 53.11
30.56 32.29 34.25 29.75 31.66 33.41 33.49 33.13 33.56 34.96 35.71 33.41 33.85 36.04 36.19 32.30 31.43 30.27 32.80 33.72 33.15 35.43 35.33 36.46 30.21 29.57 28.56 32.03 31.79 30.49 32.91 33.44 33.32 33.12 32.82 33.56 33.04 40.08 42.09 43.15 42.92 44.14 45.95 51.95 53.09
40.31 40.23 36.44 31.58 29.22 27.40 28.06 33.65 33.62 35.02 36.86 37.79 37.13 35.82 33.80 34.75 37.48 37.78 37.91 36.87 37.33 36.06 33.72 34.75 31.98 29.57 22.98 30.25 30.61 24.67 30.62 31.90 33.38 34.90 34.07 29.94 34.99 39.63 39.80 41.24 43.23 44.39 48.07 52.03 53.79

GFSSW_sfc_wetblb_051.txt.gz
Wetbulb
53.27 53.12 53.46 53.57 53.75 54.01 53.94 54.12 54.04 54.27 54.65 54.82 54.85 54.70 54.36 54.38 54.61 49.94 44.63 48.79 53.18 59.35 59.44 52.27 55.71 57.31 59.49 58.36 58.95 56.18 47.32 44.49 45.59 46.17 47.67 53.48 53.13 56.76 57.31 55.78 57.42 59.28 59.91 60.94 63.26
53.10 52.98 53.15 53.21 53.26 53.29 53.33 53.55 53.80 54.14 54.14 54.44 54.55 53.99 53.99 54.15 49.26 45.35 51.24 56.64 60.13 62.13 54.29 48.28 48.49 55.74 53.33 55.11 56.85 53.92 48.74 47.69 49.87 50.58 50.41 52.32 54.29 55.22 55.03 55.60 56.52 57.39 60.72 62.18 62.40
52.82 53.14 53.27 53.37 53.39 53.21 53.01 52.97 53.49 54.19 54.44 54.50 54.05 53.75 53.32 52.76 42.03 43.04 58.67 56.72 57.85 58.38 55.81 52.39 53.48 51.48 50.89 52.05 54.26 54.22 49.48 52.22 51.62 52.05 53.19 52.41 53.29 56.20 54.40 53.55 56.83 56.57 59.22 61.73 61.53
52.99 53.06 53.12 53.11 53.11 53.19 53.05 53.25 53.57 53.97 54.11 54.13 53.62 53.57 53.36 48.54 35.05 49.23 56.90 55.62 55.39 54.31 54.16 52.64 47.80 48.34 47.43 47.82 52.20 49.21 53.42 54.30 54.53 54.27 53.39 52.18 54.63 53.95 55.32 55.85 58.72 59.80 60.94 61.01 60.85
52.75 52.92 52.83 52.93 52.87 52.87 52.88 52.94 53.57 53.80 53.95 54.11 53.80 53.77 49.09 41.98 41.03 48.94 55.12 53.30 51.94 50.31 46.92 50.95 47.08 45.32 45.99 48.72 50.20 49.46 50.95 53.78 55.38 55.62 54.80 55.65 54.40 54.71 55.88 58.82 60.51 61.09 60.50 60.02 60.46
52.39 52.56 52.62 52.58 52.60 52.72 53.20 53.75 53.75 53.99 53.97 54.44 53.98 52.98 45.78 38.21 47.79 50.59 50.87 51.30 49.65 48.66 47.71 46.58 49.85 48.77 46.01 47.04 48.21 51.84 52.06 51.66 53.32 55.17 55.94 54.39 55.11 56.36 57.00 59.33 58.53 58.75 58.70 59.53 59.37
51.97 52.13 52.22 52.18 52.41 52.70 53.52 53.95 53.93 54.05 54.80 54.53 54.34 50.88 44.78 43.19 50.83 52.28 51.71 50.56 49.90 49.03 46.34 48.29 47.14 47.97 47.76 44.64 49.06 49.87 46.84 49.20 52.14 53.00 52.60 53.94 51.07 52.15 56.20 57.23 56.37 56.98 57.92 58.59 59.51
52.30 51.96 51.80 52.13 52.32 52.78 53.36 53.97 53.91 54.61 55.95 55.02 54.31 49.46 42.54 50.95 52.98 51.24 52.03 50.47 50.91 50.57 48.35 49.41 47.61 44.75 47.27 48.67 46.76 44.95 45.67 42.24 48.86 48.70 51.07 51.48 46.49 53.52 56.50 55.49 55.06 56.19 57.43 57.63 59.24
51.63 52.17 51.40 51.46 52.01 52.65 53.00 53.14 54.34 55.16 55.14 55.22 50.10 47.09 41.19 52.49 47.78 51.59 52.15 48.32 49.35 49.18 48.46 48.63 46.14 42.30 46.16 42.48 40.98 43.40 39.98 41.37 44.06 49.31 48.45 48.05 47.04 52.50 55.17 54.38 54.68 56.11 56.91 57.31 57.96
51.40 51.57 50.79 51.01 52.05 52.26 52.41 53.07 54.34 55.53 53.86 52.48 50.65 43.27 45.49 43.79 47.75 49.51 51.65 50.22 46.65 46.77 45.43 44.31 43.25 40.66 41.70 40.69 34.41 37.98 38.85 41.78 42.39 46.94 47.41 46.27 47.10 51.48 53.43 53.47 53.95 55.18 55.94 56.44 56.94
51.13 51.17 50.50 50.63 51.26 51.98 50.88 48.98 46.04 44.32 45.24 41.68 41.64 41.90 43.22 47.06 49.59 47.86 50.39 47.44 46.23 43.60 39.45 41.94 37.01 34.70 38.79 41.75 42.39 42.34 41.22 40.73 43.92 47.34 46.09 45.83 47.63 49.49 51.66 52.12 52.44 53.68 54.89 56.00 57.48
50.70 50.47 50.48 50.54 51.05 51.34 48.76 45.24 44.81 45.78 39.22 44.26 43.68 43.21 45.58 46.69 41.61 46.35 48.83 42.59 40.73 36.98 39.73 37.85 34.01 38.86 41.04 41.17 40.81 40.73 39.32 40.08 43.53 45.26 45.68 46.08 46.01 49.53 49.66 50.71 52.52 53.25 54.08 55.09 56.60
50.53 49.90 50.31 50.44 50.97 48.08 46.78 46.55 48.78 46.81 38.82 40.34 43.36 42.58 44.77 46.06 42.58 43.23 45.97 43.80 40.01 37.26 37.34 35.52 37.71 40.23 38.95 38.71 38.23 38.86 38.48 39.02 39.76 42.79 44.97 43.34 42.58 45.24 48.77 50.32 51.26 52.16 52.89 53.31 54.19
50.54 49.81 50.15 49.94 46.63 46.28 45.95 48.95 49.13 47.64 34.14 35.34 40.03 43.41 45.05 45.32 40.22 47.78 48.28 44.49 40.33 36.39 37.37 37.19 40.55 37.56 37.50 36.89 39.32 35.75 41.56 40.90 39.84 39.17 36.58 43.58 35.83 44.30 47.23 47.85 49.15 50.55 51.48 52.57 53.23
50.83 50.19 50.38 49.30 46.00 44.97 47.21 48.95 47.55 44.66 23.22 37.91 40.05 47.79 45.72 41.18 42.32 43.25 48.78 44.76 38.58 37.52 36.36 35.26 36.24 35.61 35.73 37.00 40.03 37.29 41.81 41.15 40.94 39.23 38.74 39.24 35.69 41.07 45.72 44.28 46.65 49.90 50.74 51.82 53.27
50.72 50.42 49.77 47.36 46.64 47.60 48.93 47.43 45.28 32.53 22.44 34.07 39.93 38.72 39.23 41.05 41.19 43.38 43.53 46.55 45.20 39.11 39.08 36.93 41.08 38.43 38.24 40.72 40.59 42.30 39.14 38.68 39.05 38.00 31.31 37.43 36.27 38.22 41.91 44.29 46.08 48.72 49.97 50.89 51.80
50.03 50.11 48.44 47.46 45.67 48.05 47.41 44.35 32.39 26.34 36.34 32.87 33.99 37.80 37.16 36.46 37.89 39.09 38.76 37.67 35.60 31.66 30.71 35.69 36.07 39.15 39.58 36.10 38.86 38.70 36.83 29.48 28.19 28.78 28.97 38.47 35.80 38.89 44.95 45.68 46.15 47.10 48.92 50.74 52.69
49.57 47.38 49.11 49.08 50.13 48.77 44.61 37.34 26.06 31.28 32.09 37.67 36.35 36.81 33.66 36.80 36.61 36.93 36.39 34.83 38.13 35.00 33.29 28.96 28.09 36.05 39.57 37.20 35.61 36.25 36.36 31.10 24.12 27.00 30.45 37.00 32.68 38.90 45.93 47.88 48.69 48.87 50.25 51.34 52.66
47.45 47.50 47.99 49.53 49.58 46.70 41.65 31.72 30.21 32.27 35.37 34.13 35.56 31.95 32.12 35.11 35.13 35.00 34.69 34.96 37.05 38.00 31.06 29.92 30.06 39.56 40.00 39.96 39.55 34.97 32.41 38.22 31.63 33.26 31.65 34.46 38.22 42.85 45.16 45.80 47.33 47.65 50.15 51.77 53.38
44.75 45.14 47.21 48.76 48.58 45.99 38.36 31.74 33.43 37.61 37.81 36.69 30.26 33.49 29.47 32.30 32.14 32.98 32.87 37.52 35.91 39.58 40.14 35.56 28.85 36.17 37.85 41.52 40.17 38.15 39.91 31.68 33.09 25.76 25.45 32.19 34.20 37.28 42.62 44.04 46.47 46.86 48.61 50.99 55.54
44.38 44.17 47.85 48.01 48.24 42.19 34.05 33.28 35.47 39.95 39.47 35.60 33.76 32.95 33.02 31.73 32.86 32.11 32.60 37.09 39.31 38.27 40.08 38.12 33.84 33.01 37.25 34.43 34.12 36.20 34.65 35.79 35.81 34.34 29.60 29.98 34.43 43.57 44.24 45.59 45.40 46.81 48.58 50.26 54.07
42.49 40.42 47.74 47.33 40.03 35.70 34.95 35.24 38.34 38.30 40.34 38.32 38.48 36.59 34.19 33.95 32.32 32.19 32.02 35.50 40.71 39.92 34.64 38.40 35.45 29.94 31.87 38.93 39.43 38.26 35.17 35.66 31.40 30.06 33.20 32.76 33.49 45.51 45.10 45.56 46.69 47.22 48.71 50.40 53.72
38.95 39.49 47.57 44.99 34.14 34.24 35.75 35.49 37.15 36.98 37.25 36.99 35.94 37.19 37.37 33.75 30.32 33.46 34.48 39.37 40.28 38.88 36.37 38.42 33.28 27.44 29.69 35.83 38.36 35.11 36.41 36.65 36.16 36.27 32.17 29.98 33.38 44.65 45.10 46.27 47.62 47.40 48.87 49.84 52.35
40.31 36.02 39.12 39.96 38.37 34.09 32.71 33.47 33.65 39.53 38.13 38.78 37.09 38.27 35.67 33.42 35.95 32.70 33.54 37.58 39.99 39.51 42.50 41.33 34.39 30.76 26.03 29.79 34.56 32.28 34.45 36.38 35.22 31.16 32.76 33.55 36.12 40.77 43.28 44.17 46.14 47.51 49.21 50.11 51.21
37.58 34.64 36.97 32.63 34.17 33.66 34.45 33.48 32.80 33.96 38.63 39.05 36.38 35.96 34.78 32.75 32.56 32.62 34.71 36.09 38.62 40.27 39.69 38.83 31.25 33.52 33.02 34.73 34.90 34.11 33.96 35.15 33.68 34.95 31.14 34.89 35.99 40.10 43.17 44.32 46.03 47.84 48.68 49.31 49.83
38.44 36.18 38.84 35.32 34.84 34.46 34.16 33.32 33.63 35.32 34.58 34.34 34.35 35.51 36.18 32.73 33.82 31.36 33.76 33.85 34.60 37.77 36.96 39.32 31.63 33.24 30.78 33.82 33.89 31.76 34.17 34.71 35.00 35.58 35.76 36.08 35.77 42.92 44.51 45.70 45.64 46.72 47.91 48.98 50.76
41.31 40.73 37.15 35.61 33.76 32.63 33.58 33.78 33.85 34.84 37.15 38.46 37.09 35.96 34.71 36.54 38.68 39.54 39.84 39.40 37.75 35.66 35.68 35.19 33.86 31.34 26.35 31.58 31.85 28.20 33.71 35.20 36.08 38.25 37.73 33.87 39.08 43.34 42.54 44.01 45.74 47.12 48.82 49.58 50.95

GFSSW_sfc_wetblb_054.txt.gz
Wetbulb
53.63 53.77 53.85 53.93 53.96 53.94 53.82 53.66 53.80 54.15 54.69 54.90 55.05 55.07 54.91 54.67 54.77 53.48 48.48 53.47 55.19 61.00 61.34 54.58 52.65 59.61 61.13 59.30 59.35 58.94 50.96 48.73 48.89 47.52 48.30 52.79 53.17 56.76 59.49 59.16 60.17 61.18 62.14 62.85 66.83
53.45 53.69 53.79 53.87 53.82 53.94 53.93 53.95 54.04 54.26 54.67 54.79 55.10 54.89 54.69 54.39 53.09 50.30 54.92 56.77 58.34 60.38 54.71 51.06 49.33 54.60 56.36 57.55 58.11 55.51 51.25 51.30 53.34 52.85 50.99 52.19 54.08 55.15 56.96 57.83 58.97 59.97 62.50 63.72 65.01
53.36 53.51 53.59 53.71 53.83 53.62 53.59 53.70 53.95 54.41 54.61 54.68 54.71 54.71 54.33 54.61 48.13 50.85 59.13 56.72 57.70 58.47 54.14 53.85 51.05 51.17 52.65 55.44 56.67 56.43 52.31 54.75 55.03 54.66 53.33 52.40 53.50 55.71 55.79 56.18 59.29 59.43 61.45 62.83 63.40
53.26 53.27 53.39 53.54 53.47 53.61 53.73 54.03 54.21 54.64 54.55 54.34 54.57 54.56 54.33 52.42 40.14 53.10 56.80 56.09 57.37 54.79 53.94 52.95 51.22 49.07 49.12 50.67 55.00 52.45 55.92 56.49 56.56 56.40 54.64 52.68 55.30 53.95 54.60 56.24 60.41 60.79 62.52 62.64 62.92
52.86 52.95 53.05 52.96 53.21 53.19 53.49 54.02 54.44 54.59 54.46 54.26 54.73 54.60 53.64 47.49 45.33 50.77 54.89 57.34 54.62 53.06 48.83 48.26 50.37 48.48 46.83 50.18 52.01 52.32 53.64 55.51 57.18 56.89 56.26 56.23 54.72 55.26 55.53 57.88 59.41 60.46 61.07 61.90 63.11
52.43 52.66 52.73 52.72 52.93 53.16 53.79 54.34 54.38 54.50 54.37 55.14 55.30 53.58 50.67 43.65 51.41 53.32 54.11 54.84 53.65 52.26 50.01 49.51 48.52 51.98 48.74 48.18 50.04 52.45 52.98 53.85 54.48 55.45 56.36 54.38 54.95 57.06 58.11 59.81 59.99 60.83 61.44 62.06 61.96
52.05 52.09 52.41 52.49 52.69 52.90 53.46 54.13 54.25 54.36 55.21 55.54 55.11 53.70 49.27 46.13 53.59 55.55 55.12 53.84 54.23 52.55 49.80 50.78 50.84 47.75 50.94 48.17 50.27 50.73 49.16 51.73 53.79 53.96 53.19 56.04 52.76 54.26 58.54 60.21 59.95 60.22 60.67 61.28 62.00
52.74 52.32 51.61 51.76 52.15 52.78 53.26 53.83 53.72 54.98 55.90 55.61 54.84 53.11 47.10 52.91 55.59 54.69 54.58 53.18 53.97 54.04 52.13 52.98 51.91 48.51 46.62 49.64 49.21 46.73 47.88 44.51 51.04 53.05 54.29 52.77 49.05 55.72 58.60 58.50 58.48 59.34 59.79 60.20 61.82
52.20 52.21 51.48 51.48 51.80 52.27 52.79 53.15 54.03 54.92 55.40 55.33 53.57 50.90 44.52 54.12 50.41 52.75 53.66 50.80 52.06 52.44 52.25 52.18 50.18 46.87 45.26 42.98 42.98 45.74 41.49 44.34 46.72 52.50 52.06 51.33 49.40 54.82 57.91 58.15 57.84 58.96 59.41 59.62 61.01
51.50 51.73 50.85 51.33 51.56 51.78 52.33 53.17 54.24 55.86 55.18 54.89 53.59 47.94 48.72 45.78 50.46 51.66 53.58 52.10 49.33 49.47 48.35 47.72 46.70 43.50 42.75 40.40 36.16 40.29 41.97 43.95 45.13 49.49 50.78 48.75 49.90 54.02 56.28 56.79 57.01 58.13 58.71 59.47 60.41
51.52 51.42 50.93 50.92 51.13 51.87 52.78 53.47 50.96 48.65 49.83 45.58 45.60 45.23 46.40 50.07 52.19 50.02 52.21 50.23 49.49 47.40 42.14 45.41 41.51 38.88 41.22 42.35 42.03 43.22 43.35 43.53 46.51 49.73 49.67 48.89 49.07 51.58 54.40 54.93 56.03 57.01 58.33 59.20 59.62
51.78 51.13 50.55 50.85 51.11 51.60 53.27 49.32 48.19 49.26 43.26 48.07 47.68 47.38 49.10 49.68 44.69 47.65 51.22 45.73 45.16 41.52 44.45 42.38 38.59 42.87 43.60 42.42 41.06 41.65 41.24 42.43 46.39 48.43 48.52 48.84 48.61 51.50 53.32 54.45 55.86 56.60 57.47 58.28 59.37
51.39 50.77 50.94 50.94 51.30 52.55 51.81 50.01 53.42 52.64 43.96 43.78 46.36 45.83 46.20 48.50 44.72 45.58 48.41 47.37 43.90 41.56 42.04 39.33 41.61 43.91 42.00 40.58 38.82 40.18 40.20 41.66 42.99 46.61 48.43 47.63 46.19 48.98 52.47 54.28 55.52 56.53 57.38 57.88 57.92
51.23 50.42 51.08 51.14 49.62 52.81 51.16 52.58 54.01 52.72 39.94 39.10 42.71 45.55 46.75 47.50 43.47 48.64 49.89 46.94 43.90 41.10 42.10 40.96 43.77 41.59 40.48 38.87 39.99 36.15 42.14 42.80 43.03 42.85 40.14 47.31 38.86 46.97 49.94 51.14 53.10 54.47 55.64 56.46 57.24
51.23 50.91 50.70 49.61 52.26 51.82 51.59 54.36 53.88 50.32 30.21 40.10 42.33 49.30 47.61 43.68 44.28 45.44 49.97 47.23 41.91 42.07 42.34 39.50 40.01 39.26 37.79 39.13 40.99 38.45 42.26 42.59 42.86 41.93 42.50 43.75 41.29 45.13 49.50 48.73 51.46 53.82 54.60 55.75 56.61
51.08 50.74 50.09 51.16 54.34 52.93 54.50 53.63 50.57 37.90 27.72 37.58 42.35 41.57 41.81 43.14 43.18 44.58 44.86 48.81 48.11 43.21 43.39 41.93 45.72 42.03 40.29 41.50 42.03 43.19 40.85 41.92 42.58 41.19 35.06 40.79 41.41 42.15 45.62 48.19 50.53 52.78 53.57 54.28 55.13
50.96 50.01 51.00 53.62 51.36 54.92 54.64 49.64 37.77 32.31 39.89 36.89 37.88 40.97 40.63 39.46 40.48 41.36 40.47 40.54 37.83 32.99 35.22 38.43 40.25 42.65 41.80 38.89 41.42 41.29 37.19 31.40 30.78 33.27 33.40 42.16 40.12 42.48 48.41 49.16 50.40 51.47 51.37 53.23 55.16
49.93 48.26 50.78 55.02 56.21 54.32 51.94 42.70 30.47 35.88 36.31 40.94 39.61 40.11 37.01 39.61 39.56 40.08 39.29 37.51 40.69 39.09 34.61 32.89 29.64 39.11 42.23 39.90 37.67 38.74 37.38 31.87 27.09 30.58 34.91 41.47 37.20 42.30 49.26 51.51 52.04 52.30 52.22 53.81 56.39
48.44 54.88 55.20 55.37 55.69 53.79 46.60 36.71 35.92 36.72 38.38 37.52 39.29 36.01 36.18 38.50 38.43 38.95 38.26 37.49 38.92 40.56 32.21 32.43 32.24 40.47 42.36 41.82 41.63 37.67 33.69 40.46 34.68 37.67 36.12 39.12 41.85 46.29 48.45 49.10 50.66 51.03 51.27 53.48 57.24
50.24 52.66 53.10 54.48 55.19 51.32 43.49 35.07 37.94 40.53 40.42 39.86 34.14 36.48 33.52 36.64 36.14 37.13 36.61 39.61 38.25 41.69 42.91 37.06 31.69 39.15 39.75 42.47 42.99 39.42 41.85 34.66 36.70 27.68 28.87 36.63 38.69 40.28 45.12 46.50 49.15 49.93 50.94 53.11 56.11
50.73 48.06 51.45 53.94 53.62 47.18 39.63 38.82 39.29 42.27 41.97 38.22 36.89 35.25 35.99 34.55 35.70 34.76 35.39 39.34 40.38 40.81 42.79 40.76 35.98 34.03 39.23 36.29 33.36 37.40 36.84 37.64 38.03 36.85 32.71 32.61 37.70 46.99 47.67 48.78 49.40 50.46 51.60 53.15 54.27
48.69 44.30 52.03 52.48 43.24 44.54 39.13 38.62 39.22 40.71 43.05 40.63 40.94 38.56 36.89 36.90 35.48 35.82 35.54 38.47 42.69 42.06 37.88 40.90 37.25 32.93 35.50 40.54 41.15 40.09 37.60 38.68 32.21 32.93 37.11 37.45 39.14 48.77 50.00 50.19 50.59 50.69 51.97 53.44 54.46
43.87 44.19 51.66 49.74 38.93 37.88 39.65 38.52 40.10 39.77 39.37 39.15 38.46 39.73 40.85 36.51 32.38 36.58 38.01 41.86 42.50 41.10 38.27 39.46 35.90 30.50 32.75 37.99 40.82 37.37 37.92 40.38 40.53 38.78 35.63 34.00 38.35 48.43 48.81 48.89 49.47 50.33 51.96 52.78 53.58
44.45 40.28 46.06 45.69 45.12 38.45 37.00 37.27 36.16 41.46 40.48 40.73 39.98 41.38 38.42 37.03 38.18 34.91 35.90 39.46 41.79 41.31 42.80 41.69 37.07 33.68 29.56 32.99 36.99 33.79 37.20 39.04 38.03 34.28 36.03 37.40 39.68 45.10 46.78 47.11 48.89 50.24 51.94 52.23 52.79
44.10 40.83 41.37 38.47 41.37 39.36 39.64 37.28 36.22 35.59 41.20 41.58 38.82 37.93 36.80 32.95 36.10 35.67 37.96 38.53 40.88 42.13 42.09 39.03 32.73 36.34 37.15 37.88 37.50 36.62 36.34 37.89 37.12 38.23 34.56 38.35 39.32 43.26 46.11 47.34 48.65 50.26 51.10 50.66 51.35
41.90 39.92 43.04 38.21 39.68 36.59 37.66 37.50 35.41 36.68 37.40 36.61 37.25 38.19 37.79 34.84 35.15 32.35 35.27 36.81 36.67 40.98 39.56 40.74 34.08 36.94 34.37 37.34 37.53 35.30 37.45 38.14 38.33 38.71 38.69 39.08 39.10 45.31 46.98 47.64 47.56 48.42 49.12 50.06 51.31
46.25 41.88 39.02 39.32 37.71 34.94 36.95 36.94 36.64 37.70 39.90 39.92 38.92 37.09 37.98 39.09 41.47 42.15 41.79 41.18 39.16 37.23 36.99 36.63 36.00 33.05 31.08 35.71 35.17 31.74 36.90 37.98 38.96 40.55 39.88 36.76 41.91 45.98 45.79 46.66 47.74 48.64 49.39 49.86 51.09

GFSSW_sfc_wetblb_057.txt.gz
Wetbulb
54.29 54.37 54.39 54.49 54.44 54.56 54.62 54.70 54.70 54.93 55.12 55.61 55.92 56.00 55.97 55.68 55.23 56.96 52.59 55.10 56.07 60.96 59.72 54.34 55.41 55.39 59.53 59.05 60.43 59.50 52.51 50.29 50.14 49.55 49.91 52.99 52.60 56.64 58.64 58.27 60.84 63.22 63.74 65.18 68.37
53.64 54.01 54.07 54.19 54.29 54.34 54.37 54.47 54.58 54.73 55.29 55.67 55.77 55.77 55.71 55.24 55.29 52.94 57.05 57.93 58.72 60.84 56.04 52.68 51.30 53.59 56.13 57.79 59.14 56.50 52.32 52.28 55.26 54.72 53.22 53.71 54.06 54.30 55.18 57.05 59.29 61.54 63.56 64.97 67.80
53.50 53.71 53.94 54.08 54.22 54.12 54.18 54.52 54.96 55.28 55.67 55.69 55.55 55.67 55.65 55.55 53.00 54.34 57.98 56.42 58.10 58.61 55.09 54.42 53.87 52.20 50.98 55.64 56.73 56.87 52.67 55.75 55.62 56.71 56.55 54.38 54.38 56.25 54.36 55.01 59.06 60.13 61.95 63.47 64.94
53.40 53.70 53.74 53.73 53.83 53.85 53.96 54.37 54.87 55.37 55.78 55.57 55.47 55.50 55.92 56.03 43.73 57.01 56.53 57.29 58.91 58.11 52.75 53.75 53.09 50.12 48.55 48.58 54.63 52.50 56.54 56.92 57.05 57.49 56.80 54.38 55.64 54.54 55.36 55.71 60.51 62.99 63.81 64.19 63.99
52.89 53.16 53.08 53.32 53.30 53.48 53.62 54.05 54.57 55.10 55.21 55.31 55.57 55.87 55.76 51.28 48.13 53.58 55.74 58.95 57.11 54.74 51.50 49.57 49.65 51.34 47.96 49.96 51.43 51.71 53.70 55.90 57.49 57.53 57.99 57.54 55.32 55.98 56.05 57.94 58.58 61.48 62.96 63.31 63.87
52.98 52.74 52.55 52.69 52.94 53.14 53.35 54.16 54.34 54.51 54.96 55.69 56.41 55.71 54.90 47.66 53.46 55.12 55.24 54.96 55.41 53.84 52.32 51.57 49.23 50.34 50.09 50.07 49.44 51.86 52.46 53.21 55.34 55.63 56.97 55.85 56.20 56.97 58.16 59.72 58.99 58.32 59.58 61.69 62.75
52.71 52.39 52.14 52.46 52.68 52.85 53.16 53.93 54.14 54.14 55.15 56.04 56.70 55.88 52.65 48.66 54.43 55.64 55.97 54.46 54.79 53.95 51.20 52.87 52.44 49.47 49.49 48.95 52.60 51.25 47.94 50.49 52.36 53.32 53.73 56.44 52.88 54.36 58.66 59.89 59.42 59.04 59.83 60.96 62.58
52.64 52.57 52.03 52.05 52.41 52.66 53.03 53.17 53.40 54.55 56.03 57.18 56.10 56.67 50.24 53.44 55.56 54.34 54.48 53.85 54.73 54.69 53.54 53.89 53.59 50.82 48.92 49.22 47.20 46.64 48.69 44.47 49.49 52.26 53.67 53.38 48.56 54.84 58.11 58.79 58.45 59.55 60.34 61.21 62.73
53.17 52.82 52.05 51.82 52.05 52.55 52.63 52.88 54.03 55.44 55.91 55.86 55.85 54.25 47.76 54.67 51.18 52.69 53.91 51.22 52.38 53.25 53.69 53.07 52.07 48.62 48.52 44.21 41.63 43.53 40.66 44.83 46.57 50.97 51.52 51.14 50.31 54.85 56.97 57.48 58.27 59.43 60.20 60.59 61.64
52.88 52.49 52.30 51.46 51.94 52.28 52.51 52.34 54.88 55.26 56.30 57.45 55.06 50.25 51.38 46.97 50.60 51.56 53.68 53.06 50.87 51.06 50.28 49.53 48.54 45.33 45.43 42.96 36.75 39.24 40.44 42.63 43.99 49.17 50.03 49.20 50.30 54.13 56.35 56.32 56.77 58.22 59.98 60.41 60.83
51.95 51.50 51.38 51.31 51.63 52.12 52.63 56.32 52.76 52.64 53.36 48.21 48.06 47.33 47.17 50.60 51.94 50.31 52.27 50.98 50.68 49.10 44.66 47.84 43.64 41.21 43.57 44.80 44.38 43.23 41.20 40.84 45.31 49.00 48.29 48.39 49.38 51.67 54.90 55.23 56.42 57.60 59.14 60.34 61.25
52.09 51.69 51.67 51.46 51.76 52.07 53.45 51.73 50.59 51.84 45.68 50.82 49.63 48.45 49.69 50.42 46.21 48.99 52.10 47.14 46.71 43.12 45.62 43.91 40.95 44.92 45.62 44.57 43.26 42.25 40.69 40.85 43.56 46.44 47.82 48.16 47.78 51.67 53.17 54.46 55.64 56.93 58.22 58.97 60.27
51.99 51.80 51.40 51.59 52.09 52.64 53.64 52.24 55.61 54.84 46.47 46.29 47.62 47.43 48.14 49.20 46.28 46.84 49.40 47.60 44.87 42.56 42.75 41.37 43.52 45.93 43.98 42.95 41.55 41.93 40.30 40.41 40.67 44.44 46.98 47.30 46.16 48.85 52.44 54.57 55.45 56.70 58.33 59.50 59.71
51.96 51.83 51.88 51.41 50.45 54.86 53.52 55.13 56.15 54.91 42.71 42.62 44.59 47.10 47.98 48.42 45.03 49.88 49.85 47.62 45.21 41.84 43.21 42.92 45.60 43.25 42.54 41.57 42.36 38.33 43.11 41.99 40.86 40.76 38.31 46.80 39.27 46.63 49.92 51.42 54.01 55.12 56.53 57.81 59.09
51.95 51.87 51.01 49.81 55.27 53.69 53.97 56.69 55.97 53.01 34.09 43.16 44.50 50.87 48.47 45.55 45.59 46.42 50.86 47.68 42.38 42.79 42.99 40.97 42.23 42.17 41.13 41.35 43.20 40.30 43.58 42.04 41.34 39.81 40.56 42.34 41.37 45.63 49.72 49.11 51.36 54.11 55.74 57.57 59.17
51.89 51.40 50.80 53.71 56.86 54.85 56.53 56.26 53.38 41.48 31.17 40.15 44.51 43.48 43.90 45.28 44.77 46.32 46.39 48.62 47.30 43.59 44.16 42.79 47.20 45.26 43.88 44.32 43.24 43.55 41.35 41.21 41.06 39.44 33.81 40.06 41.44 43.07 46.88 49.40 51.64 53.90 55.64 56.85 57.84
51.69 50.75 51.38 56.13 52.98 56.65 56.80 52.39 41.26 36.17 43.16 40.19 40.61 43.07 42.75 42.24 42.40 43.07 42.72 41.95 39.34 36.39 36.94 41.25 42.31 44.93 46.14 41.44 43.51 41.59 38.90 31.44 30.02 31.33 31.35 41.57 40.91 43.86 50.33 51.83 52.00 53.25 54.91 56.33 57.20
50.50 49.57 53.07 56.41 57.64 56.85 54.49 46.22 34.10 39.93 40.30 43.59 42.10 42.68 40.61 41.54 41.42 41.51 41.29 39.46 41.99 41.70 37.70 34.09 33.21 41.50 44.40 42.54 39.08 38.10 38.09 31.41 25.11 28.13 32.52 41.56 37.70 43.59 50.59 52.60 52.81 53.15 54.73 55.08 55.48
49.10 55.76 55.80 57.74 57.34 55.89 48.94 40.18 39.76 40.56 41.79 40.52 41.96 39.73 39.74 40.98 41.51 41.27 40.66 39.31 40.95 42.06 35.21 34.17 34.39 42.30 44.26 44.39 43.07 39.54 34.78 39.86 34.04 34.40 29.17 35.33 42.55 47.10 49.92 50.34 51.99 52.87 53.40 54.96 56.96
51.02 53.63 55.08 56.47 57.64 52.84 45.55 39.61 41.53 43.84 43.37 42.62 37.45 39.51 36.83 38.95 38.79 39.50 39.16 41.49 39.86 42.64 44.16 39.67 33.11 40.88 42.87 44.60 44.32 42.32 41.87 33.71 35.14 26.75 24.96 33.96 36.54 41.02 46.19 48.48 50.80 51.94 52.81 54.64 56.06
51.72 49.10 53.97 56.12 54.87 48.82 40.67 41.34 42.17 45.20 44.31 40.99 39.92 38.62 39.13 38.21 39.13 38.64 38.54 41.48 42.71 41.89 43.46 41.24 38.34 37.53 41.39 38.06 38.34 39.47 37.48 38.31 38.30 35.67 28.07 30.42 36.46 47.03 48.03 49.45 50.79 52.01 53.68 54.10 55.01
51.31 45.27 54.55 52.62 45.17 46.84 42.28 41.33 39.83 43.32 45.55 42.91 43.76 40.84 38.63 38.87 37.99 38.36 38.00 39.98 44.32 43.60 38.70 42.06 38.79 33.85 36.39 43.32 44.72 42.25 40.06 38.23 33.57 33.08 36.15 34.09 34.46 49.47 51.09 52.03 52.46 52.77 53.61 54.15 55.32
46.91 48.11 53.79 51.16 41.81 42.71 44.42 42.65 42.51 42.41 42.87 41.94 40.66 42.05 42.87 38.90 34.92 39.36 40.18 43.59 44.24 42.45 38.93 41.48 37.13 30.99 33.90 37.27 42.00 38.05 40.16 39.93 39.81 37.20 34.82 31.61 34.51 50.12 51.37 51.97 52.61 52.58 53.27 52.97 54.53
47.38 42.90 48.98 51.27 49.14 43.02 42.34 41.67 39.77 43.85 42.75 43.88 42.46 43.21 40.73 38.82 40.39 38.21 37.97 40.98 43.50 42.93 43.77 43.01 37.90 33.52 30.35 32.85 34.52 33.28 37.20 40.15 39.01 32.01 36.33 37.10 36.84 45.38 48.89 49.87 50.64 51.09 52.46 53.18 53.69
48.78 45.28 44.98 41.21 43.64 42.17 43.26 42.34 39.25 39.59 42.77 42.92 41.12 40.51 39.08 35.76 38.12 37.31 39.57 40.64 42.93 43.99 43.73 40.98 35.61 37.03 38.28 38.94 38.41 38.03 38.08 38.66 37.70 39.01 34.99 38.53 36.93 39.83 45.02 47.80 49.88 51.25 51.33 51.87 52.10
44.12 42.16 44.44 42.38 42.04 39.82 42.03 41.65 39.75 40.57 41.54 39.96 38.87 39.83 39.20 35.87 36.94 35.67 38.05 39.38 37.86 42.29 41.29 42.68 34.77 37.81 35.97 39.36 39.22 37.12 39.20 39.45 39.37 39.54 38.88 40.29 39.94 46.09 48.04 49.26 48.68 49.27 50.00 50.53 51.81
47.34 47.34 42.34 40.69 42.84 39.32 39.20 38.87 38.85 39.29 41.10 42.77 40.48 38.62 37.34 40.64 42.87 44.75 44.39 44.47 42.37 40.06 39.36 37.78 36.44 35.20 31.75 37.83 37.78 34.16 37.93 39.28 39.93 40.88 39.79 36.88 42.47 46.54 46.00 46.96 48.46 49.87 50.93 50.98 51.99

GFSSW_sfc_wetblb_060.txt.gz
Wetbulb
54.30 54.36 54.52 54.66 54.65 54.75 54.72 54.86 55.07 55.39 55.48 55.89 56.42 56.44 56.46 56.46 56.08 55.59 53.24 53.81 55.98 61.80 60.38 53.99 53.43 54.02 55.04 56.37 57.57 59.18 51.43 48.94 50.11 49.81 51.25 54.58 52.88 55.49 57.01 55.31 57.34 61.05 62.55 65.47 67.76
54.05 54.24 54.32 54.42 54.31 54.36 54.64 54.76 55.14 55.49 56.01 56.29 56.39 56.51 56.30 56.29 54.03 53.68 56.64 56.96 60.26 61.68 53.82 52.82 51.24 52.12 50.87 53.73 54.89 53.66 51.03 51.07 54.46 54.70 53.68 54.27 54.47 54.77 54.40 54.01 55.01 58.10 63.55 65.18 66.80
53.81 53.71 53.77 53.91 54.24 54.14 54.20 54.40 55.04 55.60 56.02 56.17 56.25 56.15 56.21 56.22 53.40 53.20 58.66 56.50 60.48 59.27 54.31 53.11 53.45 51.62 48.92 51.06 53.02 54.11 51.72 54.72 55.20 56.23 56.48 55.30 55.35 56.06 54.13 52.59 55.06 56.91 60.84 63.60 64.80
53.77 53.68 53.60 53.44 53.65 53.83 53.92 54.33 54.85 55.43 55.77 55.95 55.97 56.22 57.02 55.22 45.07 57.32 60.21 58.66 61.65 58.35 55.11 51.22 50.95 49.13 47.47 46.69 50.36 49.15 53.81 55.23 56.10 56.91 56.29 55.38 57.19 55.46 55.40 55.16 57.52 58.69 61.99 63.58 63.86
53.30 53.42 53.33 53.19 53.37 53.46 53.46 53.93 54.51 54.90 55.20 55.53 56.07 56.77 55.86 52.92 49.79 55.76 61.54 60.32 57.24 56.23 52.76 50.65 48.29 48.29 47.08 48.17 48.92 47.61 49.44 52.77 55.47 56.62 57.07 57.43 55.92 56.05 56.03 58.16 58.63 58.71 59.69 63.19 64.34
52.92 53.19 52.88 52.82 52.92 53.13 53.76 54.00 54.02 54.12 54.66 55.55 56.58 56.73 54.06 48.35 54.16 55.59 55.29 55.15 54.77 53.39 52.22 51.84 49.92 50.04 47.04 46.29 47.57 49.65 49.57 50.29 51.61 52.95 54.90 54.46 55.62 56.50 57.75 59.46 59.02 59.24 58.89 59.69 63.33
53.74 53.39 53.00 52.87 52.73 52.87 53.43 53.79 53.77 54.12 54.87 55.87 57.21 56.52 53.03 50.75 54.20 54.77 55.55 53.82 54.43 53.47 51.25 52.77 52.27 49.69 49.26 46.20 49.03 48.60 46.47 48.92 49.75 50.82 51.18 54.03 52.19 53.24 58.17 59.47 58.63 59.20 59.24 59.84 60.63
52.86 52.93 52.14 52.50 52.66 52.75 53.28 53.84 53.57 54.27 55.62 56.83 57.58 55.24 50.96 54.03 54.86 54.27 53.82 52.95 54.10 54.16 53.06 53.58 53.31 50.22 48.21 49.26 46.94 44.40 45.28 42.16 48.36 49.60 50.45 50.61 46.39 53.41 56.98 57.39 57.81 58.49 59.60 60.12 60.59
52.98 52.95 52.72 52.20 52.45 52.85 53.30 53.26 53.55 55.65 56.72 56.89 54.73 54.49 49.21 54.60 51.77 52.42 52.75 50.44 52.20 52.72 53.05 53.01 51.35 47.86 47.28 43.29 41.55 43.31 38.25 40.32 43.07 48.97 49.37 48.87 46.83 52.55 55.48 55.82 56.52 58.06 59.41 59.72 60.90
52.77 52.41 52.53 52.37 52.31 52.78 52.76 52.99 55.16 55.34 56.05 57.67 56.12 49.78 52.84 47.73 50.73 51.20 53.29 52.63 50.51 50.73 50.35 49.99 48.07 44.90 44.85 42.28 35.09 38.42 39.84 41.10 40.46 44.68 46.11 46.55 47.49 51.02 54.41 55.13 55.23 56.57 57.72 59.92 60.35
52.82 52.18 52.49 52.47 52.64 52.45 52.49 56.12 52.20 51.89 54.72 50.27 49.38 49.33 49.26 50.81 52.33 50.32 52.45 50.75 50.73 49.06 44.36 47.47 42.93 40.77 43.76 44.96 44.34 43.05 41.56 40.58 43.55 45.63 44.39 44.62 46.47 49.71 52.45 53.42 53.75 56.73 57.17 58.03 60.15
52.78 52.80 52.95 52.62 52.58 52.64 52.07 52.65 51.02 52.42 45.58 51.32 50.63 49.98 50.29 50.55 46.03 49.71 51.73 47.01 46.52 42.22 45.17 43.34 40.26 44.64 45.80 45.31 43.63 42.49 40.35 40.30 43.32 45.19 44.25 44.08 43.66 47.72 51.28 53.03 53.75 55.59 57.43 58.13 59.59
52.37 52.68 52.93 52.57 52.44 52.62 54.83 52.84 55.88 55.38 45.98 48.50 48.48 47.90 48.20 49.50 46.14 46.89 49.63 47.61 44.01 41.96 42.25 40.02 42.23 45.68 44.41 43.32 41.70 41.63 40.18 40.00 39.97 43.35 44.38 42.80 41.55 44.83 48.76 52.16 53.74 55.94 57.55 58.42 59.19
52.19 52.27 52.50 51.86 50.07 55.61 54.15 56.34 56.53 55.39 41.35 43.44 44.82 47.47 48.54 48.54 45.04 50.08 50.34 46.96 44.51 41.31 42.14 41.50 44.90 43.27 42.85 41.58 42.09 38.45 43.44 42.23 40.89 39.46 34.86 42.44 34.60 43.32 46.57 49.04 52.06 53.85 56.36 57.54 58.25
52.07 52.25 52.26 51.40 53.90 52.88 53.97 56.91 56.22 52.84 33.06 44.56 45.37 51.57 48.50 45.61 46.59 47.05 51.09 47.46 41.94 41.90 41.90 39.40 41.59 41.02 40.48 41.56 44.17 40.74 43.46 41.62 40.86 39.06 38.28 38.28 36.23 39.84 46.37 46.11 50.38 52.84 55.35 57.49 58.23
52.05 52.09 51.87 54.83 55.21 56.38 56.53 56.71 54.59 41.31 32.44 41.44 45.38 44.14 44.16 45.96 46.06 46.80 46.77 48.71 47.46 42.98 43.28 42.73 46.12 44.52 43.34 44.62 44.28 44.64 41.58 40.48 39.92 37.83 31.49 36.42 36.34 37.34 41.64 46.59 50.15 53.19 54.41 56.58 58.17
52.02 51.66 50.27 55.02 52.38 56.29 56.59 53.16 41.00 36.22 44.37 41.10 41.72 43.68 43.04 42.84 43.35 44.37 42.57 42.08 40.05 36.47 36.80 40.88 40.83 44.13 44.98 41.45 44.51 42.78 38.41 30.59 29.08 29.63 29.82 38.17 35.45 38.31 44.29 47.62 50.52 52.68 54.46 56.30 57.35
50.46 49.93 53.24 54.78 56.88 56.22 53.50 45.99 35.10 42.29 41.38 44.58 43.44 43.20 41.26 42.95 42.33 42.24 41.84 39.92 43.38 41.12 37.65 33.90 31.86 40.40 43.89 41.34 39.45 40.09 38.28 30.49 22.34 24.39 29.11 37.57 31.52 38.37 46.71 48.35 51.36 53.50 55.18 56.66 57.15
49.04 56.01 54.92 57.59 57.51 55.52 47.73 40.32 39.51 41.08 43.36 41.49 42.65 40.48 40.34 42.41 41.99 41.36 41.10 39.97 41.95 42.39 35.86 34.53 33.90 42.46 43.26 43.82 43.76 39.79 35.27 40.65 32.66 34.16 29.27 32.68 37.51 43.55 46.58 47.94 50.06 52.08 53.64 54.48 56.38
49.60 53.17 54.41 57.85 56.99 51.69 44.42 39.93 42.74 45.27 44.53 43.51 38.03 41.32 37.27 39.56 39.43 39.94 39.55 42.72 41.18 43.66 44.33 39.24 32.55 39.83 41.32 44.13 44.11 41.62 43.11 33.01 33.54 24.63 22.84 31.33 33.42 35.05 42.70 45.99 49.28 51.00 53.01 55.32 56.99
51.32 50.05 55.27 56.87 54.74 48.23 40.95 41.99 43.87 45.54 44.82 41.73 40.49 39.06 39.75 38.37 39.56 38.54 39.03 42.20 43.97 42.54 43.39 41.06 37.53 36.31 40.81 38.84 37.82 39.43 37.70 38.58 37.24 34.35 27.49 25.43 32.10 43.39 43.97 47.38 48.97 50.45 53.38 55.30 55.43
50.91 45.33 55.19 54.44 45.07 47.19 43.06 43.47 43.20 43.66 46.22 44.31 44.38 42.30 40.20 40.08 38.54 38.23 37.99 41.14 44.82 43.97 39.08 42.17 37.95 32.55 35.50 41.71 43.03 39.73 39.51 37.39 30.45 29.34 34.38 31.46 32.61 45.91 46.86 47.47 49.47 51.49 53.68 54.77 55.44
47.97 48.81 55.13 53.40 43.05 42.40 45.34 45.03 45.93 42.92 43.56 42.92 42.13 44.00 43.57 40.17 35.95 39.62 40.65 44.65 44.98 43.09 40.04 40.84 35.77 29.66 32.40 37.54 39.44 35.01 37.78 38.53 37.92 38.05 32.46 29.17 32.75 46.17 46.30 43.54 44.34 50.87 52.97 53.69 54.19
48.59 43.90 48.81 49.15 49.18 44.83 42.58 42.49 42.17 45.37 43.27 44.15 43.35 44.22 42.06 39.81 41.59 38.33 39.19 42.60 44.74 43.88 45.84 43.26 37.56 33.16 28.14 32.37 36.69 32.60 36.64 39.20 36.76 33.06 33.90 34.51 35.40 38.34 40.03 39.88 44.24 45.46 52.98 53.26 53.46
49.23 45.34 46.67 40.51 42.47 43.48 43.30 42.93 41.25 41.06 44.64 44.64 42.19 41.81 40.01 36.10 37.96 37.42 40.20 40.90 43.71 45.41 43.80 41.59 34.50 36.87 37.21 38.47 38.81 37.54 36.92 38.57 37.52 37.73 34.04 36.19 36.67 39.32 40.75 41.50 44.32 47.23 50.85 50.88 51.57
44.51 42.41 43.71 41.09 45.05 43.52 42.64 42.20 41.33 42.16 41.53 39.43 38.77 40.74 40.44 37.36 37.96 35.65 39.33 39.77 38.99 43.08 41.83 42.82 34.83 37.11 34.76 38.46 38.65 36.38 38.89 39.54 39.23 39.42 38.26 38.80 37.92 44.11 44.31 44.50 45.49 48.05 48.95 49.46 50.91
48.24 48.19 42.38 40.07 42.87 42.48 42.40 41.19 40.92 41.76 41.85 43.33 42.18 40.54 38.99 40.23 44.38 44.81 44.77 44.74 44.04 41.03 40.09 39.10 36.54 34.48 30.13 36.52 36.76 32.50 36.44 37.44 37.67 40.24 40.44 36.19 40.08 45.20 44.40 44.91 46.84 49.22 50.08 50.59 51.68

GFSSW_sfc_wetblb_063.txt.gz
Wetbulb
54.47 54.34 54.39 54.55 54.56 54.72 54.86 54.96 55.26 55.57 55.86 56.35 56.82 56.94 57.04 56.69 56.52 52.56 48.08 52.53 54.26 60.54 61.71 53.06 51.96 51.30 52.03 50.22 54.55 53.59 45.69 44.43 47.00 48.33 49.67 52.97 51.00 54.46 54.78 53.03 54.21 55.41 59.53 64.86 66.31
54.05 54.14 54.14 54.09 54.16 54.27 54.53 54.61 54.90 55.40 55.78 56.38 56.66 56.60 56.71 56.26 51.92 50.53 57.14 59.67 60.39 61.74 51.33 50.24 48.86 50.10 46.67 48.18 50.83 49.11 44.36 47.39 52.55 53.21 51.96 53.59 53.90 54.07 52.48 52.20 52.99 53.91 62.03 64.36 65.55
53.70 53.73 53.88 53.81 53.89 53.87 54.03 54.34 54.63 55.12 55.76 56.13 56.32 56.38 56.76 56.11 49.55 49.41 59.69 61.67 61.16 59.57 53.38 51.36 49.49 48.70 44.95 46.41 46.94 49.04 45.28 50.01 52.52 54.37 55.11 54.16 54.19 56.01 53.34 49.85 52.26 52.16 55.45 61.68 63.20
53.54 53.74 53.78 53.69 53.60 53.56 53.75 54.14 54.52 55.10 55.45 55.71 55.87 56.46 57.32 53.45 42.40 51.29 61.07 62.68 62.13 58.40 54.17 51.48 46.53 41.87 42.86 42.31 46.45 42.65 47.64 51.11 52.50 54.62 54.65 53.47 55.39 54.58 54.89 53.88 56.68 56.99 56.94 57.82 60.93
53.67 53.90 53.80 53.78 53.57 53.44 53.48 53.71 54.20 54.49 54.67 55.10 55.56 56.65 53.59 49.11 49.43 58.49 63.43 62.45 58.16 54.48 52.55 48.52 44.72 42.51 38.93 43.72 45.30 44.44 45.81 47.65 49.43 50.65 52.30 54.51 53.71 54.29 54.82 57.86 59.06 58.47 58.22 56.72 57.94
53.12 53.33 52.70 52.78 52.84 53.21 53.58 53.82 53.82 54.13 54.34 55.04 55.78 57.17 51.28 45.49 51.92 54.90 57.49 54.65 53.93 49.51 49.75 48.49 45.47 46.70 42.59 42.28 41.15 43.87 44.76 45.94 47.66 47.53 48.70 48.16 50.28 53.36 55.13 58.25 58.44 58.34 56.95 57.57 57.48
53.22 53.33 53.33 53.00 53.04 52.98 53.68 53.88 53.90 53.86 54.52 55.57 56.55 55.21 49.27 47.12 51.44 51.07 51.83 47.83 50.86 51.88 49.31 50.06 49.74 46.15 44.81 41.79 45.40 44.91 40.89 43.46 45.19 46.81 46.53 48.87 46.59 47.74 53.73 56.40 56.69 57.60 58.11 58.15 57.41
53.61 52.89 52.54 52.95 52.98 52.98 53.08 53.74 53.59 53.86 55.08 56.87 57.08 52.45 46.59 54.97 50.28 50.16 49.70 49.65 51.58 51.29 50.51 49.97 50.23 46.01 43.07 44.43 43.68 40.24 39.27 35.00 41.84 46.15 47.38 45.92 40.97 48.17 51.46 53.85 54.52 56.21 57.70 58.48 58.21
52.92 52.50 52.39 52.50 52.95 53.28 53.24 53.30 53.43 54.42 56.04 57.24 51.84 48.94 47.35 54.05 50.73 50.87 48.72 48.57 50.76 51.25 51.19 52.44 47.27 43.39 43.77 38.19 34.05 36.26 32.75 35.42 39.33 44.29 44.43 43.87 42.74 47.73 50.28 51.19 52.52 53.71 55.96 57.62 58.01
53.47 53.16 52.47 52.43 52.93 53.08 52.94 53.12 53.92 54.13 55.31 55.87 54.11 46.84 50.49 47.67 50.33 50.44 50.52 51.60 49.24 49.04 48.45 47.64 42.98 39.05 37.56 34.71 27.92 32.55 33.83 37.17 37.60 40.75 41.17 39.57 40.91 44.84 48.44 49.59 50.19 52.13 53.42 56.05 57.33
53.49 53.00 53.00 53.20 53.53 52.96 51.05 49.33 46.99 46.53 48.95 48.62 50.01 48.51 49.70 51.56 52.32 49.21 51.94 50.26 49.16 46.52 39.81 43.26 37.15 33.79 37.98 40.09 40.95 40.17 38.48 37.36 40.46 43.68 41.27 40.16 40.84 43.09 45.52 45.89 47.33 50.51 52.37 53.93 55.15
53.26 53.34 53.28 53.10 52.98 52.46 48.92 46.33 48.14 47.58 41.77 49.38 49.37 49.29 50.86 50.12 45.16 48.35 51.57 45.50 44.11 38.49 41.14 38.19 33.90 40.85 42.97 42.63 41.05 39.95 37.63 37.05 40.61 43.18 41.37 40.09 39.80 42.82 44.35 44.79 45.99 46.75 50.05 53.27 54.95
52.90 52.67 52.96 52.90 52.44 50.48 48.83 50.92 52.69 51.20 40.31 46.19 49.81 47.33 47.72 47.62 45.04 45.90 48.66 46.35 41.56 38.68 38.59 35.46 38.82 43.36 42.28 40.29 38.94 38.67 37.10 37.54 37.49 41.01 41.77 39.88 37.69 40.14 43.63 44.94 46.13 47.43 48.39 51.86 55.02
52.55 52.45 52.48 51.91 49.05 50.69 49.80 52.93 52.51 51.21 34.53 42.47 43.17 46.06 47.29 46.58 43.57 49.68 50.05 45.98 41.84 38.21 39.24 37.50 40.91 40.85 40.23 38.91 39.82 35.23 41.86 41.13 39.65 36.27 30.73 38.46 29.08 36.91 40.73 41.91 44.28 46.23 47.07 48.87 52.15
52.22 52.31 52.17 51.26 46.60 48.44 49.92 52.12 51.44 48.04 29.09 43.60 44.06 49.82 46.92 43.45 45.31 46.64 50.00 45.98 39.91 39.65 38.73 36.29 38.15 38.65 37.90 39.33 41.18 37.65 42.23 40.39 39.37 35.15 31.99 33.79 29.83 34.53 39.46 39.18 41.48 44.02 46.78 48.99 51.47
52.22 52.00 51.68 51.74 49.11 51.98 53.54 52.65 49.71 36.39 30.18 39.85 44.64 43.26 42.00 44.20 45.09 46.89 46.04 47.06 45.37 40.50 40.56 39.32 43.45 41.11 41.14 42.68 42.08 43.42 39.60 38.82 37.43 31.60 26.05 32.02 30.93 31.54 35.21 38.45 41.66 44.21 46.16 48.90 51.37
51.91 51.49 49.75 51.22 48.38 54.27 51.95 47.84 34.86 32.76 44.10 39.51 40.47 42.68 41.14 40.87 43.13 43.45 41.92 38.90 36.70 31.97 32.30 38.03 38.23 41.50 44.02 38.35 41.09 39.03 35.15 26.14 22.33 21.93 23.65 34.44 32.10 32.54 39.16 42.43 42.65 43.65 45.46 46.82 48.33
50.22 49.68 51.50 52.63 53.03 52.94 48.61 40.39 30.74 40.48 39.45 43.54 41.94 41.55 39.03 42.04 41.89 41.93 39.57 36.35 41.52 38.61 32.38 29.62 28.03 37.74 42.76 39.01 36.18 35.25 33.21 26.38 21.38 21.12 24.78 34.27 28.00 32.94 41.90 44.89 45.93 45.73 46.68 46.62 47.85
48.19 50.85 50.57 53.65 54.92 51.12 43.05 34.06 35.95 39.90 42.10 40.22 40.57 38.29 38.49 40.96 40.19 39.38 37.71 37.50 40.49 40.18 30.56 28.11 31.44 41.22 41.68 41.14 39.02 34.65 30.52 34.61 28.39 29.77 26.47 28.41 33.72 39.39 42.49 43.24 45.47 46.51 47.62 47.03 48.70
44.80 48.23 50.71 54.89 53.44 47.42 38.66 37.46 40.12 43.21 42.39 41.39 35.40 39.68 34.33 37.15 36.56 36.33 36.59 41.53 40.21 42.11 40.53 36.04 28.97 38.21 40.17 41.74 40.89 38.27 38.92 28.73 30.68 20.10 21.35 27.16 29.58 31.07 38.46 40.24 41.70 42.57 44.84 48.50 49.82
45.74 46.20 51.25 52.81 50.48 43.46 35.02 38.61 42.64 44.91 44.05 40.11 37.98 37.04 37.46 36.31 36.50 35.44 36.59 40.39 42.48 41.06 41.22 38.15 32.86 33.40 37.72 35.18 34.21 34.48 32.16 34.81 33.54 30.86 24.05 21.53 26.67 40.47 39.04 40.95 40.34 41.87 44.22 46.64 49.75
45.61 41.31 51.45 50.64 39.31 42.52 38.23 42.48 45.03 44.68 45.16 42.71 42.27 40.91 38.60 38.53 36.01 36.44 36.03 39.69 44.52 42.35 36.49 38.33 33.66 28.23 32.43 38.54 41.31 38.06 34.30 35.10 29.34 26.79 28.74 28.99 28.34 41.50 40.92 41.65 42.64 42.18 45.50 48.41 51.82
43.00 45.13 51.96 49.54 36.29 36.27 41.85 42.73 43.83 42.89 42.29 41.59 39.81 41.71 41.30 37.25 33.92 38.10 38.67 43.42 44.12 41.61 38.17 38.00 31.81 25.43 27.72 32.20 37.74 34.32 36.48 36.60 34.63 34.01 28.85 26.46 29.24 41.60 42.30 41.49 42.64 43.14 46.25 47.76 48.59
44.55 40.12 44.48 44.59 43.71 39.19 38.14 38.63 39.45 45.69 43.83 43.14 41.44 41.44 39.21 36.59 37.75 35.54 36.34 42.07 43.53 42.20 46.10 42.57 33.37 30.09 25.95 29.26 33.01 31.27 35.31 36.95 32.91 26.80 29.69 31.46 33.86 39.03 39.72 40.00 41.60 43.04 44.91 46.12 49.02
45.48 40.31 40.79 34.32 35.90 37.87 39.93 39.92 38.92 40.07 42.67 42.39 39.11 38.52 36.78 32.20 34.68 34.33 36.81 38.01 41.21 43.68 40.49 38.48 32.32 34.22 35.37 36.93 36.77 35.54 35.67 36.44 33.98 34.30 30.70 33.76 34.84 37.76 40.14 40.65 42.35 44.87 46.24 46.30 46.91
39.17 38.20 39.92 37.18 39.65 38.41 40.42 38.80 39.06 39.84 38.91 37.20 35.60 38.82 37.60 33.22 35.42 32.92 35.93 36.35 35.57 39.34 37.18 39.66 32.85 35.14 33.07 36.38 36.32 34.15 36.22 36.29 37.36 36.61 36.04 37.14 36.65 42.47 43.10 44.19 43.93 44.98 45.94 46.23 48.37
45.23 45.14 40.00 37.92 37.08 35.29 36.16 37.38 38.36 39.47 41.05 41.40 38.88 36.86 35.81 37.68 41.15 40.80 40.69 40.36 39.17 37.07 36.86 37.37 34.81 33.31 28.39 35.03 34.03 28.81 34.38 36.03 37.16 38.65 37.10 33.36 37.28 43.18 42.40 43.30 43.92 45.44 46.99 49.37 51.93

GFSSW_sfc_wetblb_066.txt.gz
Wetbulb
54.12 54.14 54.05 54.19 54.20 54.19 54.41 54.72 54.80 55.14 55.68 56.19 56.55 56.82 56.84 56.86 56.26 51.63 46.33 53.00 54.31 59.44 60.73 53.72 51.55 50.74 50.10 48.76 52.04 52.55 44.12 41.83 44.28 47.18 48.54 53.00 49.91 55.09 56.12 52.62 54.02 54.96 57.32 62.75 63.76
53.87 53.87 53.93 53.95 53.86 53.87 53.92 54.29 54.54 54.85 55.34 56.04 56.41 56.38 56.46 56.91 51.35 49.09 55.03 60.37 60.66 61.25 49.42 48.36 47.47 48.38 44.56 46.95 47.13 48.07 40.60 46.18 51.70 52.16 51.09 53.15 53.40 54.25 54.29 53.27 52.80 53.60 57.01 58.71 63.29
53.96 54.26 54.23 54.25 54.10 53.94 53.92 54.04 54.29 54.85 55.14 55.52 55.76 55.92 56.53 56.52 48.53 50.60 61.34 61.92 61.50 60.24 52.20 49.95 48.67 45.50 42.45 44.26 44.59 46.16 44.48 49.39 50.40 52.63 54.01 53.09 53.30 55.70 53.64 51.66 53.84 52.46 54.88 55.97 58.29
53.86 53.83 54.06 53.63 53.69 53.61 53.64 54.03 54.09 54.59 54.86 54.94 55.14 55.88 57.22 52.98 40.77 51.11 62.35 63.06 62.88 57.79 53.05 50.35 46.29 38.84 38.94 40.01 43.50 41.11 45.08 46.99 50.16 51.73 51.14 50.23 53.18 53.08 54.27 54.20 57.02 57.69 57.37 55.73 56.81
53.57 53.59 53.57 53.69 53.64 53.41 53.41 53.61 54.06 54.14 54.45 54.66 55.30 56.03 52.47 48.10 49.07 55.68 63.54 63.15 60.06 54.34 51.56 48.55 42.06 39.56 35.32 39.08 41.96 41.23 43.81 45.42 46.98 47.08 47.46 50.18 49.20 49.81 49.88 54.52 57.98 58.39 58.32 56.40 56.21
53.27 53.50 53.20 53.03 53.03 53.40 53.52 53.66 53.72 53.81 54.07 54.76 55.77 56.43 50.40 43.12 53.91 56.62 59.01 56.26 54.40 49.31 48.40 46.65 42.94 44.23 40.17 39.14 38.95 41.64 42.89 43.00 44.14 44.16 45.44 45.52 46.58 48.02 49.41 52.64 53.70 55.93 57.02 56.67 56.41
53.11 53.39 53.05 52.71 52.78 53.01 53.54 53.91 53.64 53.54 54.41 55.16 56.72 54.73 47.69 44.20 52.86 51.35 54.54 50.05 49.48 50.84 47.88 48.21 47.70 44.84 42.50 40.09 41.81 42.30 38.45 41.59 42.55 43.49 43.57 46.69 44.21 45.69 49.98 51.59 51.48 53.16 55.54 56.53 57.25
53.71 53.54 53.48 53.21 52.71 52.78 53.11 53.44 53.52 53.91 54.55 55.39 56.62 51.76 43.40 54.62 53.85 49.29 48.27 47.83 50.10 49.82 49.01 48.46 48.40 44.17 41.03 41.66 41.19 37.84 35.54 31.58 40.25 43.01 44.54 44.89 39.38 46.46 49.30 49.25 49.73 51.65 54.34 55.76 56.52
54.22 53.76 53.66 52.98 52.96 53.09 52.82 53.05 53.79 54.60 55.23 56.12 50.59 47.50 45.52 55.77 49.48 49.50 47.18 46.71 49.17 49.99 49.40 52.13 46.08 42.85 41.78 36.17 32.11 32.77 28.83 31.83 36.73 42.41 42.39 41.61 38.78 44.18 48.05 48.41 48.23 49.54 50.94 54.24 55.93
54.11 53.54 53.29 53.09 52.80 52.94 53.18 53.13 53.38 53.69 54.00 55.19 53.10 45.21 48.41 47.58 49.27 49.45 48.69 48.87 48.16 47.43 46.70 45.94 40.97 36.97 34.80 32.53 26.89 31.13 31.21 34.12 34.82 40.09 40.88 38.67 39.25 42.94 45.16 45.58 44.87 45.67 47.69 50.67 53.74
54.13 53.46 53.09 53.17 53.40 53.02 49.98 46.60 43.07 43.96 47.53 46.04 48.70 47.95 50.67 50.61 50.95 47.92 50.05 49.16 48.42 44.33 37.50 40.30 34.78 31.40 35.10 36.82 38.73 37.56 36.01 34.76 38.06 41.50 39.52 39.05 39.23 41.74 44.06 43.38 43.35 44.17 45.69 46.84 49.15
53.60 53.66 53.32 52.95 53.09 52.54 47.15 45.23 46.30 46.30 40.10 48.04 48.32 48.69 51.12 50.67 44.68 46.95 50.56 44.05 43.06 36.46 38.93 36.14 32.11 38.67 40.69 40.57 38.84 37.25 34.98 34.70 38.45 41.60 39.56 38.31 38.32 41.73 43.40 43.24 43.45 44.34 45.33 45.97 47.08
53.34 53.22 52.99 52.60 52.10 49.30 45.74 49.27 49.77 48.21 37.92 44.53 48.36 47.38 47.72 47.30 43.72 44.41 47.48 44.63 40.25 36.65 36.44 32.65 36.97 41.52 39.74 38.73 37.60 36.06 34.52 35.50 35.93 40.31 40.69 37.58 35.66 38.39 42.24 42.98 43.86 44.32 44.82 46.04 46.65
52.77 52.67 52.48 52.21 47.84 46.17 46.91 51.05 49.02 47.55 33.80 41.85 42.28 44.85 46.00 45.25 42.33 48.56 48.76 44.67 40.15 36.69 36.96 35.68 39.61 39.21 38.02 37.50 38.36 32.71 39.96 39.14 38.02 34.92 28.34 36.48 27.38 35.13 38.37 39.02 41.75 43.22 43.38 43.68 45.17
52.44 52.56 51.98 51.60 44.48 44.44 50.38 49.15 48.84 46.35 25.01 43.49 42.38 47.63 45.44 42.01 44.08 45.95 49.02 44.34 38.36 38.45 36.92 34.71 35.98 36.58 36.17 38.09 40.65 36.16 40.29 38.45 38.10 34.04 31.17 32.78 26.68 33.38 37.27 36.98 39.22 41.22 42.89 44.35 45.69
51.48 51.10 51.02 48.79 46.23 47.35 50.37 48.04 47.75 35.21 27.58 39.46 43.51 42.23 40.10 42.52 43.21 45.25 44.59 45.73 44.05 38.43 37.83 37.38 41.55 39.60 39.94 41.91 40.99 41.26 37.99 36.11 33.93 30.77 23.90 30.76 28.01 30.25 33.64 36.05 38.56 41.87 43.98 45.27 45.21
50.59 50.76 49.13 49.65 44.74 48.93 47.56 45.41 33.41 29.77 42.79 38.12 38.56 40.97 39.78 39.84 41.79 42.96 40.83 37.23 33.58 29.60 29.86 36.14 36.60 39.16 42.87 36.92 38.59 35.59 31.69 22.86 21.95 20.90 21.97 31.77 29.11 31.11 37.31 40.43 41.59 42.59 43.89 45.83 47.06
49.45 49.31 49.06 49.85 47.99 48.69 44.55 38.62 29.84 38.56 37.45 42.59 40.80 40.25 36.99 40.30 40.02 40.62 38.10 34.03 39.12 36.99 29.91 27.87 26.46 36.40 40.99 36.67 31.70 31.75 30.80 23.41 20.49 20.87 24.13 32.65 25.40 30.90 39.09 43.44 44.99 45.63 44.76 45.63 45.85
48.39 45.47 47.79 50.24 51.67 45.94 40.37 30.38 33.13 36.76 40.11 38.76 39.40 36.51 36.31 39.52 38.21 37.44 35.58 36.09 38.49 37.56 29.05 26.38 30.15 39.59 40.79 40.81 37.33 32.44 27.04 32.93 28.22 27.35 21.67 25.91 31.41 36.88 43.00 42.57 43.18 42.86 44.07 44.00 45.28
42.15 44.21 46.82 51.85 48.84 44.36 37.00 35.88 38.14 42.61 42.13 40.34 33.88 37.99 32.62 35.60 35.29 34.25 34.67 40.66 39.21 40.85 37.83 33.89 27.93 37.46 39.19 40.16 38.93 35.58 37.07 26.41 27.75 17.87 17.86 25.27 27.29 28.67 36.94 39.04 40.81 40.86 41.76 43.43 45.18
43.37 43.09 48.74 48.06 47.08 41.45 32.25 36.08 41.28 45.15 43.84 39.86 36.54 35.22 35.57 34.92 35.42 34.62 35.80 39.02 41.63 39.87 39.35 34.47 31.20 32.06 35.96 33.34 30.92 31.69 30.08 34.04 30.23 28.90 23.23 22.23 24.84 38.02 38.34 39.90 39.57 40.78 42.62 43.66 45.15
40.62 38.42 48.70 46.93 37.42 37.07 34.96 40.21 42.68 43.22 44.49 41.69 40.30 38.56 36.52 36.72 34.83 35.52 34.78 38.16 42.95 41.08 34.70 36.69 32.33 27.60 31.13 37.49 38.97 36.16 32.96 31.68 23.00 25.13 28.54 25.62 26.27 40.47 39.83 40.31 41.21 42.06 42.92 44.26 46.56
38.01 40.35 47.79 45.88 29.91 31.82 37.56 40.33 41.97 41.58 41.57 40.40 38.40 39.54 39.02 34.61 31.92 37.12 37.11 41.33 42.72 40.32 36.93 36.53 29.81 26.41 26.65 30.74 34.97 32.24 34.17 32.81 31.80 31.45 26.44 24.38 25.98 40.53 41.81 42.15 41.94 42.86 44.19 45.44 47.64
39.75 34.98 37.43 38.82 36.85 33.18 33.49 36.25 37.57 43.93 42.13 41.60 39.10 39.20 35.59 34.08 35.56 34.02 35.16 40.35 40.77 40.49 45.85 41.62 32.64 29.05 24.23 28.77 30.75 30.16 33.46 35.24 33.35 29.38 27.88 29.05 31.36 36.97 40.23 40.61 42.42 43.38 44.61 46.40 48.49
38.15 34.72 35.92 28.95 32.20 33.77 33.87 36.96 37.08 37.37 40.01 38.87 36.69 36.95 33.60 29.83 32.35 32.31 35.07 36.68 39.58 42.27 39.13 36.06 30.55 33.10 33.69 35.26 35.89 34.66 34.29 34.31 32.05 32.95 29.83 32.04 32.92 37.04 39.79 41.47 43.11 44.98 45.64 46.98 47.66
34.65 34.76 36.30 33.78 35.48 33.92 35.52 34.14 35.59 37.38 36.81 35.57 33.69 36.27 34.16 30.44 32.65 31.11 33.61 33.27 34.18 37.90 34.45 36.31 30.62 34.18 31.88 35.40 35.71 33.69 35.46 35.81 35.26 35.24 34.31 35.14 33.94 41.26 42.82 43.89 44.11 45.21 46.02 46.17 48.49
39.67 39.64 36.63 33.69 33.14 30.48 30.68 34.15 35.59 36.33 37.87 39.13 36.76 34.38 33.22 35.44 38.40 38.55 38.14 37.78 37.24 34.99 33.67 33.85 33.00 33.05 27.02 33.79 32.99 28.25 32.98 33.92 35.75 37.02 35.61 30.94 36.11 41.05 41.15 42.04 42.32 43.96 46.04 47.16 46.90

GFSSW_sfc_wetblb_069.txt.gz
Wetbulb
54.54 54.45 54.31 54.37 54.26 54.13 54.25 54.15 54.48 54.72 55.12 55.65 55.98 56.18 56.41 56.56 56.49 50.27 45.79 49.57 53.50 59.55 59.93 51.42 49.15 49.07 47.58 45.94 50.59 52.36 44.07 41.82 44.54 45.65 46.86 51.78 50.15 52.61 55.60 53.07 54.63 53.92 54.77 59.33 66.09
53.99 53.96 54.07 54.34 54.05 53.82 53.85 54.06 54.37 54.60 54.88 55.34 55.52 55.80 56.03 56.44 51.50 48.24 54.82 59.60 60.79 60.56 46.03 45.98 45.99 46.25 42.54 44.38 46.27 46.61 40.52 44.63 50.56 50.92 49.74 52.38 51.37 52.73 52.94 53.33 53.36 54.44 56.66 59.35 63.67
54.07 54.11 54.02 54.06 54.23 53.81 53.64 53.76 53.99 54.43 54.58 55.02 55.14 55.42 56.13 56.00 47.56 49.93 61.04 60.76 62.03 59.22 50.58 48.52 47.76 44.74 39.86 42.19 42.94 44.71 42.79 48.56 50.44 50.69 51.67 50.63 50.73 53.37 51.83 50.65 52.84 52.77 53.97 55.93 57.49
54.14 54.12 53.78 53.53 53.59 53.15 53.52 53.63 53.84 54.28 54.38 54.68 55.00 55.56 56.42 51.30 39.47 51.06 62.60 63.37 62.04 56.23 51.83 49.24 45.19 38.09 38.45 38.47 41.89 38.01 43.82 44.81 46.53 48.39 49.09 48.43 50.96 50.26 51.30 51.99 55.44 55.56 56.49 55.37 56.41
52.87 53.32 53.83 53.68 53.14 52.77 52.71 53.08 53.48 53.76 53.89 54.32 54.98 56.11 51.35 45.83 48.01 55.61 64.05 62.42 58.69 55.25 49.99 46.86 40.70 38.34 34.27 37.41 40.54 38.35 41.13 43.68 44.38 44.25 44.87 46.41 45.60 46.29 46.91 50.24 52.59 53.26 54.59 55.60 55.37
53.86 53.87 53.89 53.58 53.04 52.76 52.47 52.58 52.91 53.41 53.78 54.48 55.40 56.49 47.68 38.53 53.19 55.62 56.36 55.22 54.45 50.03 47.81 46.03 42.37 43.31 38.75 37.68 36.64 40.14 40.13 41.19 42.99 43.27 43.97 44.04 44.99 46.73 48.35 51.43 51.15 51.52 51.70 53.76 54.97
53.62 54.21 53.64 53.19 52.99 52.96 52.96 52.79 52.79 53.35 54.07 54.72 55.75 54.44 46.51 40.27 51.58 51.70 55.14 49.00 50.04 50.77 46.28 47.20 46.65 42.93 41.07 38.42 39.74 39.92 36.23 39.09 41.24 42.57 42.20 45.26 41.58 43.28 48.40 50.23 49.52 50.38 51.27 52.91 54.78
53.49 54.19 53.90 53.35 53.25 53.01 53.04 53.61 53.37 53.74 54.40 54.82 56.42 50.71 41.41 51.29 52.51 50.10 48.95 48.81 48.35 49.04 47.68 47.37 46.52 42.44 39.49 39.75 39.62 35.54 32.95 28.92 37.06 40.50 42.08 42.75 37.71 44.82 47.95 47.72 48.16 48.83 50.09 51.12 51.75
54.05 54.02 53.92 52.97 53.06 53.33 53.35 53.33 53.80 54.61 55.08 55.08 49.25 45.79 44.31 55.71 48.63 49.80 47.06 45.77 46.90 48.62 48.22 51.03 44.74 40.52 40.28 34.35 31.15 32.30 27.67 30.16 35.16 40.16 40.07 39.29 35.96 42.58 45.63 45.40 45.10 45.86 47.21 48.25 48.06
54.43 53.92 53.47 53.08 52.81 53.31 52.97 52.77 52.50 53.02 53.94 54.95 52.33 44.05 46.78 47.23 48.43 48.22 47.20 47.54 46.18 46.31 45.40 44.16 38.77 35.54 33.28 31.60 25.82 29.82 29.39 32.27 32.83 38.12 39.42 37.70 38.55 41.87 44.36 44.78 44.44 44.52 45.67 46.73 47.99
54.19 53.76 52.93 52.52 53.25 52.92 49.99 45.05 42.45 41.56 46.63 42.77 46.97 46.48 50.07 53.19 50.34 46.50 48.61 47.81 46.97 42.34 35.83 38.36 33.58 30.08 33.56 35.29 36.70 35.40 33.63 32.59 36.14 39.88 37.19 36.88 37.94 40.78 42.71 42.54 42.45 43.74 44.73 45.33 46.31
53.16 53.31 52.93 53.05 52.92 52.55 46.67 45.09 45.65 45.15 39.48 46.52 46.42 48.59 51.04 50.99 44.99 45.76 49.01 42.67 41.40 35.26 37.32 34.80 30.35 37.21 38.94 38.12 36.98 35.46 32.57 32.32 36.60 40.60 38.93 37.05 37.38 41.08 41.92 41.33 41.94 42.96 43.78 44.37 45.18
52.74 52.57 52.44 52.35 51.97 47.83 44.89 47.12 50.09 45.19 37.27 42.82 46.77 45.76 46.14 47.59 43.99 43.15 46.21 43.05 38.68 34.90 34.18 31.54 35.81 40.01 38.05 36.88 36.06 33.69 32.46 33.17 33.95 38.00 38.89 36.25 34.74 36.67 39.89 41.57 42.59 42.53 43.04 44.22 44.16
51.60 51.49 51.43 51.46 46.93 44.34 45.54 49.71 47.89 45.79 33.82 40.93 42.02 45.17 45.62 44.15 41.16 47.31 47.63 43.96 38.63 35.49 35.28 34.05 38.05 37.85 35.71 35.95 36.89 31.04 38.11 37.62 35.72 32.87 26.52 35.73 25.52 33.67 36.25 37.77 39.70 40.95 40.76 41.75 42.87
51.04 51.24 51.21 50.91 43.42 44.17 48.69 47.84 45.87 45.73 24.26 43.09 41.33 46.20 43.17 40.84 42.46 44.36 47.63 42.87 37.57 37.33 35.70 34.10 34.63 34.79 34.11 36.24 39.33 34.75 39.34 36.38 35.70 32.60 29.23 31.16 25.26 30.41 36.46 35.27 36.65 38.66 40.28 41.52 45.09
51.06 50.89 50.95 48.05 44.70 46.93 48.42 46.24 46.51 33.55 26.12 38.72 42.95 41.27 39.24 41.43 42.23 43.71 43.41 44.10 42.58 36.68 36.40 35.69 39.20 37.99 37.63 40.44 39.95 40.03 35.16 33.95 32.17 27.92 21.67 29.37 27.51 30.20 31.93 34.04 36.38 39.23 43.50 45.30 46.06
50.40 50.55 48.72 48.75 44.03 46.48 46.32 44.45 32.97 27.84 40.91 36.68 37.30 39.67 38.07 38.79 40.41 41.37 39.19 36.12 32.45 27.72 28.29 34.18 34.81 37.82 41.60 35.43 36.80 33.48 27.12 20.12 19.72 20.27 20.78 29.85 26.90 30.68 36.10 38.96 39.85 41.78 43.70 44.47 44.96
49.62 49.24 48.71 48.98 45.85 47.10 43.77 37.75 28.50 36.46 35.73 40.86 39.25 38.52 35.65 38.70 38.26 38.85 36.85 32.92 38.19 34.99 28.57 26.84 25.79 34.99 39.78 35.38 31.70 30.79 28.30 19.72 16.49 19.64 22.15 31.39 24.37 29.25 37.41 42.70 44.22 44.76 44.37 45.03 44.46
48.30 44.47 46.32 48.64 49.95 44.38 39.96 29.55 30.46 34.71 39.06 37.57 37.67 34.67 34.62 38.27 36.67 35.87 33.94 34.40 36.95 35.88 28.30 25.32 29.12 38.62 39.87 39.02 36.35 30.79 26.10 30.31 24.71 25.13 20.44 24.70 30.02 35.57 39.01 41.60 42.66 41.94 43.41 42.17 43.57
42.20 44.04 45.96 49.71 46.71 43.71 36.32 34.82 36.43 42.51 41.61 39.01 32.83 36.17 30.64 33.08 33.35 32.88 33.00 39.15 38.03 39.89 36.86 32.66 27.06 36.09 38.18 38.40 37.89 33.65 35.14 25.22 21.28 14.28 16.23 23.79 25.73 27.59 33.38 36.18 40.36 40.40 40.57 42.37 44.13
43.10 42.65 47.65 45.56 46.19 40.61 31.20 34.36 39.68 43.43 43.08 38.38 35.31 33.49 33.86 32.65 32.89 32.24 33.99 37.63 40.46 38.59 37.47 33.34 30.16 30.78 34.89 32.00 29.41 29.53 27.81 29.98 26.61 28.46 22.14 20.65 24.09 33.86 35.75 38.57 38.65 39.71 41.29 42.34 43.85
40.33 37.68 47.60 46.06 37.57 34.27 32.85 37.74 42.21 41.65 43.49 40.30 38.65 37.35 35.14 35.16 33.14 33.77 33.66 36.80 41.31 39.69 33.31 35.11 30.62 27.24 30.32 36.83 37.42 34.23 30.80 29.98 21.82 23.05 25.91 24.87 25.77 38.21 38.42 39.28 40.05 39.92 42.23 43.67 43.97
37.80 39.33 46.87 43.88 28.23 29.95 34.79 38.53 40.26 40.28 39.62 38.92 36.96 37.70 37.28 33.41 30.09 35.21 36.06 40.32 40.37 37.65 34.65 35.12 29.76 25.95 26.24 30.07 34.12 32.40 33.44 32.23 30.81 30.65 25.90 24.22 26.26 38.37 39.54 40.38 41.60 40.46 42.80 43.90 44.27
38.56 32.51 35.98 36.69 35.09 31.77 32.05 34.13 36.12 42.60 40.44 39.73 37.88 37.58 34.38 32.07 33.86 32.46 34.06 39.14 39.57 38.36 43.62 40.70 32.54 30.70 25.18 28.08 29.69 30.25 33.73 33.80 30.54 28.14 26.68 28.11 30.29 35.34 37.57 38.87 41.19 41.98 44.54 46.47 45.20
35.37 32.65 34.63 28.35 30.31 31.96 32.77 34.90 35.12 35.12 38.30 37.66 34.97 35.43 32.70 28.33 30.43 30.79 34.12 34.68 37.99 40.76 37.72 35.11 28.07 31.26 32.97 34.76 34.90 33.83 33.66 34.58 32.90 32.18 27.47 30.26 30.87 35.09 37.40 38.89 41.51 44.67 45.84 46.71 45.32
35.76 33.44 34.83 32.40 34.46 32.90 33.90 33.09 33.74 35.42 34.97 33.98 32.01 34.71 33.78 29.51 31.40 30.28 31.96 31.34 31.74 35.88 33.19 34.15 29.44 34.46 30.56 34.23 34.39 32.77 34.70 34.93 35.12 34.67 33.47 33.41 32.34 38.21 41.01 41.98 42.94 44.20 44.79 45.57 46.71
38.83 39.03 36.53 32.41 31.18 29.40 29.93 33.10 34.01 34.80 36.58 37.76 34.91 32.30 31.59 33.84 36.61 37.22 37.00 36.61 35.63 33.65 31.91 30.75 29.21 29.10 26.48 32.92 31.92 27.79 32.61 33.66 33.83 35.19 35.01 30.50 35.02 39.37 39.45 40.77 40.99 41.71 42.88 45.01 45.51

GFSSW_sfc_wetblb_072.txt.gz
Wetbulb
54.76 54.50 54.31 54.17 54.02 54.09 53.81 53.87 54.06 54.31 54.65 55.17 55.58 55.69 56.11 56.11 55.47 49.09 44.74 48.39 52.29 57.81 59.54 49.52 46.87 47.06 45.94 43.64 47.68 50.65 44.82 41.94 43.81 45.04 46.54 51.09 50.27 52.49 54.93 53.00 53.96 54.57 53.94 56.63 65.09
54.06 54.14 54.21 53.96 53.75 53.48 53.53 53.64 53.93 54.01 54.57 54.87 55.15 55.49 55.69 55.94 50.42 47.68 53.67 57.57 58.66 59.91 43.75 43.63 43.92 44.86 40.79 42.22 44.22 44.67 40.08 44.02 49.19 50.01 48.54 50.68 51.13 51.98 51.81 51.52 51.65 53.30 56.45 56.98 63.89
53.30 53.50 53.67 54.15 53.76 53.30 53.05 52.88 53.50 54.05 54.34 54.60 54.96 55.32 55.81 55.58 46.68 47.90 61.06 60.54 62.16 57.55 48.68 46.90 46.73 43.20 38.04 39.97 41.17 41.23 40.27 46.83 48.91 49.91 50.26 49.10 48.94 51.68 49.92 48.65 51.19 51.03 52.85 54.19 56.46
54.28 54.56 54.19 54.14 53.99 53.24 53.05 52.74 52.92 53.44 54.22 54.11 54.68 55.22 56.46 49.52 38.50 49.81 62.64 61.63 61.05 53.95 50.32 47.84 43.39 36.65 35.84 37.00 40.08 35.64 41.76 42.05 44.06 45.19 44.64 44.73 47.06 46.34 47.68 48.44 52.44 51.22 50.99 54.35 54.40
54.09 54.15 53.86 53.83 53.43 52.92 52.90 53.05 52.73 52.92 53.31 54.01 54.37 55.38 50.59 42.77 46.43 54.60 63.39 60.91 56.32 53.38 47.94 45.39 40.02 37.02 34.35 37.02 38.80 36.36 38.86 42.00 43.37 43.85 44.19 45.40 44.87 45.55 46.10 48.95 51.24 51.69 51.04 50.82 52.57
53.81 53.63 53.57 53.46 53.40 53.32 52.93 52.70 52.58 52.25 52.73 53.95 54.36 56.12 45.83 35.57 49.31 53.39 55.57 55.21 53.86 49.72 46.50 45.45 41.07 41.52 37.61 36.82 37.87 39.44 38.76 40.77 42.64 42.97 43.54 43.41 44.46 45.58 47.75 50.00 49.72 50.69 49.79 49.91 50.77
53.82 53.41 53.68 53.54 53.13 53.14 53.66 53.74 53.47 53.24 53.45 54.53 55.15 54.20 44.82 38.96 50.22 51.08 52.69 48.39 49.22 49.83 45.30 45.67 44.82 41.61 39.97 36.32 38.46 38.91 35.15 37.48 40.72 41.44 40.74 43.28 40.52 42.31 47.20 48.84 48.63 49.28 49.45 49.53 50.17
53.27 53.45 53.55 53.25 53.04 53.19 53.88 53.82 53.65 53.92 54.11 54.66 55.49 49.87 39.43 48.65 50.73 51.69 49.05 48.92 48.36 48.07 47.13 46.03 45.94 41.32 38.16 38.39 38.10 34.02 31.54 28.07 35.39 39.58 41.29 41.13 35.67 43.11 45.36 46.00 46.37 46.91 46.95 47.90 47.94
53.22 53.01 53.18 53.04 53.08 53.68 53.90 53.23 53.86 54.24 54.78 54.98 48.34 44.04 43.29 54.43 48.28 48.90 47.10 44.96 45.33 46.85 46.61 49.84 44.05 38.90 38.91 33.41 30.50 31.24 26.85 28.78 34.25 38.78 38.91 38.30 35.17 42.29 45.43 44.74 44.77 45.78 46.41 46.80 47.20
52.93 52.39 52.25 52.16 52.87 53.39 52.87 52.88 53.05 53.90 54.26 54.53 52.23 42.60 45.54 46.57 50.59 47.06 46.30 46.04 44.64 44.92 43.56 42.24 37.81 34.76 32.20 30.43 24.60 27.70 27.92 30.94 31.13 36.85 37.73 36.47 37.10 40.35 43.43 43.90 43.81 44.60 45.49 46.26 47.14
51.85 52.66 52.50 52.35 52.46 52.64 49.91 44.31 41.80 40.54 46.14 41.37 44.23 45.08 48.16 51.49 50.63 45.38 47.18 46.31 45.32 41.46 34.56 37.16 33.25 29.74 32.77 34.19 34.83 33.80 31.97 31.22 34.63 38.21 36.24 35.45 36.71 39.24 41.97 41.95 41.73 43.04 44.34 45.31 46.49
51.89 51.85 51.69 51.82 51.76 52.24 45.54 44.33 44.66 43.38 38.42 45.07 44.96 47.13 49.92 50.08 44.32 46.66 47.42 41.50 39.93 34.28 35.96 33.52 29.71 35.85 37.56 36.76 35.22 33.62 31.09 30.52 35.11 38.66 37.08 35.45 36.16 39.67 41.17 40.80 41.38 42.30 43.05 44.11 45.96
51.76 51.18 51.53 51.68 52.01 46.72 44.18 46.06 47.81 44.58 36.67 41.62 45.27 44.41 44.77 47.01 43.26 43.53 45.18 41.75 37.72 33.69 33.57 30.91 34.66 39.02 36.91 34.70 34.59 32.81 31.52 31.11 32.48 36.26 36.94 34.52 31.85 34.27 38.26 39.83 41.53 41.82 42.60 43.28 43.61
50.40 50.67 51.50 51.36 46.41 43.18 44.66 48.24 46.43 44.89 32.50 38.78 40.82 43.67 45.09 43.61 40.73 46.98 46.33 43.00 37.24 34.85 34.30 32.77 36.51 36.59 33.95 34.03 35.49 29.44 36.55 36.15 34.50 30.98 24.79 34.54 23.42 31.73 36.10 37.56 38.75 39.78 39.85 40.27 41.25
50.35 50.78 51.29 50.97 42.12 43.74 46.69 46.48 44.93 44.59 23.40 41.06 39.85 44.69 41.65 39.72 41.26 43.07 46.65 42.17 36.99 35.89 34.32 33.38 33.06 33.45 32.19 34.54 37.81 33.01 37.39 34.91 33.74 29.80 27.40 29.29 24.41 28.83 34.69 33.76 36.18 38.05 39.05 40.94 44.63
50.48 50.81 50.95 47.43 43.87 45.90 47.29 45.24 45.56 32.07 24.74 37.35 40.92 39.70 38.44 40.44 40.96 42.73 42.33 43.47 41.73 36.54 34.93 34.66 37.47 36.03 35.43 38.25 38.55 38.44 33.50 31.36 29.05 26.48 20.22 26.66 26.30 25.42 29.93 33.44 36.08 38.62 40.64 44.21 45.05
50.24 50.56 48.28 47.47 42.78 44.98 45.06 43.72 31.99 26.84 39.24 35.43 35.89 38.00 36.11 37.30 38.77 39.57 37.71 35.32 32.17 28.01 28.25 33.24 33.46 36.18 39.95 34.02 35.13 32.57 26.28 19.86 18.10 18.61 19.49 28.32 25.72 29.12 34.60 38.65 38.28 38.63 42.04 44.20 44.46
49.69 48.83 48.52 47.94 45.38 46.39 43.22 36.89 27.01 34.57 33.97 39.50 37.54 36.80 33.97 37.36 36.92 37.32 35.09 32.28 36.68 33.75 28.64 27.62 26.30 33.67 38.39 34.18 31.00 29.53 27.92 19.92 15.53 18.05 19.81 28.31 22.97 27.66 36.43 38.94 41.55 44.21 43.67 43.97 43.45
48.21 44.85 45.80 47.68 48.81 43.96 39.52 27.98 29.38 33.69 38.04 36.15 36.48 32.96 32.76 36.54 35.48 34.82 32.42 33.09 36.07 35.45 28.09 25.39 29.22 38.22 39.05 38.07 35.84 29.32 24.94 28.62 22.70 22.49 19.24 23.01 28.02 34.37 37.98 38.26 41.36 41.60 42.53 41.86 41.72
42.88 44.18 45.21 46.23 45.56 42.67 36.15 33.68 35.37 40.82 40.48 37.54 31.47 34.79 29.71 31.63 31.99 31.78 31.61 37.44 36.91 38.65 36.03 31.59 26.40 35.16 37.26 37.24 36.13 32.80 33.68 23.88 19.88 13.72 11.58 20.85 24.10 26.33 32.84 36.03 37.85 39.80 39.97 41.17 42.68
42.49 41.89 46.39 45.46 45.31 39.78 30.66 33.55 38.57 42.78 41.50 36.92 34.08 32.19 32.69 31.47 32.33 31.12 33.29 36.21 39.42 37.33 35.88 32.73 29.33 30.17 34.04 31.31 29.12 28.23 25.99 28.45 24.79 21.86 17.22 19.14 22.75 32.62 33.06 35.23 36.28 38.37 40.04 40.76 41.92
40.20 36.70 45.67 44.55 36.31 32.10 31.32 36.34 41.45 40.28 41.92 39.28 37.15 35.36 33.58 34.03 32.00 32.18 32.40 35.69 40.46 38.91 32.83 33.81 29.33 26.34 29.43 35.17 35.97 32.02 29.31 28.38 21.03 22.47 25.23 23.85 25.01 37.16 37.74 38.12 38.90 39.67 41.51 41.60 43.14
37.73 38.59 45.86 42.91 27.57 28.28 32.66 36.30 38.91 39.13 38.78 37.85 36.12 36.40 35.20 32.27 29.42 33.78 35.27 38.91 39.67 36.79 34.63 34.91 28.80 23.87 25.25 27.72 32.25 29.95 31.82 31.11 31.12 29.53 25.45 23.46 24.88 37.52 38.14 38.70 40.13 39.73 41.86 42.99 44.62
36.81 31.64 34.63 35.28 34.27 31.10 31.34 32.84 35.06 41.29 39.18 38.21 36.47 36.07 32.87 30.62 32.80 31.60 32.77 38.17 38.22 37.60 42.54 40.35 31.10 28.29 23.28 25.97 27.29 27.96 32.11 33.20 32.80 27.56 26.38 27.05 28.95 33.75 36.33 37.28 39.01 40.77 42.86 43.92 45.90
35.41 31.63 33.08 26.54 28.93 30.54 32.22 33.54 33.95 34.55 36.94 35.95 33.70 34.01 31.21 27.59 29.20 29.50 32.43 33.47 36.53 39.14 36.10 34.01 27.70 30.49 32.35 33.53 33.82 32.69 32.58 33.40 31.59 32.08 28.95 30.50 30.42 34.01 36.56 37.69 40.27 42.39 44.40 44.37 44.49
33.63 31.99 33.31 30.55 32.63 31.14 32.87 31.77 32.56 34.25 33.69 32.80 31.06 33.26 31.59 28.32 30.44 29.80 31.29 29.85 31.08 34.19 32.51 36.44 28.50 30.51 29.98 33.70 33.01 30.33 32.62 33.35 33.72 33.66 33.22 33.55 32.47 39.80 40.74 40.71 41.29 41.28 42.24 42.77 44.77
37.72 37.45 37.09 32.99 30.14 28.53 29.07 32.19 33.70 33.95 35.80 36.43 33.82 31.81 30.80 32.73 34.48 34.61 34.50 35.35 34.90 32.65 31.37 30.78 28.98 29.06 24.72 30.33 30.48 27.06 31.40 32.63 33.17 34.71 34.22 29.84 34.91 37.80 38.88 40.07 39.75 40.59 42.48 42.95 44.16

GFSSW_sfc_wetblb_075.txt.gz
Wetbulb
53.77 53.81 53.83 53.81 53.72 53.41 53.07 53.34 53.90 54.14 54.49 55.05 55.23 55.67 55.89 56.03 55.59 52.48 48.41 52.11 55.03 59.51 59.13 50.58 50.06 50.64 50.46 50.10 53.58 56.79 48.65 45.42 46.92 46.85 48.71 54.10 52.92 55.11 57.58 56.34 56.81 57.69 57.31 58.40 60.47
54.88 54.76 54.50 54.16 53.81 53.66 53.38 53.04 52.95 53.61 54.32 54.73 54.97 55.25 55.61 55.49 52.68 50.30 56.03 56.50 58.34 60.12 47.34 46.81 48.37 49.19 47.31 48.14 51.18 50.99 46.58 47.04 51.78 52.10 51.14 53.17 52.86 52.27 52.78 53.92 54.49 56.09 58.22 57.58 57.98
54.79 54.62 54.76 54.72 54.46 53.84 53.34 53.10 52.68 53.07 53.83 54.48 54.65 55.00 55.53 55.66 49.99 51.41 60.72 60.09 60.63 57.78 52.24 50.50 51.04 48.41 45.20 47.79 48.19 48.93 45.87 50.17 52.15 52.99 51.41 51.16 50.36 52.62 52.09 50.78 54.09 53.26 53.73 55.37 56.93
54.74 54.68 54.14 53.99 54.14 53.66 53.51 53.25 53.13 53.32 53.52 53.88 54.39 54.72 55.57 53.70 43.31 54.64 62.61 61.63 61.32 55.70 53.52 51.70 48.96 45.26 44.69 43.72 46.02 44.00 46.83 46.40 49.81 48.17 46.98 47.17 47.50 48.15 50.34 51.60 53.54 52.85 54.46 54.99 55.40
54.04 54.11 54.06 54.14 54.15 53.59 53.03 53.25 53.03 52.88 52.82 53.08 54.04 54.71 53.32 46.45 49.73 56.66 63.20 61.12 57.20 54.70 51.29 49.41 46.84 44.94 42.87 43.97 44.87 43.64 44.14 45.66 46.87 46.61 46.97 47.58 45.89 46.95 49.02 52.14 52.27 52.95 53.90 54.07 54.78
53.57 53.63 53.79 54.05 53.89 53.48 52.96 52.89 53.79 52.59 53.04 52.89 54.07 55.34 49.97 41.05 53.23 56.27 58.42 57.54 55.92 53.62 50.62 50.66 47.84 47.91 45.21 44.19 43.74 44.33 44.36 44.93 45.96 46.37 46.84 45.31 46.56 46.79 48.90 51.05 50.74 51.40 52.49 53.23 54.68
54.04 53.54 53.35 53.31 53.50 53.20 53.24 53.49 53.73 53.36 53.47 54.08 54.78 54.47 47.44 43.54 53.97 55.50 55.95 53.65 53.75 52.77 49.11 50.30 50.02 46.95 46.30 43.39 45.11 44.25 41.48 42.95 44.05 45.13 44.78 46.32 43.60 44.50 47.84 49.60 49.60 52.34 54.49 52.71 52.76
54.00 53.59 52.66 52.58 52.96 52.89 53.59 53.46 53.23 53.46 54.40 54.43 55.38 53.62 44.94 50.90 54.18 55.05 54.74 53.20 53.44 52.87 51.05 50.71 50.78 47.96 46.03 45.91 43.59 41.22 40.29 37.58 42.04 43.68 44.95 44.73 40.39 44.68 47.99 47.40 47.64 48.69 49.40 50.61 51.99
52.62 51.74 52.51 52.84 52.82 53.07 53.21 53.12 54.60 54.42 54.76 55.34 52.98 49.95 46.88 56.84 51.72 51.58 52.92 48.89 48.70 49.78 50.63 50.25 49.16 45.06 45.02 41.89 40.17 39.75 36.80 37.07 39.80 44.68 43.70 42.98 40.62 45.23 47.77 46.99 46.79 48.17 48.53 49.78 50.81
52.24 52.59 52.33 52.26 52.78 52.87 52.73 52.80 55.50 55.87 54.97 55.08 53.43 47.05 50.70 48.86 53.42 51.04 50.47 49.02 47.21 48.26 47.12 46.83 45.69 43.36 42.41 40.72 34.25 35.26 36.09 37.43 37.34 42.12 42.92 42.06 41.79 44.51 45.99 45.97 46.20 46.91 47.96 48.85 50.21
51.68 51.36 51.83 51.69 52.49 52.71 51.93 50.56 48.48 46.72 50.64 45.71 46.82 46.84 48.94 53.26 53.25 48.78 49.60 48.68 48.34 46.20 41.56 42.89 41.39 38.73 39.89 40.32 39.56 38.91 37.58 36.55 39.66 42.62 41.07 40.83 40.82 43.02 45.14 45.57 45.30 46.42 47.86 48.89 49.57
50.92 51.07 51.37 51.41 52.29 52.51 49.84 49.32 48.08 49.14 43.32 47.62 47.89 48.15 50.48 51.68 46.80 48.96 50.34 45.41 44.24 40.50 41.58 40.48 37.56 41.61 41.63 40.63 38.90 38.45 37.03 37.12 39.82 42.23 41.26 40.36 39.91 43.52 45.29 45.81 46.61 46.31 47.35 48.48 49.16
50.23 50.47 50.99 51.52 52.10 50.30 50.13 49.82 51.73 49.08 43.29 44.80 47.13 46.75 47.81 49.86 46.29 46.68 48.26 45.68 42.87 40.12 40.02 37.93 39.63 41.96 40.24 39.11 38.40 38.81 37.10 37.07 36.74 40.09 41.29 39.86 38.28 40.22 44.03 45.46 46.49 47.33 48.45 48.48 47.06
50.16 50.41 50.84 51.34 49.71 48.43 49.63 51.60 51.12 50.03 40.09 41.30 43.62 46.82 48.10 48.15 44.08 50.15 49.02 46.32 42.37 39.78 39.47 39.41 41.01 39.90 39.08 38.21 40.00 35.66 40.59 39.45 37.96 36.12 32.30 39.32 30.59 38.27 41.57 42.89 44.14 45.75 46.99 47.44 46.77
50.44 51.04 51.35 50.83 48.73 49.37 50.73 51.46 50.85 50.27 29.72 42.62 42.84 49.15 46.34 44.13 44.29 45.16 48.60 45.88 41.47 40.28 39.77 38.22 39.16 38.82 37.88 38.98 41.44 37.93 40.87 39.59 38.45 36.27 35.51 35.76 32.38 36.81 40.68 39.79 41.94 45.08 46.83 47.91 48.77
50.81 51.49 50.96 49.97 49.39 51.26 50.91 50.43 51.26 39.37 29.16 39.40 43.52 42.29 42.76 43.72 43.56 45.63 44.97 46.73 45.11 41.27 40.74 40.51 42.09 40.97 40.54 41.30 42.58 41.82 39.32 38.78 36.51 35.22 29.14 33.49 32.95 34.30 37.99 40.52 42.13 44.84 46.46 47.63 50.17
50.53 51.00 50.12 49.95 48.91 50.14 50.45 50.32 39.88 33.33 41.28 37.91 39.07 41.29 40.30 40.44 41.34 42.06 40.73 40.23 38.54 35.06 35.74 38.34 39.06 41.11 43.02 39.54 40.25 39.47 36.67 30.03 28.37 28.38 28.52 34.54 32.15 35.31 40.73 42.72 43.64 43.81 45.91 48.82 50.66
49.40 49.41 50.32 50.52 51.55 51.18 50.34 44.45 34.05 36.80 36.76 41.93 40.32 40.23 37.88 40.33 40.31 40.33 39.00 37.98 40.73 38.49 36.06 33.79 32.10 38.77 42.03 39.79 37.49 37.57 36.44 30.14 21.65 25.17 28.92 35.15 29.27 35.85 42.01 44.15 45.06 45.90 48.28 49.82 50.05
48.47 51.10 51.32 52.67 51.71 49.63 46.74 38.39 36.95 37.40 40.46 39.24 39.74 36.71 37.00 39.30 39.22 38.95 38.20 38.30 40.42 41.32 35.73 33.59 33.09 40.60 41.44 41.89 40.89 35.93 33.20 36.73 31.77 32.50 27.64 31.49 35.26 39.54 42.23 42.63 44.10 45.43 47.16 47.70 49.27
47.82 49.93 51.05 50.67 50.20 49.03 43.66 37.49 38.96 42.73 42.13 40.66 34.82 38.19 34.34 36.40 36.08 37.12 37.12 40.27 39.62 42.24 42.62 37.71 31.69 38.50 40.30 41.72 41.17 39.02 39.93 31.41 32.87 22.88 21.52 29.03 30.79 32.30 37.87 40.10 42.98 43.92 45.44 47.29 48.67
48.15 48.18 51.15 48.91 50.79 46.43 39.73 38.59 41.04 44.74 43.13 40.21 37.37 36.58 37.18 36.13 37.23 36.47 36.72 40.16 42.29 41.15 41.90 39.75 35.94 34.81 38.15 36.51 35.65 35.94 34.71 35.21 34.16 31.84 25.27 24.34 30.50 39.93 39.96 41.70 42.41 44.05 46.35 46.50 47.78
46.40 43.52 50.54 49.61 42.81 38.74 38.62 39.39 41.13 41.72 43.93 42.10 40.73 39.41 37.61 38.12 36.58 36.63 36.01 39.26 43.54 43.11 38.09 40.70 37.03 31.91 34.18 40.14 40.64 39.09 36.58 36.52 29.82 28.11 31.33 30.25 30.39 42.52 42.77 43.41 44.54 44.64 45.52 47.04 49.74
42.58 43.68 50.19 47.72 38.10 36.75 37.70 37.83 39.84 39.77 41.09 40.46 39.03 39.78 39.46 37.51 34.81 37.41 38.53 42.06 42.96 41.97 39.38 40.62 35.20 29.27 31.19 35.04 37.30 35.38 37.03 37.28 36.68 34.89 29.62 26.55 31.26 42.27 43.41 43.74 44.71 44.40 45.76 47.86 48.84
41.24 38.32 41.24 41.33 39.55 36.26 34.27 34.74 36.81 42.66 41.06 40.67 39.53 40.05 37.57 36.24 38.91 36.30 36.50 40.13 41.04 40.77 42.69 41.91 36.69 32.85 28.11 31.68 35.25 32.79 35.39 37.14 35.73 30.04 31.47 31.62 34.10 38.98 41.32 42.43 44.11 45.13 46.52 48.29 48.48
39.76 37.19 37.64 34.57 35.37 36.02 35.87 35.75 34.79 35.35 39.66 39.90 38.05 37.62 36.14 33.78 34.47 34.51 36.68 37.75 39.76 40.93 40.72 39.46 32.79 34.85 35.51 36.27 36.19 35.08 34.50 35.49 34.24 35.35 30.22 33.66 34.30 38.80 41.77 43.20 44.77 46.11 47.22 46.95 47.38
38.08 37.24 38.53 36.37 36.18 35.28 35.44 34.62 34.88 36.12 36.37 36.00 35.55 36.81 36.37 33.70 35.24 33.55 35.72 35.80 34.74 38.47 38.32 39.96 32.63 34.68 31.95 35.79 35.84 33.76 35.96 36.51 36.19 36.48 35.78 36.15 35.73 43.20 44.85 45.71 44.96 45.68 46.18 45.84 46.88
40.85 41.02 40.37 35.59 34.51 34.11 34.10 34.86 35.16 35.89 37.19 38.80 37.46 35.04 34.41 36.06 38.48 39.30 39.66 39.36 38.69 36.92 36.76 36.20 34.96 31.96 27.48 33.41 33.22 29.37 34.54 35.96 36.61 38.53 38.17 34.47 39.52 43.77 42.93 43.79 44.61 45.77 46.07 46.26 46.78

GFSSW_sfc_wetblb_078.txt.gz
Wetbulb
55.81 55.74 55.47 55.32 54.97 54.45 54.30 53.73 53.75 53.65 54.31 55.13 55.40 55.75 56.02 56.21 55.94 57.36 53.47 54.71 56.76 61.04 58.46 53.96 53.34 53.35 53.26 53.66 56.36 57.78 51.42 48.40 49.81 50.27 51.68 54.69 53.22 56.30 58.63 57.49 58.62 59.38 59.79 61.44 62.06
55.53 55.43 55.49 55.08 55.18 54.99 54.26 53.82 53.57 53.64 53.67 54.48 55.11 55.21 55.64 55.82 56.19 55.72 58.77 56.52 59.59 59.76 51.78 49.13 50.23 52.27 50.86 51.36 53.59 53.21 49.70 49.62 53.42 54.24 53.76 54.61 54.39 55.33 54.66 55.69 56.90 59.32 61.08 61.40 60.84
54.98 54.94 55.00 54.87 55.11 54.98 54.49 53.89 54.03 53.68 54.10 54.32 54.53 55.08 55.45 56.52 54.97 52.26 60.83 59.72 59.59 60.53 54.07 51.75 52.43 51.11 48.91 51.05 51.52 52.02 49.12 51.83 53.02 54.68 56.11 55.11 55.08 55.47 54.05 53.27 56.35 57.78 58.16 58.93 59.58
54.66 54.93 54.72 54.74 55.04 54.79 54.30 53.87 53.92 53.86 53.78 53.97 54.19 54.93 55.66 56.76 47.02 56.57 62.46 61.67 61.63 57.77 56.01 53.43 51.09 48.48 47.54 47.30 50.76 47.66 51.11 52.14 52.71 54.85 54.05 53.12 55.66 53.46 53.84 54.81 56.47 59.36 58.79 58.01 58.77
54.44 54.53 54.59 54.48 54.50 54.38 54.03 53.74 53.49 54.02 53.37 53.46 53.58 55.02 56.31 50.85 52.10 60.36 62.95 61.14 58.16 56.10 52.92 51.11 49.23 48.11 46.32 47.59 48.30 47.45 48.87 49.65 51.20 51.57 51.52 52.66 52.26 52.43 53.10 55.56 53.73 55.86 57.09 56.56 57.33
54.29 54.31 54.08 54.00 53.53 53.39 53.27 53.69 53.82 53.72 53.74 53.63 54.33 55.18 53.85 44.84 56.49 58.34 58.72 57.49 56.01 54.60 52.20 52.16 49.79 50.43 47.94 47.70 47.03 48.70 48.42 48.68 49.81 49.81 50.38 48.86 49.60 51.15 52.23 52.89 52.11 56.02 58.02 57.83 56.95
54.02 53.47 52.79 52.97 53.34 53.56 53.61 53.39 53.32 53.40 53.59 54.47 54.88 56.26 51.00 47.00 56.60 58.66 58.01 55.40 55.13 53.64 50.71 52.32 52.00 49.16 49.18 46.55 48.80 47.98 45.20 47.38 48.12 48.71 48.24 49.73 46.60 47.78 52.00 51.35 51.14 51.20 53.69 56.88 57.40
52.81 52.49 52.74 52.88 52.91 53.47 53.94 53.91 53.62 53.79 53.88 54.67 55.54 55.79 48.16 52.36 57.72 56.90 57.54 55.07 55.39 54.81 53.09 53.21 52.88 50.22 48.60 49.31 47.06 44.76 45.14 41.67 46.56 46.28 47.67 46.98 43.44 48.81 50.93 50.51 50.12 50.17 50.26 52.86 53.75
52.57 51.99 51.92 52.17 52.63 53.37 53.46 53.58 55.29 55.00 54.99 55.27 55.96 54.29 48.49 57.78 53.76 54.19 55.88 50.97 51.54 52.31 53.19 52.20 51.90 49.05 48.03 44.91 43.25 44.35 39.57 41.12 43.18 46.89 46.30 46.46 44.27 48.64 50.34 50.44 50.09 50.71 49.99 50.67 52.65
51.51 51.25 51.42 51.84 52.13 52.84 52.79 53.25 55.84 56.34 56.43 57.18 56.25 51.29 52.48 49.31 53.71 53.87 53.72 52.35 49.71 50.24 49.87 49.76 49.13 46.25 45.95 43.84 37.98 40.32 40.43 41.39 41.32 44.95 45.66 44.57 44.76 48.15 50.07 49.72 49.76 50.42 50.42 50.25 51.48
51.36 51.14 51.42 51.50 52.17 52.78 54.26 56.11 52.93 52.11 53.71 49.60 49.19 49.36 50.79 54.17 55.40 52.22 52.30 50.55 50.53 49.04 44.88 47.15 44.19 42.25 44.05 44.00 43.39 42.74 41.48 40.86 43.31 45.50 44.22 44.13 44.50 46.60 48.81 48.95 48.93 49.84 50.08 51.33 51.42
50.77 51.27 51.46 51.59 52.03 52.79 55.35 53.00 51.57 52.68 47.77 51.46 50.91 50.92 52.70 53.51 48.23 50.26 52.35 47.40 47.03 43.84 45.23 43.88 41.34 45.11 44.87 43.73 42.40 42.05 41.02 41.13 43.46 44.91 43.99 43.52 43.14 46.18 47.74 48.44 49.31 49.71 50.37 50.73 51.39
50.78 51.12 51.48 51.68 52.35 54.53 55.05 52.76 56.30 54.45 48.58 47.98 50.39 49.53 50.38 52.30 48.11 48.46 50.70 48.44 45.66 43.52 43.54 41.54 42.89 44.25 43.16 42.43 41.05 42.05 40.76 41.00 40.30 43.01 44.41 43.33 41.75 44.43 46.91 48.38 49.35 50.11 51.03 51.47 51.12
51.04 51.43 51.97 51.76 51.96 56.76 54.09 56.09 56.47 55.22 45.33 44.35 46.67 49.24 50.69 50.83 46.44 51.60 51.57 48.75 45.78 42.85 43.51 42.95 45.04 42.73 42.31 41.23 42.22 39.06 43.29 41.57 40.71 40.24 36.84 43.21 35.04 42.31 45.06 46.00 46.62 48.44 49.37 50.48 50.65
50.84 51.77 52.04 50.75 56.28 54.90 54.79 57.21 56.91 54.27 35.33 45.01 45.92 52.49 49.56 47.34 47.00 47.93 51.73 48.97 44.16 44.20 43.57 41.55 42.32 41.73 41.05 42.05 43.80 41.04 43.45 42.38 41.82 40.13 39.77 39.81 37.51 41.26 44.22 43.24 45.25 47.49 48.57 49.89 50.94
50.88 51.49 51.67 54.52 57.35 55.38 57.03 56.66 55.56 44.09 33.87 42.19 46.05 45.18 45.70 46.92 46.65 47.87 47.75 49.74 49.05 45.29 45.69 44.08 47.34 44.52 43.69 44.46 44.35 45.04 42.77 42.60 42.46 40.78 34.32 39.09 38.55 38.93 41.76 43.49 46.07 47.45 47.51 48.80 51.17
50.41 50.85 52.24 55.45 53.77 57.52 57.48 54.70 44.36 38.22 44.62 41.75 42.48 44.60 44.30 44.02 45.18 45.70 45.30 44.88 42.39 39.18 39.66 43.11 43.28 45.44 45.35 42.44 44.74 43.60 40.88 34.45 33.41 34.21 32.96 39.41 36.71 39.74 43.91 45.02 45.77 46.00 47.54 49.18 50.58
49.43 49.40 53.66 57.19 58.08 57.92 55.44 48.95 38.07 41.75 41.64 44.69 43.79 44.17 42.14 44.47 44.57 44.27 43.40 41.85 45.36 43.65 40.49 37.86 36.45 42.99 45.47 43.47 41.55 42.12 40.91 34.44 27.41 30.83 34.58 39.38 34.27 41.01 45.05 46.33 46.98 48.15 49.19 50.01 51.61
48.48 57.46 58.03 59.30 57.49 56.40 51.20 42.10 41.48 42.17 43.47 42.32 43.71 41.06 41.47 42.72 42.07 42.42 42.28 41.99 44.24 45.29 38.87 38.16 38.00 44.63 44.11 45.27 44.38 41.23 37.50 42.29 36.32 37.65 33.75 36.81 40.25 43.93 45.77 44.98 46.06 47.07 48.65 49.40 50.55
54.37 55.92 56.69 55.89 57.05 54.47 47.58 41.22 43.45 45.62 45.15 44.22 38.56 40.80 38.48 40.49 39.80 40.41 40.65 43.04 42.12 45.40 47.11 42.68 36.39 43.32 43.77 44.68 45.05 42.63 43.97 35.45 36.33 27.14 27.07 34.62 36.31 37.45 41.52 42.71 44.71 46.00 47.65 49.24 51.53
54.93 51.55 54.99 56.49 55.98 50.64 43.22 43.39 44.33 47.17 46.79 42.72 40.90 40.24 40.78 40.00 41.07 40.16 40.06 42.97 44.21 43.93 46.05 44.32 40.79 39.15 42.10 40.27 39.27 40.22 38.38 39.04 39.19 37.15 30.86 30.19 35.72 44.08 42.90 44.74 45.56 46.95 48.43 49.67 50.23
51.95 46.41 55.61 56.29 46.13 48.71 43.23 43.75 41.69 43.45 45.54 43.96 44.10 42.36 41.09 41.69 40.49 40.27 40.00 42.75 45.21 45.33 41.36 44.29 40.82 36.23 38.09 43.83 44.92 42.63 40.23 40.55 33.07 33.46 36.23 35.51 35.14 45.82 45.65 46.03 46.74 47.51 49.00 50.17 50.91
46.29 48.77 55.98 53.07 41.99 42.63 43.72 41.84 42.39 41.74 42.09 42.95 42.19 43.63 43.75 41.32 38.03 41.12 41.62 45.02 45.56 44.53 42.09 43.21 39.26 33.32 35.51 39.95 41.51 39.13 41.11 41.21 40.59 39.97 34.39 31.85 35.76 46.13 47.15 47.26 48.30 48.50 49.40 49.92 51.08
45.98 43.94 47.68 49.85 46.67 41.06 39.34 39.29 39.32 44.49 43.76 44.60 43.35 44.03 42.19 40.70 43.09 39.98 40.81 43.04 44.50 44.76 43.86 43.75 40.19 35.04 31.91 35.42 39.28 36.16 38.46 40.14 38.91 32.95 34.71 35.24 38.17 42.76 45.09 45.76 47.75 48.85 50.03 50.71 51.32
45.64 43.66 43.46 41.44 42.76 40.29 40.20 40.05 38.72 37.91 42.70 43.62 41.23 41.49 40.55 37.69 39.32 38.76 41.19 41.82 43.03 43.74 43.57 42.50 36.15 38.28 38.70 38.92 38.38 37.25 37.47 38.83 37.28 38.55 34.90 37.29 37.96 42.39 45.05 46.30 47.86 49.38 49.87 49.85 50.59
42.90 41.61 45.42 41.90 41.36 39.70 38.58 39.27 37.93 38.90 39.44 38.42 38.88 40.07 40.68 37.94 38.78 37.27 39.62 39.92 39.30 42.59 40.97 42.33 34.70 37.43 35.05 38.03 37.48 34.85 38.01 39.20 39.20 39.40 39.25 39.36 39.45 45.82 47.30 48.12 47.98 48.64 49.20 49.17 50.09
44.72 46.18 42.78 42.30 40.16 38.60 38.72 37.82 37.69 39.82 39.76 40.81 40.40 39.31 38.27 40.34 42.72 42.77 42.47 42.07 41.51 39.48 39.15 37.94 35.59 33.95 30.78 37.00 35.92 32.40 37.06 38.85 39.88 41.47 41.05 37.61 42.24 45.97 45.90 46.32 47.54 48.38 49.20 49.18 49.99

GFSSW_sfc_wetblb_081.txt.gz
Wetbulb
55.75 55.98 55.82 55.87 55.65 55.76 55.81 54.79 54.68 54.31 54.65 54.65 55.45 55.97 56.22 56.41 56.33 58.31 56.62 55.75 58.45 60.70 59.12 54.37 54.91 54.75 54.95 54.22 56.34 57.58 51.06 49.03 50.24 50.50 52.32 55.91 54.36 56.43 58.13 55.91 57.48 60.75 60.99 61.44 63.55
55.30 55.53 55.69 55.73 55.56 55.74 55.73 55.20 54.51 54.78 54.34 54.73 55.22 55.50 56.08 56.28 56.59 57.72 58.61 59.99 60.19 59.80 57.32 51.79 50.73 53.49 52.26 52.62 54.30 53.05 50.41 50.03 53.56 54.58 53.26 55.21 55.73 54.91 56.08 55.57 56.62 58.46 61.62 62.84 62.66
54.70 55.06 55.26 55.23 55.40 55.54 55.33 54.74 54.25 54.49 54.62 54.68 55.00 55.13 55.68 56.68 56.92 55.50 60.91 59.38 60.09 60.43 57.32 52.74 52.96 52.89 50.96 52.46 52.42 52.80 49.80 53.07 53.97 54.60 55.11 54.78 55.42 57.40 55.37 53.93 56.12 56.79 59.43 61.58 61.30
54.81 54.72 54.99 55.10 54.99 54.79 54.76 54.36 54.28 54.27 54.95 54.42 54.56 54.67 55.90 57.51 49.95 58.04 62.00 61.00 61.50 61.48 57.21 54.44 51.86 50.29 49.22 48.96 52.02 49.03 51.82 52.65 53.22 54.23 54.05 53.82 56.60 55.58 56.58 56.17 58.16 58.24 59.55 61.39 61.35
54.53 54.51 54.32 54.06 53.83 53.82 53.76 53.75 54.02 54.24 54.15 54.36 54.43 54.92 56.85 53.98 53.43 61.08 62.64 61.67 60.40 57.47 54.25 52.62 50.92 50.29 48.30 49.96 50.84 49.61 50.49 51.86 52.70 52.48 53.43 55.08 54.41 54.47 55.20 58.08 58.85 58.27 57.15 59.78 60.94
53.10 53.05 53.05 53.36 53.36 53.61 53.98 54.08 53.73 53.75 54.11 54.32 54.72 55.08 56.34 48.99 58.05 61.11 59.98 58.06 57.19 55.58 53.62 53.56 51.57 52.18 49.58 49.61 49.10 51.03 50.39 50.59 51.48 51.33 51.89 50.75 51.18 51.95 53.52 57.20 56.98 56.92 55.63 57.50 59.84
52.48 52.73 52.83 52.77 53.10 53.45 53.92 54.53 54.40 54.13 54.34 54.74 55.52 56.85 53.96 50.84 57.30 59.66 58.19 56.84 55.75 54.54 52.31 53.46 53.56 50.94 50.88 48.66 51.33 49.71 47.08 49.18 49.90 50.47 49.92 51.36 48.29 49.02 53.11 54.89 54.68 54.62 54.63 55.36 58.95
52.43 52.35 52.18 52.41 52.93 53.17 53.86 54.16 54.34 54.68 54.76 55.10 55.86 57.73 52.24 54.20 57.49 56.77 57.69 55.59 55.58 54.82 53.66 54.33 53.99 51.90 50.38 51.51 48.81 46.99 46.75 43.28 48.27 49.48 50.31 49.63 44.53 50.21 53.35 53.60 53.43 53.35 54.19 53.78 54.34
52.18 52.38 51.78 52.28 52.51 53.17 53.46 53.85 55.84 55.93 55.27 55.80 57.12 56.52 51.52 56.54 53.53 56.12 56.74 53.05 53.02 53.66 53.94 53.31 52.06 50.13 50.33 46.38 44.33 45.88 41.68 43.57 45.38 48.66 47.78 48.13 45.52 50.35 53.08 52.62 52.39 53.26 54.00 54.08 54.36
51.80 52.05 51.90 52.17 52.59 52.76 53.34 53.97 55.41 55.39 57.15 58.77 58.34 52.82 54.97 49.97 53.64 53.94 55.81 54.14 51.31 51.58 51.15 50.96 50.13 47.57 47.68 44.66 39.63 42.31 43.16 44.21 43.80 47.34 47.73 46.05 46.20 48.96 51.56 51.69 51.90 52.61 53.53 54.14 54.03
51.71 51.84 52.18 52.24 52.30 52.76 54.43 57.69 55.23 55.07 56.72 53.41 51.81 51.77 52.08 54.63 56.02 53.53 54.30 52.31 51.69 50.31 46.68 50.09 45.84 43.93 46.18 47.66 46.79 44.97 43.64 43.30 45.65 47.72 46.37 45.56 45.93 47.79 50.21 50.58 50.87 51.68 52.50 53.21 54.08
51.65 51.86 52.05 52.28 52.49 53.01 55.06 55.09 53.46 54.94 50.08 53.23 52.26 51.78 53.82 54.35 49.82 51.62 53.96 48.73 48.66 45.53 48.33 46.06 43.03 46.81 47.57 46.88 45.24 44.20 42.48 42.56 45.45 47.31 46.46 45.47 45.01 47.82 49.29 49.60 50.58 50.96 51.78 52.52 53.64
51.39 51.60 52.51 52.61 53.01 54.72 56.76 54.65 58.23 57.11 50.68 50.11 51.45 50.55 51.72 52.88 49.80 49.93 51.96 49.76 47.12 45.88 46.11 43.99 45.86 46.76 45.86 44.64 43.16 43.42 42.32 42.70 42.75 45.68 46.45 44.85 43.10 45.80 48.87 50.21 50.87 51.57 52.35 52.88 53.58
51.44 52.15 52.56 52.71 51.35 58.62 56.05 57.39 57.84 57.93 46.89 47.15 47.95 50.48 51.74 52.01 48.52 53.58 53.01 50.35 47.82 45.13 46.21 45.72 47.72 44.61 43.98 42.97 44.34 40.97 45.56 44.48 42.91 41.77 37.98 45.60 37.21 44.35 47.36 47.79 49.11 50.34 51.36 51.95 53.30
51.41 51.98 52.54 51.34 58.81 56.45 56.76 57.77 58.53 57.21 38.60 47.78 48.25 54.34 52.11 49.36 49.20 49.64 53.52 50.61 45.83 46.18 46.48 43.73 44.96 43.90 42.52 43.42 45.60 42.59 45.68 44.60 43.61 41.86 41.33 41.44 39.11 42.62 46.90 45.65 47.74 49.55 51.06 52.29 53.63
51.08 51.46 52.19 56.41 59.21 56.94 57.77 58.31 57.92 46.41 37.54 44.89 48.09 46.81 47.56 48.47 48.58 49.82 49.50 51.57 50.82 46.90 47.46 46.25 49.18 47.05 45.56 46.38 46.08 46.46 44.07 43.91 43.97 42.17 35.83 40.66 40.38 40.61 43.58 45.75 47.51 49.60 49.98 50.13 52.12
50.27 50.97 52.74 58.02 55.33 58.72 59.21 56.43 46.47 40.57 48.13 44.33 44.92 47.19 46.58 46.29 47.34 48.12 47.09 46.75 44.61 41.47 41.88 45.34 45.47 47.63 47.79 44.26 46.28 45.16 42.28 35.65 33.96 33.60 33.84 43.05 39.51 41.91 45.69 46.79 47.49 48.89 49.48 49.87 51.79
49.68 49.03 54.91 58.01 60.20 59.32 57.58 50.53 40.41 45.49 45.09 47.98 46.17 46.46 44.06 46.54 46.75 46.75 45.74 44.43 47.36 45.87 42.79 40.28 38.46 45.09 47.85 45.42 42.81 42.99 42.17 36.00 28.59 31.21 34.90 40.43 36.71 41.88 47.07 48.60 49.17 48.69 49.78 51.09 51.71
47.88 57.54 58.91 60.82 60.00 58.78 52.23 44.10 44.50 46.55 46.18 44.63 45.53 42.99 43.63 45.79 44.58 44.79 44.28 43.77 45.94 47.33 41.89 40.35 40.18 47.03 47.18 47.40 46.44 42.83 39.66 43.79 37.97 38.62 33.63 38.14 41.82 45.63 47.62 47.05 47.41 48.26 49.75 50.97 52.37
53.98 56.13 57.25 59.96 60.13 56.03 49.35 43.13 46.76 48.00 47.68 46.60 41.46 43.77 40.70 43.23 43.43 43.54 43.34 45.74 44.01 46.75 48.41 44.38 38.66 45.24 46.03 47.48 46.81 44.23 45.68 37.26 38.16 29.64 28.54 35.08 36.40 37.45 42.68 44.97 47.06 47.06 48.56 50.33 51.60
55.90 52.68 57.39 60.22 58.67 51.35 44.25 45.94 47.54 48.90 47.43 44.92 43.52 42.46 42.91 42.37 42.93 42.26 42.59 45.57 46.62 45.95 47.59 45.76 42.93 41.58 44.97 42.43 41.63 41.88 40.42 41.25 40.59 37.56 30.94 29.68 33.81 44.88 43.45 46.48 46.36 48.07 49.78 50.73 51.40
53.99 48.11 57.56 58.29 48.30 49.96 45.43 46.49 43.15 45.34 46.82 45.30 45.65 44.23 43.01 43.01 41.91 41.85 41.98 44.81 47.71 47.13 42.76 46.08 42.43 37.56 40.05 45.44 46.22 44.70 41.80 40.30 33.94 34.10 36.79 35.92 36.29 46.78 46.42 47.98 48.16 48.54 50.14 51.60 52.72
48.90 49.82 57.89 53.86 44.23 46.00 47.82 45.95 46.56 44.48 44.04 43.61 43.96 46.13 46.54 43.44 39.94 42.77 43.73 47.50 47.68 46.32 44.22 45.26 40.41 35.11 37.72 42.16 44.30 41.54 42.58 42.70 41.67 41.19 35.59 33.94 36.10 47.44 47.89 48.59 49.61 49.44 50.37 51.49 52.37
47.76 45.47 51.02 51.34 50.39 45.43 44.07 43.96 43.29 46.37 44.94 45.88 45.08 46.15 44.19 42.20 44.02 41.89 43.11 46.17 46.94 46.45 45.45 45.37 41.31 38.06 33.31 37.08 37.44 35.02 39.56 41.33 40.58 35.79 36.30 37.13 38.67 43.59 45.66 46.63 48.33 49.90 51.08 51.61 52.23
49.71 46.56 46.27 43.86 46.29 46.08 45.23 44.25 42.64 42.46 45.74 46.04 43.51 43.60 42.56 39.72 41.30 41.34 44.04 44.47 45.76 47.84 45.12 44.40 36.08 37.50 38.68 39.91 40.57 40.26 39.65 39.33 38.23 39.81 35.39 38.79 38.40 41.49 45.42 46.41 47.80 50.19 50.86 50.69 51.23
43.37 43.45 44.99 42.77 46.60 44.66 43.93 42.89 42.20 42.51 43.11 42.02 41.68 41.91 42.52 39.89 40.72 39.15 41.76 42.38 41.81 44.88 42.88 43.30 36.67 38.06 36.00 38.78 39.24 37.48 39.77 39.50 39.96 39.94 39.86 40.20 39.48 46.14 47.59 47.62 47.51 48.91 49.31 50.41 50.68
46.83 47.58 43.71 42.28 43.96 42.87 43.17 42.15 41.04 42.76 43.24 43.69 42.43 40.91 39.93 41.50 43.95 44.52 45.16 44.61 43.51 40.70 39.92 40.02 38.32 36.27 32.03 37.80 37.60 33.99 38.78 39.77 41.06 42.46 41.53 37.17 41.23 46.25 44.96 46.95 48.02 49.35 50.41 50.05 50.48

GFSSW_sfc_wetblb_084.txt.gz
Wetbulb
55.73 56.04 55.97 56.06 55.75 55.80 56.03 55.22 55.22 55.15 55.60 55.42 55.58 56.05 56.20 56.45 56.65 56.57 54.89 58.44 59.85 62.00 58.01 52.77 54.58 55.18 54.61 52.92 54.70 54.98 48.79 47.03 48.24 49.17 50.89 54.78 53.72 56.52 57.52 55.24 56.24 58.24 60.03 62.45 63.96
55.24 55.70 55.32 55.61 55.92 55.76 55.43 55.07 54.99 55.06 55.31 55.49 55.47 55.81 55.82 56.33 54.83 54.86 60.06 63.79 62.58 59.95 54.39 53.56 51.29 52.13 50.72 51.12 51.82 50.70 47.75 48.24 52.17 52.70 52.31 54.30 54.23 55.63 55.43 54.49 54.99 56.26 58.98 62.79 63.81
55.03 55.08 55.43 55.58 55.59 55.35 54.97 54.73 54.66 54.87 55.12 55.61 55.44 55.47 55.52 56.07 54.94 55.95 62.51 63.21 62.28 59.50 57.03 55.59 52.23 51.27 50.05 51.36 50.83 50.31 47.97 51.12 52.31 53.82 54.26 53.34 53.42 55.53 54.92 53.41 55.81 55.50 58.13 60.56 62.27
53.81 54.31 54.57 54.55 54.49 53.94 54.04 54.34 54.47 54.96 55.11 55.32 55.46 55.23 56.01 55.19 49.47 55.15 62.96 61.69 60.96 58.83 59.08 55.51 52.22 48.74 48.30 48.10 51.19 47.59 50.50 51.51 52.50 53.61 53.15 52.16 54.26 53.18 55.31 56.26 58.79 58.77 60.08 59.44 59.59
53.42 53.27 53.46 53.47 53.51 53.88 53.96 54.04 54.41 54.55 54.71 54.97 55.21 55.29 55.71 54.52 53.53 58.28 63.98 61.74 59.15 58.50 56.49 53.45 50.96 50.51 47.27 48.97 49.92 48.66 49.76 51.00 51.91 51.99 51.93 52.56 51.67 52.45 53.82 57.40 59.51 59.46 59.38 57.90 57.58
52.82 53.02 52.74 53.13 53.17 53.60 53.62 54.35 54.75 54.54 54.60 54.95 55.38 55.22 53.99 49.71 59.64 58.18 58.01 57.67 57.87 55.59 54.59 53.25 51.83 52.38 49.45 49.07 48.53 50.21 50.15 50.51 51.12 51.03 51.42 49.82 50.11 51.65 53.85 57.32 56.48 58.35 58.18 57.45 57.01
52.80 52.54 52.76 52.54 52.95 53.18 53.64 54.42 54.74 54.60 55.09 55.40 55.66 55.85 52.61 52.67 56.65 59.61 58.57 56.69 57.11 54.84 52.14 53.99 53.33 50.87 50.67 47.99 50.83 49.87 46.71 48.36 49.22 50.01 49.68 51.22 47.78 48.36 52.31 53.48 52.81 54.09 56.75 57.67 57.27
52.88 52.69 52.28 52.55 52.81 53.26 53.88 54.10 54.50 55.60 56.03 56.00 55.70 55.88 51.23 57.17 57.05 56.77 58.38 56.00 56.27 54.99 53.55 53.94 53.79 51.10 49.55 50.70 48.70 46.25 46.64 42.76 47.48 48.70 49.22 49.17 43.78 49.40 52.33 52.38 51.69 52.58 54.37 55.64 56.29
52.20 52.36 52.26 52.49 52.92 53.21 53.64 53.70 54.85 57.03 56.96 56.12 54.99 54.63 52.23 57.21 51.68 55.62 56.27 53.78 54.45 54.11 54.03 53.74 52.08 48.62 48.65 45.47 43.63 45.20 40.21 42.06 44.07 48.86 48.33 47.83 45.00 49.53 51.77 51.78 51.93 53.26 54.24 54.55 55.46
52.17 52.65 52.04 52.52 53.11 53.25 53.60 53.38 56.90 54.76 55.80 57.78 57.85 52.75 54.67 52.83 52.32 54.69 56.40 55.04 51.88 51.67 51.07 50.67 49.67 46.38 46.31 44.22 37.71 40.65 41.94 43.77 43.70 47.15 47.85 45.74 45.42 48.60 50.73 50.67 51.62 52.34 53.15 54.04 55.03
52.15 52.21 52.09 53.21 53.19 53.31 53.27 57.03 54.18 53.94 56.40 53.75 53.43 53.29 53.32 54.43 55.85 53.62 54.30 52.49 51.95 50.02 45.34 49.31 45.58 43.23 45.64 47.03 46.70 45.75 44.19 42.82 45.20 48.04 46.56 45.77 45.91 47.53 49.71 49.86 49.98 51.96 53.07 54.02 54.96
51.92 52.00 52.77 53.31 53.41 53.58 53.38 55.60 54.02 54.63 48.90 55.13 55.32 52.83 53.88 54.71 50.14 51.69 54.84 48.98 48.23 44.74 47.69 46.17 43.17 47.23 47.88 46.80 45.46 45.04 43.09 42.20 44.55 46.61 45.78 45.02 44.64 47.46 48.80 49.46 50.50 51.09 52.01 53.62 54.89
51.96 52.03 52.84 53.50 53.52 53.38 56.77 55.13 58.30 57.49 49.32 52.36 53.37 50.89 51.56 53.09 49.58 50.55 52.17 49.82 46.49 45.19 45.79 43.82 45.85 48.51 46.45 44.94 43.89 43.62 42.09 41.94 41.91 44.99 46.14 44.86 43.20 45.11 47.97 49.79 50.82 51.75 52.67 53.49 53.90
51.87 52.02 52.91 52.88 51.49 58.19 56.37 58.26 57.74 58.57 44.87 49.20 48.22 50.09 52.06 52.17 48.52 53.66 54.03 50.35 47.46 44.41 46.02 45.48 47.94 46.40 45.09 43.27 44.13 40.21 45.26 44.37 43.33 41.80 37.42 44.74 36.20 43.14 46.43 47.70 49.69 50.57 51.69 52.45 53.43
51.41 51.95 52.27 52.27 55.34 56.13 56.84 57.91 57.96 57.02 37.85 48.24 49.25 54.87 52.49 49.20 49.93 50.24 54.10 50.94 45.56 45.72 46.42 44.10 45.30 44.65 43.60 43.82 45.47 42.45 45.86 44.03 43.23 41.36 40.68 40.61 37.74 41.48 46.06 44.85 47.33 50.42 51.37 51.94 53.26
51.27 51.43 51.60 57.13 56.44 59.49 58.23 58.66 57.92 45.94 38.09 46.23 48.93 47.35 47.16 48.94 49.03 50.50 49.82 51.72 50.35 46.25 46.77 45.79 49.08 47.20 46.14 47.06 46.64 46.73 44.15 43.54 42.94 40.92 34.96 39.11 38.73 39.51 42.95 45.71 47.47 50.24 50.73 51.82 52.36
50.55 50.12 49.91 56.83 54.40 58.98 58.33 55.58 45.38 40.44 49.88 46.35 45.52 47.75 46.85 46.24 47.29 48.30 47.11 46.23 43.78 40.81 41.11 45.24 45.83 48.14 48.41 44.67 46.70 45.15 41.49 34.70 33.16 34.03 33.18 41.45 38.73 40.80 46.23 47.00 48.25 49.13 49.96 50.93 51.10
49.02 48.96 52.74 56.75 59.00 59.77 56.57 49.58 39.02 46.06 46.90 49.64 47.25 46.77 44.04 46.27 46.46 46.90 46.06 44.23 47.46 45.83 42.61 39.30 37.89 45.34 48.20 45.53 43.32 43.24 42.30 35.49 27.24 29.51 33.45 41.48 34.52 39.49 47.32 49.38 49.71 50.04 51.15 50.92 50.70
47.90 56.91 56.09 59.16 60.92 58.36 51.29 42.39 43.17 46.80 48.55 46.37 46.08 42.62 43.19 45.90 45.98 45.72 45.03 44.08 45.37 46.07 40.68 39.53 39.70 47.39 47.97 48.08 46.62 43.43 40.08 43.86 37.73 38.15 33.11 37.15 40.88 45.33 47.84 48.35 48.82 48.51 49.37 49.76 51.03
49.33 55.74 56.50 61.87 60.36 55.49 47.06 41.97 45.79 49.74 49.30 47.21 41.36 43.91 40.76 43.15 43.15 43.48 43.92 46.78 45.31 47.54 47.76 43.37 37.43 44.48 46.13 47.47 47.43 44.75 45.94 37.64 38.80 28.64 27.66 34.48 36.30 37.74 43.00 44.98 47.20 47.16 48.13 49.88 51.88
51.55 53.39 58.12 60.56 58.61 50.22 42.36 44.71 47.69 50.38 48.98 44.35 42.12 41.86 42.73 41.54 42.16 41.39 42.32 45.43 46.70 46.31 47.89 45.40 42.17 41.07 44.52 42.53 41.39 42.07 40.56 41.47 40.27 37.88 30.85 29.35 34.15 44.17 44.22 46.41 46.65 48.22 48.89 50.36 51.15
51.27 48.40 57.86 58.35 46.94 48.80 45.88 48.16 47.33 47.47 49.05 46.62 46.12 44.34 42.71 43.10 42.25 42.18 41.78 44.20 47.73 47.43 43.42 46.32 42.71 37.26 39.69 45.63 46.46 44.83 41.38 40.69 34.74 32.87 35.50 34.40 34.73 45.99 47.07 47.65 48.00 48.65 49.41 50.50 51.99
46.01 49.54 57.99 54.69 42.61 44.87 47.38 46.71 47.26 46.26 45.60 44.95 43.97 45.74 46.30 43.47 40.04 42.81 43.76 47.10 47.72 46.64 44.56 45.72 40.21 34.18 35.97 40.91 44.49 39.24 39.95 39.90 39.32 38.72 34.75 32.20 35.26 46.32 48.16 45.91 46.02 47.53 48.01 50.36 52.15
47.67 44.71 51.45 51.03 50.59 45.96 43.84 43.59 43.03 47.28 46.02 46.72 45.27 45.88 44.33 42.48 44.26 41.40 42.67 46.28 48.05 47.59 47.91 46.58 40.60 36.86 32.18 35.41 39.88 36.30 39.17 40.35 37.18 32.54 35.07 35.90 38.41 42.49 45.29 45.19 46.55 47.21 47.62 48.43 52.13
49.60 46.43 47.80 41.90 44.29 44.03 44.94 43.81 42.50 42.15 46.13 45.71 43.64 43.65 42.37 39.29 39.83 39.40 42.41 43.60 45.66 48.24 46.18 43.24 36.29 38.73 39.14 39.90 39.61 38.58 38.35 39.29 36.14 36.91 33.83 37.39 37.91 42.28 45.18 46.81 48.49 47.51 47.51 50.09 50.16
43.51 42.36 45.32 42.73 45.50 44.92 43.34 41.67 41.28 42.69 42.16 39.99 40.13 41.88 42.12 39.08 39.79 37.59 40.01 40.62 40.43 44.21 43.27 42.55 35.76 38.33 35.72 38.87 38.56 36.45 38.60 38.90 38.96 39.69 39.85 39.62 39.27 45.42 47.43 48.38 47.50 48.56 49.03 49.80 50.67
47.40 47.18 43.75 41.47 43.07 42.53 41.54 41.28 41.21 42.49 42.87 43.32 41.99 40.41 39.35 40.92 43.07 43.30 43.77 43.34 42.58 40.19 39.49 39.18 36.84 34.73 30.88 36.55 36.55 31.19 37.18 39.12 40.00 41.81 40.99 37.05 41.27 46.02 44.49 46.28 47.24 48.02 49.20 49.11 50.86

GFSSW_sfc_wetblb_087.txt.gz
Wetbulb
55.57 55.56 55.31 55.86 55.78 55.24 55.16 55.12 55.41 55.36 55.53 55.57 55.90 55.77 56.16 56.39 55.99 52.80 49.93 56.95 56.85 61.20 60.44 50.80 49.79 50.75 51.89 48.19 49.30 49.23 40.99 40.67 43.40 45.31 46.98 51.01 49.58 52.02 54.56 52.90 54.99 56.63 55.95 59.13 61.20
54.73 54.52 55.10 55.03 55.23 54.90 54.69 54.44 54.95 54.93 55.25 55.37 55.75 55.99 55.68 55.84 51.94 50.45 57.89 63.23 62.84 61.68 51.35 48.25 47.17 48.90 45.98 45.69 45.91 44.03 39.96 41.33 47.13 49.06 48.00 49.33 49.51 50.86 52.03 51.68 52.00 54.16 56.92 58.19 59.82
53.93 54.01 54.13 54.10 54.09 54.15 53.95 54.10 54.67 55.14 55.28 55.55 55.52 55.85 55.54 55.14 49.37 53.32 64.53 63.68 63.21 60.11 52.85 53.29 53.61 46.51 42.40 44.58 44.45 44.16 41.74 45.76 48.05 49.46 50.26 49.94 49.99 51.76 50.20 49.81 52.21 52.32 55.15 57.38 58.75
53.42 53.60 53.73 53.75 54.17 54.06 53.85 53.83 54.53 55.04 55.38 55.37 55.46 55.69 55.66 52.43 44.00 51.09 63.89 63.84 62.24 56.09 54.40 54.80 52.36 41.50 40.05 41.02 45.78 41.76 46.26 47.46 48.31 50.31 49.74 48.83 49.58 48.85 49.30 51.04 55.78 55.90 57.12 57.60 56.71
53.25 53.36 53.32 53.30 53.42 53.18 53.38 53.81 54.04 55.04 55.10 55.14 55.26 55.71 53.00 48.99 50.28 58.47 64.62 63.09 57.00 55.43 54.10 52.85 48.57 44.75 40.67 42.84 44.33 43.57 45.06 47.50 48.39 47.40 47.68 48.74 47.58 47.73 48.48 51.99 57.29 56.98 57.16 56.21 54.69
52.78 52.76 53.15 52.95 53.19 53.09 53.52 53.50 54.31 54.55 54.94 55.48 55.47 55.80 50.95 43.44 56.00 58.27 58.63 56.57 55.38 54.13 53.93 50.69 46.78 47.46 43.77 43.55 41.88 45.07 45.17 45.53 46.10 45.53 46.37 45.92 46.97 47.32 49.22 51.49 52.58 55.93 55.08 54.67 54.56
52.62 52.54 52.41 52.50 52.62 53.27 53.70 54.16 54.41 54.61 54.76 55.82 55.78 54.54 48.98 47.21 56.05 56.25 55.57 53.38 54.77 54.79 50.40 50.59 49.95 47.08 45.91 42.73 45.80 45.24 41.50 44.05 44.90 45.23 44.63 47.34 44.75 45.70 49.10 50.68 49.74 50.27 51.78 54.64 54.64
52.42 52.29 52.20 52.52 52.81 53.43 54.01 54.43 54.30 54.94 56.44 56.48 55.62 52.48 46.25 56.00 54.40 53.22 54.95 54.26 54.72 53.11 51.50 51.08 50.25 46.12 43.32 45.20 44.60 41.13 40.00 34.90 42.08 45.98 46.95 44.78 40.34 46.93 49.25 48.87 48.83 49.84 50.52 50.91 53.63
52.35 52.86 52.47 52.51 52.97 53.61 53.98 54.02 54.47 56.60 57.09 56.35 51.59 49.11 48.02 56.81 51.29 52.73 53.57 53.15 53.78 53.20 51.88 52.99 47.87 43.89 44.39 38.89 35.99 37.97 34.05 36.52 40.33 45.38 45.12 43.48 41.44 46.79 49.10 48.19 47.56 48.52 49.52 50.47 50.74
52.22 52.12 51.97 52.18 53.18 53.77 53.77 53.79 54.53 55.03 54.63 55.08 54.59 48.32 52.81 52.07 52.53 52.40 53.05 53.54 51.90 50.88 48.84 47.29 43.98 40.61 38.83 35.44 30.03 34.78 35.81 38.69 38.66 43.08 44.27 41.98 42.37 44.87 47.11 47.04 46.78 47.32 48.75 49.80 51.01
52.22 52.37 52.75 53.34 53.69 53.82 52.26 51.79 48.83 48.96 51.55 49.81 52.20 51.02 53.47 54.21 54.55 51.28 53.57 52.15 51.37 47.24 40.63 44.52 38.49 36.27 39.99 42.19 42.46 41.97 40.62 39.52 42.53 45.12 41.75 41.01 41.25 43.34 45.84 45.10 44.87 45.70 46.38 48.59 49.76
51.87 52.16 52.68 53.49 53.65 53.82 50.35 49.47 51.22 50.18 44.82 53.44 54.09 54.61 56.00 54.39 49.76 51.68 53.78 47.16 45.78 40.69 43.59 40.60 37.06 43.59 46.17 45.75 43.34 41.70 39.24 38.06 42.04 44.22 42.52 40.72 40.62 43.10 44.72 44.76 45.32 45.99 46.66 47.20 49.17
51.84 52.02 52.21 53.17 53.15 50.22 50.12 54.37 55.14 52.55 43.80 48.64 52.00 52.51 52.00 50.77 48.33 49.17 50.71 48.29 44.52 41.13 41.36 38.68 42.53 46.99 45.60 43.11 41.68 39.78 38.58 38.62 38.93 42.53 43.04 40.54 38.73 41.06 44.90 46.05 46.92 47.72 48.15 48.71 47.84
51.65 51.64 52.05 51.88 50.76 52.88 52.63 57.49 53.16 54.42 37.89 45.88 49.44 50.11 50.11 49.94 47.04 52.58 52.74 48.47 44.58 40.98 41.79 40.65 44.94 44.79 42.72 42.03 41.93 36.35 42.63 42.27 41.40 37.56 30.93 39.96 30.32 38.55 41.53 43.50 45.72 46.65 47.46 48.36 49.09
51.29 51.45 51.29 51.02 48.75 49.91 53.04 53.13 53.90 52.42 32.02 48.02 47.94 52.14 50.11 47.17 48.89 49.23 52.96 49.15 43.42 43.32 42.63 40.37 42.03 41.71 41.22 42.38 44.07 39.60 43.80 41.23 40.72 36.34 33.74 35.72 31.88 36.85 40.75 41.03 43.45 45.76 47.30 47.52 48.40
51.10 50.95 50.69 52.17 50.98 53.02 56.36 54.43 52.68 40.42 33.79 44.94 47.62 46.37 45.11 47.23 47.61 49.25 48.72 49.77 48.35 43.29 43.27 42.06 46.33 44.38 43.35 45.50 45.24 45.46 41.31 39.38 37.60 33.77 28.68 34.66 33.58 34.74 38.18 41.30 44.79 46.48 48.01 48.64 48.13
50.61 50.33 48.03 51.17 49.25 54.73 55.77 50.60 39.09 35.50 49.64 45.64 44.51 45.69 44.43 44.17 45.38 46.14 44.90 42.36 38.74 35.04 36.01 41.43 42.33 45.74 47.08 42.06 44.36 42.46 36.22 28.72 25.90 25.16 27.09 37.14 35.44 36.34 41.82 45.50 45.17 45.96 46.87 47.23 47.66
48.97 49.09 49.56 50.48 53.47 54.96 52.95 44.26 33.58 43.60 45.20 49.59 47.76 46.09 42.37 44.18 43.88 44.90 43.64 41.12 44.17 43.15 39.37 36.53 34.73 43.54 47.06 43.80 41.18 40.73 39.01 32.18 24.50 22.57 28.75 37.69 31.44 36.19 44.91 46.13 47.60 48.49 48.83 48.04 45.47
48.27 51.32 50.53 53.06 54.84 54.69 46.65 35.40 38.52 43.96 46.90 45.74 45.37 41.68 41.32 43.59 43.24 43.23 42.19 41.72 43.30 43.63 37.26 34.98 36.19 45.19 45.73 45.79 44.21 40.16 35.98 40.21 34.35 35.49 29.22 30.12 36.23 42.05 44.97 44.59 47.06 46.60 48.16 45.04 46.08
44.67 48.61 52.78 57.99 57.61 51.69 42.53 39.35 41.84 47.06 47.73 46.26 39.51 41.53 36.94 39.69 40.09 40.16 40.07 44.76 43.96 46.45 45.17 39.88 34.06 42.93 44.46 45.39 44.33 40.86 43.42 32.81 34.00 26.56 23.88 29.61 31.86 32.51 39.13 41.59 44.81 45.10 45.96 47.05 47.46
46.19 47.96 55.79 58.13 55.47 46.86 37.66 40.66 44.95 49.50 47.56 43.92 41.63 40.25 39.90 39.04 39.69 38.98 39.98 44.19 46.58 45.13 45.15 42.64 37.72 38.38 42.83 39.38 37.06 37.73 35.34 35.41 36.31 31.86 26.75 24.49 27.99 38.91 39.45 41.02 41.61 43.44 45.66 45.38 46.88
43.92 42.14 55.39 56.30 43.74 44.34 41.64 46.13 45.70 45.96 47.56 45.43 44.63 42.45 40.82 40.84 39.16 39.86 40.04 43.06 47.63 46.08 41.06 43.32 38.85 33.61 36.69 42.37 44.17 40.76 37.08 36.46 32.03 30.52 32.52 32.01 30.46 43.87 42.68 42.36 42.67 44.63 47.06 46.64 48.03
40.76 44.64 54.72 52.73 37.56 39.45 44.72 44.53 45.89 44.81 44.60 44.06 43.05 44.61 44.02 40.02 36.81 40.98 42.03 46.28 46.94 45.35 42.41 42.52 35.50 28.82 31.31 35.31 39.30 37.06 37.76 38.42 37.76 35.73 30.81 28.96 30.61 44.39 43.96 45.30 45.43 44.40 45.42 47.56 48.43
42.66 41.63 48.20 48.03 47.05 40.79 40.03 41.51 41.42 46.58 44.73 45.76 42.52 42.79 40.44 38.53 41.28 39.03 39.98 43.78 45.53 44.83 50.69 46.26 36.65 33.99 29.30 32.40 35.58 34.05 36.37 37.98 36.11 31.68 31.21 32.61 33.22 38.28 42.10 43.17 44.24 43.94 45.64 46.56 47.86
45.65 41.49 43.06 38.44 38.68 40.05 41.93 42.01 40.25 39.72 44.60 43.81 40.36 40.23 38.89 34.19 36.30 36.48 39.35 40.22 42.48 45.37 42.68 38.99 32.60 35.42 36.51 38.30 38.33 36.58 35.74 36.21 33.75 34.50 31.50 33.28 35.21 38.40 41.11 42.57 42.59 45.07 46.22 47.04 47.61
40.18 39.00 41.50 38.56 42.11 40.01 40.52 40.35 39.34 40.16 40.59 38.91 37.58 38.95 38.65 35.07 36.41 33.81 36.77 36.74 35.83 39.28 36.80 37.88 32.51 35.36 33.33 36.81 36.54 34.14 36.22 36.60 36.49 36.49 35.81 36.42 35.76 41.67 43.18 43.83 43.85 45.32 46.10 47.77 48.41
45.27 44.75 42.50 39.80 39.23 37.36 38.20 39.95 38.70 40.62 40.85 41.73 39.81 37.50 36.53 38.62 40.80 40.21 39.89 39.01 38.01 35.10 33.73 32.60 30.12 27.57 25.23 33.56 33.40 27.77 33.75 36.14 36.92 37.33 38.02 32.58 37.05 42.55 41.94 42.76 42.85 43.66 45.13 46.77 47.70

GFSSW_sfc_wetblb_090.txt.gz
Wetbulb
54.01 54.02 54.13 54.76 54.95 54.88 54.79 54.64 54.37 55.03 55.21 55.64 55.80 56.03 56.27 56.22 55.44 51.24 46.51 52.72 55.69 60.68 60.62 50.15 48.83 47.48 49.47 46.14 47.04 46.75 37.87 35.42 39.39 42.17 45.10 49.77 46.73 50.02 54.14 53.84 56.10 55.16 55.56 58.84 58.79
53.50 53.60 54.10 54.04 54.00 54.04 53.93 54.01 54.25 54.49 55.03 55.54 55.65 55.78 55.89 55.71 51.00 48.64 54.69 62.25 63.74 63.35 50.00 46.37 45.01 46.58 43.88 43.48 44.73 41.70 35.47 38.90 43.68 45.56 45.07 48.16 46.86 48.34 50.72 50.49 50.59 52.64 55.85 57.58 59.42
53.09 53.47 53.70 53.88 54.09 53.69 53.78 53.75 53.97 54.50 54.77 55.29 55.25 55.62 55.63 55.04 47.73 51.35 63.19 62.79 63.98 60.63 49.83 50.95 51.25 49.09 41.47 41.23 42.04 40.28 38.10 42.26 45.11 46.52 47.69 47.59 47.73 49.19 48.90 46.71 50.31 51.31 53.64 55.66 57.42
53.12 53.19 53.25 53.61 53.79 53.81 53.37 53.33 53.69 54.05 54.63 54.80 54.80 55.21 55.61 51.57 42.16 50.60 65.62 64.71 63.95 55.19 52.17 52.49 49.94 41.42 38.35 38.26 42.30 38.26 43.23 44.75 45.44 47.11 47.13 46.49 48.81 47.09 47.48 47.89 52.39 53.69 54.98 56.17 55.36
52.95 53.03 52.97 52.91 53.01 53.21 53.58 53.70 53.97 54.05 54.24 54.32 54.58 55.30 51.63 46.36 48.56 56.15 65.09 63.78 57.38 53.62 52.34 50.78 47.32 43.73 37.72 39.44 41.19 39.41 42.80 44.93 46.11 46.48 46.52 47.71 46.32 46.12 45.73 50.22 54.17 55.29 55.67 55.42 53.79
52.44 52.72 52.71 52.71 52.84 52.94 53.25 53.84 54.12 54.43 54.17 54.22 54.60 55.49 49.36 39.02 51.43 58.68 57.85 56.82 53.79 51.08 52.07 50.18 48.14 45.75 41.59 40.54 39.09 42.44 42.11 43.22 43.75 43.46 44.05 44.13 45.45 45.57 47.82 49.75 50.19 51.08 52.71 53.94 54.38
52.62 52.58 52.52 52.75 52.79 52.87 53.57 54.37 54.43 54.43 54.59 54.91 55.35 54.11 47.59 43.55 54.44 56.21 55.54 52.36 53.11 53.80 51.56 49.24 47.34 45.38 43.17 41.38 42.22 42.75 39.19 41.07 41.73 42.66 42.12 44.32 42.55 43.81 47.74 48.76 47.96 48.87 51.50 53.92 53.46
52.95 52.69 52.48 52.49 52.85 53.22 54.07 54.29 54.12 54.60 56.02 56.25 55.94 51.45 43.38 53.52 52.01 51.15 52.92 52.33 53.58 53.21 51.08 50.05 47.87 43.77 41.28 41.55 41.87 39.03 36.48 33.18 39.65 43.13 44.14 43.26 38.60 44.64 47.45 46.74 47.58 48.14 48.40 49.58 51.51
52.81 52.79 52.49 52.54 53.20 53.61 54.02 54.16 54.51 55.25 57.11 56.75 50.21 47.82 44.29 57.57 53.09 52.67 52.77 52.16 53.01 52.76 50.62 52.30 46.22 42.46 42.29 36.53 33.33 34.20 30.72 34.05 37.89 42.24 42.57 41.49 38.96 44.45 46.56 46.54 46.40 47.14 47.91 48.01 47.82
52.45 52.58 52.48 52.70 52.95 53.34 53.85 54.21 53.98 53.96 54.76 54.91 53.40 45.77 50.33 51.47 50.86 51.56 50.91 52.52 50.24 49.62 47.91 45.86 41.50 38.28 36.34 33.54 28.16 32.29 32.82 35.81 35.89 40.88 40.97 38.75 38.84 42.40 44.92 45.08 46.09 45.56 45.91 47.74 48.92
52.16 52.47 52.48 52.71 53.32 53.83 50.81 48.69 46.96 47.14 49.15 47.13 49.61 48.62 52.41 55.22 52.69 49.05 50.90 49.97 50.13 45.86 38.89 42.10 36.70 33.92 37.80 38.86 40.44 38.80 37.09 36.41 39.73 43.41 40.11 38.36 38.97 41.56 43.34 43.58 43.44 44.01 44.40 45.40 46.94
52.24 51.99 52.06 52.33 52.64 53.13 48.09 46.27 50.94 47.57 42.45 50.80 52.15 51.19 54.92 56.13 50.81 49.74 52.64 45.92 44.22 39.13 41.02 38.07 34.38 41.08 43.08 43.10 41.42 39.96 37.03 35.96 39.35 42.55 40.40 39.20 38.91 41.88 42.55 43.09 43.80 44.78 44.88 44.95 45.28
52.27 52.15 52.14 52.21 51.91 49.10 47.62 51.43 55.59 51.23 42.18 47.18 51.22 51.10 51.69 53.36 50.24 48.51 50.01 47.02 42.74 39.10 38.75 35.94 39.71 44.69 43.32 41.53 40.52 39.33 36.42 36.10 36.80 40.45 40.01 38.14 35.55 38.59 42.12 43.86 45.13 45.13 45.31 45.95 46.13
52.06 51.92 51.75 51.01 49.01 48.87 48.46 54.05 52.22 50.82 36.66 43.17 47.33 49.68 51.01 49.83 45.89 51.21 51.31 47.35 42.95 40.17 40.09 37.99 42.09 42.28 41.03 39.88 40.25 34.59 41.22 40.82 39.67 35.96 29.82 37.59 29.59 35.10 39.10 40.81 42.92 44.43 43.96 44.28 45.55
51.94 51.99 51.45 49.98 44.10 46.15 51.97 53.18 52.04 50.30 28.78 48.84 47.33 51.49 48.70 45.62 47.52 48.37 51.81 46.97 41.89 41.43 40.60 38.64 40.02 39.77 39.12 40.31 42.32 38.93 42.79 40.12 39.52 34.60 31.42 33.41 30.04 32.43 37.89 38.64 41.18 43.16 44.37 45.59 47.01
51.83 51.64 50.91 48.75 46.94 49.72 52.68 52.07 50.05 39.53 32.25 44.73 46.47 44.31 42.81 45.34 46.41 48.20 47.92 48.38 47.24 41.89 41.27 41.06 44.07 42.28 41.55 43.73 43.32 44.01 39.84 37.48 34.86 31.44 26.40 31.31 31.07 33.30 35.54 38.43 40.50 44.60 45.59 46.66 47.69
51.18 50.96 48.68 48.80 44.69 49.44 50.23 48.67 37.99 33.27 47.95 43.44 44.26 44.48 42.88 42.12 43.95 44.98 43.69 41.36 38.92 33.15 34.01 40.08 40.61 43.53 44.45 39.67 42.22 39.66 32.44 28.68 25.43 25.35 27.06 34.14 31.31 34.37 38.70 42.19 44.01 44.49 45.25 45.67 45.59
49.61 49.29 48.89 48.67 46.24 48.92 49.27 42.75 32.27 41.63 43.19 47.50 45.33 44.82 41.67 42.67 42.02 43.15 41.43 38.31 41.33 39.59 35.02 33.11 33.11 41.47 45.62 41.97 37.64 36.80 36.20 29.47 23.33 22.60 28.49 34.73 28.21 35.20 42.15 44.47 45.75 46.73 45.92 45.28 46.54
48.47 46.30 48.88 49.43 49.25 50.54 45.25 34.95 37.29 42.79 45.29 43.75 44.25 39.62 38.17 41.43 40.80 40.18 39.18 38.73 40.95 41.38 34.84 32.83 34.75 43.91 44.94 44.88 42.97 37.31 34.00 39.79 33.91 33.92 26.18 30.05 34.50 39.96 43.36 43.90 44.85 45.07 45.28 44.42 47.89
43.56 45.27 50.37 54.95 52.39 49.20 41.49 38.04 41.04 45.88 45.46 43.98 37.79 41.30 36.86 39.38 38.87 38.06 37.79 43.31 42.45 44.58 41.33 37.13 31.44 41.59 43.61 45.04 44.53 40.71 42.27 32.47 30.81 26.59 25.21 29.70 30.77 31.88 38.33 40.28 42.89 42.69 41.90 42.73 44.20
42.28 43.60 53.37 56.01 53.24 45.04 35.61 39.43 43.77 48.08 46.61 42.58 39.59 38.54 38.78 38.29 38.94 38.44 39.77 43.03 45.73 43.10 44.09 38.59 34.39 36.26 40.91 38.37 36.74 37.13 35.38 36.92 35.42 30.89 27.97 25.58 26.89 39.11 38.62 40.71 41.16 41.53 43.26 41.99 43.15
40.08 37.45 51.13 52.68 41.39 41.92 39.46 44.33 44.58 45.14 47.18 44.83 44.47 42.10 38.91 39.71 38.27 38.45 38.59 42.12 46.61 44.79 39.84 40.79 36.20 31.42 35.47 41.64 43.82 40.58 35.75 34.51 27.36 27.35 32.88 30.22 30.11 42.12 42.58 43.48 43.20 43.33 45.64 45.29 47.48
38.93 41.21 50.25 49.54 35.47 35.71 41.09 42.30 44.82 43.55 43.49 42.96 41.73 42.70 41.57 38.43 34.35 38.53 40.45 44.13 44.84 42.80 40.82 40.38 33.46 27.86 30.75 35.38 38.31 35.68 37.67 36.07 34.17 33.32 25.81 21.38 27.27 42.64 42.60 43.45 44.45 44.42 45.51 45.29 46.05
39.64 40.11 43.40 44.91 42.67 37.10 36.69 39.62 39.00 45.70 43.76 44.10 41.83 41.77 38.92 36.12 38.28 35.77 37.06 42.16 43.58 42.66 48.21 42.98 36.37 32.55 28.86 32.50 35.37 33.79 36.22 37.24 34.85 29.24 28.15 29.42 31.98 37.84 40.45 41.83 42.49 44.17 45.09 45.17 44.70
41.53 37.41 39.31 34.78 37.24 38.68 39.16 38.27 37.97 38.46 43.16 43.52 39.74 39.13 36.71 32.34 33.92 34.55 37.59 38.45 41.00 43.15 42.03 38.36 31.73 35.29 35.54 37.22 36.85 35.35 35.15 35.75 32.71 33.62 28.37 31.56 31.96 36.59 40.16 41.14 43.32 44.47 44.55 44.82 45.11
39.77 37.88 39.76 37.43 39.52 38.23 38.86 37.09 37.35 38.57 39.02 37.82 37.61 38.55 38.02 34.03 35.12 32.60 35.96 36.00 35.11 38.85 36.18 35.78 29.16 34.15 31.29 35.33 35.17 32.49 34.02 33.91 33.79 34.03 33.69 34.09 34.14 39.61 42.49 43.56 43.53 44.38 45.26 45.60 47.10
43.79 43.55 41.96 39.89 38.03 35.64 35.35 38.74 38.99 39.69 40.94 41.50 39.82 38.48 36.71 37.74 40.20 40.20 39.65 39.14 37.96 35.90 33.54 31.98 30.43 27.20 24.26 31.43 31.44 25.76 31.64 33.72 35.53 37.15 36.12 32.12 36.72 41.98 41.46 41.45 41.51 42.84 43.44 44.31 45.51

GFSSW_sfc_wetblb_093.txt.gz
Wetbulb
53.57 53.73 53.44 53.84 54.24 53.86 53.98 53.82 53.94 53.96 54.12 54.41 55.05 55.59 55.76 56.05 55.03 50.38 44.47 49.94 53.75 60.17 60.38 49.06 47.43 45.89 47.72 44.49 46.29 45.44 36.58 34.86 38.60 40.71 42.73 45.67 45.65 48.88 51.07 50.46 51.82 54.68 55.79 57.65 57.51
53.16 53.21 53.37 53.62 53.62 53.93 53.70 53.70 53.73 53.83 54.07 54.39 54.69 55.27 55.62 55.86 49.91 47.35 53.43 59.05 60.66 63.01 51.07 47.36 43.27 45.96 41.93 43.19 43.72 40.74 35.45 37.53 42.36 43.16 43.18 44.77 45.01 46.53 48.23 48.31 48.93 50.64 54.33 57.61 57.50
52.83 52.99 52.94 53.15 53.43 53.54 53.73 53.41 53.34 53.88 54.09 54.34 54.14 54.67 55.29 54.35 46.35 50.37 62.80 60.88 63.79 63.13 47.87 48.59 49.38 48.20 39.81 40.32 40.73 39.43 37.56 41.09 42.97 44.81 45.26 44.88 45.12 47.31 46.97 45.90 47.88 48.81 51.49 54.96 55.81
53.37 53.03 53.16 53.29 53.08 52.93 52.99 53.51 53.33 53.60 53.83 54.10 54.12 54.43 55.53 50.08 40.06 50.19 65.02 62.53 64.65 53.71 49.56 50.91 48.32 40.63 35.32 37.75 40.10 36.49 42.03 42.64 43.95 45.34 43.67 44.28 46.49 45.57 46.51 47.08 49.97 51.19 53.17 55.22 54.96
52.75 52.86 52.94 52.94 52.91 52.87 52.59 52.78 53.38 53.55 53.65 53.87 53.89 54.31 49.87 42.94 45.77 52.20 65.08 63.78 56.85 51.73 49.43 48.63 45.29 42.62 39.01 38.30 39.44 37.66 40.26 42.67 44.45 43.83 43.18 45.37 44.18 44.51 45.23 48.41 49.69 52.79 53.69 53.64 53.08
52.96 52.70 52.52 52.86 52.89 52.86 52.78 52.79 53.37 54.31 53.63 53.78 53.81 54.91 47.44 35.64 45.71 57.24 56.92 55.92 51.94 49.46 50.76 49.42 46.61 44.93 39.77 38.73 37.76 40.55 40.44 41.45 42.28 42.51 41.95 41.97 43.63 43.66 45.62 48.20 48.82 48.88 49.10 50.44 53.53
52.82 52.69 52.57 52.50 52.53 52.69 52.71 53.70 54.50 54.33 53.85 54.39 54.74 53.77 46.45 39.68 51.53 56.36 53.82 49.82 50.94 52.35 50.22 51.04 48.52 43.44 41.68 39.49 40.70 40.75 37.50 39.73 39.58 40.98 41.19 42.96 41.31 42.43 45.83 47.35 47.12 47.44 48.28 49.13 51.35
52.71 52.52 52.33 53.10 52.61 53.29 53.76 54.15 54.29 54.44 54.93 55.24 55.72 50.53 42.12 49.43 50.97 49.87 51.68 51.62 52.25 51.55 51.13 50.54 46.62 42.58 39.94 40.26 40.15 36.75 34.75 31.09 37.84 40.87 42.51 41.68 35.95 43.26 45.78 45.19 45.27 45.87 47.04 48.63 49.71
53.04 52.48 52.38 52.65 53.02 53.15 53.33 53.91 54.58 55.16 56.04 56.99 48.91 46.07 43.05 55.62 52.89 51.97 51.97 50.58 51.76 51.80 50.67 52.75 44.95 41.02 40.74 34.97 32.18 32.88 28.88 31.45 36.37 40.76 41.05 40.18 36.79 42.32 44.66 43.85 43.71 44.58 45.20 47.00 47.19
53.68 52.86 52.27 52.46 53.00 53.62 53.69 53.81 53.68 53.66 54.75 54.76 52.63 44.38 48.29 49.38 51.61 52.10 51.16 51.86 50.41 48.66 46.04 44.38 40.08 36.78 34.42 32.37 27.27 30.10 30.92 33.62 34.35 39.18 39.49 38.19 37.58 40.81 43.21 42.88 43.30 43.17 43.82 44.80 46.40
53.60 53.00 52.67 52.19 52.52 52.84 50.23 47.86 45.35 44.86 48.12 46.07 47.42 46.08 49.99 55.17 53.17 48.40 49.80 49.19 48.51 44.56 38.27 40.31 35.32 32.59 36.15 37.21 38.44 36.95 34.93 34.44 38.14 41.46 38.90 37.87 37.90 39.82 41.88 41.59 41.66 42.77 42.88 43.67 44.76
53.41 52.94 52.52 52.46 51.84 51.89 46.85 44.94 48.72 46.30 42.43 49.06 50.14 49.46 52.31 54.26 50.01 52.34 50.02 44.52 43.06 38.38 39.29 36.40 33.09 39.07 40.66 40.43 38.65 37.29 35.27 35.00 38.42 40.90 38.37 37.98 37.30 39.66 40.74 41.02 41.83 42.98 43.43 43.69 43.57
53.21 52.98 52.88 52.63 51.83 48.33 46.62 49.35 52.70 49.22 41.08 45.07 49.34 49.12 49.89 51.71 48.46 49.76 48.62 45.52 41.09 37.97 37.28 34.43 38.33 42.75 41.07 39.16 37.89 36.99 34.88 35.35 36.08 39.01 38.89 36.39 34.40 37.38 40.51 41.44 43.20 43.67 44.20 44.38 44.31
52.99 52.76 52.54 51.68 47.05 46.57 46.56 52.10 51.01 48.80 35.65 41.58 45.44 48.88 50.20 50.28 45.35 53.64 50.68 46.63 41.40 38.45 38.27 36.64 41.32 40.26 38.78 37.99 38.64 33.36 39.45 39.30 38.03 34.42 29.57 36.58 29.82 33.75 37.91 39.05 40.98 42.32 42.23 43.00 43.80
52.60 52.88 51.92 51.46 42.14 44.67 50.45 49.83 49.53 49.05 27.50 46.64 45.83 51.77 49.61 46.15 46.29 46.82 50.18 45.92 40.84 40.45 39.43 37.57 38.32 38.06 37.26 38.84 40.37 37.13 41.04 38.57 38.02 33.32 29.09 31.86 27.14 31.76 36.82 36.57 39.68 40.58 41.94 43.04 43.72
52.30 52.34 51.40 48.04 46.04 47.82 51.13 49.45 49.04 38.30 29.71 43.99 45.03 43.95 42.95 44.69 44.73 46.48 46.82 47.38 46.27 40.01 39.36 40.18 42.20 41.04 40.57 42.64 41.66 42.21 38.34 35.90 32.32 29.72 25.04 31.60 30.22 31.76 33.50 37.25 38.60 41.17 43.16 44.89 45.34
51.84 51.22 49.44 48.38 42.31 47.41 48.78 48.28 36.99 31.78 44.56 42.17 42.30 43.73 42.29 41.68 42.65 43.24 42.16 39.72 38.02 32.06 32.70 39.35 39.70 41.56 42.99 38.18 40.58 37.86 30.73 24.02 23.21 23.41 26.72 33.52 29.98 32.80 37.05 40.28 41.13 41.17 43.15 44.19 44.10
50.22 49.53 48.92 48.41 46.73 48.97 49.35 43.17 32.96 39.69 41.15 45.43 43.79 43.92 41.02 41.71 41.87 42.60 39.91 36.64 40.49 37.86 32.69 31.18 31.81 40.15 44.13 39.54 36.47 36.17 34.23 27.36 21.58 21.50 27.49 33.82 27.57 32.50 40.01 42.29 42.91 44.01 43.98 44.64 44.08
48.64 44.06 46.68 49.57 49.55 48.55 45.40 35.57 36.40 41.95 42.74 41.76 42.56 38.56 38.28 41.34 40.19 39.57 37.85 37.98 39.85 39.16 33.01 31.34 33.21 42.96 43.97 44.23 41.89 37.32 33.56 36.92 31.15 29.71 26.32 28.74 33.07 38.83 41.25 41.37 42.84 43.30 43.90 43.14 43.92
43.90 43.87 48.48 50.02 49.93 49.01 39.72 35.93 41.14 44.42 44.96 43.49 36.39 39.19 34.61 37.65 38.44 38.51 37.39 42.64 42.49 43.56 40.81 36.42 30.15 39.60 42.21 44.10 43.96 40.43 41.42 30.48 30.11 26.06 23.47 27.31 29.41 30.00 35.35 37.85 40.88 41.54 41.53 43.01 43.87
42.30 43.62 50.56 52.76 51.04 44.14 34.89 38.35 43.02 46.53 46.08 42.56 39.79 37.84 37.80 35.68 37.21 37.30 38.66 42.42 44.71 43.21 42.92 38.11 33.24 34.40 39.23 37.86 36.90 37.33 35.48 36.82 35.50 32.65 27.67 25.75 27.08 34.98 36.90 38.08 39.23 40.76 42.75 43.67 44.05
40.32 38.73 48.59 51.66 42.71 40.17 38.57 41.15 43.84 44.14 46.18 44.25 44.21 42.10 39.45 38.46 36.46 37.02 37.87 40.43 43.90 42.89 38.91 41.36 36.60 31.11 34.87 40.66 43.07 40.86 37.07 37.04 31.33 29.71 32.62 30.86 27.14 39.89 38.66 40.66 42.01 42.39 45.03 46.20 46.78
36.18 38.03 49.11 48.41 35.76 34.93 39.18 40.70 42.80 42.03 42.40 42.61 41.21 41.46 40.32 36.45 33.29 36.64 38.80 42.49 43.52 41.53 39.89 39.43 33.96 28.42 30.41 35.01 39.20 36.75 38.19 37.15 35.55 33.36 26.55 25.05 26.58 40.11 39.73 40.85 40.79 40.52 42.75 45.08 47.07
38.13 35.95 38.79 41.48 39.87 37.11 35.89 37.50 37.99 44.09 43.03 43.05 41.65 42.00 38.60 36.09 38.24 34.38 35.72 41.33 42.32 41.65 45.27 41.98 35.72 33.54 29.03 32.16 36.01 33.95 36.19 37.41 35.49 29.95 28.56 29.16 30.71 34.89 37.16 38.43 40.01 41.91 44.63 45.86 46.75
37.31 33.82 36.95 31.61 35.45 36.76 38.36 38.27 37.03 37.64 41.68 42.44 39.62 39.04 37.24 33.30 33.69 34.06 37.89 37.88 40.48 42.55 40.58 38.36 31.33 33.05 34.65 35.49 35.67 35.32 34.71 34.68 32.16 32.23 27.53 30.50 30.35 33.25 37.95 38.76 40.97 42.58 44.89 45.67 46.07
36.25 34.96 37.94 35.94 37.83 36.43 36.88 35.54 36.34 39.16 38.25 37.58 37.23 38.43 37.53 35.92 35.82 33.34 35.65 35.57 34.54 38.78 36.75 36.20 28.74 33.55 30.68 34.19 33.56 31.44 34.03 33.81 33.22 32.59 30.88 31.91 31.61 38.47 41.32 41.93 41.37 42.17 42.43 43.03 43.59
39.67 39.27 39.74 38.83 37.54 35.71 33.63 37.44 36.64 38.17 39.50 41.20 39.74 37.15 36.00 38.00 40.10 39.07 39.36 38.75 37.33 35.67 33.96 32.03 29.74 28.22 25.45 31.01 30.81 25.72 30.50 32.68 32.88 36.15 34.85 29.86 34.90 41.15 40.07 39.09 39.50 40.50 42.02 41.46 42.40

GFSSW_sfc_wetblb_096.txt.gz
Wetbulb
53.03 53.27 53.29 53.29 53.29 53.53 53.84 53.63 53.68 53.63 53.64 53.93 54.01 54.69 55.14 55.38 54.97 48.97 43.13 48.69 52.67 58.47 59.83 48.04 46.31 44.88 46.97 43.42 44.41 43.66 36.69 35.28 38.77 39.39 40.88 44.89 42.86 46.62 48.91 47.59 49.14 51.71 53.47 56.04 56.92
53.15 53.09 53.03 53.17 53.43 53.28 53.30 53.41 53.19 53.14 53.36 53.65 53.98 54.08 54.83 54.70 49.00 45.66 52.56 57.03 62.02 61.92 49.05 47.46 41.92 43.08 40.83 41.40 42.22 40.23 35.05 38.05 41.79 42.47 41.51 43.63 42.58 44.29 45.99 46.70 46.26 48.55 51.13 55.42 58.65
53.19 53.45 53.23 53.17 53.15 52.90 52.77 52.96 53.26 53.05 53.56 53.71 53.94 54.09 54.73 53.64 43.51 49.09 61.08 59.76 61.52 62.37 47.65 46.54 48.30 46.07 39.13 39.26 39.45 37.41 36.72 39.81 42.16 43.78 44.18 43.22 44.23 45.70 44.74 43.37 46.04 46.90 48.71 51.59 54.79
52.83 53.16 53.34 53.22 53.15 52.92 52.68 52.64 52.77 53.46 53.63 53.73 53.92 54.00 55.07 49.06 37.89 49.12 64.95 61.32 63.08 55.73 47.93 48.39 47.11 38.67 34.83 36.30 39.18 35.40 40.75 41.02 41.54 43.27 41.74 42.17 44.33 43.24 45.30 46.32 48.35 49.13 50.04 52.12 52.47
52.96 52.91 52.78 52.66 52.83 52.74 52.68 52.53 52.61 53.24 53.51 53.74 53.60 53.78 48.98 39.31 42.23 53.14 63.34 63.83 54.74 49.59 46.88 48.13 44.62 41.52 37.79 36.41 38.14 35.70 38.58 41.03 42.76 42.00 41.51 42.82 42.27 42.39 42.94 46.92 48.20 48.30 49.47 52.98 52.68
53.25 53.01 52.64 52.64 52.56 52.51 52.40 52.34 52.38 53.17 53.32 53.39 53.24 54.01 45.64 32.58 42.89 55.36 58.33 53.27 50.52 48.46 49.27 48.28 45.32 44.37 39.06 37.47 36.98 39.75 38.75 39.51 40.86 40.96 40.83 40.72 41.68 42.39 44.50 47.39 47.19 47.39 47.20 47.02 52.47
53.82 53.10 52.79 52.45 52.88 52.89 53.30 53.66 54.07 54.09 53.56 53.75 53.83 53.23 44.89 38.00 49.57 54.03 53.54 48.96 50.32 49.90 48.92 49.63 48.20 42.21 40.60 37.44 39.11 38.88 35.63 37.70 39.30 40.12 40.32 41.21 40.30 40.62 44.53 46.37 45.98 46.21 46.66 47.34 48.13
54.62 53.68 52.94 52.85 53.08 53.43 53.29 53.68 54.05 54.27 54.39 54.32 55.39 49.35 41.30 47.77 50.10 50.35 50.29 49.21 50.43 50.14 49.32 49.43 45.15 41.07 38.55 38.80 38.68 35.41 33.40 30.33 37.10 39.42 41.18 40.31 35.41 42.09 43.36 42.97 43.57 44.98 45.48 46.27 47.00
54.72 54.07 53.12 52.98 53.12 53.41 53.90 53.81 54.40 55.02 55.44 56.74 47.99 43.77 43.42 54.68 51.73 53.11 50.87 48.21 50.42 50.56 49.56 52.72 43.75 39.20 39.31 34.29 31.30 31.56 27.74 29.03 34.71 38.45 38.78 38.11 34.79 41.39 43.58 42.82 42.49 42.73 43.51 44.56 45.22
54.60 53.93 53.74 53.04 52.98 52.88 52.62 53.64 54.70 54.69 54.82 54.04 52.29 42.31 46.51 47.20 51.87 51.52 49.98 50.77 49.08 48.11 44.74 42.99 38.75 35.38 32.88 31.91 26.10 27.99 28.88 31.92 32.67 37.79 37.18 36.07 36.19 39.80 42.30 41.51 41.89 42.03 42.71 42.96 44.16
54.25 53.89 53.68 53.70 53.23 52.39 49.17 47.08 44.17 42.46 47.11 44.68 45.23 43.67 47.99 53.26 53.51 47.59 50.13 48.88 47.74 43.29 37.19 38.55 34.57 31.72 34.76 35.65 36.57 35.13 33.03 32.82 36.12 40.36 37.05 36.41 36.56 39.09 41.14 40.22 40.55 41.46 42.23 43.24 43.92
53.56 53.60 53.62 53.58 53.04 52.41 46.26 44.13 46.90 46.72 41.23 48.12 48.55 47.88 50.49 52.06 47.48 50.14 48.74 43.60 41.72 37.02 37.93 35.54 32.21 37.49 38.83 38.27 36.82 35.44 33.07 32.70 36.72 39.45 36.72 36.15 35.74 38.62 39.35 40.03 41.17 41.78 42.46 43.16 43.25
52.92 53.09 53.49 53.21 52.00 47.67 45.44 47.96 50.89 47.57 40.10 43.95 47.66 47.36 47.86 49.91 46.18 47.72 46.30 43.51 40.00 36.64 35.94 33.67 37.18 40.68 39.19 37.35 35.97 34.52 32.74 33.49 34.50 37.76 36.72 34.98 32.62 35.69 39.79 40.05 41.86 42.38 42.72 43.12 43.40
52.65 52.61 52.77 52.05 46.64 45.99 45.44 51.06 49.27 47.59 35.21 39.82 43.83 47.52 49.22 49.18 45.08 51.98 48.25 45.11 39.62 37.66 37.10 35.55 39.49 38.88 36.72 36.04 36.31 31.87 37.94 38.36 36.70 32.77 28.79 34.88 28.73 33.66 36.33 38.41 39.81 41.06 40.90 41.69 43.11
52.24 52.34 52.17 51.33 44.55 43.91 48.62 49.22 48.84 48.26 26.83 43.83 44.47 50.57 48.94 45.86 45.52 46.01 49.14 44.89 39.78 38.96 38.16 36.23 36.39 35.51 35.56 37.47 38.81 35.70 39.04 37.19 36.49 32.32 27.86 30.60 26.93 30.10 34.46 35.50 38.12 40.14 41.28 41.97 42.81
52.01 52.11 51.50 47.74 46.76 46.96 48.87 49.10 49.68 38.56 28.71 42.60 44.21 43.51 43.68 45.10 44.88 45.13 45.47 46.44 44.88 39.38 37.68 38.57 40.49 39.62 38.73 41.04 40.48 40.83 36.92 33.89 30.34 28.30 23.24 30.13 29.08 29.82 32.62 36.29 38.34 40.94 41.45 42.54 43.18
51.53 51.39 49.46 48.49 43.27 46.89 46.92 48.34 37.31 33.09 43.64 40.57 41.89 43.66 41.68 40.87 42.38 42.45 40.98 39.00 36.80 31.76 32.06 37.61 38.89 40.39 41.57 37.56 40.76 37.02 30.32 23.64 22.69 23.12 26.45 32.38 28.26 31.16 36.54 39.61 39.77 39.85 41.44 43.43 44.38
50.23 49.55 47.92 48.03 47.68 47.26 48.45 43.11 32.50 39.29 38.34 44.37 43.23 43.14 39.65 41.20 40.83 42.18 40.08 36.81 39.67 36.84 32.46 30.29 31.13 39.22 42.51 39.37 35.71 34.62 32.48 25.30 20.78 20.46 26.37 31.98 26.52 32.02 38.61 41.20 42.41 44.08 43.51 43.92 43.52
48.62 42.25 45.07 48.94 49.59 47.80 45.34 35.27 35.59 39.60 42.69 41.06 41.86 37.83 37.87 40.68 40.33 40.14 38.44 38.33 40.25 38.50 32.74 30.29 31.82 41.58 43.26 43.59 41.25 37.33 32.99 36.93 30.30 27.55 24.11 28.39 31.46 37.76 39.91 40.85 41.96 42.42 43.41 42.50 43.35
41.53 41.11 47.67 48.98 49.87 47.68 38.67 35.40 40.48 44.10 44.82 43.70 36.50 39.08 34.62 36.97 37.69 37.56 38.03 42.62 42.11 43.37 40.90 36.18 29.97 38.46 41.51 42.67 42.95 39.84 40.99 31.48 31.77 25.19 22.07 25.72 27.92 29.90 35.51 37.47 39.96 40.32 40.65 41.34 43.28
39.65 42.76 47.35 49.99 50.16 44.07 35.10 37.98 42.64 45.80 45.35 42.01 39.76 38.39 38.75 37.32 37.29 37.47 38.25 41.70 42.59 41.93 41.49 38.71 34.31 34.82 39.72 36.80 36.10 36.67 35.25 35.75 34.97 32.91 26.49 25.41 26.55 35.50 35.42 37.06 38.88 39.15 40.42 40.13 41.77
37.87 36.81 46.72 48.71 41.53 38.74 36.26 39.97 42.99 43.22 45.59 43.97 43.41 41.48 39.64 39.51 36.69 36.93 36.97 40.34 43.61 42.27 38.02 39.18 36.32 32.21 33.51 41.00 43.34 41.15 37.62 36.79 31.27 29.91 33.75 31.62 27.59 38.19 38.09 40.38 39.58 39.86 41.51 41.89 42.99
35.61 36.01 46.19 46.11 34.78 33.54 37.87 39.90 42.05 41.02 41.61 41.94 41.01 41.40 40.08 36.74 33.59 36.30 37.69 41.64 42.44 40.43 38.29 38.47 33.75 27.81 29.93 33.84 39.43 36.77 37.91 37.71 36.70 33.99 28.58 24.97 27.11 38.51 39.34 39.08 39.66 38.06 40.92 42.59 44.35
36.65 33.09 36.91 38.20 37.61 35.02 34.40 36.34 37.31 43.46 41.43 41.67 41.01 41.39 38.33 35.78 37.97 34.70 36.02 40.66 42.67 41.15 44.26 41.22 35.65 31.24 27.12 32.30 35.48 33.19 35.79 37.16 35.70 30.01 28.98 29.76 31.33 35.50 35.72 38.16 39.67 40.87 42.07 42.51 43.88
36.54 32.58 35.39 30.41 34.11 34.05 33.97 36.20 36.04 36.60 40.34 40.74 38.72 38.79 37.00 34.53 34.08 33.39 36.67 37.96 39.76 41.87 40.22 38.22 32.36 34.26 35.09 34.47 35.42 33.55 32.57 34.02 32.40 33.53 27.82 30.78 30.23 34.11 37.63 38.62 40.27 41.55 42.27 42.04 42.90
35.94 34.68 36.46 33.75 38.65 36.74 34.27 32.65 35.41 37.67 37.67 36.35 35.78 38.76 37.47 34.40 34.76 33.88 35.71 35.30 34.91 36.71 35.51 37.78 30.21 32.94 29.61 33.30 32.87 30.78 33.48 33.64 33.53 33.05 32.10 32.25 30.85 38.62 39.74 40.17 39.16 39.73 40.05 39.17 40.31
37.94 37.58 37.17 35.66 37.38 35.18 35.47 36.62 35.70 37.23 37.79 40.03 39.15 37.04 34.72 36.35 38.70 38.83 38.77 38.26 36.72 33.78 31.58 30.67 30.89 27.51 24.72 31.20 29.92 26.03 30.85 32.11 33.01 35.00 34.12 30.06 34.09 36.64 35.37 35.97 36.97 37.83 37.86 37.91 39.28

GFSSW_sfc_wetblb_099.txt.gz
Wetbulb
54.04 53.94 53.41 53.14 53.29 53.26 53.65 53.88 53.51 53.70 53.50 53.54 53.75 53.91 54.53 55.10 54.23 51.59 46.12 51.80 55.06 58.90 58.83 51.50 49.84 50.22 51.54 49.32 50.57 49.73 45.55 42.57 43.46 43.94 45.97 50.15 48.82 51.27 52.62 50.80 52.03 53.81 54.02 56.15 60.62
53.52 53.77 53.82 53.73 53.65 53.19 53.19 53.11 53.53 53.12 53.03 53.38 54.09 54.09 54.18 54.38 50.95 47.19 53.91 56.26 61.17 60.65 53.40 51.52 46.20 48.19 48.77 47.98 48.73 47.86 44.63 44.24 47.18 48.16 47.15 47.98 48.36 48.63 49.34 50.16 50.26 52.08 54.68 55.68 60.68
53.08 53.19 53.55 53.72 53.43 53.24 52.94 52.77 52.95 53.19 53.38 53.58 53.73 53.56 53.90 54.01 47.06 51.96 60.76 58.69 61.36 61.97 52.80 50.61 50.88 49.60 47.08 47.78 46.69 45.57 44.24 46.03 47.05 48.66 49.08 47.77 47.98 49.01 47.94 47.60 49.61 49.90 52.75 54.36 55.38
53.25 53.40 53.08 53.17 53.25 53.23 52.92 52.74 52.54 53.17 53.61 53.69 53.65 53.54 53.83 51.30 43.13 51.38 65.28 60.79 61.62 58.54 51.00 52.32 52.26 47.15 45.76 45.16 46.51 43.62 46.10 46.74 46.78 47.37 47.04 46.28 47.94 47.18 48.28 49.58 52.31 51.89 53.04 53.57 55.62
53.90 53.64 53.14 52.66 52.81 52.68 52.65 52.45 52.51 52.80 53.01 53.49 53.39 53.06 51.67 45.18 45.09 59.84 63.56 61.74 60.18 51.84 50.67 52.39 50.20 47.37 44.04 44.13 44.82 43.99 44.84 45.46 46.71 46.59 46.28 46.93 46.30 46.73 47.63 51.01 52.19 52.18 52.00 53.66 55.78
54.33 53.83 53.00 52.54 52.47 52.63 52.50 52.19 52.48 52.23 53.34 53.14 52.96 53.25 49.98 38.83 48.51 60.69 60.99 56.42 53.06 51.23 50.87 53.23 50.70 49.85 46.76 45.34 45.11 45.79 45.21 46.02 46.30 46.55 46.15 45.53 46.96 46.78 49.11 51.51 51.55 51.70 52.09 52.30 53.29
54.54 53.96 53.15 52.92 52.73 53.02 53.25 52.63 52.91 53.58 53.42 53.24 53.19 53.30 47.82 42.82 52.84 58.44 57.77 52.74 52.98 53.39 51.79 53.73 52.88 47.83 47.32 44.57 46.01 45.16 42.88 44.37 45.87 47.06 46.62 46.97 45.23 45.28 49.57 50.16 50.68 51.18 51.77 52.31 53.34
54.82 54.45 53.51 53.68 53.51 53.27 53.23 53.86 54.02 53.64 53.87 53.63 54.60 53.14 45.80 51.20 53.80 55.79 55.68 52.56 53.24 53.66 53.29 53.41 50.64 48.03 46.59 46.42 43.82 42.48 41.77 40.41 44.28 44.39 45.55 45.98 41.96 46.91 48.79 48.59 48.86 49.82 50.60 51.09 53.00
54.66 54.41 53.86 54.09 53.68 53.56 53.12 53.16 53.61 54.22 54.87 55.35 52.42 49.67 45.97 56.96 52.74 54.89 55.00 50.46 52.23 52.84 53.28 53.39 49.78 45.77 45.68 43.03 41.21 40.42 38.17 38.34 40.39 44.89 43.78 44.29 42.13 47.81 48.92 48.31 49.13 49.97 50.42 50.74 52.34
54.37 54.00 53.86 53.88 53.76 53.31 52.32 53.55 54.93 55.29 55.61 54.65 53.10 46.97 49.99 49.57 53.70 53.17 53.74 53.17 51.78 51.45 48.32 48.07 46.79 44.67 42.94 41.65 35.45 36.59 36.83 38.64 39.63 44.24 44.98 44.18 44.09 47.24 49.21 48.70 48.82 49.81 50.44 51.16 52.11
53.99 53.76 53.43 53.80 53.82 52.92 51.42 52.32 49.21 47.67 51.53 49.60 49.16 45.61 49.08 53.90 54.85 51.75 52.31 51.25 50.80 48.49 44.51 44.42 42.95 40.21 41.99 42.83 42.19 40.61 39.49 39.18 41.99 44.96 42.46 43.57 43.86 46.00 48.79 48.63 48.62 49.47 50.78 51.64 52.68
53.06 53.30 53.47 53.55 53.28 52.18 50.36 48.69 51.13 51.98 45.93 50.16 50.80 49.77 51.71 52.85 48.07 50.48 52.76 48.30 46.98 43.35 43.68 42.61 40.09 44.31 43.98 42.48 40.98 40.58 39.39 39.60 42.44 44.24 42.95 43.86 43.19 45.93 47.33 47.82 48.96 49.33 50.49 51.53 52.82
52.44 52.73 53.06 53.00 52.35 49.94 48.60 50.90 53.99 53.07 46.33 46.85 49.08 49.09 50.33 51.96 47.82 48.92 50.16 47.64 44.67 42.29 42.19 41.00 42.59 43.31 42.17 41.60 40.04 40.72 39.49 39.66 39.85 43.56 43.52 42.34 41.33 43.95 46.55 47.00 48.56 49.69 50.94 51.71 51.47
52.06 52.26 52.32 52.03 48.33 48.62 48.08 52.89 52.96 52.63 41.86 43.22 45.91 49.24 50.66 50.94 46.64 52.85 50.24 48.31 44.40 42.16 42.16 41.89 45.09 42.16 41.65 40.47 41.74 38.35 42.99 41.87 41.07 39.81 36.49 41.82 34.08 42.02 44.97 45.67 47.53 49.05 50.50 50.86 51.79
51.63 52.06 51.94 50.99 48.59 46.09 50.93 51.90 52.02 51.99 31.59 45.70 46.24 53.60 51.29 48.41 48.11 49.12 51.19 48.13 43.46 42.51 42.66 40.96 41.40 40.47 40.24 41.52 42.39 40.64 42.99 42.07 41.69 40.11 39.09 39.67 36.58 40.70 43.15 42.81 45.94 48.66 50.20 51.19 50.97
51.36 51.73 51.18 49.02 48.71 49.52 51.17 51.05 52.35 40.89 30.94 43.52 46.61 44.95 44.85 47.43 47.23 48.17 49.38 50.43 48.24 43.75 43.00 43.37 45.19 43.79 43.76 43.88 43.95 44.55 42.90 42.67 39.79 38.68 32.94 38.66 37.44 38.71 42.09 44.16 46.56 48.06 48.82 50.10 51.33
51.34 51.21 49.56 49.86 47.11 49.80 50.76 51.83 39.57 34.03 44.78 40.97 42.12 44.76 44.17 43.27 44.80 45.80 44.01 44.17 42.42 38.32 38.62 42.41 42.72 45.12 44.84 42.34 45.18 43.41 40.27 33.95 32.60 32.98 32.16 40.90 37.73 39.83 44.69 46.46 47.03 47.09 49.04 50.64 51.33
49.94 48.96 49.56 49.93 50.87 51.08 52.36 46.37 32.76 39.19 39.70 44.61 43.38 43.42 40.10 42.56 42.46 43.04 41.64 40.54 43.31 42.41 39.52 36.53 35.17 41.51 44.73 43.17 41.77 41.72 40.59 34.66 28.18 30.49 33.93 39.85 34.31 40.03 46.23 47.13 47.87 48.49 49.25 49.68 49.95
48.26 48.31 50.99 51.09 52.34 51.67 49.49 37.89 35.99 39.43 42.92 41.71 42.43 38.42 39.10 41.74 41.50 42.26 41.31 40.41 42.61 42.57 37.49 36.90 36.38 43.80 44.80 45.23 43.57 41.49 37.65 43.02 36.84 38.05 32.93 36.49 40.43 44.11 46.14 45.79 46.71 47.32 47.97 48.07 48.98
45.98 47.62 50.39 52.36 52.99 51.38 43.85 37.33 40.87 44.17 44.89 44.51 37.09 40.64 36.60 39.54 39.07 40.13 39.52 44.04 42.24 45.08 45.03 41.83 35.43 42.37 44.07 45.38 45.80 42.85 44.15 36.05 37.23 28.41 27.43 34.58 35.87 37.12 42.38 43.45 45.10 46.03 46.44 47.36 48.96
46.40 48.81 51.72 51.54 52.80 48.34 39.90 40.02 43.01 46.56 46.18 42.17 39.99 38.92 39.40 38.51 39.62 39.23 39.21 43.14 44.04 43.29 45.04 42.58 38.72 38.54 41.88 40.02 39.46 40.93 39.11 39.80 38.42 36.47 29.94 29.25 34.90 43.55 42.98 43.53 43.33 44.58 45.94 47.45 48.96
44.64 44.11 51.39 51.68 45.73 42.65 40.54 40.46 42.60 43.54 46.00 44.28 44.72 42.52 40.57 40.69 38.60 37.76 37.60 40.87 45.30 43.70 38.86 41.90 39.18 34.32 36.76 43.31 44.78 42.50 39.94 39.66 34.25 33.08 34.57 34.55 34.37 44.34 44.35 44.15 44.87 45.11 46.94 48.62 48.97
42.25 42.74 50.47 50.04 40.17 38.94 41.18 41.15 42.77 42.20 42.47 42.27 41.21 42.53 41.92 38.61 35.80 38.45 38.68 43.01 43.75 41.64 39.55 40.83 36.42 31.37 33.72 38.38 41.34 38.53 40.42 39.89 38.57 35.43 32.87 31.00 35.09 43.84 44.76 44.73 45.57 45.41 46.91 47.25 47.73
42.95 40.79 43.92 44.65 42.71 39.44 37.38 38.48 39.05 43.78 41.79 42.44 41.58 42.46 39.98 38.24 40.21 37.11 37.52 41.52 43.24 42.58 43.72 41.82 37.45 34.48 30.42 33.70 37.43 34.92 36.87 37.92 35.54 32.74 33.05 33.35 35.40 39.69 41.46 41.57 43.84 45.59 46.36 46.56 46.01
42.02 38.33 40.30 36.38 37.97 38.38 38.08 38.05 37.04 37.15 42.11 42.20 39.61 39.26 38.23 34.65 34.95 34.99 38.05 39.09 41.10 41.96 41.79 39.16 33.24 34.73 35.37 36.34 36.68 34.52 34.44 35.34 33.05 34.09 30.14 33.34 33.97 37.82 40.71 42.05 43.77 45.01 45.11 44.54 44.45
42.28 41.13 41.51 39.45 39.52 37.89 37.34 36.79 36.17 37.89 37.90 37.31 36.83 38.78 38.52 35.17 36.10 35.01 36.66 36.82 36.12 39.70 39.06 40.83 33.15 34.79 32.18 35.38 35.17 32.65 34.76 35.16 35.04 35.35 35.17 35.65 35.25 42.36 43.15 43.57 42.98 42.98 43.11 42.99 43.89
43.07 43.42 42.55 37.87 38.12 37.22 36.90 37.11 36.66 38.28 39.25 40.73 40.09 37.78 35.70 37.72 40.66 40.65 40.17 39.99 40.67 37.78 36.50 36.11 34.44 31.45 27.86 33.71 33.28 29.99 34.84 35.63 36.35 37.64 37.03 33.64 39.73 42.87 42.25 42.39 42.08 41.88 42.39 42.29 42.78

GFSSW_sfc_wetblb_102.txt.gz
Wetbulb
54.15 54.33 54.39 54.09 54.05 53.99 53.71 53.71 53.96 54.00 53.54 53.74 53.89 54.69 54.80 54.93 55.15 55.34 50.17 54.64 56.37 59.73 59.42 55.27 53.98 54.00 54.27 53.08 54.61 54.72 48.16 45.62 46.42 47.12 47.70 52.31 51.06 53.89 54.45 53.15 54.43 56.39 56.71 57.82 59.24
53.80 53.86 54.12 54.19 54.20 53.78 53.69 53.53 53.47 53.66 53.69 53.36 53.75 54.00 54.32 54.01 54.49 51.77 58.20 56.68 60.20 61.41 56.41 52.61 50.60 52.61 51.57 51.79 52.53 50.95 47.95 47.85 50.14 50.36 49.51 50.68 50.47 51.36 51.07 51.56 52.75 54.88 57.58 58.06 58.42
54.83 54.30 53.95 53.78 53.92 53.81 53.67 53.37 53.32 53.14 53.55 54.05 54.27 54.02 53.86 55.14 51.99 53.64 60.50 58.81 61.77 61.85 56.58 55.35 52.83 51.65 49.70 51.38 50.96 50.47 47.98 50.46 50.42 51.16 51.46 50.21 49.79 51.97 49.77 49.84 52.50 52.95 55.57 56.93 57.66
55.17 54.67 53.70 53.51 53.56 53.68 53.41 53.36 53.10 53.30 53.58 53.85 54.04 53.72 53.91 54.97 45.69 56.15 64.32 60.53 62.84 59.29 54.57 53.07 51.12 49.74 49.04 47.70 50.81 47.10 50.15 50.52 50.58 50.88 50.48 49.70 51.16 49.78 50.96 51.44 53.88 53.69 55.05 56.34 56.89
54.69 54.25 53.44 53.01 53.17 52.80 52.85 52.85 52.83 52.99 53.14 53.70 53.71 53.20 54.43 50.05 48.04 62.13 63.74 61.49 61.47 57.09 51.95 52.11 51.23 50.15 47.76 49.20 49.48 47.64 49.00 49.42 50.33 49.96 49.86 50.54 49.14 49.76 50.32 53.06 54.34 54.59 54.75 55.60 55.64
54.85 54.69 53.80 53.96 52.98 53.13 52.72 52.93 52.52 52.63 53.15 53.66 53.40 53.31 52.83 44.05 52.79 61.33 58.54 60.79 59.31 56.06 51.99 54.51 52.10 52.05 49.51 48.22 48.06 49.63 49.24 49.18 49.84 50.14 50.33 48.75 49.59 49.61 51.29 53.60 53.47 53.76 54.38 55.15 55.59
55.29 54.72 54.34 54.28 54.24 53.59 53.20 53.35 52.98 52.77 53.96 53.58 53.38 55.07 50.97 47.33 54.60 61.21 59.57 57.64 55.89 53.53 54.28 55.34 53.84 50.97 50.71 48.15 50.12 48.93 46.46 48.79 49.38 50.07 49.54 50.69 47.65 48.01 51.95 52.71 52.62 53.24 54.08 54.55 55.47
54.99 54.80 54.29 54.42 54.52 54.22 53.85 53.68 53.27 53.66 53.86 53.75 54.43 55.67 50.20 53.05 54.82 58.26 59.68 54.44 55.04 56.73 56.01 55.78 54.19 51.53 50.37 50.58 48.11 46.48 46.73 44.38 48.55 48.04 48.90 48.42 44.50 49.57 51.79 51.78 51.62 52.22 53.05 53.56 54.94
54.54 54.31 54.25 54.03 54.33 54.42 53.76 53.01 53.61 53.83 54.59 55.05 55.29 53.81 49.40 57.18 52.48 55.73 59.73 53.07 53.79 54.48 55.39 55.00 53.77 50.42 49.40 46.65 45.29 46.22 42.28 43.75 44.73 47.72 47.28 46.71 45.02 49.37 51.83 51.76 51.50 52.81 53.41 53.56 54.64
53.87 53.73 53.86 53.86 53.86 53.96 53.08 54.94 54.60 55.45 56.90 56.92 55.56 51.03 54.59 49.77 52.47 55.11 58.97 54.91 53.14 52.68 52.45 52.03 51.01 47.69 47.36 45.51 40.18 42.06 42.29 42.90 42.55 46.73 47.30 46.33 46.32 49.06 51.27 51.46 51.93 52.59 53.23 53.75 54.38
53.35 53.14 53.45 53.53 53.67 53.30 52.67 56.59 54.50 53.17 54.86 52.63 52.71 51.12 51.56 55.42 57.02 54.36 56.70 54.38 53.95 52.22 46.87 49.56 45.91 43.91 45.83 46.41 45.79 44.08 42.94 42.88 45.59 47.83 46.58 46.55 46.96 48.82 51.07 51.47 51.41 52.19 52.96 53.57 54.52
52.62 52.85 53.12 53.38 53.36 52.24 53.51 53.02 54.43 54.83 49.34 54.49 54.16 53.85 54.68 54.93 50.66 52.76 56.22 50.88 49.97 46.77 49.08 46.51 43.37 47.16 47.62 46.65 44.64 44.08 43.06 43.45 46.22 47.72 46.74 46.63 46.40 49.23 50.48 51.12 51.86 52.18 52.88 53.58 54.52
51.87 52.02 52.50 52.81 52.28 52.12 52.93 54.05 57.41 56.63 49.85 49.77 52.06 51.64 52.74 54.39 50.89 51.84 53.38 51.63 48.66 46.87 46.81 44.71 45.66 46.63 46.08 45.11 43.61 44.11 43.04 43.64 43.69 46.32 47.67 46.30 44.76 47.08 49.79 51.28 51.82 52.67 53.52 54.10 54.41
51.51 51.70 52.06 51.68 50.59 55.40 52.66 56.53 57.55 55.91 44.48 45.77 48.57 51.44 52.45 53.33 49.45 54.77 54.17 51.71 48.10 45.76 46.90 45.76 48.02 46.00 45.09 43.83 45.01 41.93 46.02 45.12 44.17 43.38 40.26 46.84 38.59 45.73 48.21 49.13 50.60 52.06 53.00 53.67 54.57
51.45 51.73 51.81 50.60 53.40 53.14 55.33 58.14 58.01 55.17 34.75 48.43 48.61 55.42 52.43 49.20 50.83 51.20 54.89 51.14 46.68 45.79 46.06 43.87 44.81 44.11 43.87 44.56 46.17 43.52 46.41 45.06 44.81 43.64 43.60 43.71 41.61 44.90 49.07 46.86 48.93 51.36 52.74 53.95 54.98
51.46 51.82 50.97 52.23 53.62 54.79 56.72 56.41 56.82 44.78 33.52 44.44 48.16 46.90 46.56 49.29 48.04 50.34 50.89 52.11 51.02 47.09 47.16 46.40 49.36 47.05 46.93 46.85 46.85 47.58 45.81 46.14 46.35 44.55 38.27 42.97 42.37 42.93 46.01 48.25 50.17 52.06 52.39 52.92 54.30
51.37 50.77 51.46 55.22 51.87 55.51 56.16 55.31 44.75 39.48 46.40 42.82 43.93 45.77 45.77 44.61 46.04 47.03 46.86 46.11 43.59 41.18 42.26 45.66 46.15 48.53 48.31 45.17 48.04 46.63 44.04 38.08 37.52 38.49 37.67 45.45 42.89 44.50 48.59 50.14 50.65 50.94 51.81 53.68 53.65
49.93 49.44 51.45 55.64 57.20 56.01 55.82 49.73 37.97 41.57 42.49 46.36 45.90 45.30 41.88 44.72 44.43 44.94 43.41 42.72 46.91 45.48 42.85 39.80 38.15 45.26 47.59 46.26 44.55 45.73 45.22 39.48 32.62 34.01 38.48 44.87 40.08 44.40 49.16 50.35 51.27 52.02 52.92 52.97 53.04
48.71 56.99 57.18 56.79 58.19 58.40 53.11 42.46 42.77 43.04 44.65 42.88 43.84 40.70 41.81 44.24 45.29 44.92 44.17 43.15 44.52 46.19 40.20 39.93 40.23 46.26 46.29 47.52 46.86 44.74 42.48 46.49 40.43 41.93 38.18 41.25 44.98 48.52 50.09 49.85 50.33 50.91 50.93 51.51 52.72
52.49 55.91 54.59 57.35 58.69 56.76 48.59 41.28 44.18 46.97 46.64 45.80 39.62 41.53 38.30 40.67 40.77 42.04 41.49 45.45 44.14 45.94 47.38 43.30 37.07 45.97 47.62 48.57 47.78 45.04 47.31 39.48 40.53 32.20 31.39 38.81 39.99 41.69 45.08 46.24 48.71 49.36 49.22 50.70 52.45
53.47 53.35 55.29 57.89 58.50 52.88 45.67 45.10 45.48 48.26 47.87 44.22 42.44 41.59 41.97 41.42 42.60 41.54 41.49 45.38 46.70 44.99 45.97 44.08 40.89 41.67 45.19 42.71 41.26 42.75 41.47 42.36 41.56 40.02 33.22 32.85 38.38 46.95 46.59 48.00 47.97 48.46 49.76 50.99 51.65
52.71 49.30 55.70 57.75 50.87 51.66 48.02 44.98 43.94 46.20 48.24 46.65 46.78 45.25 43.16 42.89 41.28 40.77 40.77 44.11 47.60 46.32 41.83 44.74 40.92 36.87 40.62 46.92 47.93 45.88 43.23 42.22 35.94 36.36 40.02 37.78 37.79 49.22 49.18 48.72 48.80 49.41 50.23 51.16 51.66
50.45 50.50 56.11 56.02 47.14 47.94 46.56 45.05 45.82 44.97 45.36 44.77 44.04 45.05 45.53 42.83 38.06 41.89 42.80 46.00 45.86 44.72 41.25 43.35 38.43 34.23 37.12 42.25 44.92 41.88 43.65 43.63 42.37 38.43 34.82 33.92 37.85 47.45 47.34 48.30 49.06 48.13 49.10 50.17 51.11
50.43 46.82 49.65 51.37 50.22 45.95 43.85 43.77 43.23 46.09 44.92 45.62 45.22 45.62 43.08 40.54 42.94 38.57 41.00 43.35 45.26 44.65 44.38 43.11 40.10 37.95 33.01 37.44 40.58 37.52 40.00 42.21 40.35 33.85 35.50 36.94 40.17 44.26 45.85 45.51 46.70 48.14 49.93 50.48 50.63
49.35 44.59 45.40 43.85 44.26 44.18 44.13 42.63 40.80 40.69 44.90 45.41 42.70 42.17 40.62 37.43 37.78 37.46 39.65 40.74 42.58 44.22 43.33 41.76 34.51 38.34 38.50 39.54 39.31 38.39 38.49 40.20 38.05 38.32 34.35 38.33 38.96 42.82 44.12 45.49 47.28 48.92 49.47 49.14 49.07
47.75 46.04 48.15 46.19 43.47 43.12 40.30 40.81 39.53 40.50 41.23 40.83 40.34 40.90 40.53 36.62 37.32 37.03 38.88 40.24 39.32 42.09 41.44 41.68 36.17 37.76 35.53 39.10 38.19 36.19 38.99 39.44 39.56 39.41 39.91 40.21 39.11 45.04 47.00 48.20 47.85 48.42 48.31 47.28 47.74
51.40 50.57 47.52 40.86 42.60 42.86 42.96 40.39 39.87 41.61 42.88 43.37 41.82 39.86 39.69 40.66 43.63 44.03 44.56 44.67 42.99 39.54 38.87 38.94 37.50 34.63 32.10 37.45 37.07 33.77 38.89 40.08 40.81 42.01 40.66 37.28 42.28 46.56 46.12 45.54 46.93 47.35 47.18 47.20 47.91

GFSSW_sfc_wetblb_105.txt.gz
Wetbulb
55.08 54.60 54.73 55.02 54.83 54.74 54.29 54.23 54.39 54.33 54.38 54.23 54.27 54.67 55.01 55.38 54.91 55.92 52.11 57.22 58.88 60.64 59.76 56.56 55.77 54.62 55.05 54.27 55.76 55.67 49.57 45.96 47.87 48.45 50.24 54.23 52.39 56.42 57.80 55.55 56.75 58.48 59.57 61.76 60.91
56.03 55.36 54.51 54.51 54.65 54.51 54.11 54.15 54.15 54.11 54.03 54.31 54.27 54.54 54.72 54.83 54.77 52.63 61.11 60.76 60.95 61.82 55.86 54.06 52.41 53.30 52.26 52.63 53.72 51.84 48.60 48.48 51.35 51.81 50.92 52.47 52.46 53.89 52.87 53.37 54.50 56.04 58.91 61.00 61.23
55.50 55.27 54.71 54.49 54.34 54.43 54.11 53.84 53.99 53.76 53.79 54.33 54.66 54.69 54.75 55.26 54.02 53.38 63.37 62.27 61.42 62.05 57.11 55.51 54.33 53.39 51.25 52.75 52.26 51.88 48.59 51.91 51.72 52.59 52.94 51.91 51.80 52.97 51.61 49.93 53.38 54.39 57.26 59.82 60.38
55.81 55.20 54.60 54.09 53.98 53.89 53.72 53.70 53.56 53.70 53.97 54.44 54.91 54.73 54.47 55.99 48.44 61.33 61.58 61.64 62.67 58.06 58.28 55.46 53.28 50.44 50.05 49.72 52.60 49.15 51.72 52.08 52.36 53.09 52.09 51.22 53.07 51.48 52.08 52.53 54.37 54.86 56.50 57.18 58.63
55.21 55.41 55.07 54.41 54.20 53.87 53.49 53.47 53.36 53.35 53.64 53.81 54.39 54.41 54.69 52.62 51.64 64.85 63.28 61.92 59.05 59.02 54.16 53.44 51.44 51.45 49.39 50.96 51.36 50.01 51.11 52.02 52.51 52.43 52.01 52.42 50.80 50.96 51.58 54.13 55.54 55.81 55.48 55.86 57.25
55.25 55.15 55.03 54.93 54.70 54.51 53.87 53.85 53.38 53.14 53.23 54.09 54.26 53.99 53.99 47.76 55.20 62.64 58.38 58.36 57.01 58.18 54.67 53.95 53.24 54.01 51.47 51.10 50.63 51.87 51.12 51.27 51.58 51.41 51.77 50.21 50.58 51.49 52.58 54.81 54.58 55.24 55.29 56.18 57.70
55.12 55.18 54.76 54.83 54.74 54.66 54.81 54.37 54.23 53.18 53.80 54.64 54.67 55.61 53.63 51.25 54.69 61.95 59.20 58.77 60.49 57.97 52.17 55.49 56.09 52.94 52.87 50.39 52.45 51.29 48.60 50.24 50.73 51.25 50.73 52.06 48.79 49.40 53.24 54.59 54.04 54.54 55.34 56.30 57.16
54.64 54.47 54.41 54.37 54.60 54.67 54.92 54.58 54.24 54.12 54.52 55.04 54.79 57.25 53.16 55.64 55.54 59.20 59.64 57.60 56.92 56.09 56.92 57.25 56.45 53.81 52.45 53.23 50.41 48.58 48.97 45.55 50.06 50.90 51.20 50.66 45.72 51.20 54.09 53.50 53.10 53.84 54.52 55.24 56.65
54.05 53.77 53.89 53.88 54.09 54.45 54.26 53.73 54.12 54.36 55.11 55.72 55.85 56.65 53.97 56.09 51.17 56.70 60.47 54.19 54.21 56.87 57.37 56.11 55.05 51.92 51.70 48.20 46.90 47.87 43.84 45.85 47.26 51.01 49.50 48.65 46.74 50.89 53.33 53.18 52.96 53.89 54.36 54.87 55.79
53.60 53.26 53.27 53.58 53.59 53.87 53.89 53.87 55.49 54.29 55.88 59.01 58.26 53.57 56.72 52.15 53.18 53.87 60.94 57.08 54.11 54.28 53.32 52.81 51.85 49.32 48.97 47.21 41.59 44.33 44.98 45.95 45.88 49.09 48.85 47.65 47.16 50.12 52.51 52.71 53.01 54.07 54.67 55.14 55.54
53.41 52.94 52.86 53.19 53.33 53.46 52.62 57.10 56.04 54.85 57.05 55.33 55.24 54.57 52.92 56.42 54.80 54.05 57.82 55.68 54.36 52.12 48.47 51.64 47.88 45.74 47.53 48.81 48.06 47.13 45.60 45.18 47.60 49.18 47.65 48.03 48.49 50.21 52.31 52.64 52.58 53.45 54.22 55.10 55.66
52.97 52.86 52.70 52.69 52.86 52.88 54.13 52.82 55.33 56.83 50.67 57.00 56.11 55.45 55.59 56.30 50.92 52.85 57.75 51.70 51.21 47.95 50.03 48.81 45.64 49.33 49.99 49.28 47.42 46.62 44.81 45.13 47.52 49.35 48.82 48.19 47.86 50.48 51.75 52.29 53.36 53.53 54.08 54.89 55.83
53.15 52.69 52.38 52.46 52.46 52.37 55.25 53.88 59.30 58.01 49.70 51.21 53.10 52.91 54.15 55.51 51.74 51.15 54.76 52.52 49.93 48.12 48.88 46.81 48.67 49.71 48.09 47.40 46.07 46.36 45.00 45.51 45.43 48.15 49.35 48.04 46.43 48.48 51.18 52.45 53.18 54.02 54.77 55.22 55.58
52.92 52.24 52.20 52.22 50.39 58.81 55.09 57.55 60.22 58.92 46.68 47.92 50.03 52.20 53.36 54.01 50.25 56.03 55.17 52.82 50.57 47.93 49.26 48.84 50.72 48.54 47.28 45.47 46.73 43.93 47.99 46.88 45.45 44.78 41.50 48.45 40.70 47.70 50.14 50.89 52.22 53.36 54.26 54.87 55.48
52.45 52.16 52.04 51.03 55.61 55.08 57.09 60.59 60.51 58.01 38.10 50.10 50.31 55.98 54.09 50.99 51.26 51.73 56.13 53.08 48.82 48.48 47.91 46.54 47.51 46.38 45.44 46.37 48.04 45.17 48.24 46.84 46.51 45.17 44.86 44.85 42.83 46.47 50.60 49.44 51.52 53.26 54.05 55.18 56.15
52.01 51.93 51.57 52.70 55.54 58.43 59.28 59.86 58.69 46.82 37.21 46.65 50.24 49.43 48.19 49.56 48.74 51.35 52.01 53.27 51.39 47.62 49.01 47.64 50.73 48.44 48.22 49.34 48.30 49.19 46.94 47.24 47.16 45.75 40.19 44.98 44.60 44.96 47.80 50.10 51.95 53.85 54.93 55.58 55.88
51.70 51.24 52.27 57.69 55.18 57.77 59.39 56.44 46.94 40.75 48.66 45.21 46.31 48.40 48.07 47.16 47.62 48.50 47.45 46.60 44.15 42.45 41.93 45.08 46.80 49.19 49.92 46.44 49.15 48.25 45.61 39.78 38.90 39.76 39.03 47.09 44.76 46.97 51.07 52.29 52.68 53.10 54.20 55.89 56.09
50.23 49.62 54.47 58.03 59.58 58.07 56.61 50.83 40.01 44.80 45.40 48.68 47.88 47.30 44.80 46.83 46.57 46.41 44.97 43.51 47.43 46.30 43.00 41.34 40.11 46.68 49.37 47.28 45.23 46.39 45.31 38.82 32.75 35.64 39.74 46.41 41.58 46.75 52.93 53.36 53.56 53.41 54.29 55.06 54.96
48.52 59.27 59.77 59.91 60.90 60.05 54.40 43.66 44.70 45.37 47.81 45.82 46.52 44.14 44.15 46.18 46.14 46.52 45.34 44.69 46.52 47.48 41.54 40.68 41.85 49.13 49.37 49.74 48.39 45.43 42.66 47.15 41.41 43.29 40.11 42.59 46.40 50.67 52.64 52.64 52.64 52.67 53.74 53.57 54.38
55.03 58.61 56.99 61.05 62.61 58.41 51.47 41.79 47.30 49.10 48.76 47.76 41.37 45.00 41.55 43.82 43.57 44.27 44.24 47.46 46.31 48.59 48.81 43.88 38.94 46.68 48.57 50.06 50.34 47.10 48.35 39.38 41.27 33.94 33.50 39.60 42.31 43.84 48.06 50.03 51.51 51.75 52.43 53.47 54.03
56.63 55.39 58.31 61.96 61.19 54.59 47.29 47.57 47.93 50.38 50.15 46.38 44.08 42.52 43.11 42.36 43.82 42.41 42.54 47.06 48.01 47.73 49.09 46.91 42.91 42.26 45.85 44.77 43.49 44.02 42.27 43.30 42.88 41.33 35.21 34.80 39.41 49.07 48.56 50.08 51.01 51.39 51.68 51.81 52.59
56.98 52.70 59.01 60.69 51.62 53.38 49.85 48.73 44.07 48.59 50.11 48.32 48.51 46.82 43.34 43.83 43.11 41.90 43.03 44.77 48.91 48.69 44.03 45.87 42.40 38.89 41.96 47.68 48.79 46.93 44.22 43.52 37.00 37.68 40.36 38.97 39.62 51.44 50.50 51.59 51.53 51.49 51.43 52.55 53.44
53.45 53.94 59.97 58.71 48.68 49.26 49.48 47.81 48.56 47.44 47.74 47.47 46.44 47.09 47.48 44.56 40.45 43.81 44.20 48.14 48.46 46.68 43.70 46.59 40.76 36.87 39.58 44.80 47.30 43.47 44.74 44.74 43.62 42.86 38.18 35.29 39.55 49.62 50.59 49.81 50.52 50.14 51.12 51.31 51.77
53.31 49.77 52.72 56.89 54.44 49.64 47.16 46.64 45.97 48.91 48.01 48.32 47.68 48.25 45.53 42.39 44.81 42.92 43.20 45.76 47.19 46.02 45.25 45.11 42.16 37.14 34.86 39.33 41.00 38.53 41.91 43.26 42.03 38.09 38.61 39.30 40.83 45.07 46.54 47.90 49.13 50.26 50.18 51.16 52.33
53.82 49.36 49.60 48.50 48.37 48.06 47.26 46.01 43.93 43.47 47.45 47.99 45.82 44.73 43.52 40.31 42.43 41.82 43.77 44.62 44.15 46.38 44.56 43.66 37.41 39.89 40.53 40.55 41.24 41.43 40.81 41.58 38.94 40.46 36.44 40.49 40.70 43.24 47.12 48.48 48.80 49.64 50.58 50.47 50.93
49.77 48.86 51.00 49.46 47.18 46.56 41.71 45.15 43.15 44.02 44.36 44.26 43.47 44.67 43.44 41.60 42.75 41.33 41.64 41.94 41.84 44.78 42.79 44.42 36.56 40.42 38.01 41.05 40.50 38.82 41.44 41.92 41.97 41.66 40.62 41.70 41.52 47.81 48.99 48.50 48.24 48.70 48.32 48.65 50.10
54.90 54.00 50.60 43.48 46.68 45.64 47.10 44.81 43.52 44.67 46.16 46.19 45.29 43.74 43.29 43.61 46.23 47.30 47.32 46.85 45.38 41.93 40.27 39.94 37.89 37.49 34.91 39.83 39.60 35.43 40.04 42.29 42.45 43.49 42.65 38.52 43.34 46.79 46.62 47.56 48.57 48.85 49.39 49.16 49.74

GFSSW_sfc_wetblb_108.txt.gz
Wetbulb
56.24 56.25 55.80 54.83 54.84 55.14 54.60 54.46 54.38 54.49 54.51 54.74 54.92 54.95 55.39 55.64 55.34 54.57 49.14 56.14 59.09 61.49 59.04 54.88 54.38 54.04 54.46 52.46 53.92 54.53 46.82 45.00 46.64 47.58 49.95 53.99 52.49 56.80 58.75 57.10 57.79 57.83 58.40 60.95 61.76
56.34 55.92 55.26 54.94 54.55 54.71 54.72 54.32 54.22 54.53 54.33 54.28 54.51 54.96 55.37 55.42 53.07 50.90 58.28 64.33 63.36 61.91 52.49 52.62 52.30 53.21 50.73 51.02 52.10 50.61 47.31 47.25 50.73 51.32 50.46 52.41 52.63 53.38 53.08 54.16 54.53 55.52 58.16 59.90 61.31
55.79 55.98 55.46 54.98 54.13 54.13 54.27 54.42 54.14 54.08 53.98 54.24 54.74 54.98 55.26 55.22 52.33 53.05 65.60 63.70 63.30 61.41 52.69 55.23 54.52 52.23 49.14 51.17 50.85 50.74 47.17 50.46 51.20 52.74 53.12 51.99 51.81 53.69 52.33 50.93 53.18 53.60 56.25 58.38 59.68
55.56 55.87 55.81 55.24 54.90 54.40 53.87 53.73 53.63 53.97 54.09 54.23 54.55 54.88 55.26 53.82 48.84 58.95 64.78 64.12 63.95 55.01 52.71 53.25 52.78 50.08 48.69 48.00 51.18 47.98 50.86 51.21 51.61 53.00 52.10 51.34 52.65 51.61 51.98 52.33 54.62 54.83 55.67 56.62 57.46
54.89 55.21 55.51 55.38 55.21 54.80 54.61 54.23 54.22 53.77 53.69 53.98 54.68 54.92 54.05 51.51 51.06 62.88 63.71 62.93 55.40 53.83 52.86 54.73 52.20 50.84 47.68 49.40 50.58 49.11 50.18 51.51 52.24 52.04 52.24 52.46 50.91 51.00 51.20 53.77 54.37 54.69 55.38 55.21 56.27
54.56 54.51 54.61 55.02 55.31 54.86 54.73 54.82 54.16 53.87 53.60 53.95 54.74 54.68 52.07 47.45 58.26 62.70 58.16 56.11 54.80 54.94 55.44 53.82 52.30 52.59 50.52 49.98 49.60 51.20 50.73 50.88 51.63 51.39 51.58 50.07 50.20 50.76 51.65 54.00 53.96 54.32 54.28 55.03 55.85
54.52 54.52 53.96 54.21 54.72 54.94 55.23 55.42 55.11 54.32 54.08 54.65 55.60 55.05 52.47 51.78 54.66 60.92 57.22 55.73 55.50 55.17 54.80 54.86 54.49 53.09 52.62 49.94 52.75 51.28 48.53 49.91 50.34 50.71 50.04 51.28 47.94 48.64 52.33 53.53 53.11 53.72 54.98 55.19 56.39
53.93 53.94 54.01 53.46 54.22 54.47 54.88 54.77 54.42 54.51 54.76 55.59 55.66 55.28 52.09 58.69 58.31 56.75 58.27 56.90 60.02 59.65 57.25 55.63 56.66 54.45 52.69 53.04 51.32 48.45 48.45 44.18 49.04 50.23 50.62 50.07 44.73 50.24 53.29 52.90 52.17 53.29 53.99 54.85 56.77
53.93 53.78 53.82 53.05 53.42 53.79 54.10 54.33 54.43 55.41 55.11 55.79 54.43 54.58 52.74 58.55 53.29 53.82 59.26 55.92 55.93 55.63 55.74 57.36 55.35 51.99 51.44 47.81 46.23 47.58 42.86 44.45 46.26 50.60 49.98 49.02 46.18 50.51 52.87 53.21 52.58 53.38 53.85 54.40 55.64
54.23 53.90 53.65 53.30 53.00 53.14 53.69 53.61 55.96 54.46 54.88 57.74 57.10 53.25 56.61 54.41 54.86 52.61 58.73 57.36 52.54 53.45 53.41 52.63 51.08 48.16 47.75 46.25 39.96 42.85 43.68 44.98 44.93 49.14 49.34 47.71 46.87 49.40 51.37 52.15 52.39 53.07 53.78 54.80 55.42
54.62 54.31 53.49 53.16 52.80 52.74 52.92 54.18 53.95 53.46 55.98 53.80 55.10 53.12 54.16 56.74 54.98 51.02 57.51 56.45 54.00 52.14 47.38 50.56 46.39 43.90 46.39 47.86 47.71 46.73 45.58 45.01 47.70 49.81 48.25 47.29 47.70 49.30 51.37 51.48 51.65 53.19 54.32 55.56 56.29
54.71 54.30 53.51 53.01 52.47 52.68 51.90 51.83 55.50 55.50 49.37 56.90 56.57 56.14 56.83 56.52 51.47 51.99 55.18 52.81 50.46 46.53 48.91 47.53 44.98 48.87 49.83 49.35 47.97 47.09 45.19 44.76 47.19 49.03 48.11 47.34 46.94 49.57 50.97 52.07 52.81 53.12 54.39 55.44 56.50
54.27 53.86 53.24 52.68 52.64 51.13 52.60 54.65 57.71 58.58 49.31 51.34 54.62 53.42 53.77 55.34 51.48 50.60 53.66 52.70 49.02 47.11 47.69 45.58 47.76 50.74 49.06 47.60 46.30 46.33 44.95 44.92 44.67 47.61 48.72 47.49 45.68 47.69 50.58 52.03 53.18 54.10 55.35 55.87 56.29
54.00 53.28 52.64 51.99 49.35 55.68 54.07 58.10 58.33 59.06 45.56 48.23 49.55 52.15 53.09 53.34 49.60 54.93 54.72 52.86 49.32 47.00 48.37 47.82 50.54 48.93 47.99 46.25 46.61 43.19 48.02 47.03 45.76 44.33 40.14 47.22 39.65 47.08 49.55 50.70 52.37 53.57 54.32 54.89 55.75
53.50 52.95 52.33 51.41 54.41 55.40 57.04 58.63 58.49 57.69 37.12 50.48 50.66 55.94 54.59 50.13 51.12 50.97 55.18 51.96 47.13 47.58 48.47 45.86 47.96 47.61 46.30 46.49 48.22 45.51 48.23 46.62 46.06 44.18 43.72 43.73 41.16 44.54 48.93 48.09 50.74 53.52 54.88 55.88 56.84
53.23 52.60 51.86 53.03 54.83 57.93 59.08 59.50 58.32 45.04 37.15 47.59 50.83 49.31 48.77 50.29 50.02 52.38 51.79 53.43 51.86 47.69 48.16 46.64 50.09 48.69 47.95 49.17 49.22 49.27 46.82 46.46 46.10 43.79 38.39 42.42 42.15 42.65 46.51 49.46 52.21 54.40 55.27 55.83 55.90
52.81 51.98 50.70 57.35 56.31 58.55 58.16 55.77 44.77 39.57 50.50 45.87 47.20 49.25 48.70 47.45 48.01 49.05 48.17 46.85 43.88 39.81 40.47 44.85 45.57 48.56 49.05 45.86 48.50 47.49 44.70 37.91 36.88 37.52 37.17 45.19 43.15 45.81 51.26 52.99 53.31 53.33 54.33 55.93 56.43
51.12 49.74 54.38 57.94 58.97 57.66 56.28 49.07 39.08 46.01 46.14 49.77 48.67 48.62 45.68 47.78 47.55 47.42 46.57 44.70 47.81 45.75 42.69 40.66 39.10 46.41 49.74 47.16 44.59 45.11 44.56 38.19 31.44 33.94 37.58 45.33 40.15 45.09 52.79 54.15 55.12 55.33 55.24 56.02 55.77
49.11 59.21 58.55 60.12 60.14 58.79 52.92 43.29 43.53 46.26 48.88 47.08 47.47 44.89 44.69 46.68 47.05 46.93 46.29 45.38 47.63 48.39 42.17 41.06 40.97 48.94 49.87 50.59 48.87 44.61 41.04 46.32 40.25 41.46 37.73 40.94 45.05 49.64 52.20 52.54 53.56 53.68 54.15 54.71 55.85
52.09 58.15 57.29 60.45 61.49 57.90 50.54 46.07 47.79 50.05 49.56 48.57 42.44 45.17 42.16 44.59 44.71 44.81 45.20 48.76 46.95 48.95 49.60 45.31 39.16 46.40 48.11 49.88 49.95 46.80 48.17 38.64 39.63 33.08 31.74 38.53 41.07 42.51 46.36 49.11 51.80 52.18 52.60 53.91 55.20
54.14 54.37 59.38 62.48 61.00 53.61 45.90 46.66 48.86 51.04 50.74 47.40 45.07 43.53 43.99 43.06 44.69 43.41 43.62 47.68 49.50 48.69 50.12 47.44 43.53 42.24 46.24 43.94 42.94 44.30 42.57 43.43 42.98 40.05 33.28 32.74 38.38 49.68 48.44 50.23 50.66 52.29 52.89 53.58 53.74
56.32 50.24 59.57 61.40 51.94 53.56 47.94 49.53 46.07 49.34 50.68 48.81 48.72 47.61 44.67 44.77 43.25 43.02 42.84 45.84 49.82 49.12 44.53 47.29 43.57 38.82 41.08 46.73 48.28 47.19 44.51 44.47 37.74 36.30 39.67 38.40 37.73 50.69 50.46 50.78 51.73 51.79 52.57 53.28 53.72
52.06 53.18 59.14 59.11 47.74 48.94 50.92 48.51 48.83 47.86 48.32 47.74 46.90 47.79 48.19 44.73 41.30 44.99 45.47 49.03 49.44 47.62 45.23 47.07 41.75 35.36 37.02 42.24 46.26 42.18 43.74 43.76 42.93 42.57 36.70 34.77 37.90 49.75 50.20 48.93 50.46 50.73 51.90 52.29 52.80
52.25 48.44 52.69 54.53 53.90 49.46 48.21 47.40 46.68 50.24 47.55 48.41 47.88 48.66 46.50 44.72 45.83 42.57 44.36 46.82 48.07 47.54 46.70 46.41 41.65 37.17 32.76 36.47 41.46 38.73 40.98 41.83 40.40 34.48 36.43 37.80 40.41 44.94 47.39 47.17 49.27 50.85 51.39 51.39 51.86
53.19 50.08 50.05 48.13 49.16 48.56 47.66 47.42 44.80 44.71 48.22 48.48 46.25 45.60 44.53 41.45 42.91 43.12 45.02 45.68 47.08 47.27 45.88 43.94 37.11 40.18 40.46 40.64 40.74 40.13 40.21 40.92 39.50 40.78 36.73 39.76 39.91 43.80 46.76 48.33 49.06 49.51 50.44 50.31 50.90
49.22 48.22 51.66 49.57 48.68 47.29 43.53 46.38 44.71 45.98 45.20 45.34 44.31 45.74 45.44 41.68 42.94 41.36 43.41 43.85 43.21 45.81 43.77 44.31 37.50 40.05 37.81 40.95 40.60 39.19 41.53 41.95 41.87 42.13 41.75 41.81 41.22 47.67 48.63 48.87 48.60 49.34 49.73 49.30 49.68
53.38 54.48 50.21 45.94 48.25 45.73 47.10 46.70 45.25 46.15 47.26 46.97 45.89 44.86 43.67 45.02 47.24 47.54 47.87 47.36 46.47 43.32 41.66 41.46 39.01 36.39 32.65 39.50 38.99 35.65 40.59 41.80 42.50 44.02 43.09 38.65 43.58 47.05 46.35 46.80 47.52 48.18 48.67 48.14 49.37

GFSSW_sfc_wetblb_111.txt.gz
Wetbulb
56.00 56.24 55.53 54.79 54.77 55.05 54.56 54.54 54.48 54.47 54.39 54.62 54.48 54.71 55.36 55.79 55.87 52.17 46.46 50.73 54.10 59.91 60.28 51.18 50.87 49.10 49.27 47.75 49.22 50.00 39.00 37.56 40.97 43.32 46.08 50.03 49.01 52.13 56.41 55.25 56.06 55.59 56.82 58.79 60.19
56.19 55.92 55.77 55.02 54.91 54.31 54.35 54.20 54.11 54.24 54.29 54.22 54.75 54.71 54.81 55.71 51.19 48.33 55.17 61.23 64.12 64.60 51.06 48.84 47.51 49.03 45.02 46.51 46.73 44.09 40.67 42.17 47.29 47.91 46.23 48.40 47.76 49.12 51.14 51.89 52.92 54.11 57.09 59.07 58.92
55.45 55.76 55.67 55.33 55.12 54.58 54.14 53.81 53.79 54.01 54.02 54.05 54.56 54.83 54.83 54.86 48.38 49.92 65.09 61.61 64.38 61.40 50.71 49.10 49.54 48.87 44.35 45.13 44.79 44.96 42.23 46.90 48.80 49.61 49.81 47.25 47.66 49.57 49.73 47.80 52.16 51.34 54.43 54.28 55.08
54.85 55.11 55.11 55.44 55.11 54.95 54.52 54.57 54.15 54.09 54.40 53.97 54.02 54.41 55.54 51.30 44.13 54.96 66.36 63.81 64.87 54.02 49.53 47.35 46.99 42.28 42.39 41.72 45.67 41.70 47.03 48.29 49.10 50.31 47.30 47.87 50.52 48.79 48.04 49.08 52.82 53.10 53.74 53.80 52.86
54.23 54.35 54.40 54.55 55.11 54.64 54.72 54.79 54.77 54.70 54.32 53.53 53.80 54.30 51.93 47.11 46.26 59.38 65.60 64.50 57.15 50.50 47.38 46.86 47.16 45.54 41.11 43.76 45.00 43.83 45.86 48.82 50.03 49.33 47.20 49.37 48.03 48.69 47.87 51.90 52.45 52.05 52.82 51.56 51.13
54.63 53.89 53.92 53.87 54.41 54.78 54.44 55.37 55.41 54.61 54.29 53.62 54.12 54.90 49.35 41.49 57.29 60.84 56.96 55.17 52.01 47.55 48.88 48.22 49.37 49.53 45.69 44.38 43.00 46.11 47.05 47.30 47.94 48.12 47.50 46.59 47.56 47.46 48.73 51.57 51.70 51.97 51.10 51.12 51.77
54.64 54.48 54.02 53.64 53.98 54.25 54.73 55.01 55.12 54.99 55.12 54.62 54.95 53.92 48.39 47.34 58.59 58.21 54.88 50.29 51.82 50.98 50.68 53.03 52.43 47.87 47.23 44.56 47.49 47.22 43.62 45.97 46.74 46.39 46.21 48.12 45.35 46.37 49.83 50.78 49.67 50.39 51.55 51.79 52.05
54.96 54.66 54.52 53.82 53.73 53.82 54.07 54.29 54.66 54.61 54.97 55.32 55.50 52.43 46.29 57.48 55.76 53.62 53.79 52.75 53.45 52.91 52.88 55.29 52.31 47.65 46.61 48.26 47.72 43.72 42.06 36.90 43.87 47.30 47.92 46.06 40.48 47.58 49.90 49.63 49.01 50.49 51.18 52.23 51.73
55.43 54.90 54.88 53.95 53.54 53.46 53.59 53.59 54.17 56.10 55.49 55.38 52.24 49.11 48.47 57.92 52.39 53.97 54.56 53.08 54.90 56.07 55.23 56.20 51.75 47.92 48.28 42.28 39.30 40.24 35.98 39.11 42.53 47.35 47.10 46.12 42.09 47.61 50.11 48.95 49.21 49.76 50.54 51.57 51.30
55.43 55.02 54.73 54.29 53.63 53.14 53.02 53.39 54.48 55.05 54.02 55.44 54.73 47.91 52.70 53.29 54.83 53.58 51.53 56.18 53.27 50.66 50.16 50.82 46.24 42.74 41.39 37.58 32.58 37.18 37.85 40.61 41.45 45.62 45.62 44.28 43.97 46.30 47.98 47.66 48.72 49.24 50.07 50.93 51.21
55.05 55.00 54.53 54.12 53.73 52.64 51.20 50.63 50.65 48.83 51.59 49.45 50.70 50.97 54.90 57.94 53.12 50.01 51.37 54.59 52.25 48.34 42.93 46.42 39.98 36.55 40.75 42.68 43.40 42.97 41.74 40.77 43.29 46.18 43.68 41.72 43.14 44.94 47.13 45.82 46.55 47.71 49.03 49.38 50.36
54.74 54.88 54.65 53.78 53.14 52.69 49.79 47.19 52.36 52.25 47.59 53.96 54.44 54.86 57.23 56.61 50.25 48.86 51.87 50.83 48.49 42.39 45.41 42.51 38.31 44.62 47.07 46.41 44.87 43.49 41.08 40.39 43.86 46.48 43.98 42.34 42.49 45.28 46.77 46.26 46.85 47.87 48.45 49.17 50.41
53.32 53.90 54.33 53.61 52.73 49.86 47.60 49.69 55.50 54.56 46.35 50.17 54.35 54.38 54.12 53.44 50.69 49.24 50.23 51.02 47.53 43.34 42.78 39.91 43.60 48.56 47.26 45.33 44.16 42.48 40.66 41.22 41.24 44.86 44.93 42.69 40.57 43.06 46.90 47.53 48.60 49.13 49.09 50.19 50.80
53.39 53.70 53.58 52.63 48.37 50.13 48.61 53.29 53.64 54.16 41.01 47.03 48.58 50.84 52.05 51.85 49.05 54.77 52.53 50.01 47.30 43.31 44.20 43.11 47.29 46.83 45.59 44.74 44.58 39.27 45.06 44.58 43.80 40.67 35.45 42.00 34.03 39.72 44.55 45.69 47.95 49.12 48.75 48.61 50.69
53.64 53.94 53.23 51.84 47.96 50.75 55.95 56.69 55.03 52.11 33.11 48.44 49.05 54.72 52.33 48.71 50.54 50.42 54.33 50.66 45.78 45.54 44.84 43.06 44.74 44.01 42.96 45.12 46.49 42.16 46.38 43.97 43.40 39.22 35.15 38.31 33.34 37.06 43.67 43.67 45.73 47.14 49.81 50.05 49.90
53.68 53.51 52.36 51.30 49.04 51.11 56.29 56.49 52.65 40.27 35.13 47.26 49.31 47.51 47.22 48.72 49.63 50.80 51.50 52.13 50.89 45.70 45.75 44.63 48.56 46.71 45.63 47.66 47.52 47.83 43.78 42.41 40.53 36.53 31.78 36.34 36.11 36.60 40.85 43.94 46.39 51.37 51.53 52.08 53.26
53.50 53.21 50.45 52.28 51.74 56.37 54.81 51.80 39.68 36.55 48.60 45.47 45.34 46.80 46.06 45.68 47.04 47.98 46.70 44.39 41.81 37.73 37.98 42.79 43.83 46.74 48.46 43.72 45.79 43.96 37.82 30.51 27.96 28.60 29.77 39.59 38.07 38.08 45.70 49.02 51.30 50.16 50.44 51.08 51.59
52.20 50.80 50.91 53.27 56.20 56.18 52.45 43.89 36.55 44.38 45.64 49.90 48.29 48.11 44.80 47.12 46.22 46.29 44.85 40.73 44.84 43.00 39.04 37.55 36.90 45.47 48.95 45.45 41.88 42.54 38.77 32.46 25.97 26.82 31.49 40.88 33.63 39.56 48.32 51.78 50.97 51.88 50.96 51.45 51.24
50.16 53.14 52.57 55.91 56.90 54.69 47.98 37.81 42.05 45.66 48.87 46.76 47.16 44.14 43.94 46.01 46.12 45.51 43.36 43.29 45.97 44.76 37.23 36.82 39.20 48.22 48.90 48.97 47.44 42.54 37.74 42.90 35.10 36.31 31.24 35.35 40.36 45.30 48.48 49.22 50.60 51.63 52.16 51.35 50.90
46.57 49.97 54.47 58.45 57.84 53.42 46.56 44.20 46.54 49.40 49.47 48.45 42.10 44.83 41.97 44.00 43.36 42.87 43.06 47.78 46.42 48.24 46.24 41.65 35.45 44.62 47.14 48.07 47.86 44.75 46.29 36.59 37.35 30.68 27.00 33.55 36.48 37.84 44.32 46.33 49.30 49.51 49.97 51.10 50.27
49.32 50.27 55.22 58.44 57.46 49.16 42.51 44.70 47.77 50.10 49.83 46.88 43.99 42.79 42.96 42.20 43.18 42.09 42.23 46.23 48.27 47.00 46.86 42.37 39.51 39.58 43.51 40.72 39.41 39.82 37.70 40.21 39.43 36.30 31.23 26.16 31.57 45.23 44.45 46.64 46.70 48.30 49.74 50.35 49.58
49.39 48.14 56.66 58.30 46.93 49.16 44.99 49.19 46.96 48.65 50.46 48.38 47.90 46.23 43.48 43.83 41.59 41.52 42.36 45.37 48.97 47.41 41.97 43.18 39.20 34.22 37.69 43.62 45.43 42.62 39.66 40.81 34.74 34.55 35.82 35.15 34.03 47.27 46.56 46.27 47.19 47.90 49.14 50.68 50.35
44.89 49.89 56.22 55.73 44.39 45.45 49.75 48.13 48.71 47.38 48.03 47.23 46.48 47.07 46.38 42.42 37.98 43.46 44.54 48.51 48.18 46.60 42.13 41.39 35.64 29.20 31.87 36.33 43.08 39.96 40.31 41.00 39.92 39.59 35.13 33.01 33.59 47.39 48.28 47.34 48.05 47.42 48.86 50.51 50.08
46.41 46.01 49.41 51.39 50.19 46.43 45.03 46.40 45.41 49.68 46.97 47.74 46.06 46.36 43.29 41.31 42.01 39.73 43.22 46.91 47.66 45.97 48.17 44.81 36.61 32.97 27.00 32.49 36.74 35.11 38.12 40.17 38.88 32.72 34.25 35.30 36.83 41.73 44.26 45.97 45.74 46.93 47.12 45.98 48.00
48.10 46.50 47.04 42.88 44.66 44.78 43.90 45.57 44.18 44.20 47.40 46.97 43.72 44.63 41.47 36.84 39.13 38.89 43.46 44.29 46.15 47.47 43.35 38.94 31.34 35.64 36.97 38.92 39.17 37.96 37.56 37.81 35.29 36.60 33.01 36.05 37.83 41.28 43.68 44.00 44.72 44.43 47.13 47.62 47.94
45.62 44.24 45.92 45.05 46.96 44.54 41.77 43.11 44.13 45.04 44.30 44.12 42.41 44.49 42.52 36.37 38.29 36.73 39.02 38.42 38.98 42.39 40.64 42.04 31.65 36.26 34.69 38.46 38.25 36.53 39.18 39.58 39.44 39.71 38.86 38.87 38.76 44.03 44.85 45.05 44.39 44.64 46.39 47.48 45.55
50.36 49.85 47.17 44.71 45.53 42.48 43.28 44.63 44.44 44.86 46.19 46.15 43.65 41.43 40.30 41.53 43.09 42.07 41.46 41.72 41.15 38.39 37.38 37.22 34.72 34.03 29.22 36.17 35.39 30.16 36.46 39.04 40.75 42.00 39.77 34.71 39.50 42.93 42.43 42.97 42.40 43.52 44.25 43.92 44.72

GFSSW_sfc_wetblb_114.txt.gz
Wetbulb
56.47 56.06 55.76 55.34 55.00 54.17 54.00 54.08 54.16 54.13 54.27 54.23 54.25 54.43 54.74 54.56 55.39 52.06 46.55 49.51 51.03 58.90 60.36 50.09 50.24 49.43 47.60 45.31 48.36 48.63 37.88 36.73 40.13 41.70 44.42 48.48 45.52 49.09 52.81 53.12 53.87 55.19 56.77 58.05 60.31
55.55 55.91 55.88 55.67 55.03 54.64 54.33 53.71 53.79 53.86 54.04 54.09 53.84 54.56 54.22 54.65 50.99 47.79 53.51 58.51 60.90 63.44 50.84 46.98 45.54 46.78 42.41 44.19 45.18 42.12 37.67 40.70 45.54 46.51 45.58 47.63 47.32 48.46 49.61 49.81 51.10 52.87 56.70 57.75 57.24
54.59 54.92 55.33 55.34 54.94 54.62 54.53 54.61 54.03 53.59 53.46 53.63 53.71 54.04 54.15 54.28 47.07 48.60 61.53 61.06 61.99 62.86 51.19 49.09 46.78 45.90 40.84 41.65 42.99 40.86 39.47 44.26 46.87 48.56 47.92 46.69 46.49 48.20 47.44 45.82 49.16 50.50 53.36 53.59 53.36
54.43 54.53 54.55 54.73 55.05 54.67 54.54 54.43 54.33 53.99 54.31 54.08 53.40 53.69 54.43 50.57 40.58 55.15 66.66 63.19 64.45 57.19 49.60 46.50 43.67 40.03 39.66 39.85 42.29 38.05 44.53 45.71 47.32 48.92 47.20 46.22 48.67 48.27 47.54 48.51 52.37 51.43 52.78 51.96 51.09
54.75 54.45 54.09 53.96 54.27 54.91 54.61 54.38 54.58 55.06 54.51 53.63 52.98 53.16 50.61 44.92 43.69 52.85 66.49 63.68 60.87 51.23 46.96 44.47 42.00 42.61 38.91 40.87 41.01 39.69 43.56 46.18 47.89 48.04 46.68 47.31 46.73 47.89 47.73 50.75 51.61 51.65 51.64 50.50 49.15
55.36 55.19 54.69 54.41 54.21 54.33 54.63 54.13 53.92 54.77 54.85 54.12 52.96 53.65 47.78 37.38 51.29 59.56 59.84 58.30 54.50 48.08 46.12 45.27 46.07 47.88 44.16 42.75 41.21 43.60 43.67 44.95 46.08 46.41 45.17 45.19 46.28 46.70 48.71 50.41 50.47 50.66 50.58 50.15 49.72
55.88 55.80 55.46 55.10 54.56 54.37 54.22 54.54 54.54 54.70 54.54 54.50 53.64 53.36 47.54 44.45 55.87 56.43 53.80 50.18 49.97 49.20 47.69 48.50 48.72 47.50 45.45 43.16 44.89 43.92 40.90 43.54 44.51 45.00 44.56 46.85 44.17 44.85 49.23 50.02 48.49 48.49 48.97 50.50 50.71
55.74 55.60 55.64 55.32 55.06 54.39 54.16 53.89 53.74 54.24 54.62 54.34 54.66 51.47 44.22 54.72 52.92 51.55 52.36 50.20 50.82 49.55 49.48 51.95 51.28 47.81 44.73 46.40 45.75 41.68 39.46 35.77 42.37 45.56 46.38 44.87 39.81 46.18 49.03 48.30 47.96 48.51 48.77 49.98 50.19
55.49 55.03 55.27 55.21 54.69 53.92 53.72 53.19 53.71 55.02 55.29 54.86 50.61 47.05 45.43 58.36 54.87 54.66 53.00 50.67 51.32 50.90 50.20 53.01 50.28 46.39 46.51 41.00 36.87 37.80 33.86 36.92 41.42 44.37 44.08 43.31 40.61 45.97 47.99 47.56 47.12 47.59 48.42 49.26 49.68
54.86 54.68 54.60 55.13 54.79 53.76 53.10 52.94 53.31 54.48 54.21 54.33 53.31 45.93 50.18 52.23 53.32 52.37 52.57 52.84 51.27 51.20 49.29 48.20 43.82 41.10 39.28 36.85 31.73 34.76 34.88 38.24 38.82 42.98 42.69 41.49 41.38 45.76 46.74 46.38 45.77 47.50 47.79 48.69 49.64
54.18 53.95 54.13 54.44 54.38 53.29 50.15 47.38 49.33 47.71 48.97 45.73 47.77 48.87 52.97 57.15 55.29 51.14 50.37 49.76 51.24 45.92 40.34 44.41 39.12 35.67 39.32 40.62 41.16 40.38 38.38 38.01 41.50 44.52 41.65 39.96 40.97 42.85 44.92 43.38 43.30 45.66 46.15 47.54 49.02
53.77 53.45 53.50 54.13 53.78 52.90 50.09 44.54 51.17 51.08 46.12 51.44 51.87 50.86 54.94 56.44 49.78 47.95 49.77 46.29 45.62 39.91 42.90 40.27 36.60 42.12 43.93 43.34 42.18 40.94 38.53 38.07 40.81 44.36 42.21 40.73 40.94 43.21 44.49 43.97 45.19 46.02 46.49 47.35 47.52
54.25 54.07 54.09 53.85 52.90 49.66 46.21 47.05 51.77 51.66 43.87 48.88 52.90 52.24 53.41 53.04 49.98 45.49 47.31 48.79 45.52 41.11 40.28 37.55 41.43 45.89 44.42 42.99 42.13 40.77 38.69 38.92 39.57 43.08 42.33 40.64 38.17 40.63 44.11 45.81 46.78 46.66 46.92 47.40 48.08
53.99 53.58 53.27 53.15 48.46 47.81 45.97 50.63 50.64 51.26 39.91 46.30 48.19 52.53 52.56 50.63 47.73 53.07 49.45 49.71 45.72 42.17 42.01 39.95 45.01 44.01 42.78 42.38 43.22 39.23 43.90 43.00 41.65 38.58 33.18 40.11 30.18 36.91 41.17 42.63 45.06 46.16 45.63 46.26 47.57
53.79 53.35 52.90 52.49 45.74 46.07 52.58 52.16 50.44 49.30 32.41 47.25 48.59 52.79 50.99 47.50 49.05 49.49 51.34 48.66 44.01 44.02 42.26 40.21 42.03 42.01 41.05 42.46 44.15 40.59 44.50 42.34 41.90 36.84 33.31 35.67 31.11 35.53 39.96 40.94 42.60 44.65 46.75 48.78 49.32
53.67 53.73 52.53 48.97 48.43 48.22 51.00 50.46 50.61 39.76 34.49 46.42 48.27 46.98 45.98 48.10 48.82 49.38 49.62 50.37 49.17 44.49 43.74 42.64 46.50 44.84 43.56 46.24 45.43 45.89 41.90 39.59 36.90 34.08 28.17 33.92 32.75 32.39 37.18 39.82 42.79 46.29 49.04 49.49 48.00
53.65 53.36 50.99 50.44 46.41 51.70 50.25 48.80 38.22 34.70 48.04 45.33 43.72 45.36 44.76 44.73 46.36 47.50 45.91 43.49 40.33 34.73 35.15 40.53 41.24 44.11 46.73 42.33 45.26 42.66 35.72 28.91 26.94 27.30 27.47 37.75 35.16 34.67 41.34 47.48 47.88 47.57 47.63 48.66 48.05
52.11 50.74 49.65 50.60 49.38 51.37 49.02 41.89 34.19 43.46 45.10 50.40 46.94 45.13 41.76 44.46 44.10 45.19 43.35 40.17 44.14 41.84 37.36 34.64 35.34 43.54 47.50 43.40 39.68 39.64 36.01 28.91 23.86 24.74 28.79 38.55 31.94 37.86 46.74 48.97 50.09 50.53 48.14 48.96 48.25
49.96 47.84 48.95 51.87 52.42 51.29 45.91 37.80 40.68 44.20 48.96 46.57 46.88 42.90 42.97 45.58 44.40 43.59 41.04 40.40 42.81 42.53 36.04 34.90 38.07 46.89 47.67 47.65 44.34 40.66 37.05 39.38 32.69 33.53 28.90 32.68 37.36 42.65 47.09 47.83 48.90 48.66 48.38 46.95 47.82
45.43 46.44 49.55 55.51 54.61 50.91 45.21 43.24 45.65 50.00 49.24 47.50 40.52 43.61 40.49 42.50 42.05 41.28 41.81 45.99 45.02 46.24 43.25 39.76 34.05 43.05 45.32 45.94 45.71 41.33 43.95 33.91 32.63 24.66 24.01 30.95 33.38 35.47 42.80 44.37 47.52 47.69 47.29 47.09 47.34
46.85 48.07 53.46 55.15 53.47 46.75 41.13 43.67 47.65 49.05 48.94 45.97 42.49 41.18 41.34 40.34 41.02 39.52 41.21 45.22 46.70 45.43 45.40 40.71 37.15 37.96 41.74 38.87 36.52 36.91 34.88 37.06 36.91 36.81 30.28 26.93 30.27 41.35 41.97 44.21 45.33 47.13 48.10 48.88 48.99
44.27 44.49 54.13 54.52 45.41 47.34 44.07 47.96 47.52 47.93 48.90 47.18 46.59 45.06 41.75 42.25 40.14 40.27 41.37 43.98 47.29 46.17 40.50 41.23 37.70 33.15 36.18 41.62 43.04 39.03 36.51 37.66 32.35 32.88 36.42 35.38 33.33 43.26 44.30 44.75 46.09 45.76 48.09 49.64 50.29
40.78 44.47 53.22 52.80 41.89 43.53 46.36 47.70 48.11 46.62 46.25 45.37 44.56 45.89 44.40 39.95 36.04 41.55 43.26 46.56 47.65 45.56 41.77 40.06 34.02 27.98 29.46 33.72 38.86 37.37 38.51 38.30 38.64 35.53 33.18 32.33 32.29 46.12 46.12 44.71 46.82 46.36 47.53 48.90 49.65
42.40 42.07 44.97 47.88 46.83 44.35 42.92 43.97 44.65 47.92 45.92 45.83 44.03 44.49 41.40 38.89 39.34 37.84 43.07 45.78 46.71 45.31 48.55 43.13 34.86 31.17 25.71 29.84 33.90 33.54 36.24 37.49 37.71 31.76 32.20 33.49 34.82 39.26 42.15 44.16 45.27 46.31 46.63 46.31 46.68
44.46 42.99 43.08 39.74 41.45 41.10 40.51 42.60 43.76 42.45 45.05 44.70 42.05 42.11 39.50 34.63 36.40 36.70 39.79 41.53 44.50 48.63 41.10 36.90 30.05 33.32 34.85 36.80 37.41 36.12 36.17 36.79 33.27 33.75 30.51 33.73 34.60 38.81 41.15 40.73 42.24 44.30 45.02 44.72 44.21
41.66 41.05 43.78 41.03 44.02 41.80 39.99 41.19 42.34 43.01 42.03 41.37 40.05 41.91 40.03 35.22 35.93 34.29 36.09 36.60 36.54 40.81 37.14 37.02 29.99 34.54 33.45 37.39 36.89 34.90 36.69 36.82 37.36 37.79 36.38 36.65 36.34 42.12 43.94 43.13 42.63 41.78 42.80 43.20 43.49
45.75 46.24 43.43 42.26 41.98 39.62 40.47 41.67 42.53 42.95 43.21 43.67 41.44 39.19 38.32 39.20 40.05 38.98 39.34 39.76 39.04 37.18 35.31 35.01 32.59 29.84 27.69 34.43 33.69 28.77 34.15 35.73 37.27 39.80 38.30 33.63 36.92 42.01 41.41 41.39 39.64 40.31 41.62 41.59 42.71

GFSSW_sfc_wetblb_117.txt.gz
Wetbulb
55.15 55.45 55.70 55.50 55.40 55.06 54.84 53.89 54.37 54.32 54.39 54.27 54.10 53.76 54.16 53.97 53.90 50.97 47.18 49.07 49.75 58.41 59.70 52.00 51.13 49.45 47.46 44.95 47.50 47.79 37.44 36.06 39.44 40.82 43.24 45.32 44.83 47.82 50.10 50.59 52.41 54.21 57.48 59.45 67.50
54.95 54.84 54.89 55.28 54.88 54.89 54.64 54.35 54.02 53.60 53.64 53.70 53.77 53.49 53.78 53.69 49.74 47.38 53.15 57.54 58.34 61.74 50.35 45.61 45.68 45.50 42.47 44.23 45.50 42.66 36.14 39.87 44.71 45.61 44.98 45.77 44.08 45.66 47.92 48.96 50.32 52.69 54.35 58.63 68.30
54.83 54.75 54.50 54.56 54.60 54.77 54.34 54.23 54.19 54.11 53.49 53.17 53.28 53.32 53.60 53.02 45.19 44.72 58.93 59.66 61.00 62.66 49.56 47.66 45.80 45.14 39.75 41.69 43.08 42.36 39.75 44.07 46.13 47.49 47.04 44.60 45.74 46.59 46.45 44.41 47.95 49.53 51.46 52.11 56.05
55.22 55.26 55.00 54.56 54.33 54.53 54.69 53.81 54.16 54.61 54.15 53.92 53.53 53.27 53.43 49.28 34.28 51.23 63.96 60.77 61.97 57.58 49.51 45.70 42.89 40.80 39.26 39.31 42.54 38.58 43.33 45.02 46.27 47.71 46.76 46.41 47.92 47.06 45.79 47.29 50.66 50.39 52.05 50.90 50.86
55.68 55.90 55.74 55.31 54.95 54.50 54.49 54.13 53.81 53.94 54.26 54.15 53.25 52.81 49.42 42.89 41.10 48.10 66.17 62.34 58.59 54.32 47.10 44.21 41.55 41.58 38.70 40.13 40.20 37.91 42.44 44.70 46.15 45.98 45.18 46.45 45.00 45.94 46.03 49.53 50.53 50.22 50.56 49.19 48.93
55.04 55.38 55.74 55.66 55.34 54.72 54.47 54.24 53.73 53.69 54.03 54.43 53.27 52.86 46.61 35.11 46.04 56.06 58.67 57.45 55.35 48.34 46.28 44.08 43.07 45.10 42.38 40.55 40.29 42.16 42.58 43.96 44.29 44.29 43.41 43.71 45.18 45.09 47.76 50.17 49.90 49.28 49.02 48.49 48.47
54.68 55.10 54.83 55.29 55.54 54.46 54.02 53.64 53.70 53.76 53.68 54.05 53.43 52.25 46.75 42.04 54.07 55.99 56.18 53.88 53.67 50.05 46.56 45.78 46.93 46.59 44.30 40.83 43.04 42.64 39.37 41.98 43.25 44.66 43.75 44.73 42.63 43.49 48.50 49.28 48.18 47.76 47.61 48.55 49.47
55.35 55.29 54.74 54.83 55.26 54.61 53.77 53.51 53.41 53.37 53.89 53.97 54.36 51.50 43.25 52.46 52.28 49.35 50.13 48.98 50.00 49.50 48.71 48.03 48.51 45.44 43.87 44.77 43.69 40.00 38.82 34.92 41.70 44.20 45.27 44.80 39.44 45.63 47.89 47.17 46.48 47.38 47.68 47.82 48.45
55.27 54.98 54.68 54.38 54.55 54.58 54.19 53.02 53.19 53.96 55.47 54.39 50.19 45.66 42.89 56.25 54.01 54.34 52.28 48.93 49.21 48.52 48.36 51.15 48.51 45.32 44.87 40.30 37.08 37.42 33.84 35.73 40.45 43.63 43.42 41.46 38.86 44.94 46.87 46.33 45.83 46.40 46.74 47.38 47.71
54.50 54.35 53.25 53.60 53.97 54.17 53.51 52.46 52.54 53.66 53.84 53.78 52.62 44.95 48.35 50.09 52.87 53.72 51.88 51.72 49.37 48.10 47.04 46.11 43.08 40.71 38.62 37.64 31.97 35.20 34.82 36.84 37.62 41.42 41.78 40.23 40.02 43.12 45.46 44.85 45.01 45.72 45.95 46.71 47.59
54.06 53.68 53.41 53.31 53.98 53.62 50.13 47.16 47.80 44.78 47.61 44.18 46.05 47.55 51.82 55.86 53.73 49.44 51.39 50.16 49.91 46.26 40.26 43.34 38.96 36.08 39.63 40.13 40.64 39.53 37.44 37.06 39.98 42.90 40.11 39.53 39.25 42.25 44.32 42.67 42.30 43.07 44.73 45.93 46.54
54.72 54.58 53.88 53.88 53.76 52.90 50.23 44.14 49.35 50.18 44.28 48.88 48.93 49.70 52.51 55.02 50.56 48.29 50.07 44.87 43.94 38.57 41.07 39.43 36.43 41.51 42.67 42.04 40.71 39.29 36.61 36.63 39.86 42.30 39.92 39.46 39.66 41.85 43.19 43.30 42.47 42.94 43.99 45.36 45.42
54.35 54.11 53.51 53.58 53.08 49.76 46.73 45.99 50.79 50.41 42.84 47.85 49.94 50.08 51.00 53.49 50.26 45.40 46.46 46.56 42.44 38.56 38.29 36.59 40.62 44.60 42.66 40.64 39.90 38.56 36.29 36.90 37.85 41.50 40.62 38.90 36.66 39.20 42.96 43.91 44.85 44.95 44.81 45.36 46.03
53.74 53.41 53.25 53.30 47.93 46.95 45.35 49.97 50.01 49.08 40.75 44.62 47.37 50.77 52.27 49.74 46.18 48.06 47.52 46.95 43.62 39.52 39.50 38.39 42.55 42.27 40.25 40.22 40.64 35.55 41.90 42.23 40.13 36.97 31.84 38.15 29.00 35.58 39.45 41.41 43.00 44.15 44.03 44.51 45.14
53.44 53.23 53.14 53.05 45.33 44.59 50.90 49.25 48.94 47.77 32.74 47.01 48.86 54.71 50.82 46.86 47.21 47.17 48.81 47.76 42.82 42.21 40.83 38.63 40.13 40.28 39.11 40.54 42.50 39.04 42.80 40.98 40.15 35.75 32.35 33.69 30.14 33.87 37.75 39.43 40.62 44.07 45.22 46.22 48.29
53.46 52.96 53.11 48.96 48.47 47.63 50.14 49.95 47.90 39.35 34.95 44.33 47.64 46.01 45.31 46.67 47.70 47.76 46.22 48.43 47.12 42.16 41.14 40.67 44.65 43.15 42.18 44.60 44.49 45.05 39.98 37.52 34.66 32.17 27.18 32.21 31.94 30.42 35.74 37.97 43.76 46.75 46.80 47.32 46.64
53.26 52.86 51.19 50.23 46.20 50.40 49.55 48.33 37.81 34.30 47.61 45.08 42.97 45.38 45.13 44.34 45.59 46.48 44.68 41.69 38.36 34.03 33.16 38.69 39.47 42.34 45.02 39.94 44.02 40.24 33.34 26.94 25.65 25.55 26.22 35.23 32.38 33.92 40.04 45.70 46.10 45.21 45.69 46.34 47.01
51.91 50.74 49.30 49.92 49.16 50.24 48.49 42.57 33.87 42.87 44.57 49.99 45.56 44.04 41.03 43.81 43.92 44.66 42.87 40.22 43.46 40.66 36.27 33.91 33.00 41.52 46.00 42.18 38.49 37.29 34.30 27.83 23.25 23.59 27.09 35.93 30.21 35.75 45.18 47.18 46.66 47.04 45.78 46.52 45.96
50.08 46.52 47.09 49.76 51.05 49.03 46.09 36.50 38.89 43.91 48.16 46.79 45.56 41.01 41.43 44.92 42.18 42.17 39.87 39.50 43.38 42.58 37.14 35.42 37.87 46.18 46.29 46.62 44.76 39.52 34.78 36.65 31.46 31.37 28.57 31.11 35.66 41.02 45.17 45.81 47.00 47.23 47.06 46.24 45.77
44.98 45.87 48.57 53.33 53.02 50.51 44.62 41.27 44.35 48.70 49.77 47.13 40.61 43.18 39.56 41.95 41.02 39.80 40.29 44.55 43.51 44.81 42.06 39.78 33.88 41.75 44.64 45.31 44.00 40.28 42.53 33.62 31.92 25.30 22.91 28.74 31.46 33.03 40.12 42.62 45.56 45.60 46.18 47.10 48.45
45.52 47.11 52.00 53.94 52.01 46.23 42.39 44.40 47.40 50.86 48.62 44.50 41.20 39.97 40.46 39.35 40.09 38.46 40.08 43.31 45.11 43.48 43.41 39.17 35.88 36.34 39.97 37.18 35.35 35.91 33.53 34.79 33.74 31.72 24.95 24.78 29.26 38.28 40.40 41.60 42.39 43.94 46.52 48.61 50.31
42.56 43.44 52.80 52.68 44.38 45.07 43.50 47.67 47.45 46.27 47.54 45.76 44.90 43.26 40.73 41.22 39.39 39.33 40.32 42.75 46.27 44.88 39.29 40.23 36.17 31.90 34.75 39.71 41.10 37.34 35.49 34.66 26.91 28.02 34.23 34.94 32.11 42.78 41.92 41.03 41.63 42.83 44.59 45.33 46.58
39.99 41.95 51.68 51.37 40.18 41.67 47.52 47.03 47.19 45.46 44.62 43.86 42.74 44.36 43.11 39.21 36.37 40.88 42.32 45.22 46.60 44.35 40.60 39.30 32.69 26.94 27.93 32.34 37.38 35.66 36.99 37.10 34.71 32.48 30.46 26.07 29.61 42.99 43.00 43.30 43.83 44.00 44.81 45.32 46.61
41.42 41.20 43.03 46.15 45.44 41.70 42.14 42.74 43.48 46.63 44.70 44.19 42.21 43.24 40.17 37.75 38.78 37.14 40.85 43.99 45.74 44.63 47.64 42.87 33.75 29.96 24.83 27.46 32.39 31.41 34.75 36.02 33.71 29.54 27.49 30.66 32.63 37.31 39.88 40.79 42.36 43.27 43.66 43.10 43.94
42.80 41.01 41.73 38.60 40.24 40.30 41.22 40.90 42.50 41.16 43.31 43.21 40.58 40.64 38.11 33.74 34.97 34.89 38.54 40.70 43.46 45.46 39.44 36.02 29.87 32.93 33.65 35.25 35.93 34.93 34.92 34.67 31.35 31.99 28.64 31.12 32.91 36.39 37.62 38.83 40.68 40.90 41.85 42.12 42.70
40.10 39.18 41.84 40.41 41.87 40.81 39.68 39.93 41.36 41.47 41.25 39.98 38.59 39.35 38.00 34.51 34.70 33.73 35.25 35.43 35.62 40.35 35.77 35.19 29.26 32.31 32.11 36.11 35.64 33.48 35.45 35.60 34.93 35.26 34.44 34.54 33.93 38.85 40.44 39.66 38.83 39.38 40.60 40.67 41.27
44.30 45.14 41.70 40.59 40.52 39.51 39.60 41.22 42.05 41.38 42.55 42.69 40.90 38.22 36.99 38.06 39.11 38.42 38.12 38.73 38.48 36.67 34.34 33.72 31.60 28.80 26.71 33.39 32.45 27.77 32.16 33.67 34.47 36.50 35.76 32.29 36.09 39.95 40.41 40.80 38.98 38.09 40.24 41.76 41.39

GFSSW_sfc_wetblb_120.txt.gz
Wetbulb
55.41 55.27 55.14 55.24 55.16 55.05 55.09 55.21 54.21 53.97 54.92 54.98 54.86 54.76 54.48 54.28 53.45 50.45 45.71 48.36 50.92 57.45 60.57 53.72 51.34 49.95 47.83 45.66 46.51 46.45 37.86 35.28 37.71 40.54 41.65 44.65 43.95 46.79 48.27 49.03 51.09 53.11 57.12 61.07 69.00
55.61 55.30 55.02 54.90 54.89 54.76 54.78 54.13 55.00 54.68 53.70 54.05 54.12 53.96 53.76 53.72 49.19 45.64 51.31 56.66 57.49 59.93 48.02 48.83 46.50 47.38 43.76 44.06 44.58 43.44 36.54 39.77 43.73 43.49 41.69 45.48 45.14 45.31 46.55 46.84 49.62 51.87 56.38 67.43 68.59
55.51 55.76 55.95 55.49 55.00 54.60 54.64 53.96 54.15 54.65 54.53 54.29 53.47 53.63 53.50 52.54 44.10 43.15 57.03 57.67 59.09 60.12 47.30 47.63 47.07 45.26 41.87 42.10 42.93 40.82 39.12 43.89 45.49 46.82 44.49 43.83 45.36 46.41 44.99 44.31 47.83 48.96 51.58 60.12 64.90
55.92 55.80 56.35 56.13 55.77 55.06 54.33 53.85 53.70 54.07 54.82 54.34 53.96 53.17 53.26 49.03 32.48 46.69 62.73 60.58 59.97 57.79 47.75 46.24 44.09 42.03 40.53 40.07 42.83 39.94 43.42 44.91 45.91 46.99 46.00 44.57 45.40 45.09 45.10 46.42 48.69 49.38 50.56 52.04 62.06
55.62 55.74 55.81 55.93 56.09 55.19 54.57 54.06 53.63 53.46 53.42 54.19 53.39 52.34 49.71 42.03 40.71 46.42 64.87 60.91 56.64 54.36 46.32 44.56 42.31 41.65 40.34 41.48 42.42 40.27 43.14 44.71 45.89 45.39 44.76 45.40 43.86 44.32 44.65 48.14 49.15 48.87 49.48 49.34 51.95
55.47 55.21 55.23 55.38 55.64 55.64 54.74 54.11 53.33 53.09 53.19 53.91 53.28 52.02 46.20 35.65 45.96 54.78 60.19 55.86 54.76 48.84 45.33 44.80 43.22 45.16 42.50 41.23 41.21 42.34 42.97 43.94 43.73 43.66 43.54 42.97 44.05 44.58 46.17 48.62 48.63 48.50 48.05 47.94 47.94
55.65 55.12 55.14 55.06 55.17 55.33 55.30 53.96 53.40 52.83 53.11 53.70 53.82 51.03 46.06 41.21 51.10 55.04 54.85 51.07 52.61 48.73 45.77 45.32 46.36 45.83 45.19 40.29 41.36 42.66 40.37 42.13 42.41 43.55 43.47 44.36 42.78 42.14 47.69 48.56 47.50 47.10 47.33 47.49 47.87
55.04 54.79 54.51 54.78 54.80 54.93 54.73 53.95 52.78 52.77 52.95 53.68 54.66 50.03 42.07 50.86 51.11 49.74 49.31 48.36 50.59 48.51 47.61 47.12 46.44 44.24 43.12 43.33 42.51 39.72 39.12 35.87 41.94 43.83 44.73 44.77 39.00 45.41 47.45 47.02 45.81 46.47 46.50 47.09 47.27
55.02 54.20 53.81 53.84 54.23 54.35 54.59 53.83 53.18 53.34 53.72 54.13 50.84 47.16 40.56 54.35 52.66 53.57 49.78 47.38 48.87 47.49 47.52 49.39 46.18 43.10 43.18 39.11 35.89 36.90 32.97 35.25 40.00 43.41 42.88 40.92 37.10 43.84 45.26 44.76 44.39 44.79 45.66 46.49 46.68
54.54 53.52 53.94 53.89 54.10 54.08 54.02 52.76 52.63 54.22 53.68 52.64 51.65 44.01 46.63 48.56 53.57 51.60 50.50 49.23 46.52 45.57 44.79 43.22 42.15 39.72 37.30 36.40 30.94 33.83 33.66 36.29 37.48 40.92 40.22 37.13 38.70 42.62 43.85 43.87 44.08 44.33 44.65 45.30 46.46
55.06 54.77 53.30 53.89 53.93 53.78 50.49 48.98 45.82 44.10 47.73 43.13 44.24 45.62 49.78 52.93 52.47 49.43 51.33 49.42 47.55 43.81 38.82 41.43 37.60 35.53 38.65 40.18 40.30 38.82 36.94 36.57 39.18 41.72 39.05 38.16 38.12 41.44 43.25 42.56 43.20 44.36 43.25 44.15 45.74
54.61 54.51 53.24 53.89 53.91 53.61 50.30 43.52 47.93 46.59 42.78 47.13 47.41 48.15 51.06 52.31 48.64 47.05 50.54 44.92 42.87 37.76 40.16 38.38 35.32 40.95 42.29 41.55 40.07 38.45 36.03 35.91 39.17 41.37 39.10 38.59 38.94 41.15 42.53 42.52 43.01 43.72 43.85 43.40 44.67
54.04 54.00 53.23 53.75 53.70 50.71 47.26 46.07 50.11 48.70 40.70 45.76 47.34 46.41 48.86 50.94 48.74 44.82 47.23 44.52 40.96 36.77 36.60 35.95 39.32 43.16 41.79 39.49 38.67 36.85 35.24 36.10 37.28 40.03 39.48 38.12 36.13 38.14 42.29 42.61 43.92 44.24 44.45 44.83 45.38
53.66 53.47 53.43 53.46 48.07 47.53 45.60 50.15 50.51 49.31 39.64 43.40 46.18 48.45 50.65 50.16 45.70 49.45 47.70 47.09 41.15 38.04 37.92 36.71 41.14 41.29 39.30 38.91 39.55 33.56 40.58 40.84 39.43 36.18 31.52 36.70 28.73 35.01 38.64 40.61 41.89 43.88 45.00 45.23 45.52
52.73 53.20 53.37 53.23 47.42 43.99 49.82 48.67 48.61 46.75 30.83 46.10 46.66 53.17 50.16 45.20 46.11 42.52 47.52 46.70 41.32 40.04 39.07 36.82 38.19 38.81 37.45 39.26 41.16 38.46 41.55 39.42 39.01 34.82 31.73 32.04 29.62 33.92 37.01 38.42 40.40 45.02 46.03 46.27 46.47
52.09 52.58 52.84 49.84 49.74 48.61 50.12 49.80 47.42 38.55 33.60 42.17 47.06 46.67 44.49 45.12 46.01 45.25 44.23 47.42 45.62 40.73 39.53 39.29 42.92 41.62 41.26 43.54 43.14 43.50 38.49 36.40 33.54 31.33 26.27 30.96 31.09 30.34 34.53 37.72 43.48 45.09 44.72 45.45 45.57
52.01 51.93 50.90 49.87 46.65 50.88 49.00 46.90 37.79 34.00 47.22 43.54 42.09 44.57 44.01 42.56 44.24 43.85 40.82 39.24 37.04 33.34 32.09 37.14 37.73 40.78 43.25 38.65 42.27 38.47 32.71 26.33 25.67 25.26 25.82 33.11 31.52 32.85 38.34 44.23 44.21 42.96 43.87 44.49 44.82
51.00 50.72 49.33 49.97 49.30 50.31 47.56 42.82 33.39 42.59 43.38 48.87 44.65 44.33 42.07 43.72 42.97 43.33 40.02 37.04 39.66 38.27 33.42 32.20 30.47 39.90 44.39 40.01 37.76 35.96 33.29 27.09 22.83 23.03 25.88 34.09 29.39 34.03 43.96 44.98 45.69 46.30 45.75 46.67 45.32
49.72 46.06 47.66 49.40 51.11 49.05 45.28 35.79 37.41 43.57 46.72 46.25 43.92 40.07 41.07 44.47 42.84 42.30 40.57 39.90 42.84 41.52 36.57 34.13 35.14 43.67 44.98 44.14 41.72 36.95 32.87 34.22 29.66 29.98 27.93 29.88 34.13 40.45 43.71 44.80 45.70 46.38 47.33 46.88 47.36
45.26 45.51 48.54 52.36 51.92 49.29 43.20 40.42 44.01 48.11 48.77 47.72 40.27 42.54 39.27 40.39 40.16 39.74 40.29 44.59 43.79 44.88 43.48 40.36 34.43 41.94 44.04 43.51 42.82 38.88 40.86 32.54 30.50 24.11 23.37 27.49 30.17 31.72 39.60 40.99 42.93 42.59 43.04 45.32 47.23
42.60 45.56 50.74 52.45 51.45 47.71 39.88 43.42 46.30 49.27 49.71 45.43 42.16 40.21 39.73 39.71 40.46 38.28 39.70 42.21 44.13 42.62 43.16 39.25 35.92 36.56 39.69 36.81 35.01 35.59 32.81 33.80 32.81 29.79 24.21 24.17 28.27 37.23 40.11 41.32 41.02 41.05 42.56 43.51 45.43
40.40 42.20 50.95 51.38 43.52 45.71 42.53 46.44 47.54 48.80 48.80 46.70 44.02 43.48 41.75 40.23 39.37 38.60 39.62 41.78 45.19 43.52 38.25 38.45 35.23 31.36 33.61 37.46 39.26 36.22 34.14 32.93 26.89 27.26 30.89 32.89 30.54 41.42 40.93 40.78 41.30 41.12 42.97 44.15 44.72
39.95 41.48 50.29 50.13 41.20 42.86 46.75 47.03 47.59 45.20 44.29 43.17 41.53 42.95 41.70 40.19 37.43 40.86 41.59 44.41 45.76 43.49 39.63 38.63 31.49 26.28 26.45 32.54 36.36 34.29 35.53 34.90 32.73 30.05 30.75 26.93 28.34 41.83 41.75 40.79 40.85 40.89 42.38 43.66 44.52
42.08 41.75 42.44 45.68 44.59 41.53 44.05 43.99 42.13 45.62 42.85 42.60 41.03 41.74 39.03 36.82 36.85 37.76 39.81 43.24 44.86 43.96 47.19 42.05 32.72 29.39 24.54 25.67 31.66 30.66 33.59 34.62 31.38 29.11 26.53 28.03 30.92 36.63 39.22 39.67 40.96 40.89 41.52 41.14 42.25
42.97 39.96 40.81 38.20 38.50 39.35 40.49 40.19 41.07 40.11 42.61 42.50 39.39 39.33 37.63 33.45 34.27 34.30 38.11 40.10 43.41 44.29 38.68 35.87 29.70 31.02 31.87 33.88 34.34 33.28 33.33 33.37 31.26 30.84 27.84 29.84 32.39 34.73 37.11 38.36 39.19 40.24 41.28 41.40 41.42
39.66 38.64 41.85 40.44 41.22 39.67 39.23 40.83 40.75 40.08 40.50 39.94 37.90 38.33 36.80 34.20 35.38 34.20 35.36 35.06 35.96 38.37 34.79 34.04 29.39 31.41 30.78 34.45 34.19 32.66 34.23 34.37 33.75 33.74 32.51 33.54 32.85 39.01 39.89 38.94 38.63 39.50 40.40 40.70 40.88
41.95 42.63 40.49 40.49 40.30 38.32 38.34 40.87 41.23 40.24 41.19 41.84 40.18 37.74 36.40 37.16 38.12 37.41 37.68 37.49 38.16 36.40 33.73 32.40 31.08 28.57 26.70 31.74 31.32 26.73 30.81 32.49 33.10 34.21 33.51 29.47 33.65 39.72 39.45 39.68 38.70 39.00 40.35 40.89 40.81